<?xml version="1.0" encoding="UTF-8" standalone="no" ?>
<gpx xmlns="http://www.topografix.com/GPX/1/1" xmlns:xsi="http://www.w3.org/2001/XMLSchema-instance" xsi:schemaLocation="http://www.topografix.com/GPX/1/1 http://www.topografix.com/GPX/1/1/gpx.xsd" version="1.1" creator="VisuGPX - https://www.visugpx.com">
  <metadata>
    <name>La Charité sur Loire </name>
    <desc><![CDATA[Superbe ville : La Charité sur Loire ]]></desc>
  </metadata>
  <trk>
    <name><![CDATA[La Charité sur Loire _1]]></name>
    <trkseg>
      <trkpt lat="47.17849" lon="3.01703">
        <ele>172.87396240234</ele>
        <time>2016-04-06T11:49:14.000Z</time>
      </trkpt>
      <trkpt lat="47.17849" lon="3.01702">
        <ele>172.80769348145</ele>
        <time>2016-04-06T11:49:36.000Z</time>
      </trkpt>
      <trkpt lat="47.17847" lon="3.01701">
        <ele>172.68998718262</ele>
        <time>2016-04-06T11:49:37.000Z</time>
      </trkpt>
      <trkpt lat="47.17847" lon="3.01698">
        <ele>172.56507873535</ele>
        <time>2016-04-06T11:49:38.000Z</time>
      </trkpt>
      <trkpt lat="47.17846" lon="3.01695">
        <ele>172.43788146973</ele>
        <time>2016-04-06T11:49:38.000Z</time>
      </trkpt>
      <trkpt lat="47.17846" lon="3.01692">
        <ele>172.2099609375</ele>
        <time>2016-04-06T11:49:38.000Z</time>
      </trkpt>
      <trkpt lat="47.17847" lon="3.01689">
        <ele>172.0036315918</ele>
        <time>2016-04-06T11:49:39.000Z</time>
      </trkpt>
      <trkpt lat="47.17847" lon="3.01686">
        <ele>171.84121704102</ele>
        <time>2016-04-06T11:49:39.000Z</time>
      </trkpt>
      <trkpt lat="47.17848" lon="3.01682">
        <ele>171.69702148438</ele>
        <time>2016-04-06T11:49:39.000Z</time>
      </trkpt>
      <trkpt lat="47.17848" lon="3.01678">
        <ele>171.57205200195</ele>
        <time>2016-04-06T11:49:42.000Z</time>
      </trkpt>
      <trkpt lat="47.17849" lon="3.01673">
        <ele>171.46882629395</ele>
        <time>2016-04-06T11:49:45.000Z</time>
      </trkpt>
      <trkpt lat="47.1785" lon="3.0167">
        <ele>171.36273193359</ele>
        <time>2016-04-06T11:49:48.000Z</time>
      </trkpt>
      <trkpt lat="47.17848" lon="3.01666">
        <ele>171.15800476074</ele>
        <time>2016-04-06T11:49:51.000Z</time>
      </trkpt>
      <trkpt lat="47.17847" lon="3.01664">
        <ele>170.95286560059</ele>
        <time>2016-04-06T11:49:53.000Z</time>
      </trkpt>
      <trkpt lat="47.17847" lon="3.01662">
        <ele>170.75866699219</ele>
        <time>2016-04-06T11:50:09.000Z</time>
      </trkpt>
      <trkpt lat="47.17846" lon="3.01659">
        <ele>170.54586791992</ele>
        <time>2016-04-06T11:50:10.000Z</time>
      </trkpt>
      <trkpt lat="47.17845" lon="3.01657">
        <ele>170.30453491211</ele>
        <time>2016-04-06T11:50:11.000Z</time>
      </trkpt>
      <trkpt lat="47.17845" lon="3.01657">
        <ele>170.30453491211</ele>
        <time>2016-04-06T11:51:26.000Z</time>
      </trkpt>
      <trkpt lat="47.17844" lon="3.01653">
        <ele>170.12222290039</ele>
        <time>2016-04-06T11:51:29.000Z</time>
      </trkpt>
      <trkpt lat="47.17844" lon="3.0165">
        <ele>169.95114135742</ele>
        <time>2016-04-06T11:51:29.000Z</time>
      </trkpt>
      <trkpt lat="47.17844" lon="3.01647">
        <ele>169.79507446289</ele>
        <time>2016-04-06T11:51:29.000Z</time>
      </trkpt>
      <trkpt lat="47.17844" lon="3.01642">
        <ele>169.67668151855</ele>
        <time>2016-04-06T11:51:30.000Z</time>
      </trkpt>
      <trkpt lat="47.17844" lon="3.01636">
        <ele>169.5640411377</ele>
        <time>2016-04-06T11:51:30.000Z</time>
      </trkpt>
      <trkpt lat="47.17844" lon="3.01631">
        <ele>169.48974609375</ele>
        <time>2016-04-06T11:51:30.000Z</time>
      </trkpt>
      <trkpt lat="47.17844" lon="3.01623">
        <ele>169.41891479492</ele>
        <time>2016-04-06T11:51:31.000Z</time>
      </trkpt>
      <trkpt lat="47.17844" lon="3.01619">
        <ele>169.34323120117</ele>
        <time>2016-04-06T11:51:31.000Z</time>
      </trkpt>
      <trkpt lat="47.17844" lon="3.01616">
        <ele>169.25736999512</ele>
        <time>2016-04-06T11:51:31.000Z</time>
      </trkpt>
      <trkpt lat="47.17846" lon="3.01613">
        <ele>169.27839660645</ele>
        <time>2016-04-06T11:51:31.000Z</time>
      </trkpt>
      <trkpt lat="47.1785" lon="3.01613">
        <ele>169.4557800293</ele>
        <time>2016-04-06T11:51:32.000Z</time>
      </trkpt>
      <trkpt lat="47.17852" lon="3.01614">
        <ele>169.73809814453</ele>
        <time>2016-04-06T11:51:32.000Z</time>
      </trkpt>
      <trkpt lat="47.17855" lon="3.01613">
        <ele>170.1284942627</ele>
        <time>2016-04-06T11:51:32.000Z</time>
      </trkpt>
      <trkpt lat="47.17856" lon="3.01613">
        <ele>170.54043579102</ele>
        <time>2016-04-06T11:51:32.000Z</time>
      </trkpt>
      <trkpt lat="47.17859" lon="3.01614">
        <ele>170.97859191895</ele>
        <time>2016-04-06T11:51:33.000Z</time>
      </trkpt>
      <trkpt lat="47.17861" lon="3.01614">
        <ele>171.37243652344</ele>
        <time>2016-04-06T11:51:33.000Z</time>
      </trkpt>
      <trkpt lat="47.17862" lon="3.01614">
        <ele>171.71061706543</ele>
        <time>2016-04-06T11:51:33.000Z</time>
      </trkpt>
      <trkpt lat="47.17866" lon="3.01616">
        <ele>172.08427429199</ele>
        <time>2016-04-06T11:51:33.000Z</time>
      </trkpt>
      <trkpt lat="47.17867" lon="3.01618">
        <ele>172.50881958008</ele>
        <time>2016-04-06T11:51:33.000Z</time>
      </trkpt>
      <trkpt lat="47.1787" lon="3.0162">
        <ele>172.90780639648</ele>
        <time>2016-04-06T11:51:34.000Z</time>
      </trkpt>
      <trkpt lat="47.17871" lon="3.01623">
        <ele>173.26203918457</ele>
        <time>2016-04-06T11:51:34.000Z</time>
      </trkpt>
      <trkpt lat="47.17872" lon="3.01627">
        <ele>173.64248657227</ele>
        <time>2016-04-06T11:51:34.000Z</time>
      </trkpt>
      <trkpt lat="47.17873" lon="3.01629">
        <ele>173.94194030762</ele>
        <time>2016-04-06T11:51:35.000Z</time>
      </trkpt>
      <trkpt lat="47.17874" lon="3.01631">
        <ele>174.22653198242</ele>
        <time>2016-04-06T11:51:35.000Z</time>
      </trkpt>
      <trkpt lat="47.17875" lon="3.01631">
        <ele>174.45071411133</ele>
        <time>2016-04-06T11:51:35.000Z</time>
      </trkpt>
      <trkpt lat="47.17876" lon="3.01632">
        <ele>174.66722106934</ele>
        <time>2016-04-06T11:51:35.000Z</time>
      </trkpt>
      <trkpt lat="47.17877" lon="3.01633">
        <ele>174.87344360352</ele>
        <time>2016-04-06T11:51:36.000Z</time>
      </trkpt>
      <trkpt lat="47.17878" lon="3.01633">
        <ele>175.07521057129</ele>
        <time>2016-04-06T11:51:36.000Z</time>
      </trkpt>
      <trkpt lat="47.17879" lon="3.01634">
        <ele>175.27154541016</ele>
        <time>2016-04-06T11:51:36.000Z</time>
      </trkpt>
      <trkpt lat="47.17881" lon="3.01636">
        <ele>175.5153503418</ele>
        <time>2016-04-06T11:51:36.000Z</time>
      </trkpt>
      <trkpt lat="47.17884" lon="3.01638">
        <ele>175.83728027344</ele>
        <time>2016-04-06T11:51:36.000Z</time>
      </trkpt>
      <trkpt lat="47.17886" lon="3.01639">
        <ele>176.17776489258</ele>
        <time>2016-04-06T11:51:37.000Z</time>
      </trkpt>
      <trkpt lat="47.17887" lon="3.01642">
        <ele>176.51211547852</ele>
        <time>2016-04-06T11:51:37.000Z</time>
      </trkpt>
      <trkpt lat="47.17888" lon="3.01645">
        <ele>176.85678100586</ele>
        <time>2016-04-06T11:51:37.000Z</time>
      </trkpt>
      <trkpt lat="47.17889" lon="3.01647">
        <ele>177.17561340332</ele>
        <time>2016-04-06T11:51:38.000Z</time>
      </trkpt>
      <trkpt lat="47.17889" lon="3.01652">
        <ele>177.39167785645</ele>
        <time>2016-04-06T11:51:41.000Z</time>
      </trkpt>
      <trkpt lat="47.17889" lon="3.01656">
        <ele>177.57388305664</ele>
        <time>2016-04-06T11:51:43.000Z</time>
      </trkpt>
      <trkpt lat="47.17889" lon="3.0166">
        <ele>177.71572875977</ele>
        <time>2016-04-06T11:51:46.000Z</time>
      </trkpt>
      <trkpt lat="47.17889" lon="3.01662">
        <ele>177.79965209961</ele>
        <time>2016-04-06T11:51:48.000Z</time>
      </trkpt>
      <trkpt lat="47.17889" lon="3.01666">
        <ele>177.87417602539</ele>
        <time>2016-04-06T11:51:51.000Z</time>
      </trkpt>
      <trkpt lat="47.17889" lon="3.01671">
        <ele>177.9672088623</ele>
        <time>2016-04-06T11:51:54.000Z</time>
      </trkpt>
      <trkpt lat="47.17889" lon="3.01672">
        <ele>178.04318237305</ele>
        <time>2016-04-06T11:51:57.000Z</time>
      </trkpt>
      <trkpt lat="47.1789" lon="3.01673">
        <ele>178.17276000977</ele>
        <time>2016-04-06T11:51:59.000Z</time>
      </trkpt>
      <trkpt lat="47.17891" lon="3.01676">
        <ele>178.35516357422</ele>
        <time>2016-04-06T11:52:02.000Z</time>
      </trkpt>
      <trkpt lat="47.17892" lon="3.0168">
        <ele>178.59397888184</ele>
        <time>2016-04-06T11:52:05.000Z</time>
      </trkpt>
      <trkpt lat="47.17893" lon="3.01683">
        <ele>178.84266662598</ele>
        <time>2016-04-06T11:52:07.000Z</time>
      </trkpt>
      <trkpt lat="47.17894" lon="3.01686">
        <ele>179.13162231445</ele>
        <time>2016-04-06T11:52:10.000Z</time>
      </trkpt>
      <trkpt lat="47.17896" lon="3.01688">
        <ele>179.44248962402</ele>
        <time>2016-04-06T11:52:12.000Z</time>
      </trkpt>
      <trkpt lat="47.17897" lon="3.01689">
        <ele>179.7594909668</ele>
        <time>2016-04-06T11:52:14.000Z</time>
      </trkpt>
      <trkpt lat="47.17898" lon="3.01692">
        <ele>180.05854797363</ele>
        <time>2016-04-06T11:52:17.000Z</time>
      </trkpt>
      <trkpt lat="47.17899" lon="3.01695">
        <ele>180.35690307617</ele>
        <time>2016-04-06T11:52:19.000Z</time>
      </trkpt>
      <trkpt lat="47.17899" lon="3.01696">
        <ele>180.62942504883</ele>
        <time>2016-04-06T11:52:21.000Z</time>
      </trkpt>
      <trkpt lat="47.179" lon="3.01696">
        <ele>180.86938476562</ele>
        <time>2016-04-06T11:52:24.000Z</time>
      </trkpt>
      <trkpt lat="47.17902" lon="3.01696">
        <ele>181.09376525879</ele>
        <time>2016-04-06T11:52:26.000Z</time>
      </trkpt>
      <trkpt lat="47.17903" lon="3.01697">
        <ele>181.30155944824</ele>
        <time>2016-04-06T11:52:29.000Z</time>
      </trkpt>
      <trkpt lat="47.17904" lon="3.017">
        <ele>181.53981018066</ele>
        <time>2016-04-06T11:52:31.000Z</time>
      </trkpt>
      <trkpt lat="47.17907" lon="3.01705">
        <ele>181.85864257812</ele>
        <time>2016-04-06T11:52:34.000Z</time>
      </trkpt>
      <trkpt lat="47.17908" lon="3.01706">
        <ele>182.18431091309</ele>
        <time>2016-04-06T11:52:36.000Z</time>
      </trkpt>
      <trkpt lat="47.17909" lon="3.01709">
        <ele>182.53466796875</ele>
        <time>2016-04-06T11:52:39.000Z</time>
      </trkpt>
      <trkpt lat="47.17912" lon="3.01713">
        <ele>182.94189453125</ele>
        <time>2016-04-06T11:52:42.000Z</time>
      </trkpt>
      <trkpt lat="47.17913" lon="3.01715">
        <ele>183.35340881348</ele>
        <time>2016-04-06T11:52:45.000Z</time>
      </trkpt>
      <trkpt lat="47.17915" lon="3.01716">
        <ele>183.73333740234</ele>
        <time>2016-04-06T11:52:48.000Z</time>
      </trkpt>
      <trkpt lat="47.17916" lon="3.01717">
        <ele>184.0979309082</ele>
        <time>2016-04-06T11:52:51.000Z</time>
      </trkpt>
      <trkpt lat="47.17917" lon="3.01717">
        <ele>184.42102050781</ele>
        <time>2016-04-06T11:52:54.000Z</time>
      </trkpt>
      <trkpt lat="47.17918" lon="3.01719">
        <ele>184.65678405762</ele>
        <time>2016-04-06T11:52:56.000Z</time>
      </trkpt>
      <trkpt lat="47.17919" lon="3.0172">
        <ele>184.8405456543</ele>
        <time>2016-04-06T11:52:59.000Z</time>
      </trkpt>
      <trkpt lat="47.17921" lon="3.01722">
        <ele>184.99319458008</ele>
        <time>2016-04-06T11:53:02.000Z</time>
      </trkpt>
      <trkpt lat="47.17923" lon="3.01724">
        <ele>185.15130615234</ele>
        <time>2016-04-06T11:53:05.000Z</time>
      </trkpt>
      <trkpt lat="47.17924" lon="3.01727">
        <ele>185.30741882324</ele>
        <time>2016-04-06T11:53:07.000Z</time>
      </trkpt>
      <trkpt lat="47.17925" lon="3.01728">
        <ele>185.47611999512</ele>
        <time>2016-04-06T11:53:10.000Z</time>
      </trkpt>
      <trkpt lat="47.17928" lon="3.01728">
        <ele>185.6467590332</ele>
        <time>2016-04-06T11:53:12.000Z</time>
      </trkpt>
      <trkpt lat="47.17929" lon="3.01728">
        <ele>185.79341125488</ele>
        <time>2016-04-06T11:53:15.000Z</time>
      </trkpt>
      <trkpt lat="47.17929" lon="3.01729">
        <ele>185.91067504883</ele>
        <time>2016-04-06T11:53:18.000Z</time>
      </trkpt>
      <trkpt lat="47.17933" lon="3.01734">
        <ele>186.09036254883</ele>
        <time>2016-04-06T11:53:34.000Z</time>
      </trkpt>
      <trkpt lat="47.17934" lon="3.01734">
        <ele>186.25845336914</ele>
        <time>2016-04-06T11:53:36.000Z</time>
      </trkpt>
      <trkpt lat="47.17934" lon="3.01733">
        <ele>186.39347839355</ele>
        <time>2016-04-06T11:53:44.000Z</time>
      </trkpt>
      <trkpt lat="47.17934" lon="3.01733">
        <ele>186.39347839355</ele>
        <time>2016-04-06T11:54:04.000Z</time>
      </trkpt>
      <trkpt lat="47.17933" lon="3.01732">
        <ele>186.48385620117</ele>
        <time>2016-04-06T11:54:05.000Z</time>
      </trkpt>
      <trkpt lat="47.17932" lon="3.01733">
        <ele>186.54780578613</ele>
        <time>2016-04-06T11:54:07.000Z</time>
      </trkpt>
      <trkpt lat="47.1793" lon="3.01733">
        <ele>186.49809265137</ele>
        <time>2016-04-06T11:54:10.000Z</time>
      </trkpt>
      <trkpt lat="47.17928" lon="3.01732">
        <ele>186.39791870117</ele>
        <time>2016-04-06T11:54:12.000Z</time>
      </trkpt>
      <trkpt lat="47.17927" lon="3.0173">
        <ele>186.27487182617</ele>
        <time>2016-04-06T11:54:14.000Z</time>
      </trkpt>
      <trkpt lat="47.17927" lon="3.0173">
        <ele>186.27487182617</ele>
        <time>2016-04-06T11:54:34.000Z</time>
      </trkpt>
      <trkpt lat="47.17926" lon="3.01732">
        <ele>186.18075561523</ele>
        <time>2016-04-06T11:54:40.000Z</time>
      </trkpt>
      <trkpt lat="47.17926" lon="3.01731">
        <ele>186.09158325195</ele>
        <time>2016-04-06T11:54:54.000Z</time>
      </trkpt>
      <trkpt lat="47.17926" lon="3.01732">
        <ele>186.02951049805</ele>
        <time>2016-04-06T11:55:05.000Z</time>
      </trkpt>
      <trkpt lat="47.17925" lon="3.01735">
        <ele>186.01025390625</ele>
        <time>2016-04-06T11:55:07.000Z</time>
      </trkpt>
      <trkpt lat="47.17925" lon="3.01737">
        <ele>186.03135681152</ele>
        <time>2016-04-06T11:55:12.000Z</time>
      </trkpt>
      <trkpt lat="47.17926" lon="3.01743">
        <ele>186.10273742676</ele>
        <time>2016-04-06T11:55:15.000Z</time>
      </trkpt>
      <trkpt lat="47.17926" lon="3.01748">
        <ele>186.22082519531</ele>
        <time>2016-04-06T11:55:18.000Z</time>
      </trkpt>
      <trkpt lat="47.17925" lon="3.01754">
        <ele>186.38400268555</ele>
        <time>2016-04-06T11:55:21.000Z</time>
      </trkpt>
      <trkpt lat="47.17924" lon="3.01759">
        <ele>186.57290649414</ele>
        <time>2016-04-06T11:55:24.000Z</time>
      </trkpt>
      <trkpt lat="47.17923" lon="3.01765">
        <ele>186.7837677002</ele>
        <time>2016-04-06T11:55:27.000Z</time>
      </trkpt>
      <trkpt lat="47.17923" lon="3.01771">
        <ele>186.99520874023</ele>
        <time>2016-04-06T11:55:30.000Z</time>
      </trkpt>
      <trkpt lat="47.17924" lon="3.01774">
        <ele>187.20886230469</ele>
        <time>2016-04-06T11:55:32.000Z</time>
      </trkpt>
      <trkpt lat="47.17924" lon="3.01777">
        <ele>187.40650939941</ele>
        <time>2016-04-06T11:55:34.000Z</time>
      </trkpt>
      <trkpt lat="47.17925" lon="3.01779">
        <ele>187.60255432129</ele>
        <time>2016-04-06T11:55:37.000Z</time>
      </trkpt>
      <trkpt lat="47.17925" lon="3.01781">
        <ele>187.77914428711</ele>
        <time>2016-04-06T11:55:46.000Z</time>
      </trkpt>
      <trkpt lat="47.17925" lon="3.01785">
        <ele>187.94091796875</ele>
        <time>2016-04-06T11:55:48.000Z</time>
      </trkpt>
      <trkpt lat="47.17926" lon="3.01791">
        <ele>188.12226867676</ele>
        <time>2016-04-06T11:55:51.000Z</time>
      </trkpt>
      <trkpt lat="47.17926" lon="3.01795">
        <ele>188.32138061523</ele>
        <time>2016-04-06T11:55:53.000Z</time>
      </trkpt>
      <trkpt lat="47.17926" lon="3.01799">
        <ele>188.52165222168</ele>
        <time>2016-04-06T11:55:56.000Z</time>
      </trkpt>
      <trkpt lat="47.17926" lon="3.01801">
        <ele>188.72372436523</ele>
        <time>2016-04-06T11:55:58.000Z</time>
      </trkpt>
      <trkpt lat="47.17927" lon="3.01804">
        <ele>188.91899108887</ele>
        <time>2016-04-06T11:56:00.000Z</time>
      </trkpt>
      <trkpt lat="47.17927" lon="3.01807">
        <ele>189.08876037598</ele>
        <time>2016-04-06T11:56:02.000Z</time>
      </trkpt>
      <trkpt lat="47.17927" lon="3.01813">
        <ele>189.27188110352</ele>
        <time>2016-04-06T11:56:05.000Z</time>
      </trkpt>
      <trkpt lat="47.17927" lon="3.01816">
        <ele>189.44651794434</ele>
        <time>2016-04-06T11:56:07.000Z</time>
      </trkpt>
      <trkpt lat="47.17927" lon="3.01818">
        <ele>189.61566162109</ele>
        <time>2016-04-06T11:56:09.000Z</time>
      </trkpt>
      <trkpt lat="47.17927" lon="3.01821">
        <ele>189.77661132812</ele>
        <time>2016-04-06T11:56:12.000Z</time>
      </trkpt>
      <trkpt lat="47.17927" lon="3.01823">
        <ele>189.92596435547</ele>
        <time>2016-04-06T11:56:15.000Z</time>
      </trkpt>
      <trkpt lat="47.17928" lon="3.01825">
        <ele>190.04040527344</ele>
        <time>2016-04-06T11:56:18.000Z</time>
      </trkpt>
      <trkpt lat="47.17928" lon="3.01826">
        <ele>190.14511108398</ele>
        <time>2016-04-06T11:56:23.000Z</time>
      </trkpt>
      <trkpt lat="47.17928" lon="3.01828">
        <ele>190.24862670898</ele>
        <time>2016-04-06T11:56:27.000Z</time>
      </trkpt>
      <trkpt lat="47.17929" lon="3.0183">
        <ele>190.3518371582</ele>
        <time>2016-04-06T11:56:30.000Z</time>
      </trkpt>
      <trkpt lat="47.17931" lon="3.01831">
        <ele>190.46398925781</ele>
        <time>2016-04-06T11:56:33.000Z</time>
      </trkpt>
      <trkpt lat="47.17933" lon="3.01834">
        <ele>190.60862731934</ele>
        <time>2016-04-06T11:56:36.000Z</time>
      </trkpt>
      <trkpt lat="47.17933" lon="3.01836">
        <ele>190.76907348633</ele>
        <time>2016-04-06T11:56:39.000Z</time>
      </trkpt>
      <trkpt lat="47.17933" lon="3.01839">
        <ele>190.95530700684</ele>
        <time>2016-04-06T11:56:41.000Z</time>
      </trkpt>
      <trkpt lat="47.17935" lon="3.01841">
        <ele>191.16958618164</ele>
        <time>2016-04-06T11:56:44.000Z</time>
      </trkpt>
      <trkpt lat="47.17937" lon="3.01845">
        <ele>191.42565917969</ele>
        <time>2016-04-06T11:56:47.000Z</time>
      </trkpt>
      <trkpt lat="47.17939" lon="3.01849">
        <ele>191.70433044434</ele>
        <time>2016-04-06T11:56:50.000Z</time>
      </trkpt>
      <trkpt lat="47.17941" lon="3.01851">
        <ele>191.99584960938</ele>
        <time>2016-04-06T11:56:52.000Z</time>
      </trkpt>
      <trkpt lat="47.17942" lon="3.01855">
        <ele>192.2984161377</ele>
        <time>2016-04-06T11:56:55.000Z</time>
      </trkpt>
      <trkpt lat="47.17942" lon="3.01858">
        <ele>192.59190368652</ele>
        <time>2016-04-06T11:56:57.000Z</time>
      </trkpt>
      <trkpt lat="47.17942" lon="3.01862">
        <ele>192.86198425293</ele>
        <time>2016-04-06T11:56:59.000Z</time>
      </trkpt>
      <trkpt lat="47.17942" lon="3.01867">
        <ele>193.12420654297</ele>
        <time>2016-04-06T11:57:02.000Z</time>
      </trkpt>
      <trkpt lat="47.17942" lon="3.0187">
        <ele>193.38066101074</ele>
        <time>2016-04-06T11:57:04.000Z</time>
      </trkpt>
      <trkpt lat="47.17944" lon="3.01874">
        <ele>193.64837646484</ele>
        <time>2016-04-06T11:57:07.000Z</time>
      </trkpt>
      <trkpt lat="47.17945" lon="3.01876">
        <ele>193.91194152832</ele>
        <time>2016-04-06T11:57:09.000Z</time>
      </trkpt>
      <trkpt lat="47.17948" lon="3.01877">
        <ele>194.16938781738</ele>
        <time>2016-04-06T11:57:12.000Z</time>
      </trkpt>
      <trkpt lat="47.17949" lon="3.01881">
        <ele>194.42007446289</ele>
        <time>2016-04-06T11:57:15.000Z</time>
      </trkpt>
      <trkpt lat="47.1795" lon="3.01885">
        <ele>194.68872070312</ele>
        <time>2016-04-06T11:57:17.000Z</time>
      </trkpt>
      <trkpt lat="47.17953" lon="3.01891">
        <ele>194.98878479004</ele>
        <time>2016-04-06T11:57:20.000Z</time>
      </trkpt>
      <trkpt lat="47.17956" lon="3.01896">
        <ele>195.33671569824</ele>
        <time>2016-04-06T11:57:23.000Z</time>
      </trkpt>
      <trkpt lat="47.17957" lon="3.01902">
        <ele>195.71701049805</ele>
        <time>2016-04-06T11:57:26.000Z</time>
      </trkpt>
      <trkpt lat="47.17958" lon="3.01906">
        <ele>196.09628295898</ele>
        <time>2016-04-06T11:57:28.000Z</time>
      </trkpt>
      <trkpt lat="47.17958" lon="3.01908">
        <ele>196.43876647949</ele>
        <time>2016-04-06T11:57:30.000Z</time>
      </trkpt>
      <trkpt lat="47.1796" lon="3.01913">
        <ele>196.7608795166</ele>
        <time>2016-04-06T11:57:33.000Z</time>
      </trkpt>
      <trkpt lat="47.1796" lon="3.0192">
        <ele>197.04751586914</ele>
        <time>2016-04-06T11:57:36.000Z</time>
      </trkpt>
      <trkpt lat="47.17962" lon="3.01922">
        <ele>197.28108215332</ele>
        <time>2016-04-06T11:57:38.000Z</time>
      </trkpt>
      <trkpt lat="47.17963" lon="3.01926">
        <ele>197.46829223633</ele>
        <time>2016-04-06T11:57:42.000Z</time>
      </trkpt>
      <trkpt lat="47.17963" lon="3.0193">
        <ele>197.63882446289</ele>
        <time>2016-04-06T11:57:44.000Z</time>
      </trkpt>
      <trkpt lat="47.17958" lon="3.01937">
        <ele>197.72320556641</ele>
        <time>2016-04-06T11:57:47.000Z</time>
      </trkpt>
      <trkpt lat="47.17956" lon="3.01941">
        <ele>197.74334716797</ele>
        <time>2016-04-06T11:57:49.000Z</time>
      </trkpt>
      <trkpt lat="47.17955" lon="3.01943">
        <ele>197.74566650391</ele>
        <time>2016-04-06T11:57:52.000Z</time>
      </trkpt>
      <trkpt lat="47.17955" lon="3.01945">
        <ele>197.73254394531</ele>
        <time>2016-04-06T11:57:54.000Z</time>
      </trkpt>
      <trkpt lat="47.17953" lon="3.01949">
        <ele>197.70953369141</ele>
        <time>2016-04-06T11:57:57.000Z</time>
      </trkpt>
      <trkpt lat="47.17954" lon="3.01952">
        <ele>197.71533203125</ele>
        <time>2016-04-06T11:58:00.000Z</time>
      </trkpt>
      <trkpt lat="47.17957" lon="3.01956">
        <ele>197.76123046875</ele>
        <time>2016-04-06T11:58:03.000Z</time>
      </trkpt>
      <trkpt lat="47.17959" lon="3.01963">
        <ele>197.83923339844</ele>
        <time>2016-04-06T11:58:06.000Z</time>
      </trkpt>
      <trkpt lat="47.17962" lon="3.0197">
        <ele>197.94879150391</ele>
        <time>2016-04-06T11:58:09.000Z</time>
      </trkpt>
      <trkpt lat="47.17963" lon="3.01976">
        <ele>198.08319091797</ele>
        <time>2016-04-06T11:58:12.000Z</time>
      </trkpt>
      <trkpt lat="47.17963" lon="3.01978">
        <ele>198.20703125</ele>
        <time>2016-04-06T11:58:14.000Z</time>
      </trkpt>
      <trkpt lat="47.17963" lon="3.01982">
        <ele>198.31372070312</ele>
        <time>2016-04-06T11:58:17.000Z</time>
      </trkpt>
      <trkpt lat="47.17964" lon="3.01986">
        <ele>198.40399169922</ele>
        <time>2016-04-06T11:58:20.000Z</time>
      </trkpt>
      <trkpt lat="47.17964" lon="3.01989">
        <ele>198.46746826172</ele>
        <time>2016-04-06T11:58:23.000Z</time>
      </trkpt>
      <trkpt lat="47.17967" lon="3.01994">
        <ele>198.5439453125</ele>
        <time>2016-04-06T11:58:26.000Z</time>
      </trkpt>
      <trkpt lat="47.17968" lon="3.01997">
        <ele>198.62994384766</ele>
        <time>2016-04-06T11:58:28.000Z</time>
      </trkpt>
      <trkpt lat="47.1797" lon="3.02003">
        <ele>198.71725463867</ele>
        <time>2016-04-06T11:58:31.000Z</time>
      </trkpt>
      <trkpt lat="47.1797" lon="3.02005">
        <ele>198.78039550781</ele>
        <time>2016-04-06T11:58:33.000Z</time>
      </trkpt>
      <trkpt lat="47.17967" lon="3.02009">
        <ele>198.81253051758</ele>
        <time>2016-04-06T11:58:36.000Z</time>
      </trkpt>
      <trkpt lat="47.17963" lon="3.02013">
        <ele>198.76901245117</ele>
        <time>2016-04-06T11:58:41.000Z</time>
      </trkpt>
      <trkpt lat="47.17963" lon="3.02018">
        <ele>198.70039367676</ele>
        <time>2016-04-06T11:58:47.000Z</time>
      </trkpt>
      <trkpt lat="47.17957" lon="3.02024">
        <ele>198.54821777344</ele>
        <time>2016-04-06T11:58:50.000Z</time>
      </trkpt>
      <trkpt lat="47.17953" lon="3.02028">
        <ele>198.36137390137</ele>
        <time>2016-04-06T11:58:53.000Z</time>
      </trkpt>
      <trkpt lat="47.1795" lon="3.02029">
        <ele>198.1711730957</ele>
        <time>2016-04-06T11:58:56.000Z</time>
      </trkpt>
      <trkpt lat="47.17948" lon="3.02031">
        <ele>197.99783325195</ele>
        <time>2016-04-06T11:58:58.000Z</time>
      </trkpt>
      <trkpt lat="47.17944" lon="3.02033">
        <ele>197.79409790039</ele>
        <time>2016-04-06T11:59:01.000Z</time>
      </trkpt>
      <trkpt lat="47.17942" lon="3.02035">
        <ele>197.63688659668</ele>
        <time>2016-04-06T11:59:04.000Z</time>
      </trkpt>
      <trkpt lat="47.17938" lon="3.02036">
        <ele>197.47799682617</ele>
        <time>2016-04-06T11:59:06.000Z</time>
      </trkpt>
      <trkpt lat="47.17935" lon="3.02039">
        <ele>197.31282043457</ele>
        <time>2016-04-06T11:59:09.000Z</time>
      </trkpt>
      <trkpt lat="47.17933" lon="3.02041">
        <ele>197.13433837891</ele>
        <time>2016-04-06T11:59:12.000Z</time>
      </trkpt>
      <trkpt lat="47.17931" lon="3.02043">
        <ele>196.96757507324</ele>
        <time>2016-04-06T11:59:14.000Z</time>
      </trkpt>
      <trkpt lat="47.17928" lon="3.02045">
        <ele>196.79740905762</ele>
        <time>2016-04-06T11:59:17.000Z</time>
      </trkpt>
      <trkpt lat="47.17926" lon="3.02046">
        <ele>196.64453125</ele>
        <time>2016-04-06T11:59:19.000Z</time>
      </trkpt>
      <trkpt lat="47.17923" lon="3.0205">
        <ele>196.47718811035</ele>
        <time>2016-04-06T11:59:23.000Z</time>
      </trkpt>
      <trkpt lat="47.17918" lon="3.02052">
        <ele>196.28756713867</ele>
        <time>2016-04-06T11:59:26.000Z</time>
      </trkpt>
      <trkpt lat="47.17917" lon="3.02054">
        <ele>196.10311889648</ele>
        <time>2016-04-06T11:59:28.000Z</time>
      </trkpt>
      <trkpt lat="47.17914" lon="3.02056">
        <ele>195.89303588867</ele>
        <time>2016-04-06T11:59:31.000Z</time>
      </trkpt>
      <trkpt lat="47.17911" lon="3.02057">
        <ele>195.64985656738</ele>
        <time>2016-04-06T11:59:34.000Z</time>
      </trkpt>
      <trkpt lat="47.17909" lon="3.02058">
        <ele>195.42520141602</ele>
        <time>2016-04-06T11:59:36.000Z</time>
      </trkpt>
      <trkpt lat="47.17907" lon="3.0206">
        <ele>195.21138000488</ele>
        <time>2016-04-06T11:59:39.000Z</time>
      </trkpt>
      <trkpt lat="47.17905" lon="3.02061">
        <ele>194.98327636719</ele>
        <time>2016-04-06T11:59:41.000Z</time>
      </trkpt>
      <trkpt lat="47.17904" lon="3.02062">
        <ele>194.79228210449</ele>
        <time>2016-04-06T11:59:43.000Z</time>
      </trkpt>
      <trkpt lat="47.17901" lon="3.02065">
        <ele>194.59713745117</ele>
        <time>2016-04-06T11:59:46.000Z</time>
      </trkpt>
      <trkpt lat="47.179" lon="3.02066">
        <ele>194.4111328125</ele>
        <time>2016-04-06T11:59:48.000Z</time>
      </trkpt>
      <trkpt lat="47.17896" lon="3.02069">
        <ele>194.20422363281</ele>
        <time>2016-04-06T11:59:50.000Z</time>
      </trkpt>
      <trkpt lat="47.17892" lon="3.02072">
        <ele>193.97003173828</ele>
        <time>2016-04-06T11:59:53.000Z</time>
      </trkpt>
      <trkpt lat="47.1789" lon="3.02073">
        <ele>193.71618652344</ele>
        <time>2016-04-06T11:59:55.000Z</time>
      </trkpt>
      <trkpt lat="47.17886" lon="3.02078">
        <ele>193.4592590332</ele>
        <time>2016-04-06T11:59:58.000Z</time>
      </trkpt>
      <trkpt lat="47.17881" lon="3.0208">
        <ele>193.14202880859</ele>
        <time>2016-04-06T12:00:01.000Z</time>
      </trkpt>
      <trkpt lat="47.17878" lon="3.02082">
        <ele>192.83792114258</ele>
        <time>2016-04-06T12:00:03.000Z</time>
      </trkpt>
      <trkpt lat="47.17871" lon="3.02084">
        <ele>192.50886535645</ele>
        <time>2016-04-06T12:00:06.000Z</time>
      </trkpt>
      <trkpt lat="47.17868" lon="3.02085">
        <ele>192.16572570801</ele>
        <time>2016-04-06T12:00:08.000Z</time>
      </trkpt>
      <trkpt lat="47.17867" lon="3.02085">
        <ele>191.87194824219</ele>
        <time>2016-04-06T12:00:10.000Z</time>
      </trkpt>
      <trkpt lat="47.17862" lon="3.02087">
        <ele>191.59951782227</ele>
        <time>2016-04-06T12:00:13.000Z</time>
      </trkpt>
      <trkpt lat="47.17859" lon="3.02088">
        <ele>191.34295654297</ele>
        <time>2016-04-06T12:00:16.000Z</time>
      </trkpt>
      <trkpt lat="47.17858" lon="3.02091">
        <ele>191.18266296387</ele>
        <time>2016-04-06T12:00:18.000Z</time>
      </trkpt>
      <trkpt lat="47.17855" lon="3.02095">
        <ele>191.04710388184</ele>
        <time>2016-04-06T12:00:21.000Z</time>
      </trkpt>
      <trkpt lat="47.17852" lon="3.02098">
        <ele>190.90962219238</ele>
        <time>2016-04-06T12:00:23.000Z</time>
      </trkpt>
      <trkpt lat="47.17849" lon="3.021">
        <ele>190.79765319824</ele>
        <time>2016-04-06T12:00:25.000Z</time>
      </trkpt>
      <trkpt lat="47.17846" lon="3.02103">
        <ele>190.70877075195</ele>
        <time>2016-04-06T12:00:28.000Z</time>
      </trkpt>
      <trkpt lat="47.17847" lon="3.02106">
        <ele>190.64282226562</ele>
        <time>2016-04-06T12:00:31.000Z</time>
      </trkpt>
      <trkpt lat="47.17849" lon="3.02108">
        <ele>190.6330871582</ele>
        <time>2016-04-06T12:00:33.000Z</time>
      </trkpt>
      <trkpt lat="47.17851" lon="3.02113">
        <ele>190.69415283203</ele>
        <time>2016-04-06T12:00:36.000Z</time>
      </trkpt>
      <trkpt lat="47.17853" lon="3.02116">
        <ele>190.82305908203</ele>
        <time>2016-04-06T12:00:38.000Z</time>
      </trkpt>
      <trkpt lat="47.17855" lon="3.0212">
        <ele>191.01779174805</ele>
        <time>2016-04-06T12:00:41.000Z</time>
      </trkpt>
      <trkpt lat="47.17858" lon="3.02125">
        <ele>191.22988891602</ele>
        <time>2016-04-06T12:00:44.000Z</time>
      </trkpt>
      <trkpt lat="47.1786" lon="3.02129">
        <ele>191.44396972656</ele>
        <time>2016-04-06T12:00:46.000Z</time>
      </trkpt>
      <trkpt lat="47.1786" lon="3.02137">
        <ele>191.6467590332</ele>
        <time>2016-04-06T12:00:49.000Z</time>
      </trkpt>
      <trkpt lat="47.17858" lon="3.02142">
        <ele>191.81442260742</ele>
        <time>2016-04-06T12:00:51.000Z</time>
      </trkpt>
      <trkpt lat="47.17855" lon="3.02146">
        <ele>191.93478393555</ele>
        <time>2016-04-06T12:00:53.000Z</time>
      </trkpt>
      <trkpt lat="47.17852" lon="3.02149">
        <ele>191.9974822998</ele>
        <time>2016-04-06T12:00:56.000Z</time>
      </trkpt>
      <trkpt lat="47.1785" lon="3.02151">
        <ele>192.02409362793</ele>
        <time>2016-04-06T12:00:58.000Z</time>
      </trkpt>
      <trkpt lat="47.17847" lon="3.02152">
        <ele>192.0007019043</ele>
        <time>2016-04-06T12:01:01.000Z</time>
      </trkpt>
      <trkpt lat="47.17845" lon="3.02154">
        <ele>191.97315979004</ele>
        <time>2016-04-06T12:01:03.000Z</time>
      </trkpt>
      <trkpt lat="47.17844" lon="3.02156">
        <ele>191.95198059082</ele>
        <time>2016-04-06T12:01:06.000Z</time>
      </trkpt>
      <trkpt lat="47.17845" lon="3.02157">
        <ele>191.95204162598</ele>
        <time>2016-04-06T12:01:09.000Z</time>
      </trkpt>
      <trkpt lat="47.17844" lon="3.02158">
        <ele>191.95054626465</ele>
        <time>2016-04-06T12:01:13.000Z</time>
      </trkpt>
      <trkpt lat="47.17841" lon="3.0216">
        <ele>191.95645141602</ele>
        <time>2016-04-06T12:01:15.000Z</time>
      </trkpt>
      <trkpt lat="47.17838" lon="3.02162">
        <ele>191.9673614502</ele>
        <time>2016-04-06T12:01:18.000Z</time>
      </trkpt>
      <trkpt lat="47.17835" lon="3.02163">
        <ele>191.96530151367</ele>
        <time>2016-04-06T12:01:20.000Z</time>
      </trkpt>
      <trkpt lat="47.17833" lon="3.02166">
        <ele>191.96408081055</ele>
        <time>2016-04-06T12:01:23.000Z</time>
      </trkpt>
      <trkpt lat="47.17831" lon="3.02168">
        <ele>191.97933959961</ele>
        <time>2016-04-06T12:01:25.000Z</time>
      </trkpt>
      <trkpt lat="47.17828" lon="3.02171">
        <ele>192.01803588867</ele>
        <time>2016-04-06T12:01:28.000Z</time>
      </trkpt>
      <trkpt lat="47.17826" lon="3.02172">
        <ele>192.07066345215</ele>
        <time>2016-04-06T12:01:30.000Z</time>
      </trkpt>
      <trkpt lat="47.17823" lon="3.02174">
        <ele>192.14405822754</ele>
        <time>2016-04-06T12:01:33.000Z</time>
      </trkpt>
      <trkpt lat="47.1782" lon="3.02176">
        <ele>192.22546386719</ele>
        <time>2016-04-06T12:01:36.000Z</time>
      </trkpt>
      <trkpt lat="47.17818" lon="3.02178">
        <ele>192.30822753906</ele>
        <time>2016-04-06T12:01:38.000Z</time>
      </trkpt>
      <trkpt lat="47.17815" lon="3.0218">
        <ele>192.38330078125</ele>
        <time>2016-04-06T12:01:41.000Z</time>
      </trkpt>
      <trkpt lat="47.17813" lon="3.02182">
        <ele>192.46276855469</ele>
        <time>2016-04-06T12:01:44.000Z</time>
      </trkpt>
      <trkpt lat="47.17812" lon="3.02185">
        <ele>192.54296875</ele>
        <time>2016-04-06T12:01:46.000Z</time>
      </trkpt>
      <trkpt lat="47.1781" lon="3.02187">
        <ele>192.61645507812</ele>
        <time>2016-04-06T12:01:49.000Z</time>
      </trkpt>
      <trkpt lat="47.17805" lon="3.02192">
        <ele>192.71154785156</ele>
        <time>2016-04-06T12:01:52.000Z</time>
      </trkpt>
      <trkpt lat="47.17802" lon="3.02195">
        <ele>192.81713867188</ele>
        <time>2016-04-06T12:01:54.000Z</time>
      </trkpt>
      <trkpt lat="47.17801" lon="3.02197">
        <ele>192.91662597656</ele>
        <time>2016-04-06T12:01:56.000Z</time>
      </trkpt>
      <trkpt lat="47.17797" lon="3.02201">
        <ele>193.02941894531</ele>
        <time>2016-04-06T12:01:59.000Z</time>
      </trkpt>
      <trkpt lat="47.17794" lon="3.02205">
        <ele>193.15417480469</ele>
        <time>2016-04-06T12:02:02.000Z</time>
      </trkpt>
      <trkpt lat="47.17793" lon="3.02206">
        <ele>193.25158691406</ele>
        <time>2016-04-06T12:02:04.000Z</time>
      </trkpt>
      <trkpt lat="47.17791" lon="3.02209">
        <ele>193.34143066406</ele>
        <time>2016-04-06T12:02:07.000Z</time>
      </trkpt>
      <trkpt lat="47.17788" lon="3.02212">
        <ele>193.44604492188</ele>
        <time>2016-04-06T12:02:09.000Z</time>
      </trkpt>
      <trkpt lat="47.17783" lon="3.02217">
        <ele>193.55737304688</ele>
        <time>2016-04-06T12:02:12.000Z</time>
      </trkpt>
      <trkpt lat="47.17781" lon="3.02219">
        <ele>193.65893554688</ele>
        <time>2016-04-06T12:02:14.000Z</time>
      </trkpt>
      <trkpt lat="47.17778" lon="3.02222">
        <ele>193.77111816406</ele>
        <time>2016-04-06T12:02:17.000Z</time>
      </trkpt>
      <trkpt lat="47.17775" lon="3.02224">
        <ele>193.88232421875</ele>
        <time>2016-04-06T12:02:20.000Z</time>
      </trkpt>
      <trkpt lat="47.17773" lon="3.02225">
        <ele>193.97937011719</ele>
        <time>2016-04-06T12:02:22.000Z</time>
      </trkpt>
      <trkpt lat="47.17773" lon="3.02227">
        <ele>194.05187988281</ele>
        <time>2016-04-06T12:02:25.000Z</time>
      </trkpt>
      <trkpt lat="47.17772" lon="3.02229">
        <ele>194.1181640625</ele>
        <time>2016-04-06T12:02:28.000Z</time>
      </trkpt>
      <trkpt lat="47.17773" lon="3.02232">
        <ele>194.18041992188</ele>
        <time>2016-04-06T12:02:31.000Z</time>
      </trkpt>
      <trkpt lat="47.17774" lon="3.02239">
        <ele>194.25512695312</ele>
        <time>2016-04-06T12:02:33.000Z</time>
      </trkpt>
      <trkpt lat="47.17774" lon="3.02242">
        <ele>194.3369140625</ele>
        <time>2016-04-06T12:02:35.000Z</time>
      </trkpt>
      <trkpt lat="47.17776" lon="3.02247">
        <ele>194.42468261719</ele>
        <time>2016-04-06T12:02:38.000Z</time>
      </trkpt>
      <trkpt lat="47.17778" lon="3.02254">
        <ele>194.53674316406</ele>
        <time>2016-04-06T12:02:42.000Z</time>
      </trkpt>
      <trkpt lat="47.17778" lon="3.02257">
        <ele>194.6513671875</ele>
        <time>2016-04-06T12:02:44.000Z</time>
      </trkpt>
      <trkpt lat="47.17779" lon="3.02259">
        <ele>194.74795532227</ele>
        <time>2016-04-06T12:02:46.000Z</time>
      </trkpt>
      <trkpt lat="47.1778" lon="3.02262">
        <ele>194.84553527832</ele>
        <time>2016-04-06T12:02:49.000Z</time>
      </trkpt>
      <trkpt lat="47.17783" lon="3.02266">
        <ele>194.94088745117</ele>
        <time>2016-04-06T12:02:51.000Z</time>
      </trkpt>
      <trkpt lat="47.17785" lon="3.02269">
        <ele>195.01914978027</ele>
        <time>2016-04-06T12:02:53.000Z</time>
      </trkpt>
      <trkpt lat="47.17786" lon="3.02272">
        <ele>195.09625244141</ele>
        <time>2016-04-06T12:02:56.000Z</time>
      </trkpt>
      <trkpt lat="47.17786" lon="3.02274">
        <ele>195.17167663574</ele>
        <time>2016-04-06T12:02:59.000Z</time>
      </trkpt>
      <trkpt lat="47.17788" lon="3.02277">
        <ele>195.23960876465</ele>
        <time>2016-04-06T12:03:02.000Z</time>
      </trkpt>
      <trkpt lat="47.1779" lon="3.02281">
        <ele>195.31130981445</ele>
        <time>2016-04-06T12:03:05.000Z</time>
      </trkpt>
      <trkpt lat="47.17791" lon="3.02282">
        <ele>195.36996459961</ele>
        <time>2016-04-06T12:03:08.000Z</time>
      </trkpt>
      <trkpt lat="47.17791" lon="3.02285">
        <ele>195.43200683594</ele>
        <time>2016-04-06T12:03:11.000Z</time>
      </trkpt>
      <trkpt lat="47.1779" lon="3.02287">
        <ele>195.49676513672</ele>
        <time>2016-04-06T12:03:18.000Z</time>
      </trkpt>
      <trkpt lat="47.17789" lon="3.0229">
        <ele>195.5751953125</ele>
        <time>2016-04-06T12:03:20.000Z</time>
      </trkpt>
      <trkpt lat="47.17789" lon="3.02295">
        <ele>195.66275024414</ele>
        <time>2016-04-06T12:03:23.000Z</time>
      </trkpt>
      <trkpt lat="47.17789" lon="3.02296">
        <ele>195.75611877441</ele>
        <time>2016-04-06T12:03:26.000Z</time>
      </trkpt>
      <trkpt lat="47.17789" lon="3.02298">
        <ele>195.8422088623</ele>
        <time>2016-04-06T12:03:28.000Z</time>
      </trkpt>
      <trkpt lat="47.17789" lon="3.02302">
        <ele>195.93688964844</ele>
        <time>2016-04-06T12:03:31.000Z</time>
      </trkpt>
      <trkpt lat="47.17791" lon="3.02305">
        <ele>196.01907348633</ele>
        <time>2016-04-06T12:03:34.000Z</time>
      </trkpt>
      <trkpt lat="47.17793" lon="3.0231">
        <ele>196.09596252441</ele>
        <time>2016-04-06T12:03:38.000Z</time>
      </trkpt>
      <trkpt lat="47.17792" lon="3.02312">
        <ele>196.18002319336</ele>
        <time>2016-04-06T12:03:41.000Z</time>
      </trkpt>
      <trkpt lat="47.17793" lon="3.02317">
        <ele>196.27734375</ele>
        <time>2016-04-06T12:03:43.000Z</time>
      </trkpt>
      <trkpt lat="47.17796" lon="3.02321">
        <ele>196.36862182617</ele>
        <time>2016-04-06T12:03:46.000Z</time>
      </trkpt>
      <trkpt lat="47.17797" lon="3.02324">
        <ele>196.45556640625</ele>
        <time>2016-04-06T12:03:49.000Z</time>
      </trkpt>
      <trkpt lat="47.178" lon="3.02328">
        <ele>196.5297088623</ele>
        <time>2016-04-06T12:03:52.000Z</time>
      </trkpt>
      <trkpt lat="47.17801" lon="3.02331">
        <ele>196.6015625</ele>
        <time>2016-04-06T12:03:55.000Z</time>
      </trkpt>
      <trkpt lat="47.17802" lon="3.02334">
        <ele>196.65539550781</ele>
        <time>2016-04-06T12:03:57.000Z</time>
      </trkpt>
      <trkpt lat="47.17804" lon="3.02336">
        <ele>196.70063781738</ele>
        <time>2016-04-06T12:03:59.000Z</time>
      </trkpt>
      <trkpt lat="47.17804" lon="3.0234">
        <ele>196.7643737793</ele>
        <time>2016-04-06T12:04:02.000Z</time>
      </trkpt>
      <trkpt lat="47.17806" lon="3.02344">
        <ele>196.83500671387</ele>
        <time>2016-04-06T12:04:05.000Z</time>
      </trkpt>
      <trkpt lat="47.17808" lon="3.02347">
        <ele>196.9030456543</ele>
        <time>2016-04-06T12:04:07.000Z</time>
      </trkpt>
      <trkpt lat="47.17809" lon="3.02349">
        <ele>196.97262573242</ele>
        <time>2016-04-06T12:04:09.000Z</time>
      </trkpt>
      <trkpt lat="47.1781" lon="3.02351">
        <ele>197.04402160645</ele>
        <time>2016-04-06T12:04:11.000Z</time>
      </trkpt>
      <trkpt lat="47.17811" lon="3.02354">
        <ele>197.10401916504</ele>
        <time>2016-04-06T12:04:14.000Z</time>
      </trkpt>
      <trkpt lat="47.17814" lon="3.02361">
        <ele>197.18156433105</ele>
        <time>2016-04-06T12:04:17.000Z</time>
      </trkpt>
      <trkpt lat="47.17816" lon="3.02365">
        <ele>197.26547241211</ele>
        <time>2016-04-06T12:04:20.000Z</time>
      </trkpt>
      <trkpt lat="47.17817" lon="3.02368">
        <ele>197.35293579102</ele>
        <time>2016-04-06T12:04:22.000Z</time>
      </trkpt>
      <trkpt lat="47.17819" lon="3.0237">
        <ele>197.44290161133</ele>
        <time>2016-04-06T12:04:25.000Z</time>
      </trkpt>
      <trkpt lat="47.1782" lon="3.02371">
        <ele>197.51789855957</ele>
        <time>2016-04-06T12:04:28.000Z</time>
      </trkpt>
      <trkpt lat="47.17822" lon="3.02373">
        <ele>197.56875610352</ele>
        <time>2016-04-06T12:04:30.000Z</time>
      </trkpt>
      <trkpt lat="47.17824" lon="3.02376">
        <ele>197.6167755127</ele>
        <time>2016-04-06T12:04:33.000Z</time>
      </trkpt>
      <trkpt lat="47.17825" lon="3.02379">
        <ele>197.66787719727</ele>
        <time>2016-04-06T12:04:35.000Z</time>
      </trkpt>
      <trkpt lat="47.17828" lon="3.02383">
        <ele>197.72236633301</ele>
        <time>2016-04-06T12:04:38.000Z</time>
      </trkpt>
      <trkpt lat="47.1783" lon="3.02385">
        <ele>197.78823852539</ele>
        <time>2016-04-06T12:04:43.000Z</time>
      </trkpt>
      <trkpt lat="47.17832" lon="3.02386">
        <ele>197.84535217285</ele>
        <time>2016-04-06T12:04:46.000Z</time>
      </trkpt>
      <trkpt lat="47.17834" lon="3.02386">
        <ele>197.87973022461</ele>
        <time>2016-04-06T12:04:49.000Z</time>
      </trkpt>
      <trkpt lat="47.17836" lon="3.0239">
        <ele>197.92190551758</ele>
        <time>2016-04-06T12:04:52.000Z</time>
      </trkpt>
      <trkpt lat="47.17838" lon="3.02392">
        <ele>197.96566772461</ele>
        <time>2016-04-06T12:04:54.000Z</time>
      </trkpt>
      <trkpt lat="47.17839" lon="3.02393">
        <ele>198.00505065918</ele>
        <time>2016-04-06T12:04:56.000Z</time>
      </trkpt>
      <trkpt lat="47.1784" lon="3.02394">
        <ele>198.04626464844</ele>
        <time>2016-04-06T12:04:58.000Z</time>
      </trkpt>
      <trkpt lat="47.17842" lon="3.02397">
        <ele>198.10928344727</ele>
        <time>2016-04-06T12:05:00.000Z</time>
      </trkpt>
      <trkpt lat="47.17843" lon="3.02399">
        <ele>198.15872192383</ele>
        <time>2016-04-06T12:05:02.000Z</time>
      </trkpt>
      <trkpt lat="47.1785" lon="3.02409">
        <ele>198.25271606445</ele>
        <time>2016-04-06T12:05:16.000Z</time>
      </trkpt>
      <trkpt lat="47.17853" lon="3.02426">
        <ele>198.44506835938</ele>
        <time>2016-04-06T12:05:23.000Z</time>
      </trkpt>
      <trkpt lat="47.17856" lon="3.02436">
        <ele>198.69256591797</ele>
        <time>2016-04-06T12:05:26.000Z</time>
      </trkpt>
      <trkpt lat="47.17856" lon="3.0244">
        <ele>198.95260620117</ele>
        <time>2016-04-06T12:05:28.000Z</time>
      </trkpt>
      <trkpt lat="47.17856" lon="3.02443">
        <ele>199.22123718262</ele>
        <time>2016-04-06T12:05:30.000Z</time>
      </trkpt>
      <trkpt lat="47.17858" lon="3.02443">
        <ele>199.42498779297</ele>
        <time>2016-04-06T12:05:33.000Z</time>
      </trkpt>
      <trkpt lat="47.17859" lon="3.02443">
        <ele>199.51901245117</ele>
        <time>2016-04-06T12:05:36.000Z</time>
      </trkpt>
      <trkpt lat="47.1786" lon="3.02446">
        <ele>199.56967163086</ele>
        <time>2016-04-06T12:05:38.000Z</time>
      </trkpt>
      <trkpt lat="47.17862" lon="3.02446">
        <ele>199.5892791748</ele>
        <time>2016-04-06T12:05:41.000Z</time>
      </trkpt>
      <trkpt lat="47.17864" lon="3.02448">
        <ele>199.59129333496</ele>
        <time>2016-04-06T12:05:44.000Z</time>
      </trkpt>
      <trkpt lat="47.17866" lon="3.02451">
        <ele>199.61491394043</ele>
        <time>2016-04-06T12:05:46.000Z</time>
      </trkpt>
      <trkpt lat="47.17865" lon="3.02455">
        <ele>199.6692199707</ele>
        <time>2016-04-06T12:05:49.000Z</time>
      </trkpt>
      <trkpt lat="47.17863" lon="3.02459">
        <ele>199.74017333984</ele>
        <time>2016-04-06T12:05:52.000Z</time>
      </trkpt>
      <trkpt lat="47.17861" lon="3.0246">
        <ele>199.83076477051</ele>
        <time>2016-04-06T12:05:54.000Z</time>
      </trkpt>
      <trkpt lat="47.1786" lon="3.02462">
        <ele>199.94148254395</ele>
        <time>2016-04-06T12:05:56.000Z</time>
      </trkpt>
      <trkpt lat="47.17857" lon="3.02467">
        <ele>200.07690429688</ele>
        <time>2016-04-06T12:05:59.000Z</time>
      </trkpt>
      <trkpt lat="47.17854" lon="3.02469">
        <ele>200.20991516113</ele>
        <time>2016-04-06T12:06:01.000Z</time>
      </trkpt>
      <trkpt lat="47.1785" lon="3.02473">
        <ele>200.35070800781</ele>
        <time>2016-04-06T12:06:04.000Z</time>
      </trkpt>
      <trkpt lat="47.17849" lon="3.02475">
        <ele>200.4967956543</ele>
        <time>2016-04-06T12:06:07.000Z</time>
      </trkpt>
      <trkpt lat="47.17847" lon="3.02477">
        <ele>200.64108276367</ele>
        <time>2016-04-06T12:06:09.000Z</time>
      </trkpt>
      <trkpt lat="47.17844" lon="3.02479">
        <ele>200.77156066895</ele>
        <time>2016-04-06T12:06:12.000Z</time>
      </trkpt>
      <trkpt lat="47.17841" lon="3.0248">
        <ele>200.89743041992</ele>
        <time>2016-04-06T12:06:14.000Z</time>
      </trkpt>
      <trkpt lat="47.17838" lon="3.02482">
        <ele>201.01135253906</ele>
        <time>2016-04-06T12:06:17.000Z</time>
      </trkpt>
      <trkpt lat="47.17834" lon="3.02484">
        <ele>201.13264465332</ele>
        <time>2016-04-06T12:06:20.000Z</time>
      </trkpt>
      <trkpt lat="47.17833" lon="3.02485">
        <ele>201.24633789062</ele>
        <time>2016-04-06T12:06:22.000Z</time>
      </trkpt>
      <trkpt lat="47.1783" lon="3.02485">
        <ele>201.3413848877</ele>
        <time>2016-04-06T12:06:25.000Z</time>
      </trkpt>
      <trkpt lat="47.17826" lon="3.02486">
        <ele>201.43771362305</ele>
        <time>2016-04-06T12:06:28.000Z</time>
      </trkpt>
      <trkpt lat="47.17824" lon="3.02487">
        <ele>201.51560974121</ele>
        <time>2016-04-06T12:06:30.000Z</time>
      </trkpt>
      <trkpt lat="47.17821" lon="3.02488">
        <ele>201.58203125</ele>
        <time>2016-04-06T12:06:33.000Z</time>
      </trkpt>
      <trkpt lat="47.17818" lon="3.02488">
        <ele>201.64654541016</ele>
        <time>2016-04-06T12:06:35.000Z</time>
      </trkpt>
      <trkpt lat="47.17815" lon="3.02488">
        <ele>201.70751953125</ele>
        <time>2016-04-06T12:06:37.000Z</time>
      </trkpt>
      <trkpt lat="47.17812" lon="3.02488">
        <ele>201.75524902344</ele>
        <time>2016-04-06T12:06:40.000Z</time>
      </trkpt>
      <trkpt lat="47.17809" lon="3.02487">
        <ele>201.79437255859</ele>
        <time>2016-04-06T12:06:43.000Z</time>
      </trkpt>
      <trkpt lat="47.17806" lon="3.02487">
        <ele>201.82055664062</ele>
        <time>2016-04-06T12:06:45.000Z</time>
      </trkpt>
      <trkpt lat="47.17803" lon="3.02486">
        <ele>201.83923339844</ele>
        <time>2016-04-06T12:06:48.000Z</time>
      </trkpt>
      <trkpt lat="47.17801" lon="3.02486">
        <ele>201.85455322266</ele>
        <time>2016-04-06T12:06:50.000Z</time>
      </trkpt>
      <trkpt lat="47.17798" lon="3.02486">
        <ele>201.87292480469</ele>
        <time>2016-04-06T12:06:53.000Z</time>
      </trkpt>
      <trkpt lat="47.17794" lon="3.02487">
        <ele>201.90045166016</ele>
        <time>2016-04-06T12:06:56.000Z</time>
      </trkpt>
      <trkpt lat="47.1779" lon="3.02487">
        <ele>201.93634033203</ele>
        <time>2016-04-06T12:06:59.000Z</time>
      </trkpt>
      <trkpt lat="47.17786" lon="3.02488">
        <ele>201.98736572266</ele>
        <time>2016-04-06T12:07:02.000Z</time>
      </trkpt>
      <trkpt lat="47.17783" lon="3.02489">
        <ele>202.05462646484</ele>
        <time>2016-04-06T12:07:05.000Z</time>
      </trkpt>
      <trkpt lat="47.1778" lon="3.02489">
        <ele>202.11511230469</ele>
        <time>2016-04-06T12:07:07.000Z</time>
      </trkpt>
      <trkpt lat="47.17777" lon="3.02488">
        <ele>202.17102050781</ele>
        <time>2016-04-06T12:07:10.000Z</time>
      </trkpt>
      <trkpt lat="47.17776" lon="3.02488">
        <ele>202.21783447266</ele>
        <time>2016-04-06T12:07:12.000Z</time>
      </trkpt>
      <trkpt lat="47.17772" lon="3.02489">
        <ele>202.26031494141</ele>
        <time>2016-04-06T12:07:15.000Z</time>
      </trkpt>
      <trkpt lat="47.1777" lon="3.02489">
        <ele>202.29016113281</ele>
        <time>2016-04-06T12:07:17.000Z</time>
      </trkpt>
      <trkpt lat="47.17766" lon="3.0249">
        <ele>202.33477783203</ele>
        <time>2016-04-06T12:07:20.000Z</time>
      </trkpt>
      <trkpt lat="47.17762" lon="3.02491">
        <ele>202.39031982422</ele>
        <time>2016-04-06T12:07:23.000Z</time>
      </trkpt>
      <trkpt lat="47.17758" lon="3.02491">
        <ele>202.45379638672</ele>
        <time>2016-04-06T12:07:26.000Z</time>
      </trkpt>
      <trkpt lat="47.17756" lon="3.0249">
        <ele>202.50274658203</ele>
        <time>2016-04-06T12:07:29.000Z</time>
      </trkpt>
      <trkpt lat="47.17752" lon="3.02489">
        <ele>202.54846191406</ele>
        <time>2016-04-06T12:07:31.000Z</time>
      </trkpt>
      <trkpt lat="47.17751" lon="3.02489">
        <ele>202.57824707031</ele>
        <time>2016-04-06T12:07:33.000Z</time>
      </trkpt>
      <trkpt lat="47.17748" lon="3.0249">
        <ele>202.60855102539</ele>
        <time>2016-04-06T12:07:36.000Z</time>
      </trkpt>
      <trkpt lat="47.17744" lon="3.0249">
        <ele>202.64469909668</ele>
        <time>2016-04-06T12:07:39.000Z</time>
      </trkpt>
      <trkpt lat="47.17743" lon="3.02491">
        <ele>202.69703674316</ele>
        <time>2016-04-06T12:07:41.000Z</time>
      </trkpt>
      <trkpt lat="47.1774" lon="3.02491">
        <ele>202.76553344727</ele>
        <time>2016-04-06T12:07:44.000Z</time>
      </trkpt>
      <trkpt lat="47.17736" lon="3.02492">
        <ele>202.85101318359</ele>
        <time>2016-04-06T12:07:46.000Z</time>
      </trkpt>
      <trkpt lat="47.17732" lon="3.02491">
        <ele>202.93176269531</ele>
        <time>2016-04-06T12:07:49.000Z</time>
      </trkpt>
      <trkpt lat="47.17729" lon="3.02489">
        <ele>203.00122070312</ele>
        <time>2016-04-06T12:07:51.000Z</time>
      </trkpt>
      <trkpt lat="47.17725" lon="3.02489">
        <ele>203.07928466797</ele>
        <time>2016-04-06T12:07:54.000Z</time>
      </trkpt>
      <trkpt lat="47.1772" lon="3.02492">
        <ele>203.17651367188</ele>
        <time>2016-04-06T12:07:57.000Z</time>
      </trkpt>
      <trkpt lat="47.17716" lon="3.02496">
        <ele>203.30767822266</ele>
        <time>2016-04-06T12:08:00.000Z</time>
      </trkpt>
      <trkpt lat="47.17714" lon="3.02499">
        <ele>203.4541015625</ele>
        <time>2016-04-06T12:08:02.000Z</time>
      </trkpt>
      <trkpt lat="47.17713" lon="3.02503">
        <ele>203.62001037598</ele>
        <time>2016-04-06T12:08:05.000Z</time>
      </trkpt>
      <trkpt lat="47.17712" lon="3.02506">
        <ele>203.77822875977</ele>
        <time>2016-04-06T12:08:07.000Z</time>
      </trkpt>
      <trkpt lat="47.17712" lon="3.02511">
        <ele>203.91702270508</ele>
        <time>2016-04-06T12:08:10.000Z</time>
      </trkpt>
      <trkpt lat="47.17712" lon="3.02515">
        <ele>204.01498413086</ele>
        <time>2016-04-06T12:08:12.000Z</time>
      </trkpt>
      <trkpt lat="47.17712" lon="3.0252">
        <ele>204.10205078125</ele>
        <time>2016-04-06T12:08:15.000Z</time>
      </trkpt>
      <trkpt lat="47.17712" lon="3.02523">
        <ele>204.17944335938</ele>
        <time>2016-04-06T12:08:17.000Z</time>
      </trkpt>
      <trkpt lat="47.17711" lon="3.02527">
        <ele>204.25695800781</ele>
        <time>2016-04-06T12:08:20.000Z</time>
      </trkpt>
      <trkpt lat="47.1771" lon="3.02532">
        <ele>204.34140014648</ele>
        <time>2016-04-06T12:08:23.000Z</time>
      </trkpt>
      <trkpt lat="47.17709" lon="3.02538">
        <ele>204.43795776367</ele>
        <time>2016-04-06T12:08:26.000Z</time>
      </trkpt>
      <trkpt lat="47.17708" lon="3.02544">
        <ele>204.54295349121</ele>
        <time>2016-04-06T12:08:29.000Z</time>
      </trkpt>
      <trkpt lat="47.17707" lon="3.02548">
        <ele>204.65498352051</ele>
        <time>2016-04-06T12:08:32.000Z</time>
      </trkpt>
      <trkpt lat="47.17706" lon="3.02551">
        <ele>204.77136230469</ele>
        <time>2016-04-06T12:08:34.000Z</time>
      </trkpt>
      <trkpt lat="47.17705" lon="3.02556">
        <ele>204.88850402832</ele>
        <time>2016-04-06T12:08:37.000Z</time>
      </trkpt>
      <trkpt lat="47.17705" lon="3.02559">
        <ele>204.99201965332</ele>
        <time>2016-04-06T12:08:39.000Z</time>
      </trkpt>
      <trkpt lat="47.17705" lon="3.02562">
        <ele>205.08403015137</ele>
        <time>2016-04-06T12:08:41.000Z</time>
      </trkpt>
      <trkpt lat="47.17704" lon="3.02568">
        <ele>205.17922973633</ele>
        <time>2016-04-06T12:08:44.000Z</time>
      </trkpt>
      <trkpt lat="47.17703" lon="3.02573">
        <ele>205.27816772461</ele>
        <time>2016-04-06T12:08:47.000Z</time>
      </trkpt>
      <trkpt lat="47.17703" lon="3.02577">
        <ele>205.37023925781</ele>
        <time>2016-04-06T12:08:50.000Z</time>
      </trkpt>
      <trkpt lat="47.17703" lon="3.02583">
        <ele>205.47090148926</ele>
        <time>2016-04-06T12:08:53.000Z</time>
      </trkpt>
      <trkpt lat="47.17702" lon="3.02589">
        <ele>205.55798339844</ele>
        <time>2016-04-06T12:08:56.000Z</time>
      </trkpt>
      <trkpt lat="47.17701" lon="3.02593">
        <ele>205.62075805664</ele>
        <time>2016-04-06T12:08:58.000Z</time>
      </trkpt>
      <trkpt lat="47.17701" lon="3.02595">
        <ele>205.65786743164</ele>
        <time>2016-04-06T12:09:00.000Z</time>
      </trkpt>
      <trkpt lat="47.17701" lon="3.02597">
        <ele>205.67239379883</ele>
        <time>2016-04-06T12:09:02.000Z</time>
      </trkpt>
      <trkpt lat="47.17701" lon="3.02603">
        <ele>205.65982055664</ele>
        <time>2016-04-06T12:09:05.000Z</time>
      </trkpt>
      <trkpt lat="47.17701" lon="3.02606">
        <ele>205.64736938477</ele>
        <time>2016-04-06T12:09:07.000Z</time>
      </trkpt>
      <trkpt lat="47.177" lon="3.02612">
        <ele>205.63081359863</ele>
        <time>2016-04-06T12:09:10.000Z</time>
      </trkpt>
      <trkpt lat="47.17699" lon="3.02616">
        <ele>205.61672973633</ele>
        <time>2016-04-06T12:09:12.000Z</time>
      </trkpt>
      <trkpt lat="47.17699" lon="3.02619">
        <ele>205.60400390625</ele>
        <time>2016-04-06T12:09:14.000Z</time>
      </trkpt>
      <trkpt lat="47.17698" lon="3.02624">
        <ele>205.59912109375</ele>
        <time>2016-04-06T12:09:17.000Z</time>
      </trkpt>
      <trkpt lat="47.17698" lon="3.02627">
        <ele>205.58773803711</ele>
        <time>2016-04-06T12:09:20.000Z</time>
      </trkpt>
      <trkpt lat="47.17697" lon="3.02634">
        <ele>205.57275390625</ele>
        <time>2016-04-06T12:09:23.000Z</time>
      </trkpt>
      <trkpt lat="47.17697" lon="3.02639">
        <ele>205.55017089844</ele>
        <time>2016-04-06T12:09:26.000Z</time>
      </trkpt>
      <trkpt lat="47.17696" lon="3.02642">
        <ele>205.52839660645</ele>
        <time>2016-04-06T12:09:28.000Z</time>
      </trkpt>
      <trkpt lat="47.17695" lon="3.02648">
        <ele>205.50271606445</ele>
        <time>2016-04-06T12:09:31.000Z</time>
      </trkpt>
      <trkpt lat="47.17694" lon="3.02652">
        <ele>205.48086547852</ele>
        <time>2016-04-06T12:09:33.000Z</time>
      </trkpt>
      <trkpt lat="47.17694" lon="3.02656">
        <ele>205.46171569824</ele>
        <time>2016-04-06T12:09:35.000Z</time>
      </trkpt>
      <trkpt lat="47.17694" lon="3.02661">
        <ele>205.439453125</ele>
        <time>2016-04-06T12:09:38.000Z</time>
      </trkpt>
      <trkpt lat="47.17695" lon="3.02665">
        <ele>205.41098022461</ele>
        <time>2016-04-06T12:09:40.000Z</time>
      </trkpt>
      <trkpt lat="47.17694" lon="3.02669">
        <ele>205.38119506836</ele>
        <time>2016-04-06T12:09:43.000Z</time>
      </trkpt>
      <trkpt lat="47.17694" lon="3.02672">
        <ele>205.34953308105</ele>
        <time>2016-04-06T12:09:45.000Z</time>
      </trkpt>
      <trkpt lat="47.17694" lon="3.02674">
        <ele>205.32040405273</ele>
        <time>2016-04-06T12:09:47.000Z</time>
      </trkpt>
      <trkpt lat="47.17692" lon="3.02678">
        <ele>205.30464172363</ele>
        <time>2016-04-06T12:09:50.000Z</time>
      </trkpt>
      <trkpt lat="47.1769" lon="3.0268">
        <ele>205.30073547363</ele>
        <time>2016-04-06T12:09:53.000Z</time>
      </trkpt>
      <trkpt lat="47.17687" lon="3.02681">
        <ele>205.31474304199</ele>
        <time>2016-04-06T12:09:56.000Z</time>
      </trkpt>
      <trkpt lat="47.17683" lon="3.0268">
        <ele>205.3505859375</ele>
        <time>2016-04-06T12:09:59.000Z</time>
      </trkpt>
      <trkpt lat="47.1768" lon="3.02681">
        <ele>205.40148925781</ele>
        <time>2016-04-06T12:10:03.000Z</time>
      </trkpt>
      <trkpt lat="47.17677" lon="3.02682">
        <ele>205.45930480957</ele>
        <time>2016-04-06T12:10:04.000Z</time>
      </trkpt>
      <trkpt lat="47.17674" lon="3.02682">
        <ele>205.52615356445</ele>
        <time>2016-04-06T12:10:07.000Z</time>
      </trkpt>
      <trkpt lat="47.17672" lon="3.02681">
        <ele>205.58891296387</ele>
        <time>2016-04-06T12:10:09.000Z</time>
      </trkpt>
      <trkpt lat="47.17669" lon="3.0268">
        <ele>205.6509552002</ele>
        <time>2016-04-06T12:10:12.000Z</time>
      </trkpt>
      <trkpt lat="47.17666" lon="3.02681">
        <ele>205.71273803711</ele>
        <time>2016-04-06T12:10:15.000Z</time>
      </trkpt>
      <trkpt lat="47.17664" lon="3.0268">
        <ele>205.7890625</ele>
        <time>2016-04-06T12:10:18.000Z</time>
      </trkpt>
      <trkpt lat="47.17663" lon="3.0268">
        <ele>205.86711120605</ele>
        <time>2016-04-06T12:10:20.000Z</time>
      </trkpt>
      <trkpt lat="47.17661" lon="3.02679">
        <ele>205.97172546387</ele>
        <time>2016-04-06T12:10:23.000Z</time>
      </trkpt>
      <trkpt lat="47.17657" lon="3.02679">
        <ele>206.09721374512</ele>
        <time>2016-04-06T12:10:26.000Z</time>
      </trkpt>
      <trkpt lat="47.17655" lon="3.02679">
        <ele>206.23400878906</ele>
        <time>2016-04-06T12:10:28.000Z</time>
      </trkpt>
      <trkpt lat="47.17653" lon="3.02679">
        <ele>206.36889648438</ele>
        <time>2016-04-06T12:10:31.000Z</time>
      </trkpt>
      <trkpt lat="47.17651" lon="3.0268">
        <ele>206.51065063477</ele>
        <time>2016-04-06T12:10:33.000Z</time>
      </trkpt>
      <trkpt lat="47.17648" lon="3.0268">
        <ele>206.6498260498</ele>
        <time>2016-04-06T12:10:36.000Z</time>
      </trkpt>
      <trkpt lat="47.17645" lon="3.02681">
        <ele>206.78671264648</ele>
        <time>2016-04-06T12:10:39.000Z</time>
      </trkpt>
      <trkpt lat="47.17643" lon="3.02681">
        <ele>206.91677856445</ele>
        <time>2016-04-06T12:10:41.000Z</time>
      </trkpt>
      <trkpt lat="47.17641" lon="3.02681">
        <ele>207.04756164551</ele>
        <time>2016-04-06T12:10:44.000Z</time>
      </trkpt>
      <trkpt lat="47.17639" lon="3.02681">
        <ele>207.18489074707</ele>
        <time>2016-04-06T12:10:46.000Z</time>
      </trkpt>
      <trkpt lat="47.17635" lon="3.02683">
        <ele>207.32791137695</ele>
        <time>2016-04-06T12:10:49.000Z</time>
      </trkpt>
      <trkpt lat="47.17631" lon="3.02683">
        <ele>207.48002624512</ele>
        <time>2016-04-06T12:10:52.000Z</time>
      </trkpt>
      <trkpt lat="47.17627" lon="3.02683">
        <ele>207.66220092773</ele>
        <time>2016-04-06T12:10:55.000Z</time>
      </trkpt>
      <trkpt lat="47.17622" lon="3.02684">
        <ele>207.87133789062</ele>
        <time>2016-04-06T12:10:58.000Z</time>
      </trkpt>
      <trkpt lat="47.1762" lon="3.02685">
        <ele>208.07995605469</ele>
        <time>2016-04-06T12:11:01.000Z</time>
      </trkpt>
      <trkpt lat="47.17618" lon="3.02685">
        <ele>208.26777648926</ele>
        <time>2016-04-06T12:11:03.000Z</time>
      </trkpt>
      <trkpt lat="47.17614" lon="3.02685">
        <ele>208.45126342773</ele>
        <time>2016-04-06T12:11:05.000Z</time>
      </trkpt>
      <trkpt lat="47.1761" lon="3.02687">
        <ele>208.63366699219</ele>
        <time>2016-04-06T12:11:08.000Z</time>
      </trkpt>
      <trkpt lat="47.17607" lon="3.02687">
        <ele>208.7958984375</ele>
        <time>2016-04-06T12:11:11.000Z</time>
      </trkpt>
      <trkpt lat="47.17604" lon="3.02689">
        <ele>208.96003723145</ele>
        <time>2016-04-06T12:11:13.000Z</time>
      </trkpt>
      <trkpt lat="47.17602" lon="3.0269">
        <ele>209.12683105469</ele>
        <time>2016-04-06T12:11:15.000Z</time>
      </trkpt>
      <trkpt lat="47.17599" lon="3.02691">
        <ele>209.27934265137</ele>
        <time>2016-04-06T12:11:18.000Z</time>
      </trkpt>
      <trkpt lat="47.17596" lon="3.02692">
        <ele>209.40786743164</ele>
        <time>2016-04-06T12:11:21.000Z</time>
      </trkpt>
      <trkpt lat="47.17595" lon="3.02694">
        <ele>209.52388000488</ele>
        <time>2016-04-06T12:11:23.000Z</time>
      </trkpt>
      <trkpt lat="47.17592" lon="3.02695">
        <ele>209.63090515137</ele>
        <time>2016-04-06T12:11:26.000Z</time>
      </trkpt>
      <trkpt lat="47.17588" lon="3.02697">
        <ele>209.7504119873</ele>
        <time>2016-04-06T12:11:29.000Z</time>
      </trkpt>
      <trkpt lat="47.17585" lon="3.02699">
        <ele>209.87138366699</ele>
        <time>2016-04-06T12:11:32.000Z</time>
      </trkpt>
      <trkpt lat="47.17582" lon="3.02699">
        <ele>209.98510742188</ele>
        <time>2016-04-06T12:11:35.000Z</time>
      </trkpt>
      <trkpt lat="47.17577" lon="3.027">
        <ele>210.07626342773</ele>
        <time>2016-04-06T12:11:38.000Z</time>
      </trkpt>
      <trkpt lat="47.17575" lon="3.02701">
        <ele>210.14321899414</ele>
        <time>2016-04-06T12:11:40.000Z</time>
      </trkpt>
      <trkpt lat="47.17572" lon="3.02702">
        <ele>210.17269897461</ele>
        <time>2016-04-06T12:11:43.000Z</time>
      </trkpt>
      <trkpt lat="47.17569" lon="3.02703">
        <ele>210.16918945312</ele>
        <time>2016-04-06T12:11:46.000Z</time>
      </trkpt>
      <trkpt lat="47.17567" lon="3.02704">
        <ele>210.14819335938</ele>
        <time>2016-04-06T12:11:48.000Z</time>
      </trkpt>
      <trkpt lat="47.17564" lon="3.02705">
        <ele>210.1259765625</ele>
        <time>2016-04-06T12:11:51.000Z</time>
      </trkpt>
      <trkpt lat="47.1756" lon="3.02706">
        <ele>210.10229492188</ele>
        <time>2016-04-06T12:11:54.000Z</time>
      </trkpt>
      <trkpt lat="47.17558" lon="3.02707">
        <ele>210.08081054688</ele>
        <time>2016-04-06T12:11:56.000Z</time>
      </trkpt>
      <trkpt lat="47.17554" lon="3.02709">
        <ele>210.05493164062</ele>
        <time>2016-04-06T12:11:59.000Z</time>
      </trkpt>
      <trkpt lat="47.17552" lon="3.02711">
        <ele>210.02258300781</ele>
        <time>2016-04-06T12:12:01.000Z</time>
      </trkpt>
      <trkpt lat="47.17549" lon="3.02711">
        <ele>209.9921875</ele>
        <time>2016-04-06T12:12:04.000Z</time>
      </trkpt>
      <trkpt lat="47.17545" lon="3.02713">
        <ele>209.95849609375</ele>
        <time>2016-04-06T12:12:07.000Z</time>
      </trkpt>
      <trkpt lat="47.17542" lon="3.02713">
        <ele>209.92553710938</ele>
        <time>2016-04-06T12:12:09.000Z</time>
      </trkpt>
      <trkpt lat="47.17539" lon="3.02713">
        <ele>209.90295410156</ele>
        <time>2016-04-06T12:12:12.000Z</time>
      </trkpt>
      <trkpt lat="47.17537" lon="3.02713">
        <ele>209.89038085938</ele>
        <time>2016-04-06T12:12:15.000Z</time>
      </trkpt>
      <trkpt lat="47.17533" lon="3.02713">
        <ele>209.8837890625</ele>
        <time>2016-04-06T12:12:18.000Z</time>
      </trkpt>
      <trkpt lat="47.17532" lon="3.02713">
        <ele>209.88500976562</ele>
        <time>2016-04-06T12:12:21.000Z</time>
      </trkpt>
      <trkpt lat="47.17528" lon="3.02711">
        <ele>209.89782714844</ele>
        <time>2016-04-06T12:12:24.000Z</time>
      </trkpt>
      <trkpt lat="47.17525" lon="3.02709">
        <ele>209.91772460938</ele>
        <time>2016-04-06T12:12:26.000Z</time>
      </trkpt>
      <trkpt lat="47.17521" lon="3.02709">
        <ele>209.93896484375</ele>
        <time>2016-04-06T12:12:29.000Z</time>
      </trkpt>
      <trkpt lat="47.17519" lon="3.02709">
        <ele>209.95825195312</ele>
        <time>2016-04-06T12:12:31.000Z</time>
      </trkpt>
      <trkpt lat="47.17515" lon="3.02709">
        <ele>209.9765625</ele>
        <time>2016-04-06T12:12:34.000Z</time>
      </trkpt>
      <trkpt lat="47.17513" lon="3.02709">
        <ele>209.98559570312</ele>
        <time>2016-04-06T12:12:37.000Z</time>
      </trkpt>
      <trkpt lat="47.1751" lon="3.0271">
        <ele>209.98352050781</ele>
        <time>2016-04-06T12:12:39.000Z</time>
      </trkpt>
      <trkpt lat="47.17507" lon="3.0271">
        <ele>209.9755859375</ele>
        <time>2016-04-06T12:12:42.000Z</time>
      </trkpt>
      <trkpt lat="47.17503" lon="3.02714">
        <ele>209.95043945312</ele>
        <time>2016-04-06T12:12:45.000Z</time>
      </trkpt>
      <trkpt lat="47.17501" lon="3.02717">
        <ele>209.91003417969</ele>
        <time>2016-04-06T12:12:47.000Z</time>
      </trkpt>
      <trkpt lat="47.17499" lon="3.02722">
        <ele>209.83720397949</ele>
        <time>2016-04-06T12:12:50.000Z</time>
      </trkpt>
      <trkpt lat="47.17498" lon="3.02725">
        <ele>209.74203491211</ele>
        <time>2016-04-06T12:12:52.000Z</time>
      </trkpt>
      <trkpt lat="47.17497" lon="3.02728">
        <ele>209.62954711914</ele>
        <time>2016-04-06T12:12:54.000Z</time>
      </trkpt>
      <trkpt lat="47.17496" lon="3.02732">
        <ele>209.5107421875</ele>
        <time>2016-04-06T12:12:57.000Z</time>
      </trkpt>
      <trkpt lat="47.17496" lon="3.02735">
        <ele>209.39360046387</ele>
        <time>2016-04-06T12:12:59.000Z</time>
      </trkpt>
      <trkpt lat="47.17495" lon="3.0274">
        <ele>209.2815246582</ele>
        <time>2016-04-06T12:13:02.000Z</time>
      </trkpt>
      <trkpt lat="47.17495" lon="3.02744">
        <ele>209.17585754395</ele>
        <time>2016-04-06T12:13:04.000Z</time>
      </trkpt>
      <trkpt lat="47.17495" lon="3.02749">
        <ele>209.06594848633</ele>
        <time>2016-04-06T12:13:07.000Z</time>
      </trkpt>
      <trkpt lat="47.17494" lon="3.02754">
        <ele>208.9460144043</ele>
        <time>2016-04-06T12:13:10.000Z</time>
      </trkpt>
      <trkpt lat="47.17494" lon="3.02757">
        <ele>208.82160949707</ele>
        <time>2016-04-06T12:13:12.000Z</time>
      </trkpt>
      <trkpt lat="47.17494" lon="3.0276">
        <ele>208.69856262207</ele>
        <time>2016-04-06T12:13:14.000Z</time>
      </trkpt>
      <trkpt lat="47.17494" lon="3.02766">
        <ele>208.5591583252</ele>
        <time>2016-04-06T12:13:17.000Z</time>
      </trkpt>
      <trkpt lat="47.17494" lon="3.02772">
        <ele>208.40498352051</ele>
        <time>2016-04-06T12:13:20.000Z</time>
      </trkpt>
      <trkpt lat="47.17493" lon="3.02776">
        <ele>208.25480651855</ele>
        <time>2016-04-06T12:13:23.000Z</time>
      </trkpt>
      <trkpt lat="47.17493" lon="3.02782">
        <ele>208.08805847168</ele>
        <time>2016-04-06T12:13:26.000Z</time>
      </trkpt>
      <trkpt lat="47.17493" lon="3.02786">
        <ele>207.91987609863</ele>
        <time>2016-04-06T12:13:28.000Z</time>
      </trkpt>
      <trkpt lat="47.17493" lon="3.0279">
        <ele>207.75936889648</ele>
        <time>2016-04-06T12:13:30.000Z</time>
      </trkpt>
      <trkpt lat="47.17492" lon="3.02795">
        <ele>207.60859680176</ele>
        <time>2016-04-06T12:13:33.000Z</time>
      </trkpt>
      <trkpt lat="47.17491" lon="3.02799">
        <ele>207.4606628418</ele>
        <time>2016-04-06T12:13:35.000Z</time>
      </trkpt>
      <trkpt lat="47.1749" lon="3.02802">
        <ele>207.32609558105</ele>
        <time>2016-04-06T12:13:37.000Z</time>
      </trkpt>
      <trkpt lat="47.17487" lon="3.02806">
        <ele>207.19027709961</ele>
        <time>2016-04-06T12:13:40.000Z</time>
      </trkpt>
      <trkpt lat="47.17485" lon="3.0281">
        <ele>207.05851745605</ele>
        <time>2016-04-06T12:13:43.000Z</time>
      </trkpt>
      <trkpt lat="47.17482" lon="3.02815">
        <ele>206.93379211426</ele>
        <time>2016-04-06T12:13:46.000Z</time>
      </trkpt>
      <trkpt lat="47.17482" lon="3.02818">
        <ele>206.8196105957</ele>
        <time>2016-04-06T12:13:48.000Z</time>
      </trkpt>
      <trkpt lat="47.17479" lon="3.02824">
        <ele>206.70401000977</ele>
        <time>2016-04-06T12:13:51.000Z</time>
      </trkpt>
      <trkpt lat="47.17477" lon="3.02828">
        <ele>206.59826660156</ele>
        <time>2016-04-06T12:13:54.000Z</time>
      </trkpt>
      <trkpt lat="47.17476" lon="3.02832">
        <ele>206.50117492676</ele>
        <time>2016-04-06T12:13:57.000Z</time>
      </trkpt>
      <trkpt lat="47.17473" lon="3.02836">
        <ele>206.41760253906</ele>
        <time>2016-04-06T12:14:00.000Z</time>
      </trkpt>
      <trkpt lat="47.17471" lon="3.02841">
        <ele>206.33773803711</ele>
        <time>2016-04-06T12:14:03.000Z</time>
      </trkpt>
      <trkpt lat="47.17469" lon="3.02844">
        <ele>206.27375793457</ele>
        <time>2016-04-06T12:14:05.000Z</time>
      </trkpt>
      <trkpt lat="47.17467" lon="3.02846">
        <ele>206.22409057617</ele>
        <time>2016-04-06T12:14:07.000Z</time>
      </trkpt>
      <trkpt lat="47.17466" lon="3.02849">
        <ele>206.18041992188</ele>
        <time>2016-04-06T12:14:10.000Z</time>
      </trkpt>
      <trkpt lat="47.17464" lon="3.02853">
        <ele>206.13858032227</ele>
        <time>2016-04-06T12:14:13.000Z</time>
      </trkpt>
      <trkpt lat="47.17462" lon="3.02856">
        <ele>206.10444641113</ele>
        <time>2016-04-06T12:14:15.000Z</time>
      </trkpt>
      <trkpt lat="47.17461" lon="3.02858">
        <ele>206.07333374023</ele>
        <time>2016-04-06T12:14:17.000Z</time>
      </trkpt>
      <trkpt lat="47.17459" lon="3.02863">
        <ele>206.03433227539</ele>
        <time>2016-04-06T12:14:20.000Z</time>
      </trkpt>
      <trkpt lat="47.17457" lon="3.02867">
        <ele>205.9967956543</ele>
        <time>2016-04-06T12:14:23.000Z</time>
      </trkpt>
      <trkpt lat="47.17455" lon="3.02871">
        <ele>205.96188354492</ele>
        <time>2016-04-06T12:14:26.000Z</time>
      </trkpt>
      <trkpt lat="47.17452" lon="3.02876">
        <ele>205.92411804199</ele>
        <time>2016-04-06T12:14:29.000Z</time>
      </trkpt>
      <trkpt lat="47.1745" lon="3.0288">
        <ele>205.88497924805</ele>
        <time>2016-04-06T12:14:32.000Z</time>
      </trkpt>
      <trkpt lat="47.17449" lon="3.02881">
        <ele>205.85932922363</ele>
        <time>2016-04-06T12:14:34.000Z</time>
      </trkpt>
      <trkpt lat="47.17447" lon="3.02882">
        <ele>205.84269714355</ele>
        <time>2016-04-06T12:14:37.000Z</time>
      </trkpt>
      <trkpt lat="47.17446" lon="3.02884">
        <ele>205.82963562012</ele>
        <time>2016-04-06T12:14:39.000Z</time>
      </trkpt>
      <trkpt lat="47.17444" lon="3.02887">
        <ele>205.82272338867</ele>
        <time>2016-04-06T12:14:42.000Z</time>
      </trkpt>
      <trkpt lat="47.17442" lon="3.02889">
        <ele>205.82319641113</ele>
        <time>2016-04-06T12:14:44.000Z</time>
      </trkpt>
      <trkpt lat="47.1744" lon="3.02892">
        <ele>205.82022094727</ele>
        <time>2016-04-06T12:14:47.000Z</time>
      </trkpt>
      <trkpt lat="47.17439" lon="3.02894">
        <ele>205.81674194336</ele>
        <time>2016-04-06T12:14:49.000Z</time>
      </trkpt>
      <trkpt lat="47.17436" lon="3.02898">
        <ele>205.81484985352</ele>
        <time>2016-04-06T12:14:52.000Z</time>
      </trkpt>
      <trkpt lat="47.17434" lon="3.029">
        <ele>205.81521606445</ele>
        <time>2016-04-06T12:14:54.000Z</time>
      </trkpt>
      <trkpt lat="47.17431" lon="3.02904">
        <ele>205.81755065918</ele>
        <time>2016-04-06T12:14:57.000Z</time>
      </trkpt>
      <trkpt lat="47.1743" lon="3.02906">
        <ele>205.82402038574</ele>
        <time>2016-04-06T12:14:59.000Z</time>
      </trkpt>
      <trkpt lat="47.17428" lon="3.02909">
        <ele>205.82881164551</ele>
        <time>2016-04-06T12:15:01.000Z</time>
      </trkpt>
      <trkpt lat="47.17426" lon="3.02911">
        <ele>205.83755493164</ele>
        <time>2016-04-06T12:15:03.000Z</time>
      </trkpt>
      <trkpt lat="47.17422" lon="3.02914">
        <ele>205.85237121582</ele>
        <time>2016-04-06T12:15:06.000Z</time>
      </trkpt>
      <trkpt lat="47.1742" lon="3.02917">
        <ele>205.8674621582</ele>
        <time>2016-04-06T12:15:09.000Z</time>
      </trkpt>
      <trkpt lat="47.17418" lon="3.0292">
        <ele>205.8872833252</ele>
        <time>2016-04-06T12:15:12.000Z</time>
      </trkpt>
      <trkpt lat="47.17415" lon="3.02922">
        <ele>205.90971374512</ele>
        <time>2016-04-06T12:15:14.000Z</time>
      </trkpt>
      <trkpt lat="47.17413" lon="3.02925">
        <ele>205.9291229248</ele>
        <time>2016-04-06T12:15:17.000Z</time>
      </trkpt>
      <trkpt lat="47.1741" lon="3.02929">
        <ele>205.94242858887</ele>
        <time>2016-04-06T12:15:20.000Z</time>
      </trkpt>
      <trkpt lat="47.17407" lon="3.02931">
        <ele>205.95693969727</ele>
        <time>2016-04-06T12:15:23.000Z</time>
      </trkpt>
      <trkpt lat="47.17405" lon="3.02932">
        <ele>205.9701385498</ele>
        <time>2016-04-06T12:15:25.000Z</time>
      </trkpt>
      <trkpt lat="47.17403" lon="3.02934">
        <ele>205.986328125</ele>
        <time>2016-04-06T12:15:27.000Z</time>
      </trkpt>
      <trkpt lat="47.17399" lon="3.02935">
        <ele>206.01211547852</ele>
        <time>2016-04-06T12:15:30.000Z</time>
      </trkpt>
      <trkpt lat="47.17396" lon="3.02936">
        <ele>206.04748535156</ele>
        <time>2016-04-06T12:15:33.000Z</time>
      </trkpt>
      <trkpt lat="47.17392" lon="3.02937">
        <ele>206.091796875</ele>
        <time>2016-04-06T12:15:36.000Z</time>
      </trkpt>
      <trkpt lat="47.1739" lon="3.02937">
        <ele>206.13566589355</ele>
        <time>2016-04-06T12:15:38.000Z</time>
      </trkpt>
      <trkpt lat="47.17387" lon="3.02939">
        <ele>206.18417358398</ele>
        <time>2016-04-06T12:15:40.000Z</time>
      </trkpt>
      <trkpt lat="47.17384" lon="3.0294">
        <ele>206.23519897461</ele>
        <time>2016-04-06T12:15:43.000Z</time>
      </trkpt>
      <trkpt lat="47.1738" lon="3.02941">
        <ele>206.29104614258</ele>
        <time>2016-04-06T12:15:46.000Z</time>
      </trkpt>
      <trkpt lat="47.17377" lon="3.02943">
        <ele>206.34399414062</ele>
        <time>2016-04-06T12:15:49.000Z</time>
      </trkpt>
      <trkpt lat="47.17373" lon="3.02944">
        <ele>206.40786743164</ele>
        <time>2016-04-06T12:15:52.000Z</time>
      </trkpt>
      <trkpt lat="47.17368" lon="3.02946">
        <ele>206.48083496094</ele>
        <time>2016-04-06T12:15:55.000Z</time>
      </trkpt>
      <trkpt lat="47.17365" lon="3.02947">
        <ele>206.5550994873</ele>
        <time>2016-04-06T12:15:58.000Z</time>
      </trkpt>
      <trkpt lat="47.17362" lon="3.02949">
        <ele>206.62898254395</ele>
        <time>2016-04-06T12:16:01.000Z</time>
      </trkpt>
      <trkpt lat="47.17359" lon="3.02949">
        <ele>206.703125</ele>
        <time>2016-04-06T12:16:03.000Z</time>
      </trkpt>
      <trkpt lat="47.17356" lon="3.02951">
        <ele>206.77719116211</ele>
        <time>2016-04-06T12:16:06.000Z</time>
      </trkpt>
      <trkpt lat="47.17353" lon="3.02952">
        <ele>206.84512329102</ele>
        <time>2016-04-06T12:16:08.000Z</time>
      </trkpt>
      <trkpt lat="47.17351" lon="3.02953">
        <ele>206.91052246094</ele>
        <time>2016-04-06T12:16:10.000Z</time>
      </trkpt>
      <trkpt lat="47.17347" lon="3.02954">
        <ele>206.97885131836</ele>
        <time>2016-04-06T12:16:13.000Z</time>
      </trkpt>
      <trkpt lat="47.17344" lon="3.02954">
        <ele>207.05191040039</ele>
        <time>2016-04-06T12:16:16.000Z</time>
      </trkpt>
      <trkpt lat="47.17342" lon="3.02955">
        <ele>207.11901855469</ele>
        <time>2016-04-06T12:16:18.000Z</time>
      </trkpt>
      <trkpt lat="47.17337" lon="3.02957">
        <ele>207.20150756836</ele>
        <time>2016-04-06T12:16:21.000Z</time>
      </trkpt>
      <trkpt lat="47.17335" lon="3.02959">
        <ele>207.28889465332</ele>
        <time>2016-04-06T12:16:23.000Z</time>
      </trkpt>
      <trkpt lat="47.17332" lon="3.0296">
        <ele>207.36381530762</ele>
        <time>2016-04-06T12:16:26.000Z</time>
      </trkpt>
      <trkpt lat="47.17328" lon="3.0296">
        <ele>207.4169921875</ele>
        <time>2016-04-06T12:16:29.000Z</time>
      </trkpt>
      <trkpt lat="47.17326" lon="3.02962">
        <ele>207.45903015137</ele>
        <time>2016-04-06T12:16:31.000Z</time>
      </trkpt>
      <trkpt lat="47.17323" lon="3.02963">
        <ele>207.46981811523</ele>
        <time>2016-04-06T12:16:33.000Z</time>
      </trkpt>
      <trkpt lat="47.17319" lon="3.02965">
        <ele>207.4599609375</ele>
        <time>2016-04-06T12:16:36.000Z</time>
      </trkpt>
      <trkpt lat="47.17315" lon="3.02967">
        <ele>207.44596862793</ele>
        <time>2016-04-06T12:16:39.000Z</time>
      </trkpt>
      <trkpt lat="47.17311" lon="3.02969">
        <ele>207.43901062012</ele>
        <time>2016-04-06T12:16:42.000Z</time>
      </trkpt>
      <trkpt lat="47.17308" lon="3.02972">
        <ele>207.43656921387</ele>
        <time>2016-04-06T12:16:45.000Z</time>
      </trkpt>
      <trkpt lat="47.17306" lon="3.02973">
        <ele>207.43966674805</ele>
        <time>2016-04-06T12:16:47.000Z</time>
      </trkpt>
      <trkpt lat="47.17302" lon="3.02975">
        <ele>207.45166015625</ele>
        <time>2016-04-06T12:16:50.000Z</time>
      </trkpt>
      <trkpt lat="47.17299" lon="3.02977">
        <ele>207.46752929688</ele>
        <time>2016-04-06T12:16:53.000Z</time>
      </trkpt>
      <trkpt lat="47.17297" lon="3.0298">
        <ele>207.49018859863</ele>
        <time>2016-04-06T12:16:56.000Z</time>
      </trkpt>
      <trkpt lat="47.17295" lon="3.02982">
        <ele>207.51591491699</ele>
        <time>2016-04-06T12:16:59.000Z</time>
      </trkpt>
      <trkpt lat="47.17292" lon="3.02985">
        <ele>207.5542755127</ele>
        <time>2016-04-06T12:17:02.000Z</time>
      </trkpt>
      <trkpt lat="47.17289" lon="3.02989">
        <ele>207.60090637207</ele>
        <time>2016-04-06T12:17:05.000Z</time>
      </trkpt>
      <trkpt lat="47.17288" lon="3.02991">
        <ele>207.65225219727</ele>
        <time>2016-04-06T12:17:07.000Z</time>
      </trkpt>
      <trkpt lat="47.17285" lon="3.02995">
        <ele>207.71513366699</ele>
        <time>2016-04-06T12:17:10.000Z</time>
      </trkpt>
      <trkpt lat="47.17283" lon="3.02998">
        <ele>207.78897094727</ele>
        <time>2016-04-06T12:17:12.000Z</time>
      </trkpt>
      <trkpt lat="47.17282" lon="3.03002">
        <ele>207.85075378418</ele>
        <time>2016-04-06T12:17:14.000Z</time>
      </trkpt>
      <trkpt lat="47.1728" lon="3.03007">
        <ele>207.87710571289</ele>
        <time>2016-04-06T12:17:17.000Z</time>
      </trkpt>
      <trkpt lat="47.17279" lon="3.0301">
        <ele>207.8825378418</ele>
        <time>2016-04-06T12:17:19.000Z</time>
      </trkpt>
      <trkpt lat="47.17279" lon="3.03015">
        <ele>207.84843444824</ele>
        <time>2016-04-06T12:17:22.000Z</time>
      </trkpt>
      <trkpt lat="47.17279" lon="3.0302">
        <ele>207.77651977539</ele>
        <time>2016-04-06T12:17:25.000Z</time>
      </trkpt>
      <trkpt lat="47.17279" lon="3.03024">
        <ele>207.68869018555</ele>
        <time>2016-04-06T12:17:27.000Z</time>
      </trkpt>
      <trkpt lat="47.17277" lon="3.03029">
        <ele>207.60311889648</ele>
        <time>2016-04-06T12:17:30.000Z</time>
      </trkpt>
      <trkpt lat="47.17277" lon="3.03034">
        <ele>207.51156616211</ele>
        <time>2016-04-06T12:17:33.000Z</time>
      </trkpt>
      <trkpt lat="47.17276" lon="3.03039">
        <ele>207.42199707031</ele>
        <time>2016-04-06T12:17:36.000Z</time>
      </trkpt>
      <trkpt lat="47.17276" lon="3.03046">
        <ele>207.32531738281</ele>
        <time>2016-04-06T12:17:39.000Z</time>
      </trkpt>
      <trkpt lat="47.17276" lon="3.03051">
        <ele>207.22177124023</ele>
        <time>2016-04-06T12:17:42.000Z</time>
      </trkpt>
      <trkpt lat="47.17276" lon="3.03056">
        <ele>207.12014770508</ele>
        <time>2016-04-06T12:17:45.000Z</time>
      </trkpt>
      <trkpt lat="47.17277" lon="3.0306">
        <ele>207.01811218262</ele>
        <time>2016-04-06T12:17:48.000Z</time>
      </trkpt>
      <trkpt lat="47.17276" lon="3.03063">
        <ele>206.92416381836</ele>
        <time>2016-04-06T12:17:50.000Z</time>
      </trkpt>
      <trkpt lat="47.17275" lon="3.03067">
        <ele>206.84606933594</ele>
        <time>2016-04-06T12:17:53.000Z</time>
      </trkpt>
      <trkpt lat="47.17273" lon="3.0307">
        <ele>206.7845916748</ele>
        <time>2016-04-06T12:17:55.000Z</time>
      </trkpt>
      <trkpt lat="47.17272" lon="3.03072">
        <ele>206.73881530762</ele>
        <time>2016-04-06T12:17:57.000Z</time>
      </trkpt>
      <trkpt lat="47.17268" lon="3.03076">
        <ele>206.7123260498</ele>
        <time>2016-04-06T12:18:00.000Z</time>
      </trkpt>
      <trkpt lat="47.17266" lon="3.03077">
        <ele>206.70137023926</ele>
        <time>2016-04-06T12:18:02.000Z</time>
      </trkpt>
      <trkpt lat="47.17263" lon="3.03077">
        <ele>206.71183776855</ele>
        <time>2016-04-06T12:18:04.000Z</time>
      </trkpt>
      <trkpt lat="47.1726" lon="3.03078">
        <ele>206.73812866211</ele>
        <time>2016-04-06T12:18:07.000Z</time>
      </trkpt>
      <trkpt lat="47.17258" lon="3.03079">
        <ele>206.77729797363</ele>
        <time>2016-04-06T12:18:09.000Z</time>
      </trkpt>
      <trkpt lat="47.17255" lon="3.03079">
        <ele>206.82633972168</ele>
        <time>2016-04-06T12:18:12.000Z</time>
      </trkpt>
      <trkpt lat="47.17252" lon="3.03079">
        <ele>206.88198852539</ele>
        <time>2016-04-06T12:18:15.000Z</time>
      </trkpt>
      <trkpt lat="47.17249" lon="3.0308">
        <ele>206.93518066406</ele>
        <time>2016-04-06T12:18:18.000Z</time>
      </trkpt>
      <trkpt lat="47.17245" lon="3.03081">
        <ele>206.97456359863</ele>
        <time>2016-04-06T12:18:21.000Z</time>
      </trkpt>
      <trkpt lat="47.17242" lon="3.03081">
        <ele>207.0048828125</ele>
        <time>2016-04-06T12:18:24.000Z</time>
      </trkpt>
      <trkpt lat="47.17241" lon="3.0308">
        <ele>207.02432250977</ele>
        <time>2016-04-06T12:18:26.000Z</time>
      </trkpt>
      <trkpt lat="47.17237" lon="3.0308">
        <ele>207.03283691406</ele>
        <time>2016-04-06T12:18:29.000Z</time>
      </trkpt>
      <trkpt lat="47.17234" lon="3.0308">
        <ele>207.03466796875</ele>
        <time>2016-04-06T12:18:32.000Z</time>
      </trkpt>
      <trkpt lat="47.17231" lon="3.03079">
        <ele>207.03901672363</ele>
        <time>2016-04-06T12:18:34.000Z</time>
      </trkpt>
      <trkpt lat="47.17229" lon="3.03079">
        <ele>207.04341125488</ele>
        <time>2016-04-06T12:18:37.000Z</time>
      </trkpt>
      <trkpt lat="47.17228" lon="3.03078">
        <ele>207.04985046387</ele>
        <time>2016-04-06T12:18:39.000Z</time>
      </trkpt>
      <trkpt lat="47.17224" lon="3.03076">
        <ele>207.05986022949</ele>
        <time>2016-04-06T12:18:42.000Z</time>
      </trkpt>
      <trkpt lat="47.17221" lon="3.03076">
        <ele>207.06938171387</ele>
        <time>2016-04-06T12:18:44.000Z</time>
      </trkpt>
      <trkpt lat="47.17218" lon="3.03075">
        <ele>207.08093261719</ele>
        <time>2016-04-06T12:18:47.000Z</time>
      </trkpt>
      <trkpt lat="47.17214" lon="3.03074">
        <ele>207.09362792969</ele>
        <time>2016-04-06T12:18:50.000Z</time>
      </trkpt>
      <trkpt lat="47.17212" lon="3.03073">
        <ele>207.10510253906</ele>
        <time>2016-04-06T12:18:52.000Z</time>
      </trkpt>
      <trkpt lat="47.17209" lon="3.03072">
        <ele>207.11494445801</ele>
        <time>2016-04-06T12:18:55.000Z</time>
      </trkpt>
      <trkpt lat="47.17206" lon="3.03072">
        <ele>207.12480163574</ele>
        <time>2016-04-06T12:18:57.000Z</time>
      </trkpt>
      <trkpt lat="47.17203" lon="3.03071">
        <ele>207.13391113281</ele>
        <time>2016-04-06T12:18:59.000Z</time>
      </trkpt>
      <trkpt lat="47.172" lon="3.0307">
        <ele>207.14184570312</ele>
        <time>2016-04-06T12:19:02.000Z</time>
      </trkpt>
      <trkpt lat="47.17198" lon="3.0307">
        <ele>207.14921569824</ele>
        <time>2016-04-06T12:19:04.000Z</time>
      </trkpt>
      <trkpt lat="47.17194" lon="3.0307">
        <ele>207.15356445312</ele>
        <time>2016-04-06T12:19:07.000Z</time>
      </trkpt>
      <trkpt lat="47.17192" lon="3.0307">
        <ele>207.15718078613</ele>
        <time>2016-04-06T12:19:09.000Z</time>
      </trkpt>
      <trkpt lat="47.17189" lon="3.0307">
        <ele>207.16027832031</ele>
        <time>2016-04-06T12:19:12.000Z</time>
      </trkpt>
      <trkpt lat="47.17185" lon="3.0307">
        <ele>207.1611328125</ele>
        <time>2016-04-06T12:19:15.000Z</time>
      </trkpt>
      <trkpt lat="47.17183" lon="3.03069">
        <ele>207.16247558594</ele>
        <time>2016-04-06T12:19:17.000Z</time>
      </trkpt>
      <trkpt lat="47.17179" lon="3.03069">
        <ele>207.16581726074</ele>
        <time>2016-04-06T12:19:19.000Z</time>
      </trkpt>
      <trkpt lat="47.17175" lon="3.03069">
        <ele>207.16955566406</ele>
        <time>2016-04-06T12:19:22.000Z</time>
      </trkpt>
      <trkpt lat="47.17172" lon="3.03068">
        <ele>207.17280578613</ele>
        <time>2016-04-06T12:19:25.000Z</time>
      </trkpt>
      <trkpt lat="47.1717" lon="3.03068">
        <ele>207.17785644531</ele>
        <time>2016-04-06T12:19:27.000Z</time>
      </trkpt>
      <trkpt lat="47.17165" lon="3.03066">
        <ele>207.18008422852</ele>
        <time>2016-04-06T12:19:30.000Z</time>
      </trkpt>
      <trkpt lat="47.17163" lon="3.03064">
        <ele>207.17277526855</ele>
        <time>2016-04-06T12:19:32.000Z</time>
      </trkpt>
      <trkpt lat="47.1716" lon="3.03063">
        <ele>207.15258789062</ele>
        <time>2016-04-06T12:19:35.000Z</time>
      </trkpt>
      <trkpt lat="47.17156" lon="3.03061">
        <ele>207.11862182617</ele>
        <time>2016-04-06T12:19:38.000Z</time>
      </trkpt>
      <trkpt lat="47.17153" lon="3.03059">
        <ele>207.07495117188</ele>
        <time>2016-04-06T12:19:40.000Z</time>
      </trkpt>
      <trkpt lat="47.17149" lon="3.03057">
        <ele>207.01721191406</ele>
        <time>2016-04-06T12:19:43.000Z</time>
      </trkpt>
      <trkpt lat="47.17146" lon="3.03055">
        <ele>206.95967102051</ele>
        <time>2016-04-06T12:19:46.000Z</time>
      </trkpt>
      <trkpt lat="47.17143" lon="3.03053">
        <ele>206.90319824219</ele>
        <time>2016-04-06T12:19:49.000Z</time>
      </trkpt>
      <trkpt lat="47.17141" lon="3.03052">
        <ele>206.85375976562</ele>
        <time>2016-04-06T12:19:51.000Z</time>
      </trkpt>
      <trkpt lat="47.17139" lon="3.03051">
        <ele>206.80424499512</ele>
        <time>2016-04-06T12:19:53.000Z</time>
      </trkpt>
      <trkpt lat="47.17135" lon="3.03048">
        <ele>206.76000976562</ele>
        <time>2016-04-06T12:19:56.000Z</time>
      </trkpt>
      <trkpt lat="47.17132" lon="3.03048">
        <ele>206.70776367188</ele>
        <time>2016-04-06T12:19:59.000Z</time>
      </trkpt>
      <trkpt lat="47.17127" lon="3.03047">
        <ele>206.64453125</ele>
        <time>2016-04-06T12:20:02.000Z</time>
      </trkpt>
      <trkpt lat="47.17123" lon="3.03048">
        <ele>206.56742858887</ele>
        <time>2016-04-06T12:20:05.000Z</time>
      </trkpt>
      <trkpt lat="47.1712" lon="3.03048">
        <ele>206.48539733887</ele>
        <time>2016-04-06T12:20:07.000Z</time>
      </trkpt>
      <trkpt lat="47.17117" lon="3.03048">
        <ele>206.39750671387</ele>
        <time>2016-04-06T12:20:10.000Z</time>
      </trkpt>
      <trkpt lat="47.17115" lon="3.03048">
        <ele>206.31376647949</ele>
        <time>2016-04-06T12:20:13.000Z</time>
      </trkpt>
      <trkpt lat="47.17113" lon="3.03049">
        <ele>206.24287414551</ele>
        <time>2016-04-06T12:20:15.000Z</time>
      </trkpt>
      <trkpt lat="47.1711" lon="3.0305">
        <ele>206.17895507812</ele>
        <time>2016-04-06T12:20:18.000Z</time>
      </trkpt>
      <trkpt lat="47.17109" lon="3.03049">
        <ele>206.11950683594</ele>
        <time>2016-04-06T12:20:20.000Z</time>
      </trkpt>
      <trkpt lat="47.17105" lon="3.03049">
        <ele>206.06164550781</ele>
        <time>2016-04-06T12:20:23.000Z</time>
      </trkpt>
      <trkpt lat="47.17103" lon="3.03049">
        <ele>206.00476074219</ele>
        <time>2016-04-06T12:20:25.000Z</time>
      </trkpt>
      <trkpt lat="47.17099" lon="3.03049">
        <ele>205.9384765625</ele>
        <time>2016-04-06T12:20:28.000Z</time>
      </trkpt>
      <trkpt lat="47.17096" lon="3.03047">
        <ele>205.87129211426</ele>
        <time>2016-04-06T12:20:31.000Z</time>
      </trkpt>
      <trkpt lat="47.17091" lon="3.03046">
        <ele>205.79736328125</ele>
        <time>2016-04-06T12:20:34.000Z</time>
      </trkpt>
      <trkpt lat="47.1709" lon="3.03045">
        <ele>205.73156738281</ele>
        <time>2016-04-06T12:20:36.000Z</time>
      </trkpt>
      <trkpt lat="47.17088" lon="3.03045">
        <ele>205.66777038574</ele>
        <time>2016-04-06T12:20:38.000Z</time>
      </trkpt>
      <trkpt lat="47.17085" lon="3.03044">
        <ele>205.61103820801</ele>
        <time>2016-04-06T12:20:40.000Z</time>
      </trkpt>
      <trkpt lat="47.17081" lon="3.03044">
        <ele>205.54133605957</ele>
        <time>2016-04-06T12:20:43.000Z</time>
      </trkpt>
      <trkpt lat="47.17077" lon="3.03042">
        <ele>205.46005249023</ele>
        <time>2016-04-06T12:20:46.000Z</time>
      </trkpt>
      <trkpt lat="47.17076" lon="3.03042">
        <ele>205.37210083008</ele>
        <time>2016-04-06T12:20:48.000Z</time>
      </trkpt>
      <trkpt lat="47.17073" lon="3.0304">
        <ele>205.27236938477</ele>
        <time>2016-04-06T12:20:51.000Z</time>
      </trkpt>
      <trkpt lat="47.17071" lon="3.03039">
        <ele>205.17031860352</ele>
        <time>2016-04-06T12:20:53.000Z</time>
      </trkpt>
      <trkpt lat="47.17067" lon="3.03036">
        <ele>205.06579589844</ele>
        <time>2016-04-06T12:20:56.000Z</time>
      </trkpt>
      <trkpt lat="47.17064" lon="3.03034">
        <ele>204.96452331543</ele>
        <time>2016-04-06T12:20:59.000Z</time>
      </trkpt>
      <trkpt lat="47.17059" lon="3.03031">
        <ele>204.84310913086</ele>
        <time>2016-04-06T12:21:02.000Z</time>
      </trkpt>
      <trkpt lat="47.17057" lon="3.0303">
        <ele>204.72998046875</ele>
        <time>2016-04-06T12:21:04.000Z</time>
      </trkpt>
      <trkpt lat="47.17054" lon="3.03028">
        <ele>204.60986328125</ele>
        <time>2016-04-06T12:21:07.000Z</time>
      </trkpt>
      <trkpt lat="47.17052" lon="3.03026">
        <ele>204.49655151367</ele>
        <time>2016-04-06T12:21:09.000Z</time>
      </trkpt>
      <trkpt lat="47.17048" lon="3.03023">
        <ele>204.38171386719</ele>
        <time>2016-04-06T12:21:12.000Z</time>
      </trkpt>
      <trkpt lat="47.17046" lon="3.03021">
        <ele>204.27841186523</ele>
        <time>2016-04-06T12:21:15.000Z</time>
      </trkpt>
      <trkpt lat="47.17042" lon="3.03018">
        <ele>204.16131591797</ele>
        <time>2016-04-06T12:21:18.000Z</time>
      </trkpt>
      <trkpt lat="47.1704" lon="3.03016">
        <ele>204.04605102539</ele>
        <time>2016-04-06T12:21:21.000Z</time>
      </trkpt>
      <trkpt lat="47.17037" lon="3.03013">
        <ele>203.93334960938</ele>
        <time>2016-04-06T12:21:24.000Z</time>
      </trkpt>
      <trkpt lat="47.17035" lon="3.03011">
        <ele>203.82215881348</ele>
        <time>2016-04-06T12:21:26.000Z</time>
      </trkpt>
      <trkpt lat="47.17032" lon="3.03008">
        <ele>203.71308898926</ele>
        <time>2016-04-06T12:21:29.000Z</time>
      </trkpt>
      <trkpt lat="47.1703" lon="3.03006">
        <ele>203.61228942871</ele>
        <time>2016-04-06T12:21:31.000Z</time>
      </trkpt>
      <trkpt lat="47.17027" lon="3.03003">
        <ele>203.50654602051</ele>
        <time>2016-04-06T12:21:34.000Z</time>
      </trkpt>
      <trkpt lat="47.17025" lon="3.03001">
        <ele>203.39878845215</ele>
        <time>2016-04-06T12:21:37.000Z</time>
      </trkpt>
      <trkpt lat="47.17023" lon="3.02999">
        <ele>203.29814147949</ele>
        <time>2016-04-06T12:21:39.000Z</time>
      </trkpt>
      <trkpt lat="47.17021" lon="3.02997">
        <ele>203.20095825195</ele>
        <time>2016-04-06T12:21:41.000Z</time>
      </trkpt>
      <trkpt lat="47.17017" lon="3.02995">
        <ele>203.09020996094</ele>
        <time>2016-04-06T12:21:44.000Z</time>
      </trkpt>
      <trkpt lat="47.17014" lon="3.02994">
        <ele>202.98022460938</ele>
        <time>2016-04-06T12:21:46.000Z</time>
      </trkpt>
      <trkpt lat="47.17011" lon="3.02992">
        <ele>202.86569213867</ele>
        <time>2016-04-06T12:21:49.000Z</time>
      </trkpt>
      <trkpt lat="47.17007" lon="3.02991">
        <ele>202.73941040039</ele>
        <time>2016-04-06T12:21:52.000Z</time>
      </trkpt>
      <trkpt lat="47.17006" lon="3.02991">
        <ele>202.61122131348</ele>
        <time>2016-04-06T12:21:55.000Z</time>
      </trkpt>
      <trkpt lat="47.17006" lon="3.02991">
        <ele>202.61122131348</ele>
        <time>2016-04-06T12:22:15.000Z</time>
      </trkpt>
      <trkpt lat="47.17004" lon="3.02989">
        <ele>202.50541687012</ele>
        <time>2016-04-06T12:22:19.000Z</time>
      </trkpt>
      <trkpt lat="47.17004" lon="3.02988">
        <ele>202.41796875</ele>
        <time>2016-04-06T12:22:22.000Z</time>
      </trkpt>
      <trkpt lat="47.17003" lon="3.02989">
        <ele>202.34736633301</ele>
        <time>2016-04-06T12:22:31.000Z</time>
      </trkpt>
      <trkpt lat="47.17003" lon="3.02989">
        <ele>202.34736633301</ele>
        <time>2016-04-06T12:22:51.000Z</time>
      </trkpt>
      <trkpt lat="47.17001" lon="3.02988">
        <ele>202.29415893555</ele>
        <time>2016-04-06T12:23:16.000Z</time>
      </trkpt>
      <trkpt lat="47.17001" lon="3.02989">
        <ele>202.25625610352</ele>
        <time>2016-04-06T12:23:20.000Z</time>
      </trkpt>
      <trkpt lat="47.17" lon="3.02989">
        <ele>202.21458435059</ele>
        <time>2016-04-06T12:23:25.000Z</time>
      </trkpt>
      <trkpt lat="47.16999" lon="3.0299">
        <ele>202.16603088379</ele>
        <time>2016-04-06T12:23:29.000Z</time>
      </trkpt>
      <trkpt lat="47.16997" lon="3.02991">
        <ele>202.10427856445</ele>
        <time>2016-04-06T12:23:31.000Z</time>
      </trkpt>
      <trkpt lat="47.16995" lon="3.02992">
        <ele>202.03558349609</ele>
        <time>2016-04-06T12:23:33.000Z</time>
      </trkpt>
      <trkpt lat="47.16993" lon="3.02994">
        <ele>201.94091796875</ele>
        <time>2016-04-06T12:23:36.000Z</time>
      </trkpt>
      <trkpt lat="47.16989" lon="3.02995">
        <ele>201.82080078125</ele>
        <time>2016-04-06T12:23:39.000Z</time>
      </trkpt>
      <trkpt lat="47.16987" lon="3.02996">
        <ele>201.69543457031</ele>
        <time>2016-04-06T12:23:41.000Z</time>
      </trkpt>
      <trkpt lat="47.16983" lon="3.02997">
        <ele>201.55120849609</ele>
        <time>2016-04-06T12:23:44.000Z</time>
      </trkpt>
      <trkpt lat="47.16981" lon="3.02998">
        <ele>201.4052734375</ele>
        <time>2016-04-06T12:23:46.000Z</time>
      </trkpt>
      <trkpt lat="47.16978" lon="3.03">
        <ele>201.24768066406</ele>
        <time>2016-04-06T12:23:49.000Z</time>
      </trkpt>
      <trkpt lat="47.16974" lon="3.03002">
        <ele>201.09608459473</ele>
        <time>2016-04-06T12:23:52.000Z</time>
      </trkpt>
      <trkpt lat="47.16971" lon="3.03005">
        <ele>200.9309387207</ele>
        <time>2016-04-06T12:23:55.000Z</time>
      </trkpt>
      <trkpt lat="47.16969" lon="3.03007">
        <ele>200.79147338867</ele>
        <time>2016-04-06T12:23:57.000Z</time>
      </trkpt>
      <trkpt lat="47.16967" lon="3.03009">
        <ele>200.64500427246</ele>
        <time>2016-04-06T12:24:00.000Z</time>
      </trkpt>
      <trkpt lat="47.16964" lon="3.03012">
        <ele>200.51953125</ele>
        <time>2016-04-06T12:24:02.000Z</time>
      </trkpt>
      <trkpt lat="47.16962" lon="3.03015">
        <ele>200.40625</ele>
        <time>2016-04-06T12:24:04.000Z</time>
      </trkpt>
      <trkpt lat="47.1696" lon="3.03018">
        <ele>200.296875</ele>
        <time>2016-04-06T12:24:07.000Z</time>
      </trkpt>
      <trkpt lat="47.16958" lon="3.03021">
        <ele>200.1875</ele>
        <time>2016-04-06T12:24:10.000Z</time>
      </trkpt>
      <trkpt lat="47.16956" lon="3.03023">
        <ele>200.08984375</ele>
        <time>2016-04-06T12:24:12.000Z</time>
      </trkpt>
      <trkpt lat="47.16954" lon="3.03027">
        <ele>199.9921875</ele>
        <time>2016-04-06T12:24:15.000Z</time>
      </trkpt>
      <trkpt lat="47.16953" lon="3.03029">
        <ele>199.90234375</ele>
        <time>2016-04-06T12:24:17.000Z</time>
      </trkpt>
      <trkpt lat="47.16951" lon="3.03033">
        <ele>199.82421875</ele>
        <time>2016-04-06T12:24:20.000Z</time>
      </trkpt>
      <trkpt lat="47.16949" lon="3.03036">
        <ele>199.73828125</ele>
        <time>2016-04-06T12:24:23.000Z</time>
      </trkpt>
      <trkpt lat="47.16946" lon="3.03041">
        <ele>199.64453125</ele>
        <time>2016-04-06T12:24:26.000Z</time>
      </trkpt>
      <trkpt lat="47.16945" lon="3.03044">
        <ele>199.55859375</ele>
        <time>2016-04-06T12:24:28.000Z</time>
      </trkpt>
      <trkpt lat="47.16945" lon="3.03046">
        <ele>199.4765625</ele>
        <time>2016-04-06T12:24:30.000Z</time>
      </trkpt>
      <trkpt lat="47.16943" lon="3.03052">
        <ele>199.39453125</ele>
        <time>2016-04-06T12:24:33.000Z</time>
      </trkpt>
      <trkpt lat="47.16942" lon="3.03056">
        <ele>199.328125</ele>
        <time>2016-04-06T12:24:35.000Z</time>
      </trkpt>
      <trkpt lat="47.16941" lon="3.0306">
        <ele>199.26953125</ele>
        <time>2016-04-06T12:24:38.000Z</time>
      </trkpt>
      <trkpt lat="47.1694" lon="3.03064">
        <ele>199.21484375</ele>
        <time>2016-04-06T12:24:41.000Z</time>
      </trkpt>
      <trkpt lat="47.16938" lon="3.03066">
        <ele>199.15234375</ele>
        <time>2016-04-06T12:24:43.000Z</time>
      </trkpt>
      <trkpt lat="47.16935" lon="3.03071">
        <ele>199.07421875</ele>
        <time>2016-04-06T12:24:46.000Z</time>
      </trkpt>
      <trkpt lat="47.16934" lon="3.03074">
        <ele>198.99609375</ele>
        <time>2016-04-06T12:24:48.000Z</time>
      </trkpt>
      <trkpt lat="47.16932" lon="3.03076">
        <ele>198.9140625</ele>
        <time>2016-04-06T12:24:50.000Z</time>
      </trkpt>
      <trkpt lat="47.1693" lon="3.03079">
        <ele>198.8203125</ele>
        <time>2016-04-06T12:24:52.000Z</time>
      </trkpt>
      <trkpt lat="47.16928" lon="3.03082">
        <ele>198.72265625</ele>
        <time>2016-04-06T12:24:54.000Z</time>
      </trkpt>
      <trkpt lat="47.16926" lon="3.03086">
        <ele>198.62251281738</ele>
        <time>2016-04-06T12:24:57.000Z</time>
      </trkpt>
      <trkpt lat="47.16924" lon="3.0309">
        <ele>198.4885559082</ele>
        <time>2016-04-06T12:25:00.000Z</time>
      </trkpt>
      <trkpt lat="47.16922" lon="3.03092">
        <ele>198.35165405273</ele>
        <time>2016-04-06T12:25:02.000Z</time>
      </trkpt>
      <trkpt lat="47.1692" lon="3.03095">
        <ele>198.19926452637</ele>
        <time>2016-04-06T12:25:05.000Z</time>
      </trkpt>
      <trkpt lat="47.16918" lon="3.03097">
        <ele>198.03747558594</ele>
        <time>2016-04-06T12:25:07.000Z</time>
      </trkpt>
      <trkpt lat="47.16915" lon="3.03101">
        <ele>197.85420227051</ele>
        <time>2016-04-06T12:25:10.000Z</time>
      </trkpt>
      <trkpt lat="47.16912" lon="3.03104">
        <ele>197.66842651367</ele>
        <time>2016-04-06T12:25:12.000Z</time>
      </trkpt>
      <trkpt lat="47.1691" lon="3.03107">
        <ele>197.45887756348</ele>
        <time>2016-04-06T12:25:15.000Z</time>
      </trkpt>
      <trkpt lat="47.16908" lon="3.03108">
        <ele>197.25102233887</ele>
        <time>2016-04-06T12:25:17.000Z</time>
      </trkpt>
      <trkpt lat="47.16905" lon="3.03111">
        <ele>197.01759338379</ele>
        <time>2016-04-06T12:25:20.000Z</time>
      </trkpt>
      <trkpt lat="47.16902" lon="3.03114">
        <ele>196.79605102539</ele>
        <time>2016-04-06T12:25:23.000Z</time>
      </trkpt>
      <trkpt lat="47.16899" lon="3.03118">
        <ele>196.56555175781</ele>
        <time>2016-04-06T12:25:26.000Z</time>
      </trkpt>
      <trkpt lat="47.16897" lon="3.0312">
        <ele>196.35385131836</ele>
        <time>2016-04-06T12:25:29.000Z</time>
      </trkpt>
      <trkpt lat="47.16895" lon="3.03121">
        <ele>196.14016723633</ele>
        <time>2016-04-06T12:25:31.000Z</time>
      </trkpt>
      <trkpt lat="47.16892" lon="3.03123">
        <ele>195.9397277832</ele>
        <time>2016-04-06T12:25:34.000Z</time>
      </trkpt>
      <trkpt lat="47.1689" lon="3.03124">
        <ele>195.74807739258</ele>
        <time>2016-04-06T12:25:36.000Z</time>
      </trkpt>
      <trkpt lat="47.16886" lon="3.03126">
        <ele>195.55493164062</ele>
        <time>2016-04-06T12:25:39.000Z</time>
      </trkpt>
      <trkpt lat="47.16883" lon="3.03127">
        <ele>195.36190795898</ele>
        <time>2016-04-06T12:25:41.000Z</time>
      </trkpt>
      <trkpt lat="47.16881" lon="3.03128">
        <ele>195.17395019531</ele>
        <time>2016-04-06T12:25:43.000Z</time>
      </trkpt>
      <trkpt lat="47.16878" lon="3.03129">
        <ele>194.98928833008</ele>
        <time>2016-04-06T12:25:46.000Z</time>
      </trkpt>
      <trkpt lat="47.16875" lon="3.03132">
        <ele>194.79461669922</ele>
        <time>2016-04-06T12:25:49.000Z</time>
      </trkpt>
      <trkpt lat="47.16873" lon="3.03134">
        <ele>194.63061523438</ele>
        <time>2016-04-06T12:25:51.000Z</time>
      </trkpt>
      <trkpt lat="47.16869" lon="3.03136">
        <ele>194.44384765625</ele>
        <time>2016-04-06T12:25:54.000Z</time>
      </trkpt>
      <trkpt lat="47.16865" lon="3.03138">
        <ele>194.23275756836</ele>
        <time>2016-04-06T12:25:57.000Z</time>
      </trkpt>
      <trkpt lat="47.16862" lon="3.0314">
        <ele>194.01968383789</ele>
        <time>2016-04-06T12:26:00.000Z</time>
      </trkpt>
      <trkpt lat="47.1686" lon="3.03141">
        <ele>193.83122253418</ele>
        <time>2016-04-06T12:26:02.000Z</time>
      </trkpt>
      <trkpt lat="47.16858" lon="3.03143">
        <ele>193.63656616211</ele>
        <time>2016-04-06T12:26:05.000Z</time>
      </trkpt>
      <trkpt lat="47.16856" lon="3.03145">
        <ele>193.46765136719</ele>
        <time>2016-04-06T12:26:07.000Z</time>
      </trkpt>
      <trkpt lat="47.16853" lon="3.03148">
        <ele>193.32339477539</ele>
        <time>2016-04-06T12:26:10.000Z</time>
      </trkpt>
      <trkpt lat="47.16851" lon="3.03151">
        <ele>193.19422912598</ele>
        <time>2016-04-06T12:26:13.000Z</time>
      </trkpt>
      <trkpt lat="47.16849" lon="3.03153">
        <ele>193.06176757812</ele>
        <time>2016-04-06T12:26:15.000Z</time>
      </trkpt>
      <trkpt lat="47.16846" lon="3.03157">
        <ele>192.92314147949</ele>
        <time>2016-04-06T12:26:18.000Z</time>
      </trkpt>
      <trkpt lat="47.16844" lon="3.0316">
        <ele>192.78657531738</ele>
        <time>2016-04-06T12:26:20.000Z</time>
      </trkpt>
      <trkpt lat="47.1684" lon="3.03164">
        <ele>192.64152526855</ele>
        <time>2016-04-06T12:26:23.000Z</time>
      </trkpt>
      <trkpt lat="47.16837" lon="3.03168">
        <ele>192.49230957031</ele>
        <time>2016-04-06T12:26:26.000Z</time>
      </trkpt>
      <trkpt lat="47.16834" lon="3.03171">
        <ele>192.35046386719</ele>
        <time>2016-04-06T12:26:29.000Z</time>
      </trkpt>
      <trkpt lat="47.16832" lon="3.03174">
        <ele>192.23913574219</ele>
        <time>2016-04-06T12:26:32.000Z</time>
      </trkpt>
      <trkpt lat="47.1683" lon="3.03176">
        <ele>192.15255737305</ele>
        <time>2016-04-06T12:26:34.000Z</time>
      </trkpt>
      <trkpt lat="47.16827" lon="3.0318">
        <ele>192.10757446289</ele>
        <time>2016-04-06T12:26:37.000Z</time>
      </trkpt>
      <trkpt lat="47.16825" lon="3.03183">
        <ele>192.09414672852</ele>
        <time>2016-04-06T12:26:40.000Z</time>
      </trkpt>
      <trkpt lat="47.16823" lon="3.03185">
        <ele>192.09869384766</ele>
        <time>2016-04-06T12:26:42.000Z</time>
      </trkpt>
      <trkpt lat="47.16822" lon="3.03189">
        <ele>192.11807250977</ele>
        <time>2016-04-06T12:26:44.000Z</time>
      </trkpt>
      <trkpt lat="47.16819" lon="3.03194">
        <ele>192.14414978027</ele>
        <time>2016-04-06T12:26:47.000Z</time>
      </trkpt>
      <trkpt lat="47.16817" lon="3.03196">
        <ele>192.1711730957</ele>
        <time>2016-04-06T12:26:49.000Z</time>
      </trkpt>
      <trkpt lat="47.16814" lon="3.032">
        <ele>192.19987487793</ele>
        <time>2016-04-06T12:26:52.000Z</time>
      </trkpt>
      <trkpt lat="47.16812" lon="3.03202">
        <ele>192.23114013672</ele>
        <time>2016-04-06T12:26:54.000Z</time>
      </trkpt>
      <trkpt lat="47.1681" lon="3.03206">
        <ele>192.26152038574</ele>
        <time>2016-04-06T12:26:57.000Z</time>
      </trkpt>
      <trkpt lat="47.16808" lon="3.03208">
        <ele>192.28717041016</ele>
        <time>2016-04-06T12:26:59.000Z</time>
      </trkpt>
      <trkpt lat="47.16805" lon="3.03212">
        <ele>192.31672668457</ele>
        <time>2016-04-06T12:27:02.000Z</time>
      </trkpt>
      <trkpt lat="47.16804" lon="3.03214">
        <ele>192.34841918945</ele>
        <time>2016-04-06T12:27:04.000Z</time>
      </trkpt>
      <trkpt lat="47.16801" lon="3.03218">
        <ele>192.38632202148</ele>
        <time>2016-04-06T12:27:07.000Z</time>
      </trkpt>
      <trkpt lat="47.16799" lon="3.03221">
        <ele>192.42512512207</ele>
        <time>2016-04-06T12:27:09.000Z</time>
      </trkpt>
      <trkpt lat="47.16796" lon="3.03225">
        <ele>192.47048950195</ele>
        <time>2016-04-06T12:27:12.000Z</time>
      </trkpt>
      <trkpt lat="47.16793" lon="3.0323">
        <ele>192.52159118652</ele>
        <time>2016-04-06T12:27:15.000Z</time>
      </trkpt>
      <trkpt lat="47.16792" lon="3.03232">
        <ele>192.57377624512</ele>
        <time>2016-04-06T12:27:17.000Z</time>
      </trkpt>
      <trkpt lat="47.1679" lon="3.03235">
        <ele>192.62422180176</ele>
        <time>2016-04-06T12:27:20.000Z</time>
      </trkpt>
      <trkpt lat="47.16788" lon="3.03238">
        <ele>192.67547607422</ele>
        <time>2016-04-06T12:27:22.000Z</time>
      </trkpt>
      <trkpt lat="47.16787" lon="3.03241">
        <ele>192.72702026367</ele>
        <time>2016-04-06T12:27:25.000Z</time>
      </trkpt>
      <trkpt lat="47.16784" lon="3.03244">
        <ele>192.77711486816</ele>
        <time>2016-04-06T12:27:28.000Z</time>
      </trkpt>
      <trkpt lat="47.16783" lon="3.03246">
        <ele>192.82766723633</ele>
        <time>2016-04-06T12:27:30.000Z</time>
      </trkpt>
      <trkpt lat="47.16782" lon="3.03249">
        <ele>192.88108825684</ele>
        <time>2016-04-06T12:27:33.000Z</time>
      </trkpt>
      <trkpt lat="47.16779" lon="3.03253">
        <ele>192.95169067383</ele>
        <time>2016-04-06T12:27:36.000Z</time>
      </trkpt>
      <trkpt lat="47.16777" lon="3.03257">
        <ele>193.04403686523</ele>
        <time>2016-04-06T12:27:39.000Z</time>
      </trkpt>
      <trkpt lat="47.16775" lon="3.0326">
        <ele>193.14772033691</ele>
        <time>2016-04-06T12:27:42.000Z</time>
      </trkpt>
      <trkpt lat="47.16772" lon="3.03265">
        <ele>193.28668212891</ele>
        <time>2016-04-06T12:27:45.000Z</time>
      </trkpt>
      <trkpt lat="47.1677" lon="3.03268">
        <ele>193.43994140625</ele>
        <time>2016-04-06T12:27:47.000Z</time>
      </trkpt>
      <trkpt lat="47.16768" lon="3.03272">
        <ele>193.60403442383</ele>
        <time>2016-04-06T12:27:50.000Z</time>
      </trkpt>
      <trkpt lat="47.16766" lon="3.03275">
        <ele>193.7610168457</ele>
        <time>2016-04-06T12:27:52.000Z</time>
      </trkpt>
      <trkpt lat="47.16764" lon="3.0328">
        <ele>193.94320678711</ele>
        <time>2016-04-06T12:27:55.000Z</time>
      </trkpt>
      <trkpt lat="47.16762" lon="3.03285">
        <ele>194.13374328613</ele>
        <time>2016-04-06T12:27:58.000Z</time>
      </trkpt>
      <trkpt lat="47.1676" lon="3.0329">
        <ele>194.33923339844</ele>
        <time>2016-04-06T12:28:00.000Z</time>
      </trkpt>
      <trkpt lat="47.16759" lon="3.03292">
        <ele>194.53356933594</ele>
        <time>2016-04-06T12:28:02.000Z</time>
      </trkpt>
      <trkpt lat="47.16757" lon="3.03295">
        <ele>194.73568725586</ele>
        <time>2016-04-06T12:28:04.000Z</time>
      </trkpt>
      <trkpt lat="47.16756" lon="3.033">
        <ele>194.92915344238</ele>
        <time>2016-04-06T12:28:07.000Z</time>
      </trkpt>
      <trkpt lat="47.16756" lon="3.03301">
        <ele>195.08950805664</ele>
        <time>2016-04-06T12:28:09.000Z</time>
      </trkpt>
      <trkpt lat="47.16754" lon="3.03305">
        <ele>195.25030517578</ele>
        <time>2016-04-06T12:28:12.000Z</time>
      </trkpt>
      <trkpt lat="47.16753" lon="3.03308">
        <ele>195.40908813477</ele>
        <time>2016-04-06T12:28:14.000Z</time>
      </trkpt>
      <trkpt lat="47.16751" lon="3.03312">
        <ele>195.58116149902</ele>
        <time>2016-04-06T12:28:17.000Z</time>
      </trkpt>
      <trkpt lat="47.1675" lon="3.03316">
        <ele>195.75302124023</ele>
        <time>2016-04-06T12:28:19.000Z</time>
      </trkpt>
      <trkpt lat="47.16748" lon="3.0332">
        <ele>195.94424438477</ele>
        <time>2016-04-06T12:28:22.000Z</time>
      </trkpt>
      <trkpt lat="47.16747" lon="3.03321">
        <ele>196.10522460938</ele>
        <time>2016-04-06T12:28:24.000Z</time>
      </trkpt>
      <trkpt lat="47.16745" lon="3.03325">
        <ele>196.27201843262</ele>
        <time>2016-04-06T12:28:26.000Z</time>
      </trkpt>
      <trkpt lat="47.16742" lon="3.03329">
        <ele>196.42478942871</ele>
        <time>2016-04-06T12:28:29.000Z</time>
      </trkpt>
      <trkpt lat="47.16741" lon="3.03332">
        <ele>196.56163024902</ele>
        <time>2016-04-06T12:28:31.000Z</time>
      </trkpt>
      <trkpt lat="47.1674" lon="3.03336">
        <ele>196.68634033203</ele>
        <time>2016-04-06T12:28:34.000Z</time>
      </trkpt>
      <trkpt lat="47.16739" lon="3.03338">
        <ele>196.81677246094</ele>
        <time>2016-04-06T12:28:36.000Z</time>
      </trkpt>
      <trkpt lat="47.16737" lon="3.03343">
        <ele>196.94082641602</ele>
        <time>2016-04-06T12:28:39.000Z</time>
      </trkpt>
      <trkpt lat="47.16736" lon="3.03346">
        <ele>197.04913330078</ele>
        <time>2016-04-06T12:28:41.000Z</time>
      </trkpt>
      <trkpt lat="47.16734" lon="3.03349">
        <ele>197.15409851074</ele>
        <time>2016-04-06T12:28:44.000Z</time>
      </trkpt>
      <trkpt lat="47.16733" lon="3.03352">
        <ele>197.24794006348</ele>
        <time>2016-04-06T12:28:46.000Z</time>
      </trkpt>
      <trkpt lat="47.16731" lon="3.03355">
        <ele>197.33920288086</ele>
        <time>2016-04-06T12:28:49.000Z</time>
      </trkpt>
      <trkpt lat="47.1673" lon="3.03357">
        <ele>197.41728210449</ele>
        <time>2016-04-06T12:28:51.000Z</time>
      </trkpt>
      <trkpt lat="47.16728" lon="3.0336">
        <ele>197.49102783203</ele>
        <time>2016-04-06T12:28:53.000Z</time>
      </trkpt>
      <trkpt lat="47.16726" lon="3.03366">
        <ele>197.57534790039</ele>
        <time>2016-04-06T12:28:56.000Z</time>
      </trkpt>
      <trkpt lat="47.16723" lon="3.0337">
        <ele>197.66401672363</ele>
        <time>2016-04-06T12:28:59.000Z</time>
      </trkpt>
      <trkpt lat="47.16722" lon="3.03373">
        <ele>197.74685668945</ele>
        <time>2016-04-06T12:29:01.000Z</time>
      </trkpt>
      <trkpt lat="47.1672" lon="3.03376">
        <ele>197.8345489502</ele>
        <time>2016-04-06T12:29:04.000Z</time>
      </trkpt>
      <trkpt lat="47.16719" lon="3.0338">
        <ele>197.92756652832</ele>
        <time>2016-04-06T12:29:06.000Z</time>
      </trkpt>
      <trkpt lat="47.16716" lon="3.03384">
        <ele>198.00743103027</ele>
        <time>2016-04-06T12:29:09.000Z</time>
      </trkpt>
      <trkpt lat="47.16715" lon="3.03387">
        <ele>198.08016967773</ele>
        <time>2016-04-06T12:29:11.000Z</time>
      </trkpt>
      <trkpt lat="47.16713" lon="3.03391">
        <ele>198.16421508789</ele>
        <time>2016-04-06T12:29:14.000Z</time>
      </trkpt>
      <trkpt lat="47.16712" lon="3.03394">
        <ele>198.24528503418</ele>
        <time>2016-04-06T12:29:16.000Z</time>
      </trkpt>
      <trkpt lat="47.1671" lon="3.03399">
        <ele>198.32601928711</ele>
        <time>2016-04-06T12:29:19.000Z</time>
      </trkpt>
      <trkpt lat="47.16708" lon="3.03402">
        <ele>198.40148925781</ele>
        <time>2016-04-06T12:29:22.000Z</time>
      </trkpt>
      <trkpt lat="47.16706" lon="3.03406">
        <ele>198.47633361816</ele>
        <time>2016-04-06T12:29:25.000Z</time>
      </trkpt>
      <trkpt lat="47.16705" lon="3.0341">
        <ele>198.55285644531</ele>
        <time>2016-04-06T12:29:28.000Z</time>
      </trkpt>
      <trkpt lat="47.16703" lon="3.03414">
        <ele>198.6314239502</ele>
        <time>2016-04-06T12:29:31.000Z</time>
      </trkpt>
      <trkpt lat="47.16703" lon="3.03416">
        <ele>198.70463562012</ele>
        <time>2016-04-06T12:29:33.000Z</time>
      </trkpt>
      <trkpt lat="47.16701" lon="3.0342">
        <ele>198.76759338379</ele>
        <time>2016-04-06T12:29:35.000Z</time>
      </trkpt>
      <trkpt lat="47.167" lon="3.03424">
        <ele>198.82069396973</ele>
        <time>2016-04-06T12:29:37.000Z</time>
      </trkpt>
      <trkpt lat="47.16698" lon="3.03428">
        <ele>198.85426330566</ele>
        <time>2016-04-06T12:29:40.000Z</time>
      </trkpt>
      <trkpt lat="47.16697" lon="3.03433">
        <ele>198.87788391113</ele>
        <time>2016-04-06T12:29:43.000Z</time>
      </trkpt>
      <trkpt lat="47.16695" lon="3.03437">
        <ele>198.89019775391</ele>
        <time>2016-04-06T12:29:45.000Z</time>
      </trkpt>
      <trkpt lat="47.16693" lon="3.03441">
        <ele>198.9013671875</ele>
        <time>2016-04-06T12:29:47.000Z</time>
      </trkpt>
      <trkpt lat="47.16692" lon="3.03443">
        <ele>198.90985107422</ele>
        <time>2016-04-06T12:29:49.000Z</time>
      </trkpt>
      <trkpt lat="47.16691" lon="3.03447">
        <ele>198.92205810547</ele>
        <time>2016-04-06T12:29:52.000Z</time>
      </trkpt>
      <trkpt lat="47.16689" lon="3.03451">
        <ele>198.93206787109</ele>
        <time>2016-04-06T12:29:54.000Z</time>
      </trkpt>
      <trkpt lat="47.16688" lon="3.03455">
        <ele>198.94311523438</ele>
        <time>2016-04-06T12:29:57.000Z</time>
      </trkpt>
      <trkpt lat="47.16687" lon="3.03458">
        <ele>198.9580078125</ele>
        <time>2016-04-06T12:29:59.000Z</time>
      </trkpt>
      <trkpt lat="47.16686" lon="3.03462">
        <ele>198.97631835938</ele>
        <time>2016-04-06T12:30:02.000Z</time>
      </trkpt>
      <trkpt lat="47.16685" lon="3.03468">
        <ele>198.99603271484</ele>
        <time>2016-04-06T12:30:05.000Z</time>
      </trkpt>
      <trkpt lat="47.16685" lon="3.03474">
        <ele>199.02691650391</ele>
        <time>2016-04-06T12:30:08.000Z</time>
      </trkpt>
      <trkpt lat="47.16684" lon="3.03479">
        <ele>199.06506347656</ele>
        <time>2016-04-06T12:30:11.000Z</time>
      </trkpt>
      <trkpt lat="47.16682" lon="3.03484">
        <ele>199.10443115234</ele>
        <time>2016-04-06T12:30:14.000Z</time>
      </trkpt>
      <trkpt lat="47.16682" lon="3.03491">
        <ele>199.15295410156</ele>
        <time>2016-04-06T12:30:17.000Z</time>
      </trkpt>
      <trkpt lat="47.16681" lon="3.03494">
        <ele>199.20056152344</ele>
        <time>2016-04-06T12:30:19.000Z</time>
      </trkpt>
      <trkpt lat="47.1668" lon="3.035">
        <ele>199.2425994873</ele>
        <time>2016-04-06T12:30:22.000Z</time>
      </trkpt>
      <trkpt lat="47.1668" lon="3.03503">
        <ele>199.28762817383</ele>
        <time>2016-04-06T12:30:24.000Z</time>
      </trkpt>
      <trkpt lat="47.16679" lon="3.0351">
        <ele>199.3522644043</ele>
        <time>2016-04-06T12:30:27.000Z</time>
      </trkpt>
      <trkpt lat="47.16679" lon="3.03515">
        <ele>199.42672729492</ele>
        <time>2016-04-06T12:30:30.000Z</time>
      </trkpt>
      <trkpt lat="47.16678" lon="3.03518">
        <ele>199.50703430176</ele>
        <time>2016-04-06T12:30:32.000Z</time>
      </trkpt>
      <trkpt lat="47.16677" lon="3.03524">
        <ele>199.60055541992</ele>
        <time>2016-04-06T12:30:35.000Z</time>
      </trkpt>
      <trkpt lat="47.16677" lon="3.03527">
        <ele>199.69509887695</ele>
        <time>2016-04-06T12:30:37.000Z</time>
      </trkpt>
      <trkpt lat="47.16677" lon="3.0353">
        <ele>199.78057861328</ele>
        <time>2016-04-06T12:30:40.000Z</time>
      </trkpt>
      <trkpt lat="47.16677" lon="3.03534">
        <ele>199.86061096191</ele>
        <time>2016-04-06T12:30:42.000Z</time>
      </trkpt>
      <trkpt lat="47.16677" lon="3.03539">
        <ele>199.94857788086</ele>
        <time>2016-04-06T12:30:45.000Z</time>
      </trkpt>
      <trkpt lat="47.16676" lon="3.03542">
        <ele>200.02734375</ele>
        <time>2016-04-06T12:30:47.000Z</time>
      </trkpt>
      <trkpt lat="47.16676" lon="3.03549">
        <ele>200.12019348145</ele>
        <time>2016-04-06T12:30:50.000Z</time>
      </trkpt>
      <trkpt lat="47.16675" lon="3.03552">
        <ele>200.2106628418</ele>
        <time>2016-04-06T12:30:52.000Z</time>
      </trkpt>
      <trkpt lat="47.16675" lon="3.03557">
        <ele>200.30358886719</ele>
        <time>2016-04-06T12:30:55.000Z</time>
      </trkpt>
      <trkpt lat="47.16674" lon="3.03561">
        <ele>200.39360046387</ele>
        <time>2016-04-06T12:30:58.000Z</time>
      </trkpt>
      <trkpt lat="47.16673" lon="3.03565">
        <ele>200.48608398438</ele>
        <time>2016-04-06T12:31:00.000Z</time>
      </trkpt>
      <trkpt lat="47.16673" lon="3.03568">
        <ele>200.56721496582</ele>
        <time>2016-04-06T12:31:03.000Z</time>
      </trkpt>
      <trkpt lat="47.16672" lon="3.03572">
        <ele>200.64486694336</ele>
        <time>2016-04-06T12:31:05.000Z</time>
      </trkpt>
      <trkpt lat="47.16671" lon="3.03577">
        <ele>200.72769165039</ele>
        <time>2016-04-06T12:31:08.000Z</time>
      </trkpt>
      <trkpt lat="47.1667" lon="3.03582">
        <ele>200.81680297852</ele>
        <time>2016-04-06T12:31:11.000Z</time>
      </trkpt>
      <trkpt lat="47.16669" lon="3.03587">
        <ele>200.93014526367</ele>
        <time>2016-04-06T12:31:14.000Z</time>
      </trkpt>
      <trkpt lat="47.16668" lon="3.03594">
        <ele>201.08522033691</ele>
        <time>2016-04-06T12:31:17.000Z</time>
      </trkpt>
      <trkpt lat="47.16667" lon="3.036">
        <ele>201.2843170166</ele>
        <time>2016-04-06T12:31:20.000Z</time>
      </trkpt>
      <trkpt lat="47.16666" lon="3.03602">
        <ele>201.48550415039</ele>
        <time>2016-04-06T12:31:22.000Z</time>
      </trkpt>
      <trkpt lat="47.16665" lon="3.03607">
        <ele>201.70610046387</ele>
        <time>2016-04-06T12:31:25.000Z</time>
      </trkpt>
      <trkpt lat="47.16664" lon="3.03613">
        <ele>201.9366607666</ele>
        <time>2016-04-06T12:31:28.000Z</time>
      </trkpt>
      <trkpt lat="47.16664" lon="3.03618">
        <ele>202.15748596191</ele>
        <time>2016-04-06T12:31:31.000Z</time>
      </trkpt>
      <trkpt lat="47.16663" lon="3.0362">
        <ele>202.34231567383</ele>
        <time>2016-04-06T12:31:33.000Z</time>
      </trkpt>
      <trkpt lat="47.16662" lon="3.03624">
        <ele>202.53169250488</ele>
        <time>2016-04-06T12:31:36.000Z</time>
      </trkpt>
      <trkpt lat="47.16661" lon="3.03628">
        <ele>202.71109008789</ele>
        <time>2016-04-06T12:31:39.000Z</time>
      </trkpt>
      <trkpt lat="47.1666" lon="3.03633">
        <ele>202.88223266602</ele>
        <time>2016-04-06T12:31:42.000Z</time>
      </trkpt>
      <trkpt lat="47.1666" lon="3.03637">
        <ele>203.0386505127</ele>
        <time>2016-04-06T12:31:44.000Z</time>
      </trkpt>
      <trkpt lat="47.16659" lon="3.03642">
        <ele>203.21789550781</ele>
        <time>2016-04-06T12:31:46.000Z</time>
      </trkpt>
      <trkpt lat="47.16659" lon="3.03646">
        <ele>203.40591430664</ele>
        <time>2016-04-06T12:31:49.000Z</time>
      </trkpt>
      <trkpt lat="47.16658" lon="3.03651">
        <ele>203.59664916992</ele>
        <time>2016-04-06T12:31:51.000Z</time>
      </trkpt>
      <trkpt lat="47.16657" lon="3.03655">
        <ele>203.78237915039</ele>
        <time>2016-04-06T12:31:54.000Z</time>
      </trkpt>
      <trkpt lat="47.16657" lon="3.03659">
        <ele>203.96688842773</ele>
        <time>2016-04-06T12:31:56.000Z</time>
      </trkpt>
      <trkpt lat="47.16657" lon="3.03662">
        <ele>204.14041137695</ele>
        <time>2016-04-06T12:31:58.000Z</time>
      </trkpt>
      <trkpt lat="47.16656" lon="3.03667">
        <ele>204.30950927734</ele>
        <time>2016-04-06T12:32:01.000Z</time>
      </trkpt>
      <trkpt lat="47.16655" lon="3.03672">
        <ele>204.45729064941</ele>
        <time>2016-04-06T12:32:04.000Z</time>
      </trkpt>
      <trkpt lat="47.16654" lon="3.03675">
        <ele>204.57513427734</ele>
        <time>2016-04-06T12:32:06.000Z</time>
      </trkpt>
      <trkpt lat="47.16653" lon="3.0368">
        <ele>204.67868041992</ele>
        <time>2016-04-06T12:32:09.000Z</time>
      </trkpt>
      <trkpt lat="47.16652" lon="3.03683">
        <ele>204.75427246094</ele>
        <time>2016-04-06T12:32:11.000Z</time>
      </trkpt>
      <trkpt lat="47.1665" lon="3.0369">
        <ele>204.81811523438</ele>
        <time>2016-04-06T12:32:14.000Z</time>
      </trkpt>
      <trkpt lat="47.16649" lon="3.03695">
        <ele>204.88244628906</ele>
        <time>2016-04-06T12:32:17.000Z</time>
      </trkpt>
      <trkpt lat="47.16648" lon="3.03698">
        <ele>204.94921875</ele>
        <time>2016-04-06T12:32:19.000Z</time>
      </trkpt>
      <trkpt lat="47.16647" lon="3.03703">
        <ele>205.01574707031</ele>
        <time>2016-04-06T12:32:22.000Z</time>
      </trkpt>
      <trkpt lat="47.16646" lon="3.03705">
        <ele>205.0859375</ele>
        <time>2016-04-06T12:32:24.000Z</time>
      </trkpt>
      <trkpt lat="47.16645" lon="3.03711">
        <ele>205.14807128906</ele>
        <time>2016-04-06T12:32:27.000Z</time>
      </trkpt>
      <trkpt lat="47.16644" lon="3.03714">
        <ele>205.20324707031</ele>
        <time>2016-04-06T12:32:30.000Z</time>
      </trkpt>
      <trkpt lat="47.16642" lon="3.03718">
        <ele>205.25756835938</ele>
        <time>2016-04-06T12:32:32.000Z</time>
      </trkpt>
      <trkpt lat="47.16641" lon="3.03722">
        <ele>205.30786132812</ele>
        <time>2016-04-06T12:32:35.000Z</time>
      </trkpt>
      <trkpt lat="47.1664" lon="3.03725">
        <ele>205.36071777344</ele>
        <time>2016-04-06T12:32:37.000Z</time>
      </trkpt>
      <trkpt lat="47.16639" lon="3.03729">
        <ele>205.40893554688</ele>
        <time>2016-04-06T12:32:39.000Z</time>
      </trkpt>
      <trkpt lat="47.16639" lon="3.03733">
        <ele>205.46215820312</ele>
        <time>2016-04-06T12:32:41.000Z</time>
      </trkpt>
      <trkpt lat="47.16637" lon="3.03738">
        <ele>205.52514648438</ele>
        <time>2016-04-06T12:32:44.000Z</time>
      </trkpt>
      <trkpt lat="47.16637" lon="3.03741">
        <ele>205.58081054688</ele>
        <time>2016-04-06T12:32:46.000Z</time>
      </trkpt>
      <trkpt lat="47.16636" lon="3.03742">
        <ele>205.6279296875</ele>
        <time>2016-04-06T12:32:48.000Z</time>
      </trkpt>
      <trkpt lat="47.16634" lon="3.03748">
        <ele>205.67834472656</ele>
        <time>2016-04-06T12:32:51.000Z</time>
      </trkpt>
      <trkpt lat="47.16633" lon="3.03754">
        <ele>205.72961425781</ele>
        <time>2016-04-06T12:32:54.000Z</time>
      </trkpt>
      <trkpt lat="47.16632" lon="3.03759">
        <ele>205.76713562012</ele>
        <time>2016-04-06T12:32:57.000Z</time>
      </trkpt>
      <trkpt lat="47.16631" lon="3.03763">
        <ele>205.7998046875</ele>
        <time>2016-04-06T12:33:00.000Z</time>
      </trkpt>
      <trkpt lat="47.1663" lon="3.03767">
        <ele>205.83520507812</ele>
        <time>2016-04-06T12:33:02.000Z</time>
      </trkpt>
      <trkpt lat="47.16629" lon="3.03772">
        <ele>205.86235046387</ele>
        <time>2016-04-06T12:33:05.000Z</time>
      </trkpt>
      <trkpt lat="47.16628" lon="3.03776">
        <ele>205.87812805176</ele>
        <time>2016-04-06T12:33:08.000Z</time>
      </trkpt>
      <trkpt lat="47.16627" lon="3.03779">
        <ele>205.89179992676</ele>
        <time>2016-04-06T12:33:10.000Z</time>
      </trkpt>
      <trkpt lat="47.16626" lon="3.03784">
        <ele>205.90832519531</ele>
        <time>2016-04-06T12:33:12.000Z</time>
      </trkpt>
      <trkpt lat="47.16625" lon="3.03788">
        <ele>205.92272949219</ele>
        <time>2016-04-06T12:33:15.000Z</time>
      </trkpt>
      <trkpt lat="47.16624" lon="3.03794">
        <ele>205.94177246094</ele>
        <time>2016-04-06T12:33:18.000Z</time>
      </trkpt>
      <trkpt lat="47.16623" lon="3.03799">
        <ele>205.96464538574</ele>
        <time>2016-04-06T12:33:21.000Z</time>
      </trkpt>
      <trkpt lat="47.16623" lon="3.03804">
        <ele>205.99401855469</ele>
        <time>2016-04-06T12:33:24.000Z</time>
      </trkpt>
      <trkpt lat="47.16622" lon="3.03807">
        <ele>206.02026367188</ele>
        <time>2016-04-06T12:33:26.000Z</time>
      </trkpt>
      <trkpt lat="47.16621" lon="3.0381">
        <ele>206.04447937012</ele>
        <time>2016-04-06T12:33:28.000Z</time>
      </trkpt>
      <trkpt lat="47.1662" lon="3.03816">
        <ele>206.06733703613</ele>
        <time>2016-04-06T12:33:31.000Z</time>
      </trkpt>
      <trkpt lat="47.16619" lon="3.0382">
        <ele>206.08525085449</ele>
        <time>2016-04-06T12:33:34.000Z</time>
      </trkpt>
      <trkpt lat="47.16618" lon="3.03824">
        <ele>206.10095214844</ele>
        <time>2016-04-06T12:33:37.000Z</time>
      </trkpt>
      <trkpt lat="47.16616" lon="3.03829">
        <ele>206.11332702637</ele>
        <time>2016-04-06T12:33:40.000Z</time>
      </trkpt>
      <trkpt lat="47.16614" lon="3.03834">
        <ele>206.12268066406</ele>
        <time>2016-04-06T12:33:43.000Z</time>
      </trkpt>
      <trkpt lat="47.16613" lon="3.03836">
        <ele>206.12478637695</ele>
        <time>2016-04-06T12:33:45.000Z</time>
      </trkpt>
      <trkpt lat="47.16612" lon="3.03841">
        <ele>206.13349914551</ele>
        <time>2016-04-06T12:33:48.000Z</time>
      </trkpt>
      <trkpt lat="47.16612" lon="3.03845">
        <ele>206.14559936523</ele>
        <time>2016-04-06T12:33:50.000Z</time>
      </trkpt>
      <trkpt lat="47.16611" lon="3.03848">
        <ele>206.16549682617</ele>
        <time>2016-04-06T12:33:52.000Z</time>
      </trkpt>
      <trkpt lat="47.1661" lon="3.03854">
        <ele>206.20344543457</ele>
        <time>2016-04-06T12:33:55.000Z</time>
      </trkpt>
      <trkpt lat="47.1661" lon="3.03857">
        <ele>206.24726867676</ele>
        <time>2016-04-06T12:33:57.000Z</time>
      </trkpt>
      <trkpt lat="47.16608" lon="3.03861">
        <ele>206.28652954102</ele>
        <time>2016-04-06T12:34:00.000Z</time>
      </trkpt>
      <trkpt lat="47.16607" lon="3.03866">
        <ele>206.32406616211</ele>
        <time>2016-04-06T12:34:02.000Z</time>
      </trkpt>
      <trkpt lat="47.16605" lon="3.03872">
        <ele>206.37031555176</ele>
        <time>2016-04-06T12:34:05.000Z</time>
      </trkpt>
      <trkpt lat="47.16604" lon="3.03876">
        <ele>206.41262817383</ele>
        <time>2016-04-06T12:34:08.000Z</time>
      </trkpt>
      <trkpt lat="47.16603" lon="3.0388">
        <ele>206.45776367188</ele>
        <time>2016-04-06T12:34:11.000Z</time>
      </trkpt>
      <trkpt lat="47.16601" lon="3.03884">
        <ele>206.50820922852</ele>
        <time>2016-04-06T12:34:14.000Z</time>
      </trkpt>
      <trkpt lat="47.166" lon="3.03889">
        <ele>206.56228637695</ele>
        <time>2016-04-06T12:34:17.000Z</time>
      </trkpt>
      <trkpt lat="47.166" lon="3.03892">
        <ele>206.61267089844</ele>
        <time>2016-04-06T12:34:19.000Z</time>
      </trkpt>
      <trkpt lat="47.16598" lon="3.03896">
        <ele>206.66317749023</ele>
        <time>2016-04-06T12:34:22.000Z</time>
      </trkpt>
      <trkpt lat="47.16597" lon="3.03898">
        <ele>206.71171569824</ele>
        <time>2016-04-06T12:34:24.000Z</time>
      </trkpt>
      <trkpt lat="47.16597" lon="3.03903">
        <ele>206.76599121094</ele>
        <time>2016-04-06T12:34:27.000Z</time>
      </trkpt>
      <trkpt lat="47.16596" lon="3.03906">
        <ele>206.82205200195</ele>
        <time>2016-04-06T12:34:29.000Z</time>
      </trkpt>
      <trkpt lat="47.16595" lon="3.03911">
        <ele>206.8832244873</ele>
        <time>2016-04-06T12:34:32.000Z</time>
      </trkpt>
      <trkpt lat="47.16594" lon="3.03914">
        <ele>206.94509887695</ele>
        <time>2016-04-06T12:34:34.000Z</time>
      </trkpt>
      <trkpt lat="47.16592" lon="3.03918">
        <ele>207.00630187988</ele>
        <time>2016-04-06T12:34:37.000Z</time>
      </trkpt>
      <trkpt lat="47.16591" lon="3.03922">
        <ele>207.05004882812</ele>
        <time>2016-04-06T12:34:39.000Z</time>
      </trkpt>
      <trkpt lat="47.16591" lon="3.03926">
        <ele>207.07987976074</ele>
        <time>2016-04-06T12:34:41.000Z</time>
      </trkpt>
      <trkpt lat="47.16589" lon="3.0393">
        <ele>207.09004211426</ele>
        <time>2016-04-06T12:34:44.000Z</time>
      </trkpt>
      <trkpt lat="47.16587" lon="3.03935">
        <ele>207.083984375</ele>
        <time>2016-04-06T12:34:47.000Z</time>
      </trkpt>
      <trkpt lat="47.16586" lon="3.03939">
        <ele>207.068359375</ele>
        <time>2016-04-06T12:34:50.000Z</time>
      </trkpt>
      <trkpt lat="47.16586" lon="3.03942">
        <ele>207.0546875</ele>
        <time>2016-04-06T12:34:52.000Z</time>
      </trkpt>
      <trkpt lat="47.16585" lon="3.03945">
        <ele>207.0400390625</ele>
        <time>2016-04-06T12:34:54.000Z</time>
      </trkpt>
      <trkpt lat="47.16583" lon="3.0395">
        <ele>207.02554321289</ele>
        <time>2016-04-06T12:34:57.000Z</time>
      </trkpt>
      <trkpt lat="47.16582" lon="3.03955">
        <ele>207.01574707031</ele>
        <time>2016-04-06T12:34:59.000Z</time>
      </trkpt>
      <trkpt lat="47.16581" lon="3.03959">
        <ele>207.00918579102</ele>
        <time>2016-04-06T12:35:01.000Z</time>
      </trkpt>
      <trkpt lat="47.16579" lon="3.03963">
        <ele>207.0044708252</ele>
        <time>2016-04-06T12:35:04.000Z</time>
      </trkpt>
      <trkpt lat="47.16577" lon="3.03967">
        <ele>207.00375366211</ele>
        <time>2016-04-06T12:35:07.000Z</time>
      </trkpt>
      <trkpt lat="47.16574" lon="3.03972">
        <ele>207.01086425781</ele>
        <time>2016-04-06T12:35:10.000Z</time>
      </trkpt>
      <trkpt lat="47.16574" lon="3.03975">
        <ele>207.02005004883</ele>
        <time>2016-04-06T12:35:12.000Z</time>
      </trkpt>
      <trkpt lat="47.16573" lon="3.0398">
        <ele>207.03300476074</ele>
        <time>2016-04-06T12:35:14.000Z</time>
      </trkpt>
      <trkpt lat="47.16571" lon="3.03983">
        <ele>207.04907226562</ele>
        <time>2016-04-06T12:35:16.000Z</time>
      </trkpt>
      <trkpt lat="47.1657" lon="3.03988">
        <ele>207.06945800781</ele>
        <time>2016-04-06T12:35:19.000Z</time>
      </trkpt>
      <trkpt lat="47.16567" lon="3.03992">
        <ele>207.09329223633</ele>
        <time>2016-04-06T12:35:22.000Z</time>
      </trkpt>
      <trkpt lat="47.16566" lon="3.03995">
        <ele>207.12109375</ele>
        <time>2016-04-06T12:35:24.000Z</time>
      </trkpt>
      <trkpt lat="47.16565" lon="3.04">
        <ele>207.15180969238</ele>
        <time>2016-04-06T12:35:27.000Z</time>
      </trkpt>
      <trkpt lat="47.16562" lon="3.04006">
        <ele>207.19584655762</ele>
        <time>2016-04-06T12:35:30.000Z</time>
      </trkpt>
      <trkpt lat="47.1656" lon="3.04011">
        <ele>207.24702453613</ele>
        <time>2016-04-06T12:35:33.000Z</time>
      </trkpt>
      <trkpt lat="47.16559" lon="3.04014">
        <ele>207.29890441895</ele>
        <time>2016-04-06T12:35:35.000Z</time>
      </trkpt>
      <trkpt lat="47.16556" lon="3.04019">
        <ele>207.35844421387</ele>
        <time>2016-04-06T12:35:38.000Z</time>
      </trkpt>
      <trkpt lat="47.16555" lon="3.04022">
        <ele>207.41702270508</ele>
        <time>2016-04-06T12:35:40.000Z</time>
      </trkpt>
      <trkpt lat="47.16554" lon="3.04027">
        <ele>207.46801757812</ele>
        <time>2016-04-06T12:35:43.000Z</time>
      </trkpt>
      <trkpt lat="47.16553" lon="3.04029">
        <ele>207.51123046875</ele>
        <time>2016-04-06T12:35:45.000Z</time>
      </trkpt>
      <trkpt lat="47.16551" lon="3.04034">
        <ele>207.55644226074</ele>
        <time>2016-04-06T12:35:48.000Z</time>
      </trkpt>
      <trkpt lat="47.16549" lon="3.04039">
        <ele>207.59802246094</ele>
        <time>2016-04-06T12:35:51.000Z</time>
      </trkpt>
      <trkpt lat="47.16547" lon="3.04045">
        <ele>207.64370727539</ele>
        <time>2016-04-06T12:35:54.000Z</time>
      </trkpt>
      <trkpt lat="47.16545" lon="3.0405">
        <ele>207.68948364258</ele>
        <time>2016-04-06T12:35:57.000Z</time>
      </trkpt>
      <trkpt lat="47.16543" lon="3.04056">
        <ele>207.73767089844</ele>
        <time>2016-04-06T12:36:00.000Z</time>
      </trkpt>
      <trkpt lat="47.16542" lon="3.04062">
        <ele>207.78402709961</ele>
        <time>2016-04-06T12:36:03.000Z</time>
      </trkpt>
      <trkpt lat="47.16541" lon="3.04064">
        <ele>207.82409667969</ele>
        <time>2016-04-06T12:36:05.000Z</time>
      </trkpt>
      <trkpt lat="47.16539" lon="3.04067">
        <ele>207.85830688477</ele>
        <time>2016-04-06T12:36:07.000Z</time>
      </trkpt>
      <trkpt lat="47.16537" lon="3.04072">
        <ele>207.88803100586</ele>
        <time>2016-04-06T12:36:10.000Z</time>
      </trkpt>
      <trkpt lat="47.16535" lon="3.04076">
        <ele>207.91455078125</ele>
        <time>2016-04-06T12:36:13.000Z</time>
      </trkpt>
      <trkpt lat="47.16533" lon="3.04081">
        <ele>207.93778991699</ele>
        <time>2016-04-06T12:36:16.000Z</time>
      </trkpt>
      <trkpt lat="47.16532" lon="3.04085">
        <ele>207.9621887207</ele>
        <time>2016-04-06T12:36:18.000Z</time>
      </trkpt>
      <trkpt lat="47.16529" lon="3.04089">
        <ele>207.98918151855</ele>
        <time>2016-04-06T12:36:21.000Z</time>
      </trkpt>
      <trkpt lat="47.16528" lon="3.04094">
        <ele>208.01889038086</ele>
        <time>2016-04-06T12:36:24.000Z</time>
      </trkpt>
      <trkpt lat="47.16525" lon="3.04099">
        <ele>208.052734375</ele>
        <time>2016-04-06T12:36:27.000Z</time>
      </trkpt>
      <trkpt lat="47.16524" lon="3.04103">
        <ele>208.08911132812</ele>
        <time>2016-04-06T12:36:29.000Z</time>
      </trkpt>
      <trkpt lat="47.16522" lon="3.04108">
        <ele>208.13003540039</ele>
        <time>2016-04-06T12:36:32.000Z</time>
      </trkpt>
      <trkpt lat="47.16521" lon="3.04111">
        <ele>208.17106628418</ele>
        <time>2016-04-06T12:36:34.000Z</time>
      </trkpt>
      <trkpt lat="47.1652" lon="3.04115">
        <ele>208.21176147461</ele>
        <time>2016-04-06T12:36:36.000Z</time>
      </trkpt>
      <trkpt lat="47.16518" lon="3.0412">
        <ele>208.2533416748</ele>
        <time>2016-04-06T12:36:39.000Z</time>
      </trkpt>
      <trkpt lat="47.16518" lon="3.04122">
        <ele>208.29263305664</ele>
        <time>2016-04-06T12:36:41.000Z</time>
      </trkpt>
      <trkpt lat="47.16517" lon="3.04125">
        <ele>208.32890319824</ele>
        <time>2016-04-06T12:36:43.000Z</time>
      </trkpt>
      <trkpt lat="47.16516" lon="3.04126">
        <ele>208.36123657227</ele>
        <time>2016-04-06T12:36:47.000Z</time>
      </trkpt>
      <trkpt lat="47.16516" lon="3.04128">
        <ele>208.38847351074</ele>
        <time>2016-04-06T12:36:50.000Z</time>
      </trkpt>
      <trkpt lat="47.16516" lon="3.0413">
        <ele>208.41079711914</ele>
        <time>2016-04-06T12:36:54.000Z</time>
      </trkpt>
      <trkpt lat="47.16516" lon="3.04133">
        <ele>208.4338684082</ele>
        <time>2016-04-06T12:36:57.000Z</time>
      </trkpt>
      <trkpt lat="47.16515" lon="3.04137">
        <ele>208.46029663086</ele>
        <time>2016-04-06T12:37:00.000Z</time>
      </trkpt>
      <trkpt lat="47.16513" lon="3.04142">
        <ele>208.49592590332</ele>
        <time>2016-04-06T12:37:03.000Z</time>
      </trkpt>
      <trkpt lat="47.16512" lon="3.04146">
        <ele>208.541015625</ele>
        <time>2016-04-06T12:37:06.000Z</time>
      </trkpt>
      <trkpt lat="47.1651" lon="3.04151">
        <ele>208.59204101562</ele>
        <time>2016-04-06T12:37:09.000Z</time>
      </trkpt>
      <trkpt lat="47.1651" lon="3.04153">
        <ele>208.64413452148</ele>
        <time>2016-04-06T12:37:11.000Z</time>
      </trkpt>
      <trkpt lat="47.16508" lon="3.04159">
        <ele>208.70333862305</ele>
        <time>2016-04-06T12:37:14.000Z</time>
      </trkpt>
      <trkpt lat="47.16507" lon="3.04163">
        <ele>208.76118469238</ele>
        <time>2016-04-06T12:37:17.000Z</time>
      </trkpt>
      <trkpt lat="47.16505" lon="3.04168">
        <ele>208.82182312012</ele>
        <time>2016-04-06T12:37:20.000Z</time>
      </trkpt>
      <trkpt lat="47.16504" lon="3.04172">
        <ele>208.88346862793</ele>
        <time>2016-04-06T12:37:23.000Z</time>
      </trkpt>
      <trkpt lat="47.16502" lon="3.04175">
        <ele>208.94905090332</ele>
        <time>2016-04-06T12:37:25.000Z</time>
      </trkpt>
      <trkpt lat="47.165" lon="3.04181">
        <ele>209.01672363281</ele>
        <time>2016-04-06T12:37:28.000Z</time>
      </trkpt>
      <trkpt lat="47.165" lon="3.04183">
        <ele>209.08163452148</ele>
        <time>2016-04-06T12:37:30.000Z</time>
      </trkpt>
      <trkpt lat="47.16498" lon="3.04188">
        <ele>209.15225219727</ele>
        <time>2016-04-06T12:37:33.000Z</time>
      </trkpt>
      <trkpt lat="47.16496" lon="3.04193">
        <ele>209.2308807373</ele>
        <time>2016-04-06T12:37:36.000Z</time>
      </trkpt>
      <trkpt lat="47.16496" lon="3.04195">
        <ele>209.30732727051</ele>
        <time>2016-04-06T12:37:38.000Z</time>
      </trkpt>
      <trkpt lat="47.16493" lon="3.042">
        <ele>209.38545227051</ele>
        <time>2016-04-06T12:37:41.000Z</time>
      </trkpt>
      <trkpt lat="47.16492" lon="3.04202">
        <ele>209.46496582031</ele>
        <time>2016-04-06T12:37:43.000Z</time>
      </trkpt>
      <trkpt lat="47.16491" lon="3.04206">
        <ele>209.54219055176</ele>
        <time>2016-04-06T12:37:46.000Z</time>
      </trkpt>
      <trkpt lat="47.1649" lon="3.0421">
        <ele>209.6142578125</ele>
        <time>2016-04-06T12:37:48.000Z</time>
      </trkpt>
      <trkpt lat="47.16488" lon="3.04213">
        <ele>209.69091796875</ele>
        <time>2016-04-06T12:37:50.000Z</time>
      </trkpt>
      <trkpt lat="47.16486" lon="3.04219">
        <ele>209.77143859863</ele>
        <time>2016-04-06T12:37:53.000Z</time>
      </trkpt>
      <trkpt lat="47.16485" lon="3.04223">
        <ele>209.85673522949</ele>
        <time>2016-04-06T12:37:56.000Z</time>
      </trkpt>
      <trkpt lat="47.16484" lon="3.04226">
        <ele>209.9365234375</ele>
        <time>2016-04-06T12:37:59.000Z</time>
      </trkpt>
      <trkpt lat="47.16483" lon="3.04228">
        <ele>210.01013183594</ele>
        <time>2016-04-06T12:38:01.000Z</time>
      </trkpt>
      <trkpt lat="47.16482" lon="3.0423">
        <ele>210.07865905762</ele>
        <time>2016-04-06T12:38:03.000Z</time>
      </trkpt>
      <trkpt lat="47.16479" lon="3.04235">
        <ele>210.15190124512</ele>
        <time>2016-04-06T12:38:06.000Z</time>
      </trkpt>
      <trkpt lat="47.16478" lon="3.0424">
        <ele>210.2294921875</ele>
        <time>2016-04-06T12:38:09.000Z</time>
      </trkpt>
      <trkpt lat="47.16477" lon="3.04245">
        <ele>210.31059265137</ele>
        <time>2016-04-06T12:38:11.000Z</time>
      </trkpt>
      <trkpt lat="47.16476" lon="3.0425">
        <ele>210.39717102051</ele>
        <time>2016-04-06T12:38:14.000Z</time>
      </trkpt>
      <trkpt lat="47.16474" lon="3.04253">
        <ele>210.48022460938</ele>
        <time>2016-04-06T12:38:16.000Z</time>
      </trkpt>
      <trkpt lat="47.16473" lon="3.04256">
        <ele>210.53610229492</ele>
        <time>2016-04-06T12:38:18.000Z</time>
      </trkpt>
      <trkpt lat="47.16471" lon="3.0426">
        <ele>210.57528686523</ele>
        <time>2016-04-06T12:38:21.000Z</time>
      </trkpt>
      <trkpt lat="47.1647" lon="3.04263">
        <ele>210.59870910645</ele>
        <time>2016-04-06T12:38:23.000Z</time>
      </trkpt>
      <trkpt lat="47.16468" lon="3.04268">
        <ele>210.60409545898</ele>
        <time>2016-04-06T12:38:26.000Z</time>
      </trkpt>
      <trkpt lat="47.16467" lon="3.04271">
        <ele>210.60395812988</ele>
        <time>2016-04-06T12:38:28.000Z</time>
      </trkpt>
      <trkpt lat="47.16466" lon="3.04275">
        <ele>210.59851074219</ele>
        <time>2016-04-06T12:38:30.000Z</time>
      </trkpt>
      <trkpt lat="47.16465" lon="3.04279">
        <ele>210.58671569824</ele>
        <time>2016-04-06T12:38:33.000Z</time>
      </trkpt>
      <trkpt lat="47.16462" lon="3.04285">
        <ele>210.56823730469</ele>
        <time>2016-04-06T12:38:36.000Z</time>
      </trkpt>
      <trkpt lat="47.1646" lon="3.0429">
        <ele>210.55081176758</ele>
        <time>2016-04-06T12:38:39.000Z</time>
      </trkpt>
      <trkpt lat="47.16459" lon="3.04294">
        <ele>210.52676391602</ele>
        <time>2016-04-06T12:38:41.000Z</time>
      </trkpt>
      <trkpt lat="47.16459" lon="3.04297">
        <ele>210.4977722168</ele>
        <time>2016-04-06T12:38:43.000Z</time>
      </trkpt>
      <trkpt lat="47.16457" lon="3.04302">
        <ele>210.4635925293</ele>
        <time>2016-04-06T12:38:46.000Z</time>
      </trkpt>
      <trkpt lat="47.16454" lon="3.04307">
        <ele>210.42782592773</ele>
        <time>2016-04-06T12:38:49.000Z</time>
      </trkpt>
      <trkpt lat="47.16452" lon="3.04311">
        <ele>210.38613891602</ele>
        <time>2016-04-06T12:38:52.000Z</time>
      </trkpt>
      <trkpt lat="47.16451" lon="3.04314">
        <ele>210.34558105469</ele>
        <time>2016-04-06T12:38:54.000Z</time>
      </trkpt>
      <trkpt lat="47.16449" lon="3.04319">
        <ele>210.30209350586</ele>
        <time>2016-04-06T12:38:57.000Z</time>
      </trkpt>
      <trkpt lat="47.16447" lon="3.04324">
        <ele>210.2536315918</ele>
        <time>2016-04-06T12:39:00.000Z</time>
      </trkpt>
      <trkpt lat="47.16445" lon="3.0433">
        <ele>210.19686889648</ele>
        <time>2016-04-06T12:39:03.000Z</time>
      </trkpt>
      <trkpt lat="47.16443" lon="3.04335">
        <ele>210.13305664062</ele>
        <time>2016-04-06T12:39:06.000Z</time>
      </trkpt>
      <trkpt lat="47.16442" lon="3.04337">
        <ele>210.06729125977</ele>
        <time>2016-04-06T12:39:08.000Z</time>
      </trkpt>
      <trkpt lat="47.16441" lon="3.0434">
        <ele>210.00419616699</ele>
        <time>2016-04-06T12:39:10.000Z</time>
      </trkpt>
      <trkpt lat="47.1644" lon="3.04346">
        <ele>209.93869018555</ele>
        <time>2016-04-06T12:39:13.000Z</time>
      </trkpt>
      <trkpt lat="47.16438" lon="3.04351">
        <ele>209.87393188477</ele>
        <time>2016-04-06T12:39:16.000Z</time>
      </trkpt>
      <trkpt lat="47.16436" lon="3.04356">
        <ele>209.81201171875</ele>
        <time>2016-04-06T12:39:19.000Z</time>
      </trkpt>
      <trkpt lat="47.16434" lon="3.04359">
        <ele>209.7494354248</ele>
        <time>2016-04-06T12:39:22.000Z</time>
      </trkpt>
      <trkpt lat="47.16433" lon="3.04363">
        <ele>209.6852722168</ele>
        <time>2016-04-06T12:39:24.000Z</time>
      </trkpt>
      <trkpt lat="47.1643" lon="3.04368">
        <ele>209.62686157227</ele>
        <time>2016-04-06T12:39:27.000Z</time>
      </trkpt>
      <trkpt lat="47.16428" lon="3.04371">
        <ele>209.57649230957</ele>
        <time>2016-04-06T12:39:29.000Z</time>
      </trkpt>
      <trkpt lat="47.16427" lon="3.04376">
        <ele>209.52734375</ele>
        <time>2016-04-06T12:39:32.000Z</time>
      </trkpt>
      <trkpt lat="47.16425" lon="3.04381">
        <ele>209.4762878418</ele>
        <time>2016-04-06T12:39:35.000Z</time>
      </trkpt>
      <trkpt lat="47.16424" lon="3.04384">
        <ele>209.4281463623</ele>
        <time>2016-04-06T12:39:37.000Z</time>
      </trkpt>
      <trkpt lat="47.16422" lon="3.04389">
        <ele>209.3812713623</ele>
        <time>2016-04-06T12:39:40.000Z</time>
      </trkpt>
      <trkpt lat="47.1642" lon="3.04394">
        <ele>209.33198547363</ele>
        <time>2016-04-06T12:39:43.000Z</time>
      </trkpt>
      <trkpt lat="47.1642" lon="3.04397">
        <ele>209.28913879395</ele>
        <time>2016-04-06T12:39:45.000Z</time>
      </trkpt>
      <trkpt lat="47.16418" lon="3.04402">
        <ele>209.24816894531</ele>
        <time>2016-04-06T12:39:48.000Z</time>
      </trkpt>
      <trkpt lat="47.16417" lon="3.04405">
        <ele>209.20951843262</ele>
        <time>2016-04-06T12:39:50.000Z</time>
      </trkpt>
      <trkpt lat="47.16415" lon="3.04408">
        <ele>209.16366577148</ele>
        <time>2016-04-06T12:39:53.000Z</time>
      </trkpt>
      <trkpt lat="47.16414" lon="3.0441">
        <ele>209.11343383789</ele>
        <time>2016-04-06T12:39:55.000Z</time>
      </trkpt>
      <trkpt lat="47.16412" lon="3.04414">
        <ele>209.04154968262</ele>
        <time>2016-04-06T12:39:58.000Z</time>
      </trkpt>
      <trkpt lat="47.16409" lon="3.04418">
        <ele>208.95561218262</ele>
        <time>2016-04-06T12:40:01.000Z</time>
      </trkpt>
      <trkpt lat="47.16408" lon="3.0442">
        <ele>208.86018371582</ele>
        <time>2016-04-06T12:40:03.000Z</time>
      </trkpt>
      <trkpt lat="47.16405" lon="3.04424">
        <ele>208.75491333008</ele>
        <time>2016-04-06T12:40:06.000Z</time>
      </trkpt>
      <trkpt lat="47.16403" lon="3.0443">
        <ele>208.63887023926</ele>
        <time>2016-04-06T12:40:09.000Z</time>
      </trkpt>
      <trkpt lat="47.16401" lon="3.04434">
        <ele>208.52326965332</ele>
        <time>2016-04-06T12:40:12.000Z</time>
      </trkpt>
      <trkpt lat="47.16399" lon="3.04438">
        <ele>208.40014648438</ele>
        <time>2016-04-06T12:40:15.000Z</time>
      </trkpt>
      <trkpt lat="47.16397" lon="3.0444">
        <ele>208.2748260498</ele>
        <time>2016-04-06T12:40:17.000Z</time>
      </trkpt>
      <trkpt lat="47.16395" lon="3.04445">
        <ele>208.14518737793</ele>
        <time>2016-04-06T12:40:20.000Z</time>
      </trkpt>
      <trkpt lat="47.16393" lon="3.04448">
        <ele>208.01110839844</ele>
        <time>2016-04-06T12:40:22.000Z</time>
      </trkpt>
      <trkpt lat="47.16391" lon="3.04452">
        <ele>207.86511230469</ele>
        <time>2016-04-06T12:40:25.000Z</time>
      </trkpt>
      <trkpt lat="47.16388" lon="3.04456">
        <ele>207.70190429688</ele>
        <time>2016-04-06T12:40:28.000Z</time>
      </trkpt>
      <trkpt lat="47.16386" lon="3.0446">
        <ele>207.51840209961</ele>
        <time>2016-04-06T12:40:30.000Z</time>
      </trkpt>
      <trkpt lat="47.16384" lon="3.04464">
        <ele>207.33169555664</ele>
        <time>2016-04-06T12:40:33.000Z</time>
      </trkpt>
      <trkpt lat="47.16381" lon="3.04468">
        <ele>207.12246704102</ele>
        <time>2016-04-06T12:40:36.000Z</time>
      </trkpt>
      <trkpt lat="47.1638" lon="3.04471">
        <ele>206.91000366211</ele>
        <time>2016-04-06T12:40:39.000Z</time>
      </trkpt>
      <trkpt lat="47.16377" lon="3.04477">
        <ele>206.69458007812</ele>
        <time>2016-04-06T12:40:42.000Z</time>
      </trkpt>
      <trkpt lat="47.16375" lon="3.04481">
        <ele>206.4545135498</ele>
        <time>2016-04-06T12:40:45.000Z</time>
      </trkpt>
      <trkpt lat="47.16372" lon="3.04484">
        <ele>206.19802856445</ele>
        <time>2016-04-06T12:40:48.000Z</time>
      </trkpt>
      <trkpt lat="47.1637" lon="3.04488">
        <ele>205.94303894043</ele>
        <time>2016-04-06T12:40:51.000Z</time>
      </trkpt>
      <trkpt lat="47.16368" lon="3.04491">
        <ele>205.67248535156</ele>
        <time>2016-04-06T12:40:53.000Z</time>
      </trkpt>
      <trkpt lat="47.16366" lon="3.04494">
        <ele>205.40942382812</ele>
        <time>2016-04-06T12:40:55.000Z</time>
      </trkpt>
      <trkpt lat="47.16363" lon="3.04498">
        <ele>205.13667297363</ele>
        <time>2016-04-06T12:40:58.000Z</time>
      </trkpt>
      <trkpt lat="47.1636" lon="3.04502">
        <ele>204.8385925293</ele>
        <time>2016-04-06T12:41:01.000Z</time>
      </trkpt>
      <trkpt lat="47.16358" lon="3.04504">
        <ele>204.5168762207</ele>
        <time>2016-04-06T12:41:03.000Z</time>
      </trkpt>
      <trkpt lat="47.16356" lon="3.04507">
        <ele>204.19384765625</ele>
        <time>2016-04-06T12:41:05.000Z</time>
      </trkpt>
      <trkpt lat="47.16354" lon="3.04511">
        <ele>203.8328704834</ele>
        <time>2016-04-06T12:41:08.000Z</time>
      </trkpt>
      <trkpt lat="47.16351" lon="3.04516">
        <ele>203.44303894043</ele>
        <time>2016-04-06T12:41:11.000Z</time>
      </trkpt>
      <trkpt lat="47.16351" lon="3.04519">
        <ele>203.07376098633</ele>
        <time>2016-04-06T12:41:13.000Z</time>
      </trkpt>
      <trkpt lat="47.1635" lon="3.04522">
        <ele>202.72839355469</ele>
        <time>2016-04-06T12:41:15.000Z</time>
      </trkpt>
      <trkpt lat="47.16347" lon="3.04528">
        <ele>202.33044433594</ele>
        <time>2016-04-06T12:41:18.000Z</time>
      </trkpt>
      <trkpt lat="47.16345" lon="3.04534">
        <ele>201.90814208984</ele>
        <time>2016-04-06T12:41:21.000Z</time>
      </trkpt>
      <trkpt lat="47.16344" lon="3.04537">
        <ele>201.52174377441</ele>
        <time>2016-04-06T12:41:23.000Z</time>
      </trkpt>
      <trkpt lat="47.16342" lon="3.04542">
        <ele>201.11042785645</ele>
        <time>2016-04-06T12:41:26.000Z</time>
      </trkpt>
      <trkpt lat="47.16339" lon="3.04546">
        <ele>200.65786743164</ele>
        <time>2016-04-06T12:41:29.000Z</time>
      </trkpt>
      <trkpt lat="47.16338" lon="3.04548">
        <ele>200.26615905762</ele>
        <time>2016-04-06T12:41:31.000Z</time>
      </trkpt>
      <trkpt lat="47.16335" lon="3.04551">
        <ele>199.88882446289</ele>
        <time>2016-04-06T12:41:34.000Z</time>
      </trkpt>
      <trkpt lat="47.16332" lon="3.04554">
        <ele>199.45079040527</ele>
        <time>2016-04-06T12:41:37.000Z</time>
      </trkpt>
      <trkpt lat="47.16328" lon="3.04558">
        <ele>198.93623352051</ele>
        <time>2016-04-06T12:41:40.000Z</time>
      </trkpt>
      <trkpt lat="47.16326" lon="3.0456">
        <ele>198.42440795898</ele>
        <time>2016-04-06T12:41:42.000Z</time>
      </trkpt>
      <trkpt lat="47.16324" lon="3.04563">
        <ele>197.84999084473</ele>
        <time>2016-04-06T12:41:45.000Z</time>
      </trkpt>
      <trkpt lat="47.16322" lon="3.04566">
        <ele>197.26513671875</ele>
        <time>2016-04-06T12:41:48.000Z</time>
      </trkpt>
      <trkpt lat="47.16319" lon="3.04568">
        <ele>196.69021606445</ele>
        <time>2016-04-06T12:41:50.000Z</time>
      </trkpt>
      <trkpt lat="47.16317" lon="3.04571">
        <ele>196.17118835449</ele>
        <time>2016-04-06T12:41:53.000Z</time>
      </trkpt>
      <trkpt lat="47.16315" lon="3.04572">
        <ele>195.66819763184</ele>
        <time>2016-04-06T12:41:55.000Z</time>
      </trkpt>
      <trkpt lat="47.16312" lon="3.04574">
        <ele>195.13607788086</ele>
        <time>2016-04-06T12:41:58.000Z</time>
      </trkpt>
      <trkpt lat="47.16309" lon="3.04576">
        <ele>194.59854125977</ele>
        <time>2016-04-06T12:42:00.000Z</time>
      </trkpt>
      <trkpt lat="47.16307" lon="3.04577">
        <ele>194.09243774414</ele>
        <time>2016-04-06T12:42:02.000Z</time>
      </trkpt>
      <trkpt lat="47.16304" lon="3.0458">
        <ele>193.55107116699</ele>
        <time>2016-04-06T12:42:05.000Z</time>
      </trkpt>
      <trkpt lat="47.16303" lon="3.04584">
        <ele>192.97689819336</ele>
        <time>2016-04-06T12:42:08.000Z</time>
      </trkpt>
      <trkpt lat="47.16302" lon="3.04586">
        <ele>192.47915649414</ele>
        <time>2016-04-06T12:42:10.000Z</time>
      </trkpt>
      <trkpt lat="47.163" lon="3.0459">
        <ele>191.98574829102</ele>
        <time>2016-04-06T12:42:13.000Z</time>
      </trkpt>
      <trkpt lat="47.16298" lon="3.04592">
        <ele>191.4977722168</ele>
        <time>2016-04-06T12:42:15.000Z</time>
      </trkpt>
      <trkpt lat="47.16295" lon="3.04597">
        <ele>191.00732421875</ele>
        <time>2016-04-06T12:42:18.000Z</time>
      </trkpt>
      <trkpt lat="47.16294" lon="3.046">
        <ele>190.53515625</ele>
        <time>2016-04-06T12:42:20.000Z</time>
      </trkpt>
      <trkpt lat="47.16292" lon="3.04604">
        <ele>190.04638671875</ele>
        <time>2016-04-06T12:42:23.000Z</time>
      </trkpt>
      <trkpt lat="47.16291" lon="3.04609">
        <ele>189.583984375</ele>
        <time>2016-04-06T12:42:26.000Z</time>
      </trkpt>
      <trkpt lat="47.1629" lon="3.04615">
        <ele>189.08862304688</ele>
        <time>2016-04-06T12:42:29.000Z</time>
      </trkpt>
      <trkpt lat="47.16288" lon="3.04621">
        <ele>188.59643554688</ele>
        <time>2016-04-06T12:42:32.000Z</time>
      </trkpt>
      <trkpt lat="47.16287" lon="3.04624">
        <ele>188.14819335938</ele>
        <time>2016-04-06T12:42:34.000Z</time>
      </trkpt>
      <trkpt lat="47.16286" lon="3.04628">
        <ele>187.70068359375</ele>
        <time>2016-04-06T12:42:37.000Z</time>
      </trkpt>
      <trkpt lat="47.16284" lon="3.04633">
        <ele>187.22631835938</ele>
        <time>2016-04-06T12:42:40.000Z</time>
      </trkpt>
      <trkpt lat="47.16283" lon="3.04636">
        <ele>186.79931640625</ele>
        <time>2016-04-06T12:42:43.000Z</time>
      </trkpt>
      <trkpt lat="47.1628" lon="3.0464">
        <ele>186.37036132812</ele>
        <time>2016-04-06T12:42:45.000Z</time>
      </trkpt>
      <trkpt lat="47.16278" lon="3.04643">
        <ele>185.87280273438</ele>
        <time>2016-04-06T12:42:48.000Z</time>
      </trkpt>
      <trkpt lat="47.16276" lon="3.04645">
        <ele>185.37866210938</ele>
        <time>2016-04-06T12:42:52.000Z</time>
      </trkpt>
      <trkpt lat="47.16275" lon="3.04648">
        <ele>184.92163085938</ele>
        <time>2016-04-06T12:42:54.000Z</time>
      </trkpt>
      <trkpt lat="47.16272" lon="3.04651">
        <ele>184.40283203125</ele>
        <time>2016-04-06T12:42:59.000Z</time>
      </trkpt>
      <trkpt lat="47.1627" lon="3.04654">
        <ele>183.91381835938</ele>
        <time>2016-04-06T12:43:08.000Z</time>
      </trkpt>
      <trkpt lat="47.16268" lon="3.04656">
        <ele>183.46118164062</ele>
        <time>2016-04-06T12:43:09.000Z</time>
      </trkpt>
      <trkpt lat="47.16265" lon="3.04659">
        <ele>182.96606445312</ele>
        <time>2016-04-06T12:43:10.000Z</time>
      </trkpt>
      <trkpt lat="47.16262" lon="3.04661">
        <ele>182.40795898438</ele>
        <time>2016-04-06T12:43:11.000Z</time>
      </trkpt>
      <trkpt lat="47.16257" lon="3.04663">
        <ele>181.798828125</ele>
        <time>2016-04-06T12:43:13.000Z</time>
      </trkpt>
      <trkpt lat="47.16254" lon="3.04664">
        <ele>181.18017578125</ele>
        <time>2016-04-06T12:43:15.000Z</time>
      </trkpt>
      <trkpt lat="47.16251" lon="3.04665">
        <ele>180.53662109375</ele>
        <time>2016-04-06T12:43:16.000Z</time>
      </trkpt>
      <trkpt lat="47.16248" lon="3.04665">
        <ele>179.93327331543</ele>
        <time>2016-04-06T12:43:19.000Z</time>
      </trkpt>
      <trkpt lat="47.16246" lon="3.04666">
        <ele>179.39465332031</ele>
        <time>2016-04-06T12:43:19.000Z</time>
      </trkpt>
      <trkpt lat="47.16243" lon="3.04668">
        <ele>178.96656799316</ele>
        <time>2016-04-06T12:43:22.000Z</time>
      </trkpt>
      <trkpt lat="47.16239" lon="3.04669">
        <ele>178.53800964355</ele>
        <time>2016-04-06T12:43:25.000Z</time>
      </trkpt>
      <trkpt lat="47.16235" lon="3.04672">
        <ele>178.11833190918</ele>
        <time>2016-04-06T12:43:28.000Z</time>
      </trkpt>
      <trkpt lat="47.16232" lon="3.04674">
        <ele>177.67791748047</ele>
        <time>2016-04-06T12:43:31.000Z</time>
      </trkpt>
      <trkpt lat="47.16229" lon="3.04676">
        <ele>177.2307434082</ele>
        <time>2016-04-06T12:43:34.000Z</time>
      </trkpt>
      <trkpt lat="47.16226" lon="3.04677">
        <ele>176.77632141113</ele>
        <time>2016-04-06T12:43:36.000Z</time>
      </trkpt>
      <trkpt lat="47.16224" lon="3.04678">
        <ele>176.3890838623</ele>
        <time>2016-04-06T12:43:38.000Z</time>
      </trkpt>
      <trkpt lat="47.16223" lon="3.0468">
        <ele>176.05198669434</ele>
        <time>2016-04-06T12:43:40.000Z</time>
      </trkpt>
      <trkpt lat="47.1622" lon="3.04683">
        <ele>175.74305725098</ele>
        <time>2016-04-06T12:43:43.000Z</time>
      </trkpt>
      <trkpt lat="47.16219" lon="3.04686">
        <ele>175.46591186523</ele>
        <time>2016-04-06T12:43:45.000Z</time>
      </trkpt>
      <trkpt lat="47.16217" lon="3.04688">
        <ele>175.20240783691</ele>
        <time>2016-04-06T12:43:48.000Z</time>
      </trkpt>
      <trkpt lat="47.16214" lon="3.04692">
        <ele>174.8959197998</ele>
        <time>2016-04-06T12:43:51.000Z</time>
      </trkpt>
      <trkpt lat="47.1621" lon="3.04696">
        <ele>174.50996398926</ele>
        <time>2016-04-06T12:43:54.000Z</time>
      </trkpt>
      <trkpt lat="47.16206" lon="3.047">
        <ele>174.09768676758</ele>
        <time>2016-04-06T12:43:57.000Z</time>
      </trkpt>
      <trkpt lat="47.16203" lon="3.04703">
        <ele>173.63111877441</ele>
        <time>2016-04-06T12:44:00.000Z</time>
      </trkpt>
      <trkpt lat="47.16199" lon="3.04706">
        <ele>173.13955688477</ele>
        <time>2016-04-06T12:44:04.000Z</time>
      </trkpt>
      <trkpt lat="47.16196" lon="3.04708">
        <ele>172.67256164551</ele>
        <time>2016-04-06T12:44:05.000Z</time>
      </trkpt>
      <trkpt lat="47.16194" lon="3.0471">
        <ele>172.2756652832</ele>
        <time>2016-04-06T12:44:07.000Z</time>
      </trkpt>
      <trkpt lat="47.16192" lon="3.04711">
        <ele>171.9204864502</ele>
        <time>2016-04-06T12:44:09.000Z</time>
      </trkpt>
      <trkpt lat="47.16188" lon="3.04714">
        <ele>171.56393432617</ele>
        <time>2016-04-06T12:44:12.000Z</time>
      </trkpt>
      <trkpt lat="47.16185" lon="3.04716">
        <ele>171.2378692627</ele>
        <time>2016-04-06T12:44:14.000Z</time>
      </trkpt>
      <trkpt lat="47.16183" lon="3.04719">
        <ele>170.91461181641</ele>
        <time>2016-04-06T12:44:17.000Z</time>
      </trkpt>
      <trkpt lat="47.1618" lon="3.04723">
        <ele>170.55952453613</ele>
        <time>2016-04-06T12:44:20.000Z</time>
      </trkpt>
      <trkpt lat="47.16177" lon="3.04726">
        <ele>170.20462036133</ele>
        <time>2016-04-06T12:44:23.000Z</time>
      </trkpt>
      <trkpt lat="47.16174" lon="3.04728">
        <ele>169.8642578125</ele>
        <time>2016-04-06T12:44:26.000Z</time>
      </trkpt>
      <trkpt lat="47.1617" lon="3.04732">
        <ele>169.49365234375</ele>
        <time>2016-04-06T12:44:29.000Z</time>
      </trkpt>
      <trkpt lat="47.16166" lon="3.04734">
        <ele>169.11386108398</ele>
        <time>2016-04-06T12:44:32.000Z</time>
      </trkpt>
      <trkpt lat="47.16163" lon="3.04737">
        <ele>168.78536987305</ele>
        <time>2016-04-06T12:44:34.000Z</time>
      </trkpt>
      <trkpt lat="47.1616" lon="3.04741">
        <ele>168.46688842773</ele>
        <time>2016-04-06T12:44:37.000Z</time>
      </trkpt>
      <trkpt lat="47.16157" lon="3.04744">
        <ele>168.19424438477</ele>
        <time>2016-04-06T12:44:40.000Z</time>
      </trkpt>
      <trkpt lat="47.16154" lon="3.04747">
        <ele>167.97143554688</ele>
        <time>2016-04-06T12:44:42.000Z</time>
      </trkpt>
      <trkpt lat="47.16151" lon="3.0475">
        <ele>167.79513549805</ele>
        <time>2016-04-06T12:44:45.000Z</time>
      </trkpt>
      <trkpt lat="47.16149" lon="3.04753">
        <ele>167.62145996094</ele>
        <time>2016-04-06T12:44:47.000Z</time>
      </trkpt>
      <trkpt lat="47.16147" lon="3.04755">
        <ele>167.47312927246</ele>
        <time>2016-04-06T12:44:49.000Z</time>
      </trkpt>
      <trkpt lat="47.16143" lon="3.04758">
        <ele>167.31745910645</ele>
        <time>2016-04-06T12:44:52.000Z</time>
      </trkpt>
      <trkpt lat="47.1614" lon="3.0476">
        <ele>167.17333984375</ele>
        <time>2016-04-06T12:44:54.000Z</time>
      </trkpt>
      <trkpt lat="47.16138" lon="3.04762">
        <ele>167.03521728516</ele>
        <time>2016-04-06T12:44:56.000Z</time>
      </trkpt>
      <trkpt lat="47.16133" lon="3.04766">
        <ele>166.88809204102</ele>
        <time>2016-04-06T12:44:59.000Z</time>
      </trkpt>
      <trkpt lat="47.16131" lon="3.04768">
        <ele>166.74166870117</ele>
        <time>2016-04-06T12:45:01.000Z</time>
      </trkpt>
      <trkpt lat="47.1613" lon="3.0477">
        <ele>166.62203979492</ele>
        <time>2016-04-06T12:45:03.000Z</time>
      </trkpt>
      <trkpt lat="47.16126" lon="3.04774">
        <ele>166.4953918457</ele>
        <time>2016-04-06T12:45:06.000Z</time>
      </trkpt>
      <trkpt lat="47.16123" lon="3.04777">
        <ele>166.36497497559</ele>
        <time>2016-04-06T12:45:09.000Z</time>
      </trkpt>
      <trkpt lat="47.1612" lon="3.04782">
        <ele>166.24476623535</ele>
        <time>2016-04-06T12:45:12.000Z</time>
      </trkpt>
      <trkpt lat="47.16118" lon="3.04784">
        <ele>166.1305847168</ele>
        <time>2016-04-06T12:45:14.000Z</time>
      </trkpt>
      <trkpt lat="47.16115" lon="3.04786">
        <ele>166.01412963867</ele>
        <time>2016-04-06T12:45:16.000Z</time>
      </trkpt>
      <trkpt lat="47.16114" lon="3.04788">
        <ele>165.91569519043</ele>
        <time>2016-04-06T12:45:18.000Z</time>
      </trkpt>
      <trkpt lat="47.16112" lon="3.0479">
        <ele>165.83311462402</ele>
        <time>2016-04-06T12:45:20.000Z</time>
      </trkpt>
      <trkpt lat="47.16109" lon="3.04794">
        <ele>165.75784301758</ele>
        <time>2016-04-06T12:45:23.000Z</time>
      </trkpt>
      <trkpt lat="47.16105" lon="3.04798">
        <ele>165.67385864258</ele>
        <time>2016-04-06T12:45:26.000Z</time>
      </trkpt>
      <trkpt lat="47.16103" lon="3.04801">
        <ele>165.59317016602</ele>
        <time>2016-04-06T12:45:29.000Z</time>
      </trkpt>
      <trkpt lat="47.161" lon="3.04804">
        <ele>165.51042175293</ele>
        <time>2016-04-06T12:45:32.000Z</time>
      </trkpt>
      <trkpt lat="47.16097" lon="3.04808">
        <ele>165.42414855957</ele>
        <time>2016-04-06T12:45:35.000Z</time>
      </trkpt>
      <trkpt lat="47.16094" lon="3.04811">
        <ele>165.3433380127</ele>
        <time>2016-04-06T12:45:37.000Z</time>
      </trkpt>
      <trkpt lat="47.16093" lon="3.04813">
        <ele>165.28213500977</ele>
        <time>2016-04-06T12:45:39.000Z</time>
      </trkpt>
      <trkpt lat="47.16091" lon="3.04816">
        <ele>165.22598266602</ele>
        <time>2016-04-06T12:45:42.000Z</time>
      </trkpt>
      <trkpt lat="47.16088" lon="3.04821">
        <ele>165.17172241211</ele>
        <time>2016-04-06T12:45:45.000Z</time>
      </trkpt>
      <trkpt lat="47.16087" lon="3.04824">
        <ele>165.12655639648</ele>
        <time>2016-04-06T12:45:47.000Z</time>
      </trkpt>
      <trkpt lat="47.16084" lon="3.04828">
        <ele>165.08834838867</ele>
        <time>2016-04-06T12:45:50.000Z</time>
      </trkpt>
      <trkpt lat="47.16082" lon="3.0483">
        <ele>165.04553222656</ele>
        <time>2016-04-06T12:45:52.000Z</time>
      </trkpt>
      <trkpt lat="47.1608" lon="3.04835">
        <ele>164.99345397949</ele>
        <time>2016-04-06T12:45:55.000Z</time>
      </trkpt>
      <trkpt lat="47.16079" lon="3.04839">
        <ele>164.93724060059</ele>
        <time>2016-04-06T12:45:57.000Z</time>
      </trkpt>
      <trkpt lat="47.16077" lon="3.04842">
        <ele>164.8703918457</ele>
        <time>2016-04-06T12:45:59.000Z</time>
      </trkpt>
      <trkpt lat="47.16074" lon="3.04846">
        <ele>164.78215026855</ele>
        <time>2016-04-06T12:46:02.000Z</time>
      </trkpt>
      <trkpt lat="47.16071" lon="3.0485">
        <ele>164.6798248291</ele>
        <time>2016-04-06T12:46:05.000Z</time>
      </trkpt>
      <trkpt lat="47.16069" lon="3.04853">
        <ele>164.58134460449</ele>
        <time>2016-04-06T12:46:07.000Z</time>
      </trkpt>
      <trkpt lat="47.16066" lon="3.04857">
        <ele>164.47720336914</ele>
        <time>2016-04-06T12:46:10.000Z</time>
      </trkpt>
      <trkpt lat="47.16064" lon="3.04861">
        <ele>164.37387084961</ele>
        <time>2016-04-06T12:46:13.000Z</time>
      </trkpt>
      <trkpt lat="47.16061" lon="3.04866">
        <ele>164.28512573242</ele>
        <time>2016-04-06T12:46:16.000Z</time>
      </trkpt>
      <trkpt lat="47.1606" lon="3.04869">
        <ele>164.21438598633</ele>
        <time>2016-04-06T12:46:18.000Z</time>
      </trkpt>
      <trkpt lat="47.16058" lon="3.04874">
        <ele>164.14831542969</ele>
        <time>2016-04-06T12:46:21.000Z</time>
      </trkpt>
      <trkpt lat="47.16057" lon="3.04876">
        <ele>164.09800720215</ele>
        <time>2016-04-06T12:46:23.000Z</time>
      </trkpt>
      <trkpt lat="47.16055" lon="3.04881">
        <ele>164.05758666992</ele>
        <time>2016-04-06T12:46:26.000Z</time>
      </trkpt>
      <trkpt lat="47.16053" lon="3.04885">
        <ele>164.02487182617</ele>
        <time>2016-04-06T12:46:29.000Z</time>
      </trkpt>
      <trkpt lat="47.16051" lon="3.04889">
        <ele>163.99409484863</ele>
        <time>2016-04-06T12:46:32.000Z</time>
      </trkpt>
      <trkpt lat="47.1605" lon="3.04892">
        <ele>163.97074890137</ele>
        <time>2016-04-06T12:46:35.000Z</time>
      </trkpt>
      <trkpt lat="47.16048" lon="3.04897">
        <ele>163.95310974121</ele>
        <time>2016-04-06T12:46:38.000Z</time>
      </trkpt>
      <trkpt lat="47.16047" lon="3.04899">
        <ele>163.94119262695</ele>
        <time>2016-04-06T12:46:40.000Z</time>
      </trkpt>
      <trkpt lat="47.16047" lon="3.04901">
        <ele>163.93698120117</ele>
        <time>2016-04-06T12:46:42.000Z</time>
      </trkpt>
      <trkpt lat="47.16046" lon="3.04903">
        <ele>163.93707275391</ele>
        <time>2016-04-06T12:46:45.000Z</time>
      </trkpt>
      <trkpt lat="47.16045" lon="3.04906">
        <ele>163.94058227539</ele>
        <time>2016-04-06T12:46:47.000Z</time>
      </trkpt>
      <trkpt lat="47.16045" lon="3.04909">
        <ele>163.94653320312</ele>
        <time>2016-04-06T12:46:49.000Z</time>
      </trkpt>
      <trkpt lat="47.16044" lon="3.04911">
        <ele>163.95425415039</ele>
        <time>2016-04-06T12:46:51.000Z</time>
      </trkpt>
      <trkpt lat="47.16043" lon="3.04913">
        <ele>163.96257019043</ele>
        <time>2016-04-06T12:46:54.000Z</time>
      </trkpt>
      <trkpt lat="47.16044" lon="3.04911">
        <ele>163.96789550781</ele>
        <time>2016-04-06T12:47:06.000Z</time>
      </trkpt>
      <trkpt lat="47.16043" lon="3.0491">
        <ele>163.96997070312</ele>
        <time>2016-04-06T12:47:08.000Z</time>
      </trkpt>
      <trkpt lat="47.16043" lon="3.04907">
        <ele>163.96759033203</ele>
        <time>2016-04-06T12:47:10.000Z</time>
      </trkpt>
      <trkpt lat="47.16043" lon="3.04904">
        <ele>163.95942687988</ele>
        <time>2016-04-06T12:47:13.000Z</time>
      </trkpt>
      <trkpt lat="47.16043" lon="3.04901">
        <ele>163.94714355469</ele>
        <time>2016-04-06T12:47:15.000Z</time>
      </trkpt>
      <trkpt lat="47.16043" lon="3.04897">
        <ele>163.93222045898</ele>
        <time>2016-04-06T12:47:19.000Z</time>
      </trkpt>
      <trkpt lat="47.16044" lon="3.04895">
        <ele>163.91801452637</ele>
        <time>2016-04-06T12:47:20.000Z</time>
      </trkpt>
      <trkpt lat="47.16046" lon="3.04891">
        <ele>163.90727233887</ele>
        <time>2016-04-06T12:47:23.000Z</time>
      </trkpt>
      <trkpt lat="47.16048" lon="3.04889">
        <ele>163.90344238281</ele>
        <time>2016-04-06T12:47:26.000Z</time>
      </trkpt>
      <trkpt lat="47.16049" lon="3.04887">
        <ele>163.9029083252</ele>
        <time>2016-04-06T12:47:28.000Z</time>
      </trkpt>
      <trkpt lat="47.16051" lon="3.04884">
        <ele>163.91178894043</ele>
        <time>2016-04-06T12:47:31.000Z</time>
      </trkpt>
      <trkpt lat="47.16053" lon="3.04882">
        <ele>163.92465209961</ele>
        <time>2016-04-06T12:47:33.000Z</time>
      </trkpt>
      <trkpt lat="47.16054" lon="3.04879">
        <ele>163.93997192383</ele>
        <time>2016-04-06T12:47:35.000Z</time>
      </trkpt>
      <trkpt lat="47.16055" lon="3.04876">
        <ele>163.95594787598</ele>
        <time>2016-04-06T12:47:38.000Z</time>
      </trkpt>
      <trkpt lat="47.16056" lon="3.04874">
        <ele>163.97245788574</ele>
        <time>2016-04-06T12:47:40.000Z</time>
      </trkpt>
      <trkpt lat="47.16056" lon="3.04871">
        <ele>163.98693847656</ele>
        <time>2016-04-06T12:47:43.000Z</time>
      </trkpt>
      <trkpt lat="47.16056" lon="3.04871">
        <ele>163.98693847656</ele>
        <time>2016-04-06T12:48:03.000Z</time>
      </trkpt>
      <trkpt lat="47.16058" lon="3.0487">
        <ele>164.0036315918</ele>
        <time>2016-04-06T12:49:07.000Z</time>
      </trkpt>
      <trkpt lat="47.16058" lon="3.0487">
        <ele>164.0036315918</ele>
        <time>2016-04-06T12:49:27.000Z</time>
      </trkpt>
      <trkpt lat="47.16056" lon="3.0487">
        <ele>164.01049804688</ele>
        <time>2016-04-06T12:49:44.000Z</time>
      </trkpt>
      <trkpt lat="47.16057" lon="3.04869">
        <ele>164.01689147949</ele>
        <time>2016-04-06T12:49:57.000Z</time>
      </trkpt>
      <trkpt lat="47.16057" lon="3.04869">
        <ele>164.01689147949</ele>
        <time>2016-04-06T12:50:17.000Z</time>
      </trkpt>
      <trkpt lat="47.16057" lon="3.04872">
        <ele>164.02308654785</ele>
        <time>2016-04-06T12:50:24.000Z</time>
      </trkpt>
      <trkpt lat="47.16058" lon="3.04874">
        <ele>164.02743530273</ele>
        <time>2016-04-06T12:50:33.000Z</time>
      </trkpt>
      <trkpt lat="47.16058" lon="3.04875">
        <ele>164.0280456543</ele>
        <time>2016-04-06T12:50:35.000Z</time>
      </trkpt>
      <trkpt lat="47.16058" lon="3.04874">
        <ele>164.03688049316</ele>
        <time>2016-04-06T12:50:56.000Z</time>
      </trkpt>
      <trkpt lat="47.16059" lon="3.04872">
        <ele>164.04748535156</ele>
        <time>2016-04-06T12:50:58.000Z</time>
      </trkpt>
      <trkpt lat="47.1606" lon="3.04871">
        <ele>164.05911254883</ele>
        <time>2016-04-06T12:51:01.000Z</time>
      </trkpt>
      <trkpt lat="47.1606" lon="3.04869">
        <ele>164.07011413574</ele>
        <time>2016-04-06T12:51:07.000Z</time>
      </trkpt>
      <trkpt lat="47.1606" lon="3.04867">
        <ele>164.0804901123</ele>
        <time>2016-04-06T12:51:10.000Z</time>
      </trkpt>
      <trkpt lat="47.1606" lon="3.04865">
        <ele>164.08984375</ele>
        <time>2016-04-06T12:51:12.000Z</time>
      </trkpt>
      <trkpt lat="47.1606" lon="3.04865">
        <ele>164.08984375</ele>
        <time>2016-04-06T12:51:32.000Z</time>
      </trkpt>
      <trkpt lat="47.16059" lon="3.04865">
        <ele>164.0887298584</ele>
        <time>2016-04-06T12:51:49.000Z</time>
      </trkpt>
      <trkpt lat="47.16058" lon="3.04866">
        <ele>164.08157348633</ele>
        <time>2016-04-06T12:51:51.000Z</time>
      </trkpt>
      <trkpt lat="47.16057" lon="3.04866">
        <ele>164.07014465332</ele>
        <time>2016-04-06T12:51:53.000Z</time>
      </trkpt>
      <trkpt lat="47.16056" lon="3.04865">
        <ele>164.05099487305</ele>
        <time>2016-04-06T12:51:58.000Z</time>
      </trkpt>
      <trkpt lat="47.16054" lon="3.04864">
        <ele>164.02560424805</ele>
        <time>2016-04-06T12:52:00.000Z</time>
      </trkpt>
      <trkpt lat="47.16053" lon="3.04862">
        <ele>163.99960327148</ele>
        <time>2016-04-06T12:52:01.000Z</time>
      </trkpt>
      <trkpt lat="47.16051" lon="3.0486">
        <ele>163.96879577637</ele>
        <time>2016-04-06T12:52:04.000Z</time>
      </trkpt>
      <trkpt lat="47.1605" lon="3.04855">
        <ele>163.93135070801</ele>
        <time>2016-04-06T12:52:07.000Z</time>
      </trkpt>
      <trkpt lat="47.16049" lon="3.04853">
        <ele>163.89533996582</ele>
        <time>2016-04-06T12:52:09.000Z</time>
      </trkpt>
      <trkpt lat="47.16048" lon="3.0485">
        <ele>163.8588104248</ele>
        <time>2016-04-06T12:52:11.000Z</time>
      </trkpt>
      <trkpt lat="47.16047" lon="3.04846">
        <ele>163.81564331055</ele>
        <time>2016-04-06T12:52:14.000Z</time>
      </trkpt>
      <trkpt lat="47.16045" lon="3.04842">
        <ele>163.77041625977</ele>
        <time>2016-04-06T12:52:17.000Z</time>
      </trkpt>
      <trkpt lat="47.16044" lon="3.04838">
        <ele>163.72346496582</ele>
        <time>2016-04-06T12:52:20.000Z</time>
      </trkpt>
      <trkpt lat="47.16043" lon="3.04835">
        <ele>163.67349243164</ele>
        <time>2016-04-06T12:52:22.000Z</time>
      </trkpt>
      <trkpt lat="47.16042" lon="3.04832">
        <ele>163.62167358398</ele>
        <time>2016-04-06T12:52:25.000Z</time>
      </trkpt>
      <trkpt lat="47.16042" lon="3.04829">
        <ele>163.57949829102</ele>
        <time>2016-04-06T12:52:27.000Z</time>
      </trkpt>
      <trkpt lat="47.1604" lon="3.04824">
        <ele>163.53625488281</ele>
        <time>2016-04-06T12:52:30.000Z</time>
      </trkpt>
      <trkpt lat="47.16039" lon="3.04821">
        <ele>163.49620056152</ele>
        <time>2016-04-06T12:52:32.000Z</time>
      </trkpt>
      <trkpt lat="47.16038" lon="3.04819">
        <ele>163.4560546875</ele>
        <time>2016-04-06T12:52:34.000Z</time>
      </trkpt>
      <trkpt lat="47.16036" lon="3.04814">
        <ele>163.412109375</ele>
        <time>2016-04-06T12:52:37.000Z</time>
      </trkpt>
      <trkpt lat="47.16034" lon="3.0481">
        <ele>163.3505859375</ele>
        <time>2016-04-06T12:52:40.000Z</time>
      </trkpt>
      <trkpt lat="47.16032" lon="3.04807">
        <ele>163.2919921875</ele>
        <time>2016-04-06T12:52:42.000Z</time>
      </trkpt>
      <trkpt lat="47.16031" lon="3.04804">
        <ele>163.2333984375</ele>
        <time>2016-04-06T12:52:44.000Z</time>
      </trkpt>
      <trkpt lat="47.1603" lon="3.04801">
        <ele>163.1748046875</ele>
        <time>2016-04-06T12:52:47.000Z</time>
      </trkpt>
      <trkpt lat="47.16028" lon="3.04797">
        <ele>163.11328125</ele>
        <time>2016-04-06T12:52:50.000Z</time>
      </trkpt>
      <trkpt lat="47.16027" lon="3.04795">
        <ele>163.0634765625</ele>
        <time>2016-04-06T12:52:52.000Z</time>
      </trkpt>
      <trkpt lat="47.16024" lon="3.04791">
        <ele>163.0078125</ele>
        <time>2016-04-06T12:52:55.000Z</time>
      </trkpt>
      <trkpt lat="47.16023" lon="3.04789">
        <ele>162.94921875</ele>
        <time>2016-04-06T12:52:57.000Z</time>
      </trkpt>
      <trkpt lat="47.1602" lon="3.04785">
        <ele>162.87890625</ele>
        <time>2016-04-06T12:53:00.000Z</time>
      </trkpt>
      <trkpt lat="47.16019" lon="3.04782">
        <ele>162.814453125</ele>
        <time>2016-04-06T12:53:03.000Z</time>
      </trkpt>
      <trkpt lat="47.16017" lon="3.04779">
        <ele>162.744140625</ele>
        <time>2016-04-06T12:53:05.000Z</time>
      </trkpt>
      <trkpt lat="47.16014" lon="3.04775">
        <ele>162.6708984375</ele>
        <time>2016-04-06T12:53:08.000Z</time>
      </trkpt>
      <trkpt lat="47.16012" lon="3.04771">
        <ele>162.591796875</ele>
        <time>2016-04-06T12:53:11.000Z</time>
      </trkpt>
      <trkpt lat="47.1601" lon="3.04768">
        <ele>162.515625</ele>
        <time>2016-04-06T12:53:14.000Z</time>
      </trkpt>
      <trkpt lat="47.16007" lon="3.04765">
        <ele>162.4306640625</ele>
        <time>2016-04-06T12:53:16.000Z</time>
      </trkpt>
      <trkpt lat="47.16006" lon="3.04762">
        <ele>162.3515625</ele>
        <time>2016-04-06T12:53:18.000Z</time>
      </trkpt>
      <trkpt lat="47.16004" lon="3.0476">
        <ele>162.275390625</ele>
        <time>2016-04-06T12:53:20.000Z</time>
      </trkpt>
      <trkpt lat="47.16001" lon="3.04757">
        <ele>162.193359375</ele>
        <time>2016-04-06T12:53:23.000Z</time>
      </trkpt>
      <trkpt lat="47.15999" lon="3.04755">
        <ele>162.12637329102</ele>
        <time>2016-04-06T12:53:25.000Z</time>
      </trkpt>
      <trkpt lat="47.15996" lon="3.04751">
        <ele>162.08476257324</ele>
        <time>2016-04-06T12:53:28.000Z</time>
      </trkpt>
      <trkpt lat="47.15994" lon="3.04748">
        <ele>162.05924987793</ele>
        <time>2016-04-06T12:53:30.000Z</time>
      </trkpt>
      <trkpt lat="47.15992" lon="3.04745">
        <ele>162.06071472168</ele>
        <time>2016-04-06T12:53:33.000Z</time>
      </trkpt>
      <trkpt lat="47.1599" lon="3.04743">
        <ele>162.09516906738</ele>
        <time>2016-04-06T12:53:35.000Z</time>
      </trkpt>
      <trkpt lat="47.15988" lon="3.04739">
        <ele>162.14472961426</ele>
        <time>2016-04-06T12:53:38.000Z</time>
      </trkpt>
      <trkpt lat="47.15986" lon="3.04736">
        <ele>162.1964263916</ele>
        <time>2016-04-06T12:53:40.000Z</time>
      </trkpt>
      <trkpt lat="47.15984" lon="3.04733">
        <ele>162.25199890137</ele>
        <time>2016-04-06T12:53:43.000Z</time>
      </trkpt>
      <trkpt lat="47.15983" lon="3.04731">
        <ele>162.3003692627</ele>
        <time>2016-04-06T12:53:45.000Z</time>
      </trkpt>
      <trkpt lat="47.15981" lon="3.04729">
        <ele>162.34638977051</ele>
        <time>2016-04-06T12:53:47.000Z</time>
      </trkpt>
      <trkpt lat="47.15978" lon="3.04725">
        <ele>162.39250183105</ele>
        <time>2016-04-06T12:53:50.000Z</time>
      </trkpt>
      <trkpt lat="47.15976" lon="3.04723">
        <ele>162.43588256836</ele>
        <time>2016-04-06T12:53:53.000Z</time>
      </trkpt>
      <trkpt lat="47.15973" lon="3.0472">
        <ele>162.47595214844</ele>
        <time>2016-04-06T12:53:56.000Z</time>
      </trkpt>
      <trkpt lat="47.15971" lon="3.04719">
        <ele>162.5173034668</ele>
        <time>2016-04-06T12:53:58.000Z</time>
      </trkpt>
      <trkpt lat="47.15968" lon="3.04716">
        <ele>162.55993652344</ele>
        <time>2016-04-06T12:54:01.000Z</time>
      </trkpt>
      <trkpt lat="47.15966" lon="3.04714">
        <ele>162.59475708008</ele>
        <time>2016-04-06T12:54:04.000Z</time>
      </trkpt>
      <trkpt lat="47.15965" lon="3.04713">
        <ele>162.62619018555</ele>
        <time>2016-04-06T12:54:06.000Z</time>
      </trkpt>
      <trkpt lat="47.15963" lon="3.04711">
        <ele>162.65412902832</ele>
        <time>2016-04-06T12:54:08.000Z</time>
      </trkpt>
      <trkpt lat="47.1596" lon="3.04708">
        <ele>162.68315124512</ele>
        <time>2016-04-06T12:54:11.000Z</time>
      </trkpt>
      <trkpt lat="47.15959" lon="3.04706">
        <ele>162.70793151855</ele>
        <time>2016-04-06T12:54:13.000Z</time>
      </trkpt>
      <trkpt lat="47.15956" lon="3.04704">
        <ele>162.73355102539</ele>
        <time>2016-04-06T12:54:16.000Z</time>
      </trkpt>
      <trkpt lat="47.15954" lon="3.04701">
        <ele>162.76010131836</ele>
        <time>2016-04-06T12:54:18.000Z</time>
      </trkpt>
      <trkpt lat="47.15951" lon="3.04698">
        <ele>162.7887878418</ele>
        <time>2016-04-06T12:54:21.000Z</time>
      </trkpt>
      <trkpt lat="47.15949" lon="3.04697">
        <ele>162.81323242188</ele>
        <time>2016-04-06T12:54:23.000Z</time>
      </trkpt>
      <trkpt lat="47.15947" lon="3.04695">
        <ele>162.83706665039</ele>
        <time>2016-04-06T12:54:26.000Z</time>
      </trkpt>
      <trkpt lat="47.15944" lon="3.04694">
        <ele>162.8581237793</ele>
        <time>2016-04-06T12:54:29.000Z</time>
      </trkpt>
      <trkpt lat="47.15942" lon="3.04692">
        <ele>162.87702941895</ele>
        <time>2016-04-06T12:54:31.000Z</time>
      </trkpt>
      <trkpt lat="47.15939" lon="3.0469">
        <ele>162.8929901123</ele>
        <time>2016-04-06T12:54:34.000Z</time>
      </trkpt>
      <trkpt lat="47.15936" lon="3.04687">
        <ele>162.90942382812</ele>
        <time>2016-04-06T12:54:37.000Z</time>
      </trkpt>
      <trkpt lat="47.15933" lon="3.04685">
        <ele>162.9245300293</ele>
        <time>2016-04-06T12:54:40.000Z</time>
      </trkpt>
      <trkpt lat="47.15932" lon="3.04684">
        <ele>162.93814086914</ele>
        <time>2016-04-06T12:54:42.000Z</time>
      </trkpt>
      <trkpt lat="47.1593" lon="3.04682">
        <ele>162.95104980469</ele>
        <time>2016-04-06T12:54:44.000Z</time>
      </trkpt>
      <trkpt lat="47.15927" lon="3.04678">
        <ele>162.962890625</ele>
        <time>2016-04-06T12:54:47.000Z</time>
      </trkpt>
      <trkpt lat="47.15925" lon="3.04675">
        <ele>162.97219848633</ele>
        <time>2016-04-06T12:54:49.000Z</time>
      </trkpt>
      <trkpt lat="47.15923" lon="3.04673">
        <ele>162.98013305664</ele>
        <time>2016-04-06T12:54:51.000Z</time>
      </trkpt>
      <trkpt lat="47.15921" lon="3.04669">
        <ele>162.98745727539</ele>
        <time>2016-04-06T12:54:54.000Z</time>
      </trkpt>
      <trkpt lat="47.15919" lon="3.04665">
        <ele>162.98950195312</ele>
        <time>2016-04-06T12:54:57.000Z</time>
      </trkpt>
      <trkpt lat="47.15917" lon="3.04663">
        <ele>162.9832611084</ele>
        <time>2016-04-06T12:54:59.000Z</time>
      </trkpt>
      <trkpt lat="47.15915" lon="3.04661">
        <ele>162.96649169922</ele>
        <time>2016-04-06T12:55:01.000Z</time>
      </trkpt>
      <trkpt lat="47.15913" lon="3.04659">
        <ele>162.9404296875</ele>
        <time>2016-04-06T12:55:04.000Z</time>
      </trkpt>
      <trkpt lat="47.1591" lon="3.04657">
        <ele>162.90325927734</ele>
        <time>2016-04-06T12:55:07.000Z</time>
      </trkpt>
      <trkpt lat="47.15909" lon="3.04656">
        <ele>162.8645324707</ele>
        <time>2016-04-06T12:55:09.000Z</time>
      </trkpt>
      <trkpt lat="47.15909" lon="3.04654">
        <ele>162.82705688477</ele>
        <time>2016-04-06T12:55:11.000Z</time>
      </trkpt>
      <trkpt lat="47.15908" lon="3.04654">
        <ele>162.79806518555</ele>
        <time>2016-04-06T12:55:24.000Z</time>
      </trkpt>
      <trkpt lat="47.15904" lon="3.04655">
        <ele>162.76965332031</ele>
        <time>2016-04-06T12:55:27.000Z</time>
      </trkpt>
      <trkpt lat="47.15901" lon="3.04654">
        <ele>162.74398803711</ele>
        <time>2016-04-06T12:55:30.000Z</time>
      </trkpt>
      <trkpt lat="47.15898" lon="3.04652">
        <ele>162.71308898926</ele>
        <time>2016-04-06T12:55:33.000Z</time>
      </trkpt>
      <trkpt lat="47.15896" lon="3.0465">
        <ele>162.68171691895</ele>
        <time>2016-04-06T12:55:35.000Z</time>
      </trkpt>
      <trkpt lat="47.15894" lon="3.04648">
        <ele>162.64309692383</ele>
        <time>2016-04-06T12:55:37.000Z</time>
      </trkpt>
      <trkpt lat="47.1589" lon="3.04645">
        <ele>162.59915161133</ele>
        <time>2016-04-06T12:55:40.000Z</time>
      </trkpt>
      <trkpt lat="47.15887" lon="3.04642">
        <ele>162.55172729492</ele>
        <time>2016-04-06T12:55:43.000Z</time>
      </trkpt>
      <trkpt lat="47.15884" lon="3.04639">
        <ele>162.50637817383</ele>
        <time>2016-04-06T12:55:46.000Z</time>
      </trkpt>
      <trkpt lat="47.15882" lon="3.04638">
        <ele>162.46125793457</ele>
        <time>2016-04-06T12:55:48.000Z</time>
      </trkpt>
      <trkpt lat="47.1588" lon="3.04635">
        <ele>162.41711425781</ele>
        <time>2016-04-06T12:55:50.000Z</time>
      </trkpt>
      <trkpt lat="47.15878" lon="3.04632">
        <ele>162.3793182373</ele>
        <time>2016-04-06T12:55:52.000Z</time>
      </trkpt>
      <trkpt lat="47.15874" lon="3.04629">
        <ele>162.34252929688</ele>
        <time>2016-04-06T12:55:55.000Z</time>
      </trkpt>
      <trkpt lat="47.1587" lon="3.04625">
        <ele>162.30574035645</ele>
        <time>2016-04-06T12:55:58.000Z</time>
      </trkpt>
      <trkpt lat="47.15869" lon="3.04623">
        <ele>162.27014160156</ele>
        <time>2016-04-06T12:56:00.000Z</time>
      </trkpt>
      <trkpt lat="47.15866" lon="3.0462">
        <ele>162.23547363281</ele>
        <time>2016-04-06T12:56:02.000Z</time>
      </trkpt>
      <trkpt lat="47.15864" lon="3.04615">
        <ele>162.20146179199</ele>
        <time>2016-04-06T12:56:05.000Z</time>
      </trkpt>
      <trkpt lat="47.15862" lon="3.04612">
        <ele>162.17184448242</ele>
        <time>2016-04-06T12:56:08.000Z</time>
      </trkpt>
      <trkpt lat="47.15859" lon="3.04608">
        <ele>162.14605712891</ele>
        <time>2016-04-06T12:56:11.000Z</time>
      </trkpt>
      <trkpt lat="47.15857" lon="3.04605">
        <ele>162.12033081055</ele>
        <time>2016-04-06T12:56:13.000Z</time>
      </trkpt>
      <trkpt lat="47.15854" lon="3.046">
        <ele>162.09567260742</ele>
        <time>2016-04-06T12:56:16.000Z</time>
      </trkpt>
      <trkpt lat="47.15854" lon="3.04597">
        <ele>162.07531738281</ele>
        <time>2016-04-06T12:56:18.000Z</time>
      </trkpt>
      <trkpt lat="47.15851" lon="3.04593">
        <ele>162.05702209473</ele>
        <time>2016-04-06T12:56:21.000Z</time>
      </trkpt>
      <trkpt lat="47.15849" lon="3.04589">
        <ele>162.04072570801</ele>
        <time>2016-04-06T12:56:23.000Z</time>
      </trkpt>
      <trkpt lat="47.15848" lon="3.04585">
        <ele>162.02616882324</ele>
        <time>2016-04-06T12:56:25.000Z</time>
      </trkpt>
      <trkpt lat="47.15845" lon="3.04579">
        <ele>162.01042175293</ele>
        <time>2016-04-06T12:56:28.000Z</time>
      </trkpt>
      <trkpt lat="47.15845" lon="3.04577">
        <ele>161.99356079102</ele>
        <time>2016-04-06T12:56:30.000Z</time>
      </trkpt>
      <trkpt lat="47.15841" lon="3.0457">
        <ele>161.96682739258</ele>
        <time>2016-04-06T12:56:33.000Z</time>
      </trkpt>
      <trkpt lat="47.15839" lon="3.04568">
        <ele>161.93479919434</ele>
        <time>2016-04-06T12:56:35.000Z</time>
      </trkpt>
      <trkpt lat="47.15839" lon="3.04566">
        <ele>161.89962768555</ele>
        <time>2016-04-06T12:56:37.000Z</time>
      </trkpt>
      <trkpt lat="47.15836" lon="3.04561">
        <ele>161.85711669922</ele>
        <time>2016-04-06T12:56:40.000Z</time>
      </trkpt>
      <trkpt lat="47.15834" lon="3.04557">
        <ele>161.8024597168</ele>
        <time>2016-04-06T12:56:43.000Z</time>
      </trkpt>
      <trkpt lat="47.15832" lon="3.04554">
        <ele>161.75830078125</ele>
        <time>2016-04-06T12:56:45.000Z</time>
      </trkpt>
      <trkpt lat="47.1583" lon="3.0455">
        <ele>161.72004699707</ele>
        <time>2016-04-06T12:56:48.000Z</time>
      </trkpt>
      <trkpt lat="47.15828" lon="3.04546">
        <ele>161.68161010742</ele>
        <time>2016-04-06T12:56:51.000Z</time>
      </trkpt>
      <trkpt lat="47.15828" lon="3.04542">
        <ele>161.65068054199</ele>
        <time>2016-04-06T12:56:53.000Z</time>
      </trkpt>
      <trkpt lat="47.15826" lon="3.04539">
        <ele>161.63229370117</ele>
        <time>2016-04-06T12:56:55.000Z</time>
      </trkpt>
      <trkpt lat="47.15825" lon="3.04535">
        <ele>161.61262512207</ele>
        <time>2016-04-06T12:56:58.000Z</time>
      </trkpt>
      <trkpt lat="47.15824" lon="3.04532">
        <ele>161.59471130371</ele>
        <time>2016-04-06T12:57:00.000Z</time>
      </trkpt>
      <trkpt lat="47.15822" lon="3.04528">
        <ele>161.5806427002</ele>
        <time>2016-04-06T12:57:03.000Z</time>
      </trkpt>
      <trkpt lat="47.1582" lon="3.04525">
        <ele>161.5736541748</ele>
        <time>2016-04-06T12:57:05.000Z</time>
      </trkpt>
      <trkpt lat="47.15819" lon="3.04521">
        <ele>161.56718444824</ele>
        <time>2016-04-06T12:57:08.000Z</time>
      </trkpt>
      <trkpt lat="47.15817" lon="3.04519">
        <ele>161.56683349609</ele>
        <time>2016-04-06T12:57:10.000Z</time>
      </trkpt>
      <trkpt lat="47.15815" lon="3.04515">
        <ele>161.56965637207</ele>
        <time>2016-04-06T12:57:13.000Z</time>
      </trkpt>
      <trkpt lat="47.15813" lon="3.04513">
        <ele>161.57894897461</ele>
        <time>2016-04-06T12:57:15.000Z</time>
      </trkpt>
      <trkpt lat="47.1581" lon="3.04507">
        <ele>161.58920288086</ele>
        <time>2016-04-06T12:57:18.000Z</time>
      </trkpt>
      <trkpt lat="47.15808" lon="3.04504">
        <ele>161.60354614258</ele>
        <time>2016-04-06T12:57:21.000Z</time>
      </trkpt>
      <trkpt lat="47.15806" lon="3.045">
        <ele>161.62336730957</ele>
        <time>2016-04-06T12:57:24.000Z</time>
      </trkpt>
      <trkpt lat="47.15805" lon="3.04497">
        <ele>161.65502929688</ele>
        <time>2016-04-06T12:57:26.000Z</time>
      </trkpt>
      <trkpt lat="47.15805" lon="3.04495">
        <ele>161.69564819336</ele>
        <time>2016-04-06T12:57:28.000Z</time>
      </trkpt>
      <trkpt lat="47.15803" lon="3.04492">
        <ele>161.75764465332</ele>
        <time>2016-04-06T12:57:30.000Z</time>
      </trkpt>
      <trkpt lat="47.158" lon="3.04489">
        <ele>161.84423828125</ele>
        <time>2016-04-06T12:57:33.000Z</time>
      </trkpt>
      <trkpt lat="47.15799" lon="3.04485">
        <ele>161.95007324219</ele>
        <time>2016-04-06T12:57:36.000Z</time>
      </trkpt>
      <trkpt lat="47.15796" lon="3.0448">
        <ele>162.07775878906</ele>
        <time>2016-04-06T12:57:39.000Z</time>
      </trkpt>
      <trkpt lat="47.15793" lon="3.04476">
        <ele>162.22302246094</ele>
        <time>2016-04-06T12:57:42.000Z</time>
      </trkpt>
      <trkpt lat="47.15792" lon="3.04473">
        <ele>162.36401367188</ele>
        <time>2016-04-06T12:57:44.000Z</time>
      </trkpt>
      <trkpt lat="47.15789" lon="3.04469">
        <ele>162.51062011719</ele>
        <time>2016-04-06T12:57:47.000Z</time>
      </trkpt>
      <trkpt lat="47.15788" lon="3.04467">
        <ele>162.64868164062</ele>
        <time>2016-04-06T12:57:49.000Z</time>
      </trkpt>
      <trkpt lat="47.15786" lon="3.04464">
        <ele>162.76977539062</ele>
        <time>2016-04-06T12:57:52.000Z</time>
      </trkpt>
      <trkpt lat="47.15785" lon="3.04461">
        <ele>162.88171386719</ele>
        <time>2016-04-06T12:57:54.000Z</time>
      </trkpt>
      <trkpt lat="47.15784" lon="3.04457">
        <ele>162.99389648438</ele>
        <time>2016-04-06T12:57:56.000Z</time>
      </trkpt>
      <trkpt lat="47.15782" lon="3.04454">
        <ele>163.09997558594</ele>
        <time>2016-04-06T12:57:58.000Z</time>
      </trkpt>
      <trkpt lat="47.15781" lon="3.04451">
        <ele>163.21252441406</ele>
        <time>2016-04-06T12:58:00.000Z</time>
      </trkpt>
      <trkpt lat="47.1578" lon="3.04446">
        <ele>163.326171875</ele>
        <time>2016-04-06T12:58:06.000Z</time>
      </trkpt>
      <trkpt lat="47.1578" lon="3.04442">
        <ele>163.43688964844</ele>
        <time>2016-04-06T12:58:08.000Z</time>
      </trkpt>
      <trkpt lat="47.1578" lon="3.04439">
        <ele>163.54760742188</ele>
        <time>2016-04-06T12:58:09.000Z</time>
      </trkpt>
      <trkpt lat="47.15779" lon="3.04432">
        <ele>163.66943359375</ele>
        <time>2016-04-06T12:58:13.000Z</time>
      </trkpt>
      <trkpt lat="47.15776" lon="3.04427">
        <ele>163.80505371094</ele>
        <time>2016-04-06T12:58:13.000Z</time>
      </trkpt>
      <trkpt lat="47.15775" lon="3.04422">
        <ele>163.94860839844</ele>
        <time>2016-04-06T12:58:19.000Z</time>
      </trkpt>
      <trkpt lat="47.15773" lon="3.04418">
        <ele>164.10131835938</ele>
        <time>2016-04-06T12:58:21.000Z</time>
      </trkpt>
      <trkpt lat="47.15771" lon="3.04416">
        <ele>164.24523925781</ele>
        <time>2016-04-06T12:58:21.000Z</time>
      </trkpt>
      <trkpt lat="47.15768" lon="3.04412">
        <ele>164.35498046875</ele>
        <time>2016-04-06T12:58:31.000Z</time>
      </trkpt>
      <trkpt lat="47.15766" lon="3.0441">
        <ele>164.42939758301</ele>
        <time>2016-04-06T12:58:32.000Z</time>
      </trkpt>
      <trkpt lat="47.15764" lon="3.04407">
        <ele>164.47477722168</ele>
        <time>2016-04-06T12:58:32.000Z</time>
      </trkpt>
      <trkpt lat="47.15762" lon="3.04405">
        <ele>164.48933410645</ele>
        <time>2016-04-06T12:58:32.000Z</time>
      </trkpt>
      <trkpt lat="47.1576" lon="3.04403">
        <ele>164.49322509766</ele>
        <time>2016-04-06T12:58:33.000Z</time>
      </trkpt>
      <trkpt lat="47.15758" lon="3.04399">
        <ele>164.48648071289</ele>
        <time>2016-04-06T12:58:36.000Z</time>
      </trkpt>
      <trkpt lat="47.15755" lon="3.04395">
        <ele>164.47021484375</ele>
        <time>2016-04-06T12:58:39.000Z</time>
      </trkpt>
      <trkpt lat="47.15753" lon="3.04394">
        <ele>164.45254516602</ele>
        <time>2016-04-06T12:58:41.000Z</time>
      </trkpt>
      <trkpt lat="47.1575" lon="3.04391">
        <ele>164.4299621582</ele>
        <time>2016-04-06T12:58:43.000Z</time>
      </trkpt>
      <trkpt lat="47.15747" lon="3.04388">
        <ele>164.41020202637</ele>
        <time>2016-04-06T12:58:46.000Z</time>
      </trkpt>
      <trkpt lat="47.15744" lon="3.04386">
        <ele>164.39733886719</ele>
        <time>2016-04-06T12:58:49.000Z</time>
      </trkpt>
      <trkpt lat="47.15742" lon="3.04384">
        <ele>164.38676452637</ele>
        <time>2016-04-06T12:58:51.000Z</time>
      </trkpt>
      <trkpt lat="47.1574" lon="3.04381">
        <ele>164.37368774414</ele>
        <time>2016-04-06T12:58:54.000Z</time>
      </trkpt>
      <trkpt lat="47.15738" lon="3.04379">
        <ele>164.3617401123</ele>
        <time>2016-04-06T12:58:57.000Z</time>
      </trkpt>
      <trkpt lat="47.15736" lon="3.04377">
        <ele>164.34484863281</ele>
        <time>2016-04-06T12:58:59.000Z</time>
      </trkpt>
      <trkpt lat="47.15734" lon="3.04374">
        <ele>164.31706237793</ele>
        <time>2016-04-06T12:59:01.000Z</time>
      </trkpt>
      <trkpt lat="47.15733" lon="3.04371">
        <ele>164.28535461426</ele>
        <time>2016-04-06T12:59:04.000Z</time>
      </trkpt>
      <trkpt lat="47.15731" lon="3.04368">
        <ele>164.24771118164</ele>
        <time>2016-04-06T12:59:07.000Z</time>
      </trkpt>
      <trkpt lat="47.1573" lon="3.04366">
        <ele>164.20790100098</ele>
        <time>2016-04-06T12:59:09.000Z</time>
      </trkpt>
      <trkpt lat="47.15728" lon="3.04363">
        <ele>164.16316223145</ele>
        <time>2016-04-06T12:59:11.000Z</time>
      </trkpt>
      <trkpt lat="47.15726" lon="3.04362">
        <ele>164.12692260742</ele>
        <time>2016-04-06T12:59:13.000Z</time>
      </trkpt>
      <trkpt lat="47.15725" lon="3.0436">
        <ele>164.09146118164</ele>
        <time>2016-04-06T12:59:16.000Z</time>
      </trkpt>
      <trkpt lat="47.15723" lon="3.04358">
        <ele>164.06288146973</ele>
        <time>2016-04-06T12:59:22.000Z</time>
      </trkpt>
      <trkpt lat="47.1572" lon="3.04355">
        <ele>164.03219604492</ele>
        <time>2016-04-06T12:59:24.000Z</time>
      </trkpt>
      <trkpt lat="47.15718" lon="3.04352">
        <ele>164.00074768066</ele>
        <time>2016-04-06T12:59:27.000Z</time>
      </trkpt>
      <trkpt lat="47.15716" lon="3.04351">
        <ele>163.96951293945</ele>
        <time>2016-04-06T12:59:30.000Z</time>
      </trkpt>
      <trkpt lat="47.15715" lon="3.04347">
        <ele>163.92607116699</ele>
        <time>2016-04-06T12:59:39.000Z</time>
      </trkpt>
      <trkpt lat="47.15714" lon="3.04344">
        <ele>163.86962890625</ele>
        <time>2016-04-06T12:59:41.000Z</time>
      </trkpt>
      <trkpt lat="47.15712" lon="3.04341">
        <ele>163.81338500977</ele>
        <time>2016-04-06T12:59:44.000Z</time>
      </trkpt>
      <trkpt lat="47.15711" lon="3.04339">
        <ele>163.75508117676</ele>
        <time>2016-04-06T12:59:46.000Z</time>
      </trkpt>
      <trkpt lat="47.1571" lon="3.04339">
        <ele>163.70208740234</ele>
        <time>2016-04-06T12:59:49.000Z</time>
      </trkpt>
      <trkpt lat="47.15707" lon="3.04337">
        <ele>163.66639709473</ele>
        <time>2016-04-06T12:59:52.000Z</time>
      </trkpt>
      <trkpt lat="47.15705" lon="3.04336">
        <ele>163.64115905762</ele>
        <time>2016-04-06T12:59:54.000Z</time>
      </trkpt>
      <trkpt lat="47.15702" lon="3.04333">
        <ele>163.6187286377</ele>
        <time>2016-04-06T12:59:57.000Z</time>
      </trkpt>
      <trkpt lat="47.15701" lon="3.04332">
        <ele>163.60754394531</ele>
        <time>2016-04-06T12:59:59.000Z</time>
      </trkpt>
      <trkpt lat="47.15699" lon="3.04328">
        <ele>163.58979797363</ele>
        <time>2016-04-06T13:00:02.000Z</time>
      </trkpt>
      <trkpt lat="47.15698" lon="3.04326">
        <ele>163.57252502441</ele>
        <time>2016-04-06T13:00:05.000Z</time>
      </trkpt>
      <trkpt lat="47.15698" lon="3.04326">
        <ele>163.57252502441</ele>
        <time>2016-04-06T13:00:25.000Z</time>
      </trkpt>
      <trkpt lat="47.15698" lon="3.04328">
        <ele>163.5641784668</ele>
        <time>2016-04-06T13:00:29.000Z</time>
      </trkpt>
      <trkpt lat="47.15696" lon="3.04325">
        <ele>163.56091308594</ele>
        <time>2016-04-06T13:00:32.000Z</time>
      </trkpt>
      <trkpt lat="47.15694" lon="3.04322">
        <ele>163.55252075195</ele>
        <time>2016-04-06T13:00:34.000Z</time>
      </trkpt>
      <trkpt lat="47.15691" lon="3.04319">
        <ele>163.54414367676</ele>
        <time>2016-04-06T13:00:37.000Z</time>
      </trkpt>
      <trkpt lat="47.15689" lon="3.04317">
        <ele>163.53378295898</ele>
        <time>2016-04-06T13:00:39.000Z</time>
      </trkpt>
      <trkpt lat="47.15686" lon="3.04312">
        <ele>163.50637817383</ele>
        <time>2016-04-06T13:00:42.000Z</time>
      </trkpt>
      <trkpt lat="47.15684" lon="3.04307">
        <ele>163.46705627441</ele>
        <time>2016-04-06T13:00:45.000Z</time>
      </trkpt>
      <trkpt lat="47.15682" lon="3.04305">
        <ele>163.42404174805</ele>
        <time>2016-04-06T13:00:47.000Z</time>
      </trkpt>
      <trkpt lat="47.1568" lon="3.04302">
        <ele>163.3734588623</ele>
        <time>2016-04-06T13:00:49.000Z</time>
      </trkpt>
      <trkpt lat="47.15678" lon="3.04299">
        <ele>163.31465148926</ele>
        <time>2016-04-06T13:00:51.000Z</time>
      </trkpt>
      <trkpt lat="47.15675" lon="3.04295">
        <ele>163.25224304199</ele>
        <time>2016-04-06T13:00:54.000Z</time>
      </trkpt>
      <trkpt lat="47.15674" lon="3.04294">
        <ele>163.19728088379</ele>
        <time>2016-04-06T13:00:56.000Z</time>
      </trkpt>
      <trkpt lat="47.15671" lon="3.04289">
        <ele>163.12712097168</ele>
        <time>2016-04-06T13:00:59.000Z</time>
      </trkpt>
      <trkpt lat="47.15668" lon="3.04285">
        <ele>163.04423522949</ele>
        <time>2016-04-06T13:01:02.000Z</time>
      </trkpt>
      <trkpt lat="47.15667" lon="3.04283">
        <ele>162.95942687988</ele>
        <time>2016-04-06T13:01:04.000Z</time>
      </trkpt>
      <trkpt lat="47.15664" lon="3.04279">
        <ele>162.86726379395</ele>
        <time>2016-04-06T13:01:07.000Z</time>
      </trkpt>
      <trkpt lat="47.15662" lon="3.04276">
        <ele>162.76670837402</ele>
        <time>2016-04-06T13:01:09.000Z</time>
      </trkpt>
      <trkpt lat="47.1566" lon="3.04271">
        <ele>162.65473937988</ele>
        <time>2016-04-06T13:01:12.000Z</time>
      </trkpt>
      <trkpt lat="47.15657" lon="3.04267">
        <ele>162.54321289062</ele>
        <time>2016-04-06T13:01:15.000Z</time>
      </trkpt>
      <trkpt lat="47.15654" lon="3.04262">
        <ele>162.41455078125</ele>
        <time>2016-04-06T13:01:18.000Z</time>
      </trkpt>
      <trkpt lat="47.15652" lon="3.04256">
        <ele>162.27478027344</ele>
        <time>2016-04-06T13:01:21.000Z</time>
      </trkpt>
      <trkpt lat="47.1565" lon="3.04252">
        <ele>162.12756347656</ele>
        <time>2016-04-06T13:01:23.000Z</time>
      </trkpt>
      <trkpt lat="47.15647" lon="3.04247">
        <ele>161.99728393555</ele>
        <time>2016-04-06T13:01:26.000Z</time>
      </trkpt>
      <trkpt lat="47.15645" lon="3.04243">
        <ele>161.88801574707</ele>
        <time>2016-04-06T13:01:28.000Z</time>
      </trkpt>
      <trkpt lat="47.15643" lon="3.04238">
        <ele>161.80290222168</ele>
        <time>2016-04-06T13:01:31.000Z</time>
      </trkpt>
      <trkpt lat="47.15641" lon="3.04234">
        <ele>161.74966430664</ele>
        <time>2016-04-06T13:01:33.000Z</time>
      </trkpt>
      <trkpt lat="47.15639" lon="3.04231">
        <ele>161.7158203125</ele>
        <time>2016-04-06T13:01:35.000Z</time>
      </trkpt>
      <trkpt lat="47.15637" lon="3.04226">
        <ele>161.693359375</ele>
        <time>2016-04-06T13:01:38.000Z</time>
      </trkpt>
      <trkpt lat="47.15636" lon="3.04221">
        <ele>161.669921875</ele>
        <time>2016-04-06T13:01:41.000Z</time>
      </trkpt>
      <trkpt lat="47.15634" lon="3.04217">
        <ele>161.6494140625</ele>
        <time>2016-04-06T13:01:43.000Z</time>
      </trkpt>
      <trkpt lat="47.15632" lon="3.04213">
        <ele>161.62890625</ele>
        <time>2016-04-06T13:01:46.000Z</time>
      </trkpt>
      <trkpt lat="47.1563" lon="3.04209">
        <ele>161.6064453125</ele>
        <time>2016-04-06T13:01:48.000Z</time>
      </trkpt>
      <trkpt lat="47.15629" lon="3.04205">
        <ele>161.5859375</ele>
        <time>2016-04-06T13:01:50.000Z</time>
      </trkpt>
      <trkpt lat="47.15627" lon="3.042">
        <ele>161.564453125</ele>
        <time>2016-04-06T13:01:53.000Z</time>
      </trkpt>
      <trkpt lat="47.15624" lon="3.04195">
        <ele>161.541015625</ele>
        <time>2016-04-06T13:01:56.000Z</time>
      </trkpt>
      <trkpt lat="47.15622" lon="3.04192">
        <ele>161.5166015625</ele>
        <time>2016-04-06T13:01:58.000Z</time>
      </trkpt>
      <trkpt lat="47.1562" lon="3.04187">
        <ele>161.4921875</ele>
        <time>2016-04-06T13:02:01.000Z</time>
      </trkpt>
      <trkpt lat="47.15619" lon="3.04185">
        <ele>161.4677734375</ele>
        <time>2016-04-06T13:02:03.000Z</time>
      </trkpt>
      <trkpt lat="47.15616" lon="3.04179">
        <ele>161.4423828125</ele>
        <time>2016-04-06T13:02:06.000Z</time>
      </trkpt>
      <trkpt lat="47.15614" lon="3.04175">
        <ele>161.4169921875</ele>
        <time>2016-04-06T13:02:09.000Z</time>
      </trkpt>
      <trkpt lat="47.15612" lon="3.04172">
        <ele>161.392578125</ele>
        <time>2016-04-06T13:02:11.000Z</time>
      </trkpt>
      <trkpt lat="47.1561" lon="3.04168">
        <ele>161.3671875</ele>
        <time>2016-04-06T13:02:14.000Z</time>
      </trkpt>
      <trkpt lat="47.15607" lon="3.04163">
        <ele>161.34924316406</ele>
        <time>2016-04-06T13:02:17.000Z</time>
      </trkpt>
      <trkpt lat="47.15606" lon="3.0416">
        <ele>161.34088134766</ele>
        <time>2016-04-06T13:02:19.000Z</time>
      </trkpt>
      <trkpt lat="47.15602" lon="3.04155">
        <ele>161.34130859375</ele>
        <time>2016-04-06T13:02:22.000Z</time>
      </trkpt>
      <trkpt lat="47.156" lon="3.04152">
        <ele>161.34606933594</ele>
        <time>2016-04-06T13:02:24.000Z</time>
      </trkpt>
      <trkpt lat="47.15597" lon="3.04148">
        <ele>161.36108398438</ele>
        <time>2016-04-06T13:02:28.000Z</time>
      </trkpt>
      <trkpt lat="47.15594" lon="3.04143">
        <ele>161.37719726562</ele>
        <time>2016-04-06T13:02:30.000Z</time>
      </trkpt>
      <trkpt lat="47.15592" lon="3.04139">
        <ele>161.39459228516</ele>
        <time>2016-04-06T13:02:33.000Z</time>
      </trkpt>
      <trkpt lat="47.15591" lon="3.04136">
        <ele>161.41320800781</ele>
        <time>2016-04-06T13:02:36.000Z</time>
      </trkpt>
      <trkpt lat="47.15588" lon="3.04132">
        <ele>161.43579101562</ele>
        <time>2016-04-06T13:02:39.000Z</time>
      </trkpt>
      <trkpt lat="47.15587" lon="3.04129">
        <ele>161.45703125</ele>
        <time>2016-04-06T13:02:41.000Z</time>
      </trkpt>
      <trkpt lat="47.15585" lon="3.04124">
        <ele>161.47967529297</ele>
        <time>2016-04-06T13:02:44.000Z</time>
      </trkpt>
      <trkpt lat="47.15583" lon="3.04122">
        <ele>161.49900817871</ele>
        <time>2016-04-06T13:02:46.000Z</time>
      </trkpt>
      <trkpt lat="47.1558" lon="3.04118">
        <ele>161.5191192627</ele>
        <time>2016-04-06T13:02:49.000Z</time>
      </trkpt>
      <trkpt lat="47.15578" lon="3.04115">
        <ele>161.53807067871</ele>
        <time>2016-04-06T13:02:51.000Z</time>
      </trkpt>
      <trkpt lat="47.15575" lon="3.04112">
        <ele>161.55532836914</ele>
        <time>2016-04-06T13:02:54.000Z</time>
      </trkpt>
      <trkpt lat="47.15573" lon="3.04112">
        <ele>161.5657043457</ele>
        <time>2016-04-06T13:02:56.000Z</time>
      </trkpt>
      <trkpt lat="47.1557" lon="3.04109">
        <ele>161.57479858398</ele>
        <time>2016-04-06T13:02:59.000Z</time>
      </trkpt>
      <trkpt lat="47.15567" lon="3.04106">
        <ele>161.58065795898</ele>
        <time>2016-04-06T13:03:02.000Z</time>
      </trkpt>
      <trkpt lat="47.15567" lon="3.04104">
        <ele>161.58657836914</ele>
        <time>2016-04-06T13:03:04.000Z</time>
      </trkpt>
      <trkpt lat="47.15565" lon="3.04098">
        <ele>161.59753417969</ele>
        <time>2016-04-06T13:03:07.000Z</time>
      </trkpt>
      <trkpt lat="47.15562" lon="3.04093">
        <ele>161.61331176758</ele>
        <time>2016-04-06T13:03:10.000Z</time>
      </trkpt>
      <trkpt lat="47.15558" lon="3.04088">
        <ele>161.62921142578</ele>
        <time>2016-04-06T13:03:13.000Z</time>
      </trkpt>
      <trkpt lat="47.15555" lon="3.04084">
        <ele>161.64242553711</ele>
        <time>2016-04-06T13:03:16.000Z</time>
      </trkpt>
      <trkpt lat="47.15553" lon="3.04081">
        <ele>161.65396118164</ele>
        <time>2016-04-06T13:03:18.000Z</time>
      </trkpt>
      <trkpt lat="47.15551" lon="3.04078">
        <ele>161.66062927246</ele>
        <time>2016-04-06T13:03:21.000Z</time>
      </trkpt>
      <trkpt lat="47.15549" lon="3.04075">
        <ele>161.66656494141</ele>
        <time>2016-04-06T13:03:24.000Z</time>
      </trkpt>
      <trkpt lat="47.15546" lon="3.0407">
        <ele>161.67729187012</ele>
        <time>2016-04-06T13:03:27.000Z</time>
      </trkpt>
      <trkpt lat="47.15544" lon="3.04067">
        <ele>161.69213867188</ele>
        <time>2016-04-06T13:03:29.000Z</time>
      </trkpt>
      <trkpt lat="47.15542" lon="3.04062">
        <ele>161.71221923828</ele>
        <time>2016-04-06T13:03:32.000Z</time>
      </trkpt>
      <trkpt lat="47.1554" lon="3.04058">
        <ele>161.73547363281</ele>
        <time>2016-04-06T13:03:34.000Z</time>
      </trkpt>
      <trkpt lat="47.15538" lon="3.04054">
        <ele>161.75915527344</ele>
        <time>2016-04-06T13:03:37.000Z</time>
      </trkpt>
      <trkpt lat="47.15536" lon="3.0405">
        <ele>161.78173828125</ele>
        <time>2016-04-06T13:03:39.000Z</time>
      </trkpt>
      <trkpt lat="47.15533" lon="3.04048">
        <ele>161.80108642578</ele>
        <time>2016-04-06T13:03:41.000Z</time>
      </trkpt>
      <trkpt lat="47.15531" lon="3.04044">
        <ele>161.81579589844</ele>
        <time>2016-04-06T13:03:44.000Z</time>
      </trkpt>
      <trkpt lat="47.15528" lon="3.0404">
        <ele>161.83020019531</ele>
        <time>2016-04-06T13:03:47.000Z</time>
      </trkpt>
      <trkpt lat="47.15526" lon="3.04037">
        <ele>161.8427734375</ele>
        <time>2016-04-06T13:03:49.000Z</time>
      </trkpt>
      <trkpt lat="47.15524" lon="3.04033">
        <ele>161.85571289062</ele>
        <time>2016-04-06T13:03:52.000Z</time>
      </trkpt>
      <trkpt lat="47.15522" lon="3.0403">
        <ele>161.87139892578</ele>
        <time>2016-04-06T13:03:54.000Z</time>
      </trkpt>
      <trkpt lat="47.15519" lon="3.04026">
        <ele>161.88671875</ele>
        <time>2016-04-06T13:03:57.000Z</time>
      </trkpt>
      <trkpt lat="47.15516" lon="3.04023">
        <ele>161.89965820312</ele>
        <time>2016-04-06T13:04:00.000Z</time>
      </trkpt>
      <trkpt lat="47.15515" lon="3.0402">
        <ele>161.91436767578</ele>
        <time>2016-04-06T13:04:02.000Z</time>
      </trkpt>
      <trkpt lat="47.15512" lon="3.04015">
        <ele>161.92919921875</ele>
        <time>2016-04-06T13:04:05.000Z</time>
      </trkpt>
      <trkpt lat="47.1551" lon="3.04012">
        <ele>161.94403076172</ele>
        <time>2016-04-06T13:04:07.000Z</time>
      </trkpt>
      <trkpt lat="47.15508" lon="3.04009">
        <ele>161.95874023438</ele>
        <time>2016-04-06T13:04:10.000Z</time>
      </trkpt>
      <trkpt lat="47.15504" lon="3.04005">
        <ele>161.97357177734</ele>
        <time>2016-04-06T13:04:13.000Z</time>
      </trkpt>
      <trkpt lat="47.15502" lon="3.04002">
        <ele>161.98468017578</ele>
        <time>2016-04-06T13:04:16.000Z</time>
      </trkpt>
      <trkpt lat="47.155" lon="3.04">
        <ele>161.99015808105</ele>
        <time>2016-04-06T13:04:18.000Z</time>
      </trkpt>
      <trkpt lat="47.15497" lon="3.03996">
        <ele>161.97967529297</ele>
        <time>2016-04-06T13:04:21.000Z</time>
      </trkpt>
      <trkpt lat="47.15493" lon="3.03992">
        <ele>161.95109558105</ele>
        <time>2016-04-06T13:04:24.000Z</time>
      </trkpt>
      <trkpt lat="47.15491" lon="3.03989">
        <ele>161.91015625</ele>
        <time>2016-04-06T13:04:26.000Z</time>
      </trkpt>
      <trkpt lat="47.15489" lon="3.03986">
        <ele>161.86103820801</ele>
        <time>2016-04-06T13:04:28.000Z</time>
      </trkpt>
      <trkpt lat="47.15487" lon="3.03984">
        <ele>161.80642700195</ele>
        <time>2016-04-06T13:04:30.000Z</time>
      </trkpt>
      <trkpt lat="47.15485" lon="3.03982">
        <ele>161.75566101074</ele>
        <time>2016-04-06T13:04:32.000Z</time>
      </trkpt>
      <trkpt lat="47.15482" lon="3.03979">
        <ele>161.71237182617</ele>
        <time>2016-04-06T13:04:35.000Z</time>
      </trkpt>
      <trkpt lat="47.1548" lon="3.03975">
        <ele>161.67092895508</ele>
        <time>2016-04-06T13:04:38.000Z</time>
      </trkpt>
      <trkpt lat="47.15477" lon="3.03973">
        <ele>161.62922668457</ele>
        <time>2016-04-06T13:04:40.000Z</time>
      </trkpt>
      <trkpt lat="47.15474" lon="3.0397">
        <ele>161.58464050293</ele>
        <time>2016-04-06T13:04:43.000Z</time>
      </trkpt>
      <trkpt lat="47.15472" lon="3.03968">
        <ele>161.54183959961</ele>
        <time>2016-04-06T13:04:45.000Z</time>
      </trkpt>
      <trkpt lat="47.1547" lon="3.03965">
        <ele>161.5009765625</ele>
        <time>2016-04-06T13:04:47.000Z</time>
      </trkpt>
      <trkpt lat="47.15467" lon="3.03961">
        <ele>161.46138000488</ele>
        <time>2016-04-06T13:04:50.000Z</time>
      </trkpt>
      <trkpt lat="47.15465" lon="3.03958">
        <ele>161.42572021484</ele>
        <time>2016-04-06T13:04:52.000Z</time>
      </trkpt>
      <trkpt lat="47.15462" lon="3.03954">
        <ele>161.39413452148</ele>
        <time>2016-04-06T13:04:55.000Z</time>
      </trkpt>
      <trkpt lat="47.15459" lon="3.03949">
        <ele>161.36544799805</ele>
        <time>2016-04-06T13:04:58.000Z</time>
      </trkpt>
      <trkpt lat="47.15456" lon="3.03945">
        <ele>161.34065246582</ele>
        <time>2016-04-06T13:05:01.000Z</time>
      </trkpt>
      <trkpt lat="47.15454" lon="3.03943">
        <ele>161.31948852539</ele>
        <time>2016-04-06T13:05:03.000Z</time>
      </trkpt>
      <trkpt lat="47.15451" lon="3.03939">
        <ele>161.29772949219</ele>
        <time>2016-04-06T13:05:06.000Z</time>
      </trkpt>
      <trkpt lat="47.15448" lon="3.03935">
        <ele>161.27743530273</ele>
        <time>2016-04-06T13:05:08.000Z</time>
      </trkpt>
      <trkpt lat="47.15445" lon="3.03931">
        <ele>161.25952148438</ele>
        <time>2016-04-06T13:05:11.000Z</time>
      </trkpt>
      <trkpt lat="47.15442" lon="3.03928">
        <ele>161.24227905273</ele>
        <time>2016-04-06T13:05:13.000Z</time>
      </trkpt>
      <trkpt lat="47.1544" lon="3.03925">
        <ele>161.22773742676</ele>
        <time>2016-04-06T13:05:15.000Z</time>
      </trkpt>
      <trkpt lat="47.15438" lon="3.03923">
        <ele>161.21704101562</ele>
        <time>2016-04-06T13:05:17.000Z</time>
      </trkpt>
      <trkpt lat="47.15434" lon="3.03918">
        <ele>161.20932006836</ele>
        <time>2016-04-06T13:05:20.000Z</time>
      </trkpt>
      <trkpt lat="47.15433" lon="3.03915">
        <ele>161.20341491699</ele>
        <time>2016-04-06T13:05:22.000Z</time>
      </trkpt>
      <trkpt lat="47.1543" lon="3.03912">
        <ele>161.1940612793</ele>
        <time>2016-04-06T13:05:25.000Z</time>
      </trkpt>
      <trkpt lat="47.15429" lon="3.03909">
        <ele>161.18063354492</ele>
        <time>2016-04-06T13:05:27.000Z</time>
      </trkpt>
      <trkpt lat="47.15426" lon="3.03905">
        <ele>161.16363525391</ele>
        <time>2016-04-06T13:05:30.000Z</time>
      </trkpt>
      <trkpt lat="47.15424" lon="3.03901">
        <ele>161.1416015625</ele>
        <time>2016-04-06T13:05:33.000Z</time>
      </trkpt>
      <trkpt lat="47.15422" lon="3.03899">
        <ele>161.115234375</ele>
        <time>2016-04-06T13:05:35.000Z</time>
      </trkpt>
      <trkpt lat="47.1542" lon="3.03896">
        <ele>161.08984375</ele>
        <time>2016-04-06T13:05:37.000Z</time>
      </trkpt>
      <trkpt lat="47.15418" lon="3.03895">
        <ele>161.064453125</ele>
        <time>2016-04-06T13:05:39.000Z</time>
      </trkpt>
      <trkpt lat="47.15415" lon="3.03892">
        <ele>161.03758239746</ele>
        <time>2016-04-06T13:05:42.000Z</time>
      </trkpt>
      <trkpt lat="47.15412" lon="3.03887">
        <ele>161.01306152344</ele>
        <time>2016-04-06T13:05:45.000Z</time>
      </trkpt>
      <trkpt lat="47.1541" lon="3.03884">
        <ele>160.9909362793</ele>
        <time>2016-04-06T13:05:55.000Z</time>
      </trkpt>
      <trkpt lat="47.15407" lon="3.03879">
        <ele>160.97019958496</ele>
        <time>2016-04-06T13:05:55.000Z</time>
      </trkpt>
      <trkpt lat="47.15405" lon="3.03876">
        <ele>160.95333862305</ele>
        <time>2016-04-06T13:05:55.000Z</time>
      </trkpt>
      <trkpt lat="47.15403" lon="3.0387">
        <ele>160.94152832031</ele>
        <time>2016-04-06T13:05:55.000Z</time>
      </trkpt>
      <trkpt lat="47.15401" lon="3.03868">
        <ele>160.93267822266</ele>
        <time>2016-04-06T13:05:57.000Z</time>
      </trkpt>
      <trkpt lat="47.15398" lon="3.03865">
        <ele>160.92488098145</ele>
        <time>2016-04-06T13:06:00.000Z</time>
      </trkpt>
      <trkpt lat="47.15395" lon="3.03863">
        <ele>160.91975402832</ele>
        <time>2016-04-06T13:06:02.000Z</time>
      </trkpt>
      <trkpt lat="47.15393" lon="3.0386">
        <ele>160.91494750977</ele>
        <time>2016-04-06T13:06:04.000Z</time>
      </trkpt>
      <trkpt lat="47.15389" lon="3.03856">
        <ele>160.91220092773</ele>
        <time>2016-04-06T13:06:07.000Z</time>
      </trkpt>
      <trkpt lat="47.15387" lon="3.03854">
        <ele>160.91067504883</ele>
        <time>2016-04-06T13:06:09.000Z</time>
      </trkpt>
      <trkpt lat="47.15385" lon="3.03851">
        <ele>160.9119720459</ele>
        <time>2016-04-06T13:06:11.000Z</time>
      </trkpt>
      <trkpt lat="47.15382" lon="3.03847">
        <ele>160.91665649414</ele>
        <time>2016-04-06T13:06:14.000Z</time>
      </trkpt>
      <trkpt lat="47.1538" lon="3.03844">
        <ele>160.92430114746</ele>
        <time>2016-04-06T13:06:16.000Z</time>
      </trkpt>
      <trkpt lat="47.15377" lon="3.0384">
        <ele>160.93496704102</ele>
        <time>2016-04-06T13:06:19.000Z</time>
      </trkpt>
      <trkpt lat="47.15375" lon="3.03837">
        <ele>160.94746398926</ele>
        <time>2016-04-06T13:06:21.000Z</time>
      </trkpt>
      <trkpt lat="47.15372" lon="3.03833">
        <ele>160.96357727051</ele>
        <time>2016-04-06T13:06:24.000Z</time>
      </trkpt>
      <trkpt lat="47.1537" lon="3.03828">
        <ele>160.98245239258</ele>
        <time>2016-04-06T13:06:27.000Z</time>
      </trkpt>
      <trkpt lat="47.15369" lon="3.03824">
        <ele>161.00286865234</ele>
        <time>2016-04-06T13:06:30.000Z</time>
      </trkpt>
      <trkpt lat="47.15366" lon="3.03819">
        <ele>161.02334594727</ele>
        <time>2016-04-06T13:06:33.000Z</time>
      </trkpt>
      <trkpt lat="47.15364" lon="3.03815">
        <ele>161.04403686523</ele>
        <time>2016-04-06T13:06:35.000Z</time>
      </trkpt>
      <trkpt lat="47.15361" lon="3.0381">
        <ele>161.06254577637</ele>
        <time>2016-04-06T13:06:38.000Z</time>
      </trkpt>
      <trkpt lat="47.15359" lon="3.03805">
        <ele>161.07881164551</ele>
        <time>2016-04-06T13:06:41.000Z</time>
      </trkpt>
      <trkpt lat="47.15358" lon="3.03802">
        <ele>161.09230041504</ele>
        <time>2016-04-06T13:06:43.000Z</time>
      </trkpt>
      <trkpt lat="47.15357" lon="3.03797">
        <ele>161.103515625</ele>
        <time>2016-04-06T13:06:46.000Z</time>
      </trkpt>
      <trkpt lat="47.15355" lon="3.03793">
        <ele>161.11288452148</ele>
        <time>2016-04-06T13:06:48.000Z</time>
      </trkpt>
      <trkpt lat="47.15354" lon="3.03789">
        <ele>161.12033081055</ele>
        <time>2016-04-06T13:06:51.000Z</time>
      </trkpt>
      <trkpt lat="47.15352" lon="3.03783">
        <ele>161.12594604492</ele>
        <time>2016-04-06T13:06:54.000Z</time>
      </trkpt>
      <trkpt lat="47.15351" lon="3.0378">
        <ele>161.13119506836</ele>
        <time>2016-04-06T13:06:57.000Z</time>
      </trkpt>
      <trkpt lat="47.15351" lon="3.03777">
        <ele>161.13497924805</ele>
        <time>2016-04-06T13:06:59.000Z</time>
      </trkpt>
      <trkpt lat="47.1535" lon="3.03775">
        <ele>161.13786315918</ele>
        <time>2016-04-06T13:07:01.000Z</time>
      </trkpt>
      <trkpt lat="47.1535" lon="3.03768">
        <ele>161.14219665527</ele>
        <time>2016-04-06T13:07:04.000Z</time>
      </trkpt>
      <trkpt lat="47.15348" lon="3.03762">
        <ele>161.14553833008</ele>
        <time>2016-04-06T13:07:07.000Z</time>
      </trkpt>
      <trkpt lat="47.15348" lon="3.03759">
        <ele>161.14877319336</ele>
        <time>2016-04-06T13:07:09.000Z</time>
      </trkpt>
      <trkpt lat="47.15347" lon="3.03753">
        <ele>161.1524810791</ele>
        <time>2016-04-06T13:07:12.000Z</time>
      </trkpt>
      <trkpt lat="47.15347" lon="3.0375">
        <ele>161.15780639648</ele>
        <time>2016-04-06T13:07:14.000Z</time>
      </trkpt>
      <trkpt lat="47.15346" lon="3.03747">
        <ele>161.17245483398</ele>
        <time>2016-04-06T13:07:16.000Z</time>
      </trkpt>
      <trkpt lat="47.15345" lon="3.03741">
        <ele>161.21139526367</ele>
        <time>2016-04-06T13:07:19.000Z</time>
      </trkpt>
      <trkpt lat="47.15344" lon="3.03735">
        <ele>161.27261352539</ele>
        <time>2016-04-06T13:07:22.000Z</time>
      </trkpt>
      <trkpt lat="47.15343" lon="3.0373">
        <ele>161.35708618164</ele>
        <time>2016-04-06T13:07:25.000Z</time>
      </trkpt>
      <trkpt lat="47.15343" lon="3.03723">
        <ele>161.46716308594</ele>
        <time>2016-04-06T13:07:28.000Z</time>
      </trkpt>
      <trkpt lat="47.15343" lon="3.0372">
        <ele>161.5807800293</ele>
        <time>2016-04-06T13:07:30.000Z</time>
      </trkpt>
      <trkpt lat="47.15342" lon="3.03714">
        <ele>161.69543457031</ele>
        <time>2016-04-06T13:07:33.000Z</time>
      </trkpt>
      <trkpt lat="47.15342" lon="3.0371">
        <ele>161.80416870117</ele>
        <time>2016-04-06T13:07:35.000Z</time>
      </trkpt>
      <trkpt lat="47.15343" lon="3.03707">
        <ele>161.90769958496</ele>
        <time>2016-04-06T13:07:37.000Z</time>
      </trkpt>
      <trkpt lat="47.15344" lon="3.03702">
        <ele>162.00657653809</ele>
        <time>2016-04-06T13:07:40.000Z</time>
      </trkpt>
      <trkpt lat="47.15343" lon="3.03698">
        <ele>162.10818481445</ele>
        <time>2016-04-06T13:07:42.000Z</time>
      </trkpt>
      <trkpt lat="47.15344" lon="3.03694">
        <ele>162.20162963867</ele>
        <time>2016-04-06T13:07:44.000Z</time>
      </trkpt>
      <trkpt lat="47.15345" lon="3.03689">
        <ele>162.30049133301</ele>
        <time>2016-04-06T13:07:47.000Z</time>
      </trkpt>
      <trkpt lat="47.15345" lon="3.03683">
        <ele>162.40946960449</ele>
        <time>2016-04-06T13:07:50.000Z</time>
      </trkpt>
      <trkpt lat="47.15346" lon="3.03679">
        <ele>162.51446533203</ele>
        <time>2016-04-06T13:07:52.000Z</time>
      </trkpt>
      <trkpt lat="47.15347" lon="3.03673">
        <ele>162.6270904541</ele>
        <time>2016-04-06T13:07:55.000Z</time>
      </trkpt>
      <trkpt lat="47.15347" lon="3.03667">
        <ele>162.74580383301</ele>
        <time>2016-04-06T13:07:58.000Z</time>
      </trkpt>
      <trkpt lat="47.15348" lon="3.0366">
        <ele>162.83305358887</ele>
        <time>2016-04-06T13:08:01.000Z</time>
      </trkpt>
      <trkpt lat="47.15349" lon="3.03657">
        <ele>162.88450622559</ele>
        <time>2016-04-06T13:08:03.000Z</time>
      </trkpt>
      <trkpt lat="47.15349" lon="3.03653">
        <ele>162.91081237793</ele>
        <time>2016-04-06T13:08:05.000Z</time>
      </trkpt>
      <trkpt lat="47.1535" lon="3.03649">
        <ele>162.90336608887</ele>
        <time>2016-04-06T13:08:08.000Z</time>
      </trkpt>
      <trkpt lat="47.1535" lon="3.03642">
        <ele>162.85984802246</ele>
        <time>2016-04-06T13:08:11.000Z</time>
      </trkpt>
      <trkpt lat="47.1535" lon="3.03636">
        <ele>162.8137512207</ele>
        <time>2016-04-06T13:08:14.000Z</time>
      </trkpt>
      <trkpt lat="47.15351" lon="3.0363">
        <ele>162.76403808594</ele>
        <time>2016-04-06T13:08:17.000Z</time>
      </trkpt>
      <trkpt lat="47.15351" lon="3.03625">
        <ele>162.71142578125</ele>
        <time>2016-04-06T13:08:20.000Z</time>
      </trkpt>
      <trkpt lat="47.15351" lon="3.03621">
        <ele>162.66055297852</ele>
        <time>2016-04-06T13:08:22.000Z</time>
      </trkpt>
      <trkpt lat="47.15351" lon="3.03616">
        <ele>162.61294555664</ele>
        <time>2016-04-06T13:08:25.000Z</time>
      </trkpt>
      <trkpt lat="47.15351" lon="3.03609">
        <ele>162.56362915039</ele>
        <time>2016-04-06T13:08:28.000Z</time>
      </trkpt>
      <trkpt lat="47.15351" lon="3.03606">
        <ele>162.51817321777</ele>
        <time>2016-04-06T13:08:30.000Z</time>
      </trkpt>
      <trkpt lat="47.15351" lon="3.03601">
        <ele>162.47360229492</ele>
        <time>2016-04-06T13:08:33.000Z</time>
      </trkpt>
      <trkpt lat="47.15351" lon="3.03596">
        <ele>162.42491149902</ele>
        <time>2016-04-06T13:08:36.000Z</time>
      </trkpt>
      <trkpt lat="47.15352" lon="3.0359">
        <ele>162.37640380859</ele>
        <time>2016-04-06T13:08:39.000Z</time>
      </trkpt>
      <trkpt lat="47.15352" lon="3.03586">
        <ele>162.3353729248</ele>
        <time>2016-04-06T13:08:41.000Z</time>
      </trkpt>
      <trkpt lat="47.15353" lon="3.03581">
        <ele>162.29695129395</ele>
        <time>2016-04-06T13:08:49.000Z</time>
      </trkpt>
      <trkpt lat="47.15352" lon="3.03577">
        <ele>162.26611328125</ele>
        <time>2016-04-06T13:08:50.000Z</time>
      </trkpt>
      <trkpt lat="47.15353" lon="3.03573">
        <ele>162.24685668945</ele>
        <time>2016-04-06T13:08:50.000Z</time>
      </trkpt>
      <trkpt lat="47.15353" lon="3.03567">
        <ele>162.23669433594</ele>
        <time>2016-04-06T13:08:51.000Z</time>
      </trkpt>
      <trkpt lat="47.15353" lon="3.03562">
        <ele>162.232421875</ele>
        <time>2016-04-06T13:08:55.000Z</time>
      </trkpt>
      <trkpt lat="47.15351" lon="3.03556">
        <ele>162.2294921875</ele>
        <time>2016-04-06T13:08:57.000Z</time>
      </trkpt>
      <trkpt lat="47.15351" lon="3.03551">
        <ele>162.2275390625</ele>
        <time>2016-04-06T13:09:00.000Z</time>
      </trkpt>
      <trkpt lat="47.15351" lon="3.03547">
        <ele>162.2236328125</ele>
        <time>2016-04-06T13:09:02.000Z</time>
      </trkpt>
      <trkpt lat="47.15352" lon="3.03543">
        <ele>162.2216796875</ele>
        <time>2016-04-06T13:09:05.000Z</time>
      </trkpt>
      <trkpt lat="47.15353" lon="3.03536">
        <ele>162.22265625</ele>
        <time>2016-04-06T13:09:08.000Z</time>
      </trkpt>
      <trkpt lat="47.15353" lon="3.03531">
        <ele>162.2265625</ele>
        <time>2016-04-06T13:09:11.000Z</time>
      </trkpt>
      <trkpt lat="47.15352" lon="3.03525">
        <ele>162.228515625</ele>
        <time>2016-04-06T13:09:13.000Z</time>
      </trkpt>
      <trkpt lat="47.15352" lon="3.03521">
        <ele>162.23046875</ele>
        <time>2016-04-06T13:09:17.000Z</time>
      </trkpt>
      <trkpt lat="47.15352" lon="3.03519">
        <ele>162.23046875</ele>
        <time>2016-04-06T13:09:18.000Z</time>
      </trkpt>
      <trkpt lat="47.15351" lon="3.03515">
        <ele>162.2265625</ele>
        <time>2016-04-06T13:09:20.000Z</time>
      </trkpt>
      <trkpt lat="47.15352" lon="3.03511">
        <ele>162.2236328125</ele>
        <time>2016-04-06T13:09:22.000Z</time>
      </trkpt>
      <trkpt lat="47.15352" lon="3.03506">
        <ele>162.22265625</ele>
        <time>2016-04-06T13:09:24.000Z</time>
      </trkpt>
      <trkpt lat="47.15353" lon="3.03499">
        <ele>162.22860717773</ele>
        <time>2016-04-06T13:09:27.000Z</time>
      </trkpt>
      <trkpt lat="47.15355" lon="3.03497">
        <ele>162.24085998535</ele>
        <time>2016-04-06T13:09:29.000Z</time>
      </trkpt>
      <trkpt lat="47.15357" lon="3.03491">
        <ele>162.27470397949</ele>
        <time>2016-04-06T13:09:34.000Z</time>
      </trkpt>
      <trkpt lat="47.15355" lon="3.03483">
        <ele>162.32382202148</ele>
        <time>2016-04-06T13:09:37.000Z</time>
      </trkpt>
      <trkpt lat="47.15356" lon="3.03476">
        <ele>162.39154052734</ele>
        <time>2016-04-06T13:09:40.000Z</time>
      </trkpt>
      <trkpt lat="47.15356" lon="3.0347">
        <ele>162.46624755859</ele>
        <time>2016-04-06T13:09:43.000Z</time>
      </trkpt>
      <trkpt lat="47.15357" lon="3.03466">
        <ele>162.54803466797</ele>
        <time>2016-04-06T13:09:46.000Z</time>
      </trkpt>
      <trkpt lat="47.15356" lon="3.0346">
        <ele>162.62182617188</ele>
        <time>2016-04-06T13:09:49.000Z</time>
      </trkpt>
      <trkpt lat="47.15357" lon="3.03454">
        <ele>162.69458007812</ele>
        <time>2016-04-06T13:09:52.000Z</time>
      </trkpt>
      <trkpt lat="47.15357" lon="3.0345">
        <ele>162.75750732422</ele>
        <time>2016-04-06T13:09:54.000Z</time>
      </trkpt>
      <trkpt lat="47.15357" lon="3.03446">
        <ele>162.81768798828</ele>
        <time>2016-04-06T13:09:57.000Z</time>
      </trkpt>
      <trkpt lat="47.15357" lon="3.03442">
        <ele>162.87341308594</ele>
        <time>2016-04-06T13:09:59.000Z</time>
      </trkpt>
      <trkpt lat="47.15357" lon="3.03438">
        <ele>162.92852783203</ele>
        <time>2016-04-06T13:10:02.000Z</time>
      </trkpt>
      <trkpt lat="47.15358" lon="3.03435">
        <ele>162.97680664062</ele>
        <time>2016-04-06T13:10:04.000Z</time>
      </trkpt>
      <trkpt lat="47.15358" lon="3.0343">
        <ele>163.02777099609</ele>
        <time>2016-04-06T13:10:07.000Z</time>
      </trkpt>
      <trkpt lat="47.15358" lon="3.03427">
        <ele>163.07678222656</ele>
        <time>2016-04-06T13:10:09.000Z</time>
      </trkpt>
      <trkpt lat="47.15359" lon="3.03425">
        <ele>163.12530517578</ele>
        <time>2016-04-06T13:10:11.000Z</time>
      </trkpt>
      <trkpt lat="47.15359" lon="3.03418">
        <ele>163.17932128906</ele>
        <time>2016-04-06T13:10:14.000Z</time>
      </trkpt>
      <trkpt lat="47.15359" lon="3.03411">
        <ele>163.23220825195</ele>
        <time>2016-04-06T13:10:17.000Z</time>
      </trkpt>
      <trkpt lat="47.15359" lon="3.03404">
        <ele>163.27890014648</ele>
        <time>2016-04-06T13:10:20.000Z</time>
      </trkpt>
      <trkpt lat="47.1536" lon="3.03399">
        <ele>163.3212890625</ele>
        <time>2016-04-06T13:10:23.000Z</time>
      </trkpt>
      <trkpt lat="47.15359" lon="3.03395">
        <ele>163.35820007324</ele>
        <time>2016-04-06T13:10:26.000Z</time>
      </trkpt>
      <trkpt lat="47.15361" lon="3.03391">
        <ele>163.38279724121</ele>
        <time>2016-04-06T13:10:28.000Z</time>
      </trkpt>
      <trkpt lat="47.15361" lon="3.03388">
        <ele>163.40434265137</ele>
        <time>2016-04-06T13:10:30.000Z</time>
      </trkpt>
      <trkpt lat="47.15361" lon="3.03384">
        <ele>163.42337036133</ele>
        <time>2016-04-06T13:10:32.000Z</time>
      </trkpt>
      <trkpt lat="47.15363" lon="3.03379">
        <ele>163.44827270508</ele>
        <time>2016-04-06T13:10:35.000Z</time>
      </trkpt>
      <trkpt lat="47.15363" lon="3.03375">
        <ele>163.47326660156</ele>
        <time>2016-04-06T13:10:37.000Z</time>
      </trkpt>
      <trkpt lat="47.15363" lon="3.03369">
        <ele>163.498046875</ele>
        <time>2016-04-06T13:10:40.000Z</time>
      </trkpt>
      <trkpt lat="47.15363" lon="3.03364">
        <ele>163.52641296387</ele>
        <time>2016-04-06T13:10:43.000Z</time>
      </trkpt>
      <trkpt lat="47.15363" lon="3.0336">
        <ele>163.55409240723</ele>
        <time>2016-04-06T13:10:45.000Z</time>
      </trkpt>
      <trkpt lat="47.15363" lon="3.03355">
        <ele>163.57446289062</ele>
        <time>2016-04-06T13:10:48.000Z</time>
      </trkpt>
      <trkpt lat="47.15362" lon="3.03352">
        <ele>163.59272766113</ele>
        <time>2016-04-06T13:10:50.000Z</time>
      </trkpt>
      <trkpt lat="47.15362" lon="3.03345">
        <ele>163.60920715332</ele>
        <time>2016-04-06T13:10:53.000Z</time>
      </trkpt>
      <trkpt lat="47.15362" lon="3.03342">
        <ele>163.62057495117</ele>
        <time>2016-04-06T13:10:55.000Z</time>
      </trkpt>
      <trkpt lat="47.15362" lon="3.03339">
        <ele>163.6340637207</ele>
        <time>2016-04-06T13:10:57.000Z</time>
      </trkpt>
      <trkpt lat="47.15363" lon="3.03335">
        <ele>163.65234375</ele>
        <time>2016-04-06T13:11:00.000Z</time>
      </trkpt>
      <trkpt lat="47.15364" lon="3.03328">
        <ele>163.70582580566</ele>
        <time>2016-04-06T13:11:02.000Z</time>
      </trkpt>
      <trkpt lat="47.15364" lon="3.03324">
        <ele>163.78848266602</ele>
        <time>2016-04-06T13:11:05.000Z</time>
      </trkpt>
      <trkpt lat="47.15364" lon="3.03319">
        <ele>163.89817810059</ele>
        <time>2016-04-06T13:11:08.000Z</time>
      </trkpt>
      <trkpt lat="47.15364" lon="3.03316">
        <ele>164.02633666992</ele>
        <time>2016-04-06T13:11:10.000Z</time>
      </trkpt>
      <trkpt lat="47.15365" lon="3.03312">
        <ele>164.17448425293</ele>
        <time>2016-04-06T13:11:12.000Z</time>
      </trkpt>
      <trkpt lat="47.15366" lon="3.03307">
        <ele>164.31742858887</ele>
        <time>2016-04-06T13:11:15.000Z</time>
      </trkpt>
      <trkpt lat="47.15366" lon="3.03304">
        <ele>164.4524230957</ele>
        <time>2016-04-06T13:11:17.000Z</time>
      </trkpt>
      <trkpt lat="47.15368" lon="3.03298">
        <ele>164.6007232666</ele>
        <time>2016-04-06T13:11:20.000Z</time>
      </trkpt>
      <trkpt lat="47.15369" lon="3.03293">
        <ele>164.75607299805</ele>
        <time>2016-04-06T13:11:22.000Z</time>
      </trkpt>
      <trkpt lat="47.15371" lon="3.03288">
        <ele>164.92376708984</ele>
        <time>2016-04-06T13:11:25.000Z</time>
      </trkpt>
      <trkpt lat="47.15372" lon="3.03283">
        <ele>165.09378051758</ele>
        <time>2016-04-06T13:11:28.000Z</time>
      </trkpt>
      <trkpt lat="47.15373" lon="3.03279">
        <ele>165.26629638672</ele>
        <time>2016-04-06T13:11:31.000Z</time>
      </trkpt>
      <trkpt lat="47.15375" lon="3.03275">
        <ele>165.43222045898</ele>
        <time>2016-04-06T13:11:34.000Z</time>
      </trkpt>
      <trkpt lat="47.15376" lon="3.03272">
        <ele>165.58544921875</ele>
        <time>2016-04-06T13:11:36.000Z</time>
      </trkpt>
      <trkpt lat="47.15377" lon="3.03267">
        <ele>165.73454284668</ele>
        <time>2016-04-06T13:11:39.000Z</time>
      </trkpt>
      <trkpt lat="47.15379" lon="3.03263">
        <ele>165.88143920898</ele>
        <time>2016-04-06T13:11:42.000Z</time>
      </trkpt>
      <trkpt lat="47.15381" lon="3.03261">
        <ele>166.01565551758</ele>
        <time>2016-04-06T13:11:44.000Z</time>
      </trkpt>
      <trkpt lat="47.15384" lon="3.03257">
        <ele>166.1428527832</ele>
        <time>2016-04-06T13:11:47.000Z</time>
      </trkpt>
      <trkpt lat="47.15386" lon="3.03255">
        <ele>166.26933288574</ele>
        <time>2016-04-06T13:11:49.000Z</time>
      </trkpt>
      <trkpt lat="47.15388" lon="3.03251">
        <ele>166.39279174805</ele>
        <time>2016-04-06T13:11:52.000Z</time>
      </trkpt>
      <trkpt lat="47.15391" lon="3.03247">
        <ele>166.5154876709</ele>
        <time>2016-04-06T13:11:55.000Z</time>
      </trkpt>
      <trkpt lat="47.15392" lon="3.03245">
        <ele>166.64460754395</ele>
        <time>2016-04-06T13:11:57.000Z</time>
      </trkpt>
      <trkpt lat="47.15393" lon="3.03242">
        <ele>166.77531433105</ele>
        <time>2016-04-06T13:12:00.000Z</time>
      </trkpt>
      <trkpt lat="47.15395" lon="3.03239">
        <ele>166.91584777832</ele>
        <time>2016-04-06T13:12:02.000Z</time>
      </trkpt>
      <trkpt lat="47.15396" lon="3.03236">
        <ele>167.05599975586</ele>
        <time>2016-04-06T13:12:05.000Z</time>
      </trkpt>
      <trkpt lat="47.15396" lon="3.03231">
        <ele>167.21051025391</ele>
        <time>2016-04-06T13:12:08.000Z</time>
      </trkpt>
      <trkpt lat="47.15399" lon="3.03226">
        <ele>167.39122009277</ele>
        <time>2016-04-06T13:12:11.000Z</time>
      </trkpt>
      <trkpt lat="47.15399" lon="3.03223">
        <ele>167.57218933105</ele>
        <time>2016-04-06T13:12:14.000Z</time>
      </trkpt>
      <trkpt lat="47.15401" lon="3.03219">
        <ele>167.76579284668</ele>
        <time>2016-04-06T13:12:17.000Z</time>
      </trkpt>
      <trkpt lat="47.15402" lon="3.03216">
        <ele>167.95799255371</ele>
        <time>2016-04-06T13:12:19.000Z</time>
      </trkpt>
      <trkpt lat="47.15402" lon="3.03211">
        <ele>168.15414428711</ele>
        <time>2016-04-06T13:12:22.000Z</time>
      </trkpt>
      <trkpt lat="47.15403" lon="3.03205">
        <ele>168.35888671875</ele>
        <time>2016-04-06T13:12:25.000Z</time>
      </trkpt>
      <trkpt lat="47.15403" lon="3.03202">
        <ele>168.56045532227</ele>
        <time>2016-04-06T13:12:27.000Z</time>
      </trkpt>
      <trkpt lat="47.15402" lon="3.03198">
        <ele>168.74613952637</ele>
        <time>2016-04-06T13:12:30.000Z</time>
      </trkpt>
      <trkpt lat="47.15401" lon="3.03193">
        <ele>168.94096374512</ele>
        <time>2016-04-06T13:12:33.000Z</time>
      </trkpt>
      <trkpt lat="47.154" lon="3.03189">
        <ele>169.11514282227</ele>
        <time>2016-04-06T13:12:35.000Z</time>
      </trkpt>
      <trkpt lat="47.154" lon="3.03187">
        <ele>169.25044250488</ele>
        <time>2016-04-06T13:12:37.000Z</time>
      </trkpt>
      <trkpt lat="47.1539" lon="3.03162">
        <ele>169.42404174805</ele>
        <time>2016-04-06T13:12:57.000Z</time>
      </trkpt>
      <trkpt lat="47.15388" lon="3.03157">
        <ele>169.51858520508</ele>
        <time>2016-04-06T13:12:59.000Z</time>
      </trkpt>
      <trkpt lat="47.15386" lon="3.0315">
        <ele>169.51057434082</ele>
        <time>2016-04-06T13:13:01.000Z</time>
      </trkpt>
      <trkpt lat="47.15386" lon="3.03143">
        <ele>169.41268920898</ele>
        <time>2016-04-06T13:13:03.000Z</time>
      </trkpt>
      <trkpt lat="47.15385" lon="3.03136">
        <ele>169.23561096191</ele>
        <time>2016-04-06T13:13:06.000Z</time>
      </trkpt>
      <trkpt lat="47.15383" lon="3.03131">
        <ele>168.93417358398</ele>
        <time>2016-04-06T13:13:09.000Z</time>
      </trkpt>
      <trkpt lat="47.15384" lon="3.03125">
        <ele>168.64630126953</ele>
        <time>2016-04-06T13:13:12.000Z</time>
      </trkpt>
      <trkpt lat="47.15384" lon="3.03119">
        <ele>168.3734588623</ele>
        <time>2016-04-06T13:13:15.000Z</time>
      </trkpt>
      <trkpt lat="47.15387" lon="3.03112">
        <ele>168.12959289551</ele>
        <time>2016-04-06T13:13:18.000Z</time>
      </trkpt>
      <trkpt lat="47.15388" lon="3.03109">
        <ele>167.93927001953</ele>
        <time>2016-04-06T13:13:20.000Z</time>
      </trkpt>
      <trkpt lat="47.1539" lon="3.03104">
        <ele>167.78405761719</ele>
        <time>2016-04-06T13:13:23.000Z</time>
      </trkpt>
      <trkpt lat="47.15393" lon="3.03099">
        <ele>167.65434265137</ele>
        <time>2016-04-06T13:13:26.000Z</time>
      </trkpt>
      <trkpt lat="47.15393" lon="3.03095">
        <ele>167.54560852051</ele>
        <time>2016-04-06T13:13:28.000Z</time>
      </trkpt>
      <trkpt lat="47.15393" lon="3.03091">
        <ele>167.44100952148</ele>
        <time>2016-04-06T13:13:30.000Z</time>
      </trkpt>
      <trkpt lat="47.15394" lon="3.03086">
        <ele>167.31352233887</ele>
        <time>2016-04-06T13:13:33.000Z</time>
      </trkpt>
      <trkpt lat="47.15395" lon="3.03079">
        <ele>167.16708374023</ele>
        <time>2016-04-06T13:13:36.000Z</time>
      </trkpt>
      <trkpt lat="47.15395" lon="3.03074">
        <ele>167.00729370117</ele>
        <time>2016-04-06T13:13:39.000Z</time>
      </trkpt>
      <trkpt lat="47.15396" lon="3.03069">
        <ele>166.84732055664</ele>
        <time>2016-04-06T13:13:42.000Z</time>
      </trkpt>
      <trkpt lat="47.15395" lon="3.03064">
        <ele>166.68278503418</ele>
        <time>2016-04-06T13:13:45.000Z</time>
      </trkpt>
      <trkpt lat="47.15395" lon="3.0306">
        <ele>166.52328491211</ele>
        <time>2016-04-06T13:13:48.000Z</time>
      </trkpt>
      <trkpt lat="47.15396" lon="3.03056">
        <ele>166.38008117676</ele>
        <time>2016-04-06T13:13:51.000Z</time>
      </trkpt>
      <trkpt lat="47.15397" lon="3.03054">
        <ele>166.25662231445</ele>
        <time>2016-04-06T13:13:53.000Z</time>
      </trkpt>
      <trkpt lat="47.15398" lon="3.03052">
        <ele>166.15310668945</ele>
        <time>2016-04-06T13:13:56.000Z</time>
      </trkpt>
      <trkpt lat="47.15398" lon="3.0305">
        <ele>166.07424926758</ele>
        <time>2016-04-06T13:13:58.000Z</time>
      </trkpt>
      <trkpt lat="47.154" lon="3.03049">
        <ele>166.01928710938</ele>
        <time>2016-04-06T13:14:01.000Z</time>
      </trkpt>
      <trkpt lat="47.15401" lon="3.03048">
        <ele>165.9895324707</ele>
        <time>2016-04-06T13:14:03.000Z</time>
      </trkpt>
      <trkpt lat="47.15403" lon="3.03046">
        <ele>165.96490478516</ele>
        <time>2016-04-06T13:14:05.000Z</time>
      </trkpt>
      <trkpt lat="47.15404" lon="3.03045">
        <ele>165.94248962402</ele>
        <time>2016-04-06T13:14:07.000Z</time>
      </trkpt>
      <trkpt lat="47.15406" lon="3.03043">
        <ele>165.91860961914</ele>
        <time>2016-04-06T13:14:10.000Z</time>
      </trkpt>
      <trkpt lat="47.15411" lon="3.03038">
        <ele>165.87222290039</ele>
        <time>2016-04-06T13:14:16.000Z</time>
      </trkpt>
      <trkpt lat="47.15414" lon="3.03036">
        <ele>165.81809997559</ele>
        <time>2016-04-06T13:14:19.000Z</time>
      </trkpt>
      <trkpt lat="47.15416" lon="3.03035">
        <ele>165.76574707031</ele>
        <time>2016-04-06T13:14:21.000Z</time>
      </trkpt>
      <trkpt lat="47.15422" lon="3.03037">
        <ele>165.80241394043</ele>
        <time>2016-04-06T13:14:24.000Z</time>
      </trkpt>
      <trkpt lat="47.15424" lon="3.03036">
        <ele>165.88323974609</ele>
        <time>2016-04-06T13:14:27.000Z</time>
      </trkpt>
      <trkpt lat="47.15428" lon="3.03035">
        <ele>166.02520751953</ele>
        <time>2016-04-06T13:14:30.000Z</time>
      </trkpt>
      <trkpt lat="47.15432" lon="3.03032">
        <ele>166.20816040039</ele>
        <time>2016-04-06T13:14:33.000Z</time>
      </trkpt>
      <trkpt lat="47.15435" lon="3.03029">
        <ele>166.40742492676</ele>
        <time>2016-04-06T13:14:36.000Z</time>
      </trkpt>
      <trkpt lat="47.15437" lon="3.03027">
        <ele>166.5280456543</ele>
        <time>2016-04-06T13:14:38.000Z</time>
      </trkpt>
      <trkpt lat="47.15439" lon="3.03026">
        <ele>166.62773132324</ele>
        <time>2016-04-06T13:14:41.000Z</time>
      </trkpt>
      <trkpt lat="47.15441" lon="3.03026">
        <ele>166.7214050293</ele>
        <time>2016-04-06T13:14:43.000Z</time>
      </trkpt>
      <trkpt lat="47.15445" lon="3.03025">
        <ele>166.83354187012</ele>
        <time>2016-04-06T13:14:46.000Z</time>
      </trkpt>
      <trkpt lat="47.15448" lon="3.03024">
        <ele>166.95771789551</ele>
        <time>2016-04-06T13:14:48.000Z</time>
      </trkpt>
      <trkpt lat="47.15451" lon="3.03023">
        <ele>167.1124420166</ele>
        <time>2016-04-06T13:14:51.000Z</time>
      </trkpt>
      <trkpt lat="47.15454" lon="3.03021">
        <ele>167.27987670898</ele>
        <time>2016-04-06T13:14:54.000Z</time>
      </trkpt>
      <trkpt lat="47.15457" lon="3.03019">
        <ele>167.44860839844</ele>
        <time>2016-04-06T13:14:57.000Z</time>
      </trkpt>
      <trkpt lat="47.15459" lon="3.03016">
        <ele>167.56401062012</ele>
        <time>2016-04-06T13:15:00.000Z</time>
      </trkpt>
      <trkpt lat="47.15461" lon="3.03013">
        <ele>167.66142272949</ele>
        <time>2016-04-06T13:15:03.000Z</time>
      </trkpt>
      <trkpt lat="47.15464" lon="3.03012">
        <ele>167.74557495117</ele>
        <time>2016-04-06T13:15:06.000Z</time>
      </trkpt>
      <trkpt lat="47.15466" lon="3.0301">
        <ele>167.82606506348</ele>
        <time>2016-04-06T13:15:08.000Z</time>
      </trkpt>
      <trkpt lat="47.15469" lon="3.03008">
        <ele>167.89477539062</ele>
        <time>2016-04-06T13:15:11.000Z</time>
      </trkpt>
      <trkpt lat="47.15471" lon="3.03007">
        <ele>167.98670959473</ele>
        <time>2016-04-06T13:15:13.000Z</time>
      </trkpt>
      <trkpt lat="47.15474" lon="3.03005">
        <ele>168.10469055176</ele>
        <time>2016-04-06T13:15:16.000Z</time>
      </trkpt>
      <trkpt lat="47.15476" lon="3.03004">
        <ele>168.21453857422</ele>
        <time>2016-04-06T13:15:19.000Z</time>
      </trkpt>
      <trkpt lat="47.15478" lon="3.03003">
        <ele>168.31718444824</ele>
        <time>2016-04-06T13:15:21.000Z</time>
      </trkpt>
      <trkpt lat="47.15479" lon="3.03">
        <ele>168.40412902832</ele>
        <time>2016-04-06T13:15:24.000Z</time>
      </trkpt>
      <trkpt lat="47.15481" lon="3.02998">
        <ele>168.47834777832</ele>
        <time>2016-04-06T13:15:26.000Z</time>
      </trkpt>
      <trkpt lat="47.15484" lon="3.02996">
        <ele>168.53649902344</ele>
        <time>2016-04-06T13:15:29.000Z</time>
      </trkpt>
      <trkpt lat="47.15486" lon="3.02995">
        <ele>168.59716796875</ele>
        <time>2016-04-06T13:15:31.000Z</time>
      </trkpt>
      <trkpt lat="47.15489" lon="3.02993">
        <ele>168.65800476074</ele>
        <time>2016-04-06T13:15:34.000Z</time>
      </trkpt>
      <trkpt lat="47.15492" lon="3.02992">
        <ele>168.75212097168</ele>
        <time>2016-04-06T13:15:37.000Z</time>
      </trkpt>
      <trkpt lat="47.15494" lon="3.02991">
        <ele>168.8486328125</ele>
        <time>2016-04-06T13:15:39.000Z</time>
      </trkpt>
      <trkpt lat="47.15498" lon="3.0299">
        <ele>168.97756958008</ele>
        <time>2016-04-06T13:15:41.000Z</time>
      </trkpt>
      <trkpt lat="47.155" lon="3.02989">
        <ele>169.1032409668</ele>
        <time>2016-04-06T13:15:43.000Z</time>
      </trkpt>
      <trkpt lat="47.15504" lon="3.02988">
        <ele>169.29028320312</ele>
        <time>2016-04-06T13:15:46.000Z</time>
      </trkpt>
      <trkpt lat="47.15506" lon="3.02987">
        <ele>169.46676635742</ele>
        <time>2016-04-06T13:15:48.000Z</time>
      </trkpt>
      <trkpt lat="47.15509" lon="3.02985">
        <ele>169.68359375</ele>
        <time>2016-04-06T13:15:51.000Z</time>
      </trkpt>
      <trkpt lat="47.15513" lon="3.02985">
        <ele>169.91146850586</ele>
        <time>2016-04-06T13:15:54.000Z</time>
      </trkpt>
      <trkpt lat="47.15516" lon="3.02983">
        <ele>170.17166137695</ele>
        <time>2016-04-06T13:15:57.000Z</time>
      </trkpt>
      <trkpt lat="47.15519" lon="3.02981">
        <ele>170.41098022461</ele>
        <time>2016-04-06T13:16:00.000Z</time>
      </trkpt>
      <trkpt lat="47.15522" lon="3.0298">
        <ele>170.68408203125</ele>
        <time>2016-04-06T13:16:03.000Z</time>
      </trkpt>
      <trkpt lat="47.15525" lon="3.02979">
        <ele>170.94622802734</ele>
        <time>2016-04-06T13:16:05.000Z</time>
      </trkpt>
      <trkpt lat="47.15528" lon="3.02977">
        <ele>171.2082824707</ele>
        <time>2016-04-06T13:16:08.000Z</time>
      </trkpt>
      <trkpt lat="47.15532" lon="3.02975">
        <ele>171.48986816406</ele>
        <time>2016-04-06T13:16:11.000Z</time>
      </trkpt>
      <trkpt lat="47.15534" lon="3.02974">
        <ele>171.76312255859</ele>
        <time>2016-04-06T13:16:13.000Z</time>
      </trkpt>
      <trkpt lat="47.15538" lon="3.02972">
        <ele>172.04888916016</ele>
        <time>2016-04-06T13:16:16.000Z</time>
      </trkpt>
      <trkpt lat="47.15539" lon="3.02971">
        <ele>172.31690979004</ele>
        <time>2016-04-06T13:16:18.000Z</time>
      </trkpt>
      <trkpt lat="47.15543" lon="3.0297">
        <ele>172.61395263672</ele>
        <time>2016-04-06T13:16:21.000Z</time>
      </trkpt>
      <trkpt lat="47.15546" lon="3.02968">
        <ele>172.91012573242</ele>
        <time>2016-04-06T13:16:24.000Z</time>
      </trkpt>
      <trkpt lat="47.15548" lon="3.02966">
        <ele>173.20080566406</ele>
        <time>2016-04-06T13:16:26.000Z</time>
      </trkpt>
      <trkpt lat="47.1555" lon="3.02963">
        <ele>173.45414733887</ele>
        <time>2016-04-06T13:16:29.000Z</time>
      </trkpt>
      <trkpt lat="47.15553" lon="3.02962">
        <ele>173.73637390137</ele>
        <time>2016-04-06T13:16:32.000Z</time>
      </trkpt>
      <trkpt lat="47.15556" lon="3.0296">
        <ele>173.99420166016</ele>
        <time>2016-04-06T13:16:35.000Z</time>
      </trkpt>
      <trkpt lat="47.15557" lon="3.02959">
        <ele>174.22354125977</ele>
        <time>2016-04-06T13:16:37.000Z</time>
      </trkpt>
      <trkpt lat="47.1556" lon="3.02958">
        <ele>174.47906494141</ele>
        <time>2016-04-06T13:16:41.000Z</time>
      </trkpt>
      <trkpt lat="47.15562" lon="3.02957">
        <ele>174.74630737305</ele>
        <time>2016-04-06T13:16:43.000Z</time>
      </trkpt>
      <trkpt lat="47.15564" lon="3.02954">
        <ele>174.99659729004</ele>
        <time>2016-04-06T13:16:46.000Z</time>
      </trkpt>
      <trkpt lat="47.15565" lon="3.02952">
        <ele>175.21920776367</ele>
        <time>2016-04-06T13:16:49.000Z</time>
      </trkpt>
      <trkpt lat="47.15567" lon="3.0295">
        <ele>175.45411682129</ele>
        <time>2016-04-06T13:16:52.000Z</time>
      </trkpt>
      <trkpt lat="47.15569" lon="3.02948">
        <ele>175.65980529785</ele>
        <time>2016-04-06T13:16:54.000Z</time>
      </trkpt>
      <trkpt lat="47.15571" lon="3.02946">
        <ele>175.88061523438</ele>
        <time>2016-04-06T13:16:57.000Z</time>
      </trkpt>
      <trkpt lat="47.15573" lon="3.02945">
        <ele>176.10922241211</ele>
        <time>2016-04-06T13:16:59.000Z</time>
      </trkpt>
      <trkpt lat="47.15575" lon="3.02944">
        <ele>176.36532592773</ele>
        <time>2016-04-06T13:17:02.000Z</time>
      </trkpt>
      <trkpt lat="47.15577" lon="3.02943">
        <ele>176.6047668457</ele>
        <time>2016-04-06T13:17:04.000Z</time>
      </trkpt>
      <trkpt lat="47.15578" lon="3.02942">
        <ele>176.84945678711</ele>
        <time>2016-04-06T13:17:07.000Z</time>
      </trkpt>
      <trkpt lat="47.1558" lon="3.02941">
        <ele>177.07647705078</ele>
        <time>2016-04-06T13:17:09.000Z</time>
      </trkpt>
      <trkpt lat="47.15582" lon="3.02939">
        <ele>177.3288269043</ele>
        <time>2016-04-06T13:17:12.000Z</time>
      </trkpt>
      <trkpt lat="47.15585" lon="3.02938">
        <ele>177.59042358398</ele>
        <time>2016-04-06T13:17:15.000Z</time>
      </trkpt>
      <trkpt lat="47.15587" lon="3.02938">
        <ele>177.85987854004</ele>
        <time>2016-04-06T13:17:18.000Z</time>
      </trkpt>
      <trkpt lat="47.1559" lon="3.02937">
        <ele>178.15573120117</ele>
        <time>2016-04-06T13:17:20.000Z</time>
      </trkpt>
      <trkpt lat="47.15591" lon="3.02937">
        <ele>178.45750427246</ele>
        <time>2016-04-06T13:17:24.000Z</time>
      </trkpt>
      <trkpt lat="47.15594" lon="3.02939">
        <ele>178.73983764648</ele>
        <time>2016-04-06T13:17:27.000Z</time>
      </trkpt>
      <trkpt lat="47.15595" lon="3.0294">
        <ele>178.98803710938</ele>
        <time>2016-04-06T13:17:30.000Z</time>
      </trkpt>
      <trkpt lat="47.15597" lon="3.02939">
        <ele>179.23696899414</ele>
        <time>2016-04-06T13:17:31.000Z</time>
      </trkpt>
      <trkpt lat="47.15601" lon="3.02937">
        <ele>179.51762390137</ele>
        <time>2016-04-06T13:17:35.000Z</time>
      </trkpt>
      <trkpt lat="47.15602" lon="3.02937">
        <ele>179.77839660645</ele>
        <time>2016-04-06T13:17:36.000Z</time>
      </trkpt>
      <trkpt lat="47.15604" lon="3.02936">
        <ele>180.04287719727</ele>
        <time>2016-04-06T13:17:39.000Z</time>
      </trkpt>
      <trkpt lat="47.15606" lon="3.02935">
        <ele>180.32043457031</ele>
        <time>2016-04-06T13:17:44.000Z</time>
      </trkpt>
      <trkpt lat="47.15609" lon="3.02935">
        <ele>180.62814331055</ele>
        <time>2016-04-06T13:17:46.000Z</time>
      </trkpt>
      <trkpt lat="47.15611" lon="3.02934">
        <ele>180.8655090332</ele>
        <time>2016-04-06T13:17:47.000Z</time>
      </trkpt>
      <trkpt lat="47.15612" lon="3.02933">
        <ele>181.12521362305</ele>
        <time>2016-04-06T13:17:49.000Z</time>
      </trkpt>
      <trkpt lat="47.15615" lon="3.02933">
        <ele>181.4165802002</ele>
        <time>2016-04-06T13:17:52.000Z</time>
      </trkpt>
      <trkpt lat="47.15618" lon="3.02932">
        <ele>181.71878051758</ele>
        <time>2016-04-06T13:17:55.000Z</time>
      </trkpt>
      <trkpt lat="47.1562" lon="3.02931">
        <ele>181.99374389648</ele>
        <time>2016-04-06T13:17:57.000Z</time>
      </trkpt>
      <trkpt lat="47.15622" lon="3.02931">
        <ele>182.29670715332</ele>
        <time>2016-04-06T13:18:00.000Z</time>
      </trkpt>
      <trkpt lat="47.15625" lon="3.02931">
        <ele>182.61869812012</ele>
        <time>2016-04-06T13:18:03.000Z</time>
      </trkpt>
      <trkpt lat="47.15628" lon="3.0293">
        <ele>182.94415283203</ele>
        <time>2016-04-06T13:18:05.000Z</time>
      </trkpt>
      <trkpt lat="47.1563" lon="3.02931">
        <ele>183.25561523438</ele>
        <time>2016-04-06T13:18:08.000Z</time>
      </trkpt>
      <trkpt lat="47.15634" lon="3.0293">
        <ele>183.6184387207</ele>
        <time>2016-04-06T13:18:11.000Z</time>
      </trkpt>
      <trkpt lat="47.15637" lon="3.02929">
        <ele>183.99740600586</ele>
        <time>2016-04-06T13:18:14.000Z</time>
      </trkpt>
      <trkpt lat="47.15639" lon="3.02929">
        <ele>184.36686706543</ele>
        <time>2016-04-06T13:18:16.000Z</time>
      </trkpt>
      <trkpt lat="47.15641" lon="3.02929">
        <ele>184.70309448242</ele>
        <time>2016-04-06T13:18:19.000Z</time>
      </trkpt>
      <trkpt lat="47.15644" lon="3.02928">
        <ele>185.07464599609</ele>
        <time>2016-04-06T13:18:22.000Z</time>
      </trkpt>
      <trkpt lat="47.15647" lon="3.02927">
        <ele>185.40673828125</ele>
        <time>2016-04-06T13:18:24.000Z</time>
      </trkpt>
      <trkpt lat="47.1565" lon="3.02927">
        <ele>185.74633789062</ele>
        <time>2016-04-06T13:18:27.000Z</time>
      </trkpt>
      <trkpt lat="47.15653" lon="3.02926">
        <ele>186.10667419434</ele>
        <time>2016-04-06T13:18:31.000Z</time>
      </trkpt>
      <trkpt lat="47.15654" lon="3.02923">
        <ele>186.4716796875</ele>
        <time>2016-04-06T13:18:34.000Z</time>
      </trkpt>
      <trkpt lat="47.15656" lon="3.02923">
        <ele>186.79051208496</ele>
        <time>2016-04-06T13:18:37.000Z</time>
      </trkpt>
      <trkpt lat="47.15659" lon="3.02926">
        <ele>187.10990905762</ele>
        <time>2016-04-06T13:18:40.000Z</time>
      </trkpt>
      <trkpt lat="47.15662" lon="3.02928">
        <ele>187.42727661133</ele>
        <time>2016-04-06T13:18:44.000Z</time>
      </trkpt>
      <trkpt lat="47.15667" lon="3.02928">
        <ele>187.76245117188</ele>
        <time>2016-04-06T13:18:47.000Z</time>
      </trkpt>
      <trkpt lat="47.15668" lon="3.02927">
        <ele>188.03982543945</ele>
        <time>2016-04-06T13:18:49.000Z</time>
      </trkpt>
      <trkpt lat="47.15671" lon="3.02926">
        <ele>188.27577209473</ele>
        <time>2016-04-06T13:18:51.000Z</time>
      </trkpt>
      <trkpt lat="47.15673" lon="3.02926">
        <ele>188.44306945801</ele>
        <time>2016-04-06T13:18:54.000Z</time>
      </trkpt>
      <trkpt lat="47.15676" lon="3.02925">
        <ele>188.51803588867</ele>
        <time>2016-04-06T13:18:57.000Z</time>
      </trkpt>
      <trkpt lat="47.15679" lon="3.02924">
        <ele>188.48400878906</ele>
        <time>2016-04-06T13:19:00.000Z</time>
      </trkpt>
      <trkpt lat="47.15681" lon="3.02924">
        <ele>188.43762207031</ele>
        <time>2016-04-06T13:19:03.000Z</time>
      </trkpt>
      <trkpt lat="47.15686" lon="3.02922">
        <ele>188.37358093262</ele>
        <time>2016-04-06T13:19:06.000Z</time>
      </trkpt>
      <trkpt lat="47.15687" lon="3.02921">
        <ele>188.31716918945</ele>
        <time>2016-04-06T13:19:09.000Z</time>
      </trkpt>
      <trkpt lat="47.15688" lon="3.02921">
        <ele>188.26138305664</ele>
        <time>2016-04-06T13:19:11.000Z</time>
      </trkpt>
      <trkpt lat="47.15693" lon="3.02922">
        <ele>188.1872253418</ele>
        <time>2016-04-06T13:19:14.000Z</time>
      </trkpt>
      <trkpt lat="47.15694" lon="3.02921">
        <ele>188.11363220215</ele>
        <time>2016-04-06T13:19:16.000Z</time>
      </trkpt>
      <trkpt lat="47.15697" lon="3.0292">
        <ele>188.04847717285</ele>
        <time>2016-04-06T13:19:18.000Z</time>
      </trkpt>
      <trkpt lat="47.157" lon="3.02919">
        <ele>187.96469116211</ele>
        <time>2016-04-06T13:19:20.000Z</time>
      </trkpt>
      <trkpt lat="47.15702" lon="3.02918">
        <ele>187.87753295898</ele>
        <time>2016-04-06T13:19:23.000Z</time>
      </trkpt>
      <trkpt lat="47.15705" lon="3.02916">
        <ele>187.79780578613</ele>
        <time>2016-04-06T13:19:26.000Z</time>
      </trkpt>
      <trkpt lat="47.15707" lon="3.02915">
        <ele>187.71704101562</ele>
        <time>2016-04-06T13:19:28.000Z</time>
      </trkpt>
      <trkpt lat="47.1571" lon="3.02914">
        <ele>187.63389587402</ele>
        <time>2016-04-06T13:19:30.000Z</time>
      </trkpt>
      <trkpt lat="47.15711" lon="3.02912">
        <ele>187.56518554688</ele>
        <time>2016-04-06T13:19:32.000Z</time>
      </trkpt>
      <trkpt lat="47.15712" lon="3.02911">
        <ele>187.50271606445</ele>
        <time>2016-04-06T13:19:34.000Z</time>
      </trkpt>
      <trkpt lat="47.15717" lon="3.02909">
        <ele>187.43112182617</ele>
        <time>2016-04-06T13:19:37.000Z</time>
      </trkpt>
      <trkpt lat="47.15722" lon="3.02906">
        <ele>187.33474731445</ele>
        <time>2016-04-06T13:19:40.000Z</time>
      </trkpt>
      <trkpt lat="47.15726" lon="3.02903">
        <ele>187.21575927734</ele>
        <time>2016-04-06T13:19:43.000Z</time>
      </trkpt>
      <trkpt lat="47.15728" lon="3.02903">
        <ele>187.09178161621</ele>
        <time>2016-04-06T13:19:45.000Z</time>
      </trkpt>
      <trkpt lat="47.1573" lon="3.02901">
        <ele>186.94989013672</ele>
        <time>2016-04-06T13:19:48.000Z</time>
      </trkpt>
      <trkpt lat="47.15733" lon="3.029">
        <ele>186.81770324707</ele>
        <time>2016-04-06T13:19:51.000Z</time>
      </trkpt>
      <trkpt lat="47.15734" lon="3.029">
        <ele>186.70755004883</ele>
        <time>2016-04-06T13:19:53.000Z</time>
      </trkpt>
      <trkpt lat="47.15737" lon="3.02899">
        <ele>186.607421875</ele>
        <time>2016-04-06T13:19:56.000Z</time>
      </trkpt>
      <trkpt lat="47.15738" lon="3.02899">
        <ele>186.51379394531</ele>
        <time>2016-04-06T13:19:58.000Z</time>
      </trkpt>
      <trkpt lat="47.15739" lon="3.02899">
        <ele>186.4349822998</ele>
        <time>2016-04-06T13:20:01.000Z</time>
      </trkpt>
      <trkpt lat="47.15741" lon="3.02899">
        <ele>186.3589630127</ele>
        <time>2016-04-06T13:20:03.000Z</time>
      </trkpt>
      <trkpt lat="47.15743" lon="3.02897">
        <ele>186.2682800293</ele>
        <time>2016-04-06T13:20:06.000Z</time>
      </trkpt>
      <trkpt lat="47.15744" lon="3.02895">
        <ele>186.19808959961</ele>
        <time>2016-04-06T13:20:09.000Z</time>
      </trkpt>
      <trkpt lat="47.15745" lon="3.02894">
        <ele>186.1223449707</ele>
        <time>2016-04-06T13:20:11.000Z</time>
      </trkpt>
      <trkpt lat="47.15748" lon="3.02892">
        <ele>186.02349853516</ele>
        <time>2016-04-06T13:20:14.000Z</time>
      </trkpt>
      <trkpt lat="47.15749" lon="3.02891">
        <ele>185.93006896973</ele>
        <time>2016-04-06T13:20:16.000Z</time>
      </trkpt>
      <trkpt lat="47.15751" lon="3.02888">
        <ele>185.84127807617</ele>
        <time>2016-04-06T13:20:19.000Z</time>
      </trkpt>
      <trkpt lat="47.15754" lon="3.02886">
        <ele>185.73161315918</ele>
        <time>2016-04-06T13:20:22.000Z</time>
      </trkpt>
      <trkpt lat="47.15756" lon="3.02884">
        <ele>185.61259460449</ele>
        <time>2016-04-06T13:20:25.000Z</time>
      </trkpt>
      <trkpt lat="47.15759" lon="3.02883">
        <ele>185.50399780273</ele>
        <time>2016-04-06T13:20:28.000Z</time>
      </trkpt>
      <trkpt lat="47.15761" lon="3.02882">
        <ele>185.3842010498</ele>
        <time>2016-04-06T13:20:30.000Z</time>
      </trkpt>
      <trkpt lat="47.15764" lon="3.0288">
        <ele>185.25886535645</ele>
        <time>2016-04-06T13:20:33.000Z</time>
      </trkpt>
      <trkpt lat="47.15765" lon="3.02877">
        <ele>185.14039611816</ele>
        <time>2016-04-06T13:20:36.000Z</time>
      </trkpt>
      <trkpt lat="47.15766" lon="3.02876">
        <ele>185.03356933594</ele>
        <time>2016-04-06T13:20:47.000Z</time>
      </trkpt>
      <trkpt lat="47.15769" lon="3.02876">
        <ele>184.92858886719</ele>
        <time>2016-04-06T13:20:50.000Z</time>
      </trkpt>
      <trkpt lat="47.15771" lon="3.02876">
        <ele>184.82638549805</ele>
        <time>2016-04-06T13:20:53.000Z</time>
      </trkpt>
      <trkpt lat="47.15772" lon="3.02876">
        <ele>184.7428894043</ele>
        <time>2016-04-06T13:20:55.000Z</time>
      </trkpt>
      <trkpt lat="47.15773" lon="3.02875">
        <ele>184.66519165039</ele>
        <time>2016-04-06T13:20:57.000Z</time>
      </trkpt>
      <trkpt lat="47.15775" lon="3.02874">
        <ele>184.58288574219</ele>
        <time>2016-04-06T13:21:00.000Z</time>
      </trkpt>
      <trkpt lat="47.15776" lon="3.02873">
        <ele>184.50622558594</ele>
        <time>2016-04-06T13:21:02.000Z</time>
      </trkpt>
      <trkpt lat="47.15778" lon="3.02871">
        <ele>184.42202758789</ele>
        <time>2016-04-06T13:21:05.000Z</time>
      </trkpt>
      <trkpt lat="47.1578" lon="3.0287">
        <ele>184.32353210449</ele>
        <time>2016-04-06T13:21:08.000Z</time>
      </trkpt>
      <trkpt lat="47.15781" lon="3.02869">
        <ele>184.23054504395</ele>
        <time>2016-04-06T13:21:10.000Z</time>
      </trkpt>
      <trkpt lat="47.15784" lon="3.02869">
        <ele>184.12310791016</ele>
        <time>2016-04-06T13:21:13.000Z</time>
      </trkpt>
      <trkpt lat="47.15786" lon="3.02867">
        <ele>184.00598144531</ele>
        <time>2016-04-06T13:21:15.000Z</time>
      </trkpt>
      <trkpt lat="47.15788" lon="3.02867">
        <ele>183.89897155762</ele>
        <time>2016-04-06T13:21:18.000Z</time>
      </trkpt>
      <trkpt lat="47.15788" lon="3.02866">
        <ele>183.80801391602</ele>
        <time>2016-04-06T13:21:20.000Z</time>
      </trkpt>
      <trkpt lat="47.1579" lon="3.02866">
        <ele>183.70956420898</ele>
        <time>2016-04-06T13:21:24.000Z</time>
      </trkpt>
      <trkpt lat="47.15792" lon="3.02864">
        <ele>183.61163330078</ele>
        <time>2016-04-06T13:21:27.000Z</time>
      </trkpt>
      <trkpt lat="47.15794" lon="3.02864">
        <ele>183.52192687988</ele>
        <time>2016-04-06T13:21:42.000Z</time>
      </trkpt>
      <trkpt lat="47.15794" lon="3.02864">
        <ele>183.52192687988</ele>
        <time>2016-04-06T13:22:02.000Z</time>
      </trkpt>
      <trkpt lat="47.15796" lon="3.02862">
        <ele>183.4196472168</ele>
        <time>2016-04-06T13:22:12.000Z</time>
      </trkpt>
      <trkpt lat="47.15796" lon="3.02862">
        <ele>183.4196472168</ele>
        <time>2016-04-06T13:22:32.000Z</time>
      </trkpt>
      <trkpt lat="47.15795" lon="3.0286">
        <ele>183.32008361816</ele>
        <time>2016-04-06T13:23:29.000Z</time>
      </trkpt>
      <trkpt lat="47.15795" lon="3.0286">
        <ele>183.32008361816</ele>
        <time>2016-04-06T13:23:49.000Z</time>
      </trkpt>
      <trkpt lat="47.15796" lon="3.02861">
        <ele>183.23294067383</ele>
        <time>2016-04-06T13:23:54.000Z</time>
      </trkpt>
      <trkpt lat="47.15797" lon="3.0286">
        <ele>183.16145324707</ele>
        <time>2016-04-06T13:23:56.000Z</time>
      </trkpt>
      <trkpt lat="47.15799" lon="3.0286">
        <ele>183.08261108398</ele>
        <time>2016-04-06T13:23:59.000Z</time>
      </trkpt>
      <trkpt lat="47.15801" lon="3.02859">
        <ele>183.01513671875</ele>
        <time>2016-04-06T13:24:01.000Z</time>
      </trkpt>
      <trkpt lat="47.15803" lon="3.02859">
        <ele>182.92727661133</ele>
        <time>2016-04-06T13:24:04.000Z</time>
      </trkpt>
      <trkpt lat="47.15806" lon="3.02858">
        <ele>182.81196594238</ele>
        <time>2016-04-06T13:24:06.000Z</time>
      </trkpt>
      <trkpt lat="47.15808" lon="3.02856">
        <ele>182.66798400879</ele>
        <time>2016-04-06T13:24:09.000Z</time>
      </trkpt>
      <trkpt lat="47.15813" lon="3.02853">
        <ele>182.48838806152</ele>
        <time>2016-04-06T13:24:12.000Z</time>
      </trkpt>
      <trkpt lat="47.15817" lon="3.02851">
        <ele>182.26107788086</ele>
        <time>2016-04-06T13:24:15.000Z</time>
      </trkpt>
      <trkpt lat="47.15819" lon="3.02849">
        <ele>182.03125</ele>
        <time>2016-04-06T13:24:17.000Z</time>
      </trkpt>
      <trkpt lat="47.1582" lon="3.02848">
        <ele>181.80560302734</ele>
        <time>2016-04-06T13:24:19.000Z</time>
      </trkpt>
      <trkpt lat="47.15823" lon="3.02846">
        <ele>181.56832885742</ele>
        <time>2016-04-06T13:24:22.000Z</time>
      </trkpt>
      <trkpt lat="47.15826" lon="3.02843">
        <ele>181.34107971191</ele>
        <time>2016-04-06T13:24:25.000Z</time>
      </trkpt>
      <trkpt lat="47.15829" lon="3.0284">
        <ele>181.1128692627</ele>
        <time>2016-04-06T13:24:28.000Z</time>
      </trkpt>
      <trkpt lat="47.15831" lon="3.02838">
        <ele>180.8722076416</ele>
        <time>2016-04-06T13:24:30.000Z</time>
      </trkpt>
      <trkpt lat="47.15834" lon="3.02835">
        <ele>180.60719299316</ele>
        <time>2016-04-06T13:24:33.000Z</time>
      </trkpt>
      <trkpt lat="47.15837" lon="3.02833">
        <ele>180.36322021484</ele>
        <time>2016-04-06T13:24:35.000Z</time>
      </trkpt>
      <trkpt lat="47.15839" lon="3.02831">
        <ele>180.12875366211</ele>
        <time>2016-04-06T13:24:38.000Z</time>
      </trkpt>
      <trkpt lat="47.15841" lon="3.02829">
        <ele>179.94033813477</ele>
        <time>2016-04-06T13:24:40.000Z</time>
      </trkpt>
      <trkpt lat="47.15842" lon="3.02828">
        <ele>179.77046203613</ele>
        <time>2016-04-06T13:24:42.000Z</time>
      </trkpt>
      <trkpt lat="47.15844" lon="3.02826">
        <ele>179.61248779297</ele>
        <time>2016-04-06T13:24:44.000Z</time>
      </trkpt>
      <trkpt lat="47.15847" lon="3.02822">
        <ele>179.42776489258</ele>
        <time>2016-04-06T13:24:47.000Z</time>
      </trkpt>
      <trkpt lat="47.1585" lon="3.0282">
        <ele>179.2527923584</ele>
        <time>2016-04-06T13:24:50.000Z</time>
      </trkpt>
      <trkpt lat="47.15851" lon="3.02819">
        <ele>179.0785369873</ele>
        <time>2016-04-06T13:24:53.000Z</time>
      </trkpt>
      <trkpt lat="47.15853" lon="3.02816">
        <ele>178.87759399414</ele>
        <time>2016-04-06T13:24:55.000Z</time>
      </trkpt>
      <trkpt lat="47.15856" lon="3.02814">
        <ele>178.67858886719</ele>
        <time>2016-04-06T13:24:58.000Z</time>
      </trkpt>
      <trkpt lat="47.15858" lon="3.02812">
        <ele>178.50019836426</ele>
        <time>2016-04-06T13:25:01.000Z</time>
      </trkpt>
      <trkpt lat="47.15861" lon="3.02812">
        <ele>178.33567810059</ele>
        <time>2016-04-06T13:25:04.000Z</time>
      </trkpt>
      <trkpt lat="47.15865" lon="3.02809">
        <ele>178.13500976562</ele>
        <time>2016-04-06T13:25:07.000Z</time>
      </trkpt>
      <trkpt lat="47.15868" lon="3.02806">
        <ele>177.92749023438</ele>
        <time>2016-04-06T13:25:10.000Z</time>
      </trkpt>
      <trkpt lat="47.15873" lon="3.02803">
        <ele>177.69766235352</ele>
        <time>2016-04-06T13:25:13.000Z</time>
      </trkpt>
      <trkpt lat="47.15876" lon="3.02802">
        <ele>177.47906494141</ele>
        <time>2016-04-06T13:25:15.000Z</time>
      </trkpt>
      <trkpt lat="47.15877" lon="3.028">
        <ele>177.25254821777</ele>
        <time>2016-04-06T13:25:17.000Z</time>
      </trkpt>
      <trkpt lat="47.15879" lon="3.02798">
        <ele>177.03469848633</ele>
        <time>2016-04-06T13:25:20.000Z</time>
      </trkpt>
      <trkpt lat="47.15882" lon="3.02794">
        <ele>176.80484008789</ele>
        <time>2016-04-06T13:25:23.000Z</time>
      </trkpt>
      <trkpt lat="47.15884" lon="3.02793">
        <ele>176.61134338379</ele>
        <time>2016-04-06T13:25:25.000Z</time>
      </trkpt>
      <trkpt lat="47.15885" lon="3.02791">
        <ele>176.40698242188</ele>
        <time>2016-04-06T13:25:27.000Z</time>
      </trkpt>
      <trkpt lat="47.15887" lon="3.02789">
        <ele>176.19218444824</ele>
        <time>2016-04-06T13:25:30.000Z</time>
      </trkpt>
      <trkpt lat="47.15891" lon="3.02786">
        <ele>175.96612548828</ele>
        <time>2016-04-06T13:25:33.000Z</time>
      </trkpt>
      <trkpt lat="47.15892" lon="3.02786">
        <ele>175.79768371582</ele>
        <time>2016-04-06T13:25:35.000Z</time>
      </trkpt>
      <trkpt lat="47.15895" lon="3.02784">
        <ele>175.61096191406</ele>
        <time>2016-04-06T13:25:37.000Z</time>
      </trkpt>
      <trkpt lat="47.15897" lon="3.02782">
        <ele>175.42411804199</ele>
        <time>2016-04-06T13:25:39.000Z</time>
      </trkpt>
      <trkpt lat="47.159" lon="3.02778">
        <ele>175.19645690918</ele>
        <time>2016-04-06T13:25:42.000Z</time>
      </trkpt>
      <trkpt lat="47.15903" lon="3.02774">
        <ele>174.94209289551</ele>
        <time>2016-04-06T13:25:45.000Z</time>
      </trkpt>
      <trkpt lat="47.15906" lon="3.0277">
        <ele>174.63626098633</ele>
        <time>2016-04-06T13:25:47.000Z</time>
      </trkpt>
      <trkpt lat="47.15909" lon="3.02766">
        <ele>174.28186035156</ele>
        <time>2016-04-06T13:25:50.000Z</time>
      </trkpt>
      <trkpt lat="47.15911" lon="3.02764">
        <ele>173.92520141602</ele>
        <time>2016-04-06T13:25:52.000Z</time>
      </trkpt>
      <trkpt lat="47.15913" lon="3.02761">
        <ele>173.58615112305</ele>
        <time>2016-04-06T13:25:54.000Z</time>
      </trkpt>
      <trkpt lat="47.15915" lon="3.02757">
        <ele>173.26411437988</ele>
        <time>2016-04-06T13:25:57.000Z</time>
      </trkpt>
      <trkpt lat="47.15918" lon="3.02754">
        <ele>172.9450378418</ele>
        <time>2016-04-06T13:26:00.000Z</time>
      </trkpt>
      <trkpt lat="47.15919" lon="3.02751">
        <ele>172.68672180176</ele>
        <time>2016-04-06T13:26:02.000Z</time>
      </trkpt>
      <trkpt lat="47.15922" lon="3.02747">
        <ele>172.41189575195</ele>
        <time>2016-04-06T13:26:05.000Z</time>
      </trkpt>
      <trkpt lat="47.15925" lon="3.02744">
        <ele>172.17256164551</ele>
        <time>2016-04-06T13:26:08.000Z</time>
      </trkpt>
      <trkpt lat="47.15929" lon="3.02741">
        <ele>171.96536254883</ele>
        <time>2016-04-06T13:26:11.000Z</time>
      </trkpt>
      <trkpt lat="47.15931" lon="3.02739">
        <ele>171.79861450195</ele>
        <time>2016-04-06T13:26:13.000Z</time>
      </trkpt>
      <trkpt lat="47.15934" lon="3.02737">
        <ele>171.66287231445</ele>
        <time>2016-04-06T13:26:16.000Z</time>
      </trkpt>
      <trkpt lat="47.15936" lon="3.02735">
        <ele>171.56643676758</ele>
        <time>2016-04-06T13:26:18.000Z</time>
      </trkpt>
      <trkpt lat="47.15938" lon="3.02733">
        <ele>171.48413085938</ele>
        <time>2016-04-06T13:26:20.000Z</time>
      </trkpt>
      <trkpt lat="47.15941" lon="3.0273">
        <ele>171.40492248535</ele>
        <time>2016-04-06T13:26:23.000Z</time>
      </trkpt>
      <trkpt lat="47.15944" lon="3.02727">
        <ele>171.32977294922</ele>
        <time>2016-04-06T13:26:25.000Z</time>
      </trkpt>
      <trkpt lat="47.15945" lon="3.02725">
        <ele>171.24462890625</ele>
        <time>2016-04-06T13:26:27.000Z</time>
      </trkpt>
      <trkpt lat="47.15949" lon="3.02722">
        <ele>171.16082763672</ele>
        <time>2016-04-06T13:26:30.000Z</time>
      </trkpt>
      <trkpt lat="47.15951" lon="3.0272">
        <ele>171.08671569824</ele>
        <time>2016-04-06T13:26:32.000Z</time>
      </trkpt>
      <trkpt lat="47.15956" lon="3.0272">
        <ele>171.09503173828</ele>
        <time>2016-04-06T13:26:35.000Z</time>
      </trkpt>
      <trkpt lat="47.15958" lon="3.02719">
        <ele>171.12619018555</ele>
        <time>2016-04-06T13:26:37.000Z</time>
      </trkpt>
      <trkpt lat="47.1596" lon="3.02717">
        <ele>171.15759277344</ele>
        <time>2016-04-06T13:26:39.000Z</time>
      </trkpt>
      <trkpt lat="47.15963" lon="3.02713">
        <ele>171.1862487793</ele>
        <time>2016-04-06T13:26:42.000Z</time>
      </trkpt>
      <trkpt lat="47.15966" lon="3.02712">
        <ele>171.2271270752</ele>
        <time>2016-04-06T13:26:44.000Z</time>
      </trkpt>
      <trkpt lat="47.15967" lon="3.0271">
        <ele>171.20663452148</ele>
        <time>2016-04-06T13:26:47.000Z</time>
      </trkpt>
      <trkpt lat="47.15969" lon="3.02707">
        <ele>171.16879272461</ele>
        <time>2016-04-06T13:26:50.000Z</time>
      </trkpt>
      <trkpt lat="47.15972" lon="3.02704">
        <ele>171.12973022461</ele>
        <time>2016-04-06T13:26:53.000Z</time>
      </trkpt>
      <trkpt lat="47.15974" lon="3.02702">
        <ele>171.11071777344</ele>
        <time>2016-04-06T13:26:56.000Z</time>
      </trkpt>
      <trkpt lat="47.15977" lon="3.02699">
        <ele>171.07914733887</ele>
        <time>2016-04-06T13:26:59.000Z</time>
      </trkpt>
      <trkpt lat="47.15981" lon="3.02697">
        <ele>171.0865020752</ele>
        <time>2016-04-06T13:27:01.000Z</time>
      </trkpt>
      <trkpt lat="47.15985" lon="3.02697">
        <ele>171.1522064209</ele>
        <time>2016-04-06T13:27:04.000Z</time>
      </trkpt>
      <trkpt lat="47.15987" lon="3.02696">
        <ele>171.25112915039</ele>
        <time>2016-04-06T13:27:06.000Z</time>
      </trkpt>
      <trkpt lat="47.15989" lon="3.02695">
        <ele>171.36972045898</ele>
        <time>2016-04-06T13:27:08.000Z</time>
      </trkpt>
      <trkpt lat="47.1599" lon="3.02694">
        <ele>171.49063110352</ele>
        <time>2016-04-06T13:27:10.000Z</time>
      </trkpt>
      <trkpt lat="47.15993" lon="3.02692">
        <ele>171.61265563965</ele>
        <time>2016-04-06T13:27:13.000Z</time>
      </trkpt>
      <trkpt lat="47.15998" lon="3.0269">
        <ele>171.7212677002</ele>
        <time>2016-04-06T13:27:16.000Z</time>
      </trkpt>
      <trkpt lat="47.15999" lon="3.02689">
        <ele>171.8190612793</ele>
        <time>2016-04-06T13:27:18.000Z</time>
      </trkpt>
      <trkpt lat="47.16006" lon="3.02685">
        <ele>171.94235229492</ele>
        <time>2016-04-06T13:27:21.000Z</time>
      </trkpt>
      <trkpt lat="47.16008" lon="3.02679">
        <ele>172.05151367188</ele>
        <time>2016-04-06T13:27:24.000Z</time>
      </trkpt>
      <trkpt lat="47.16009" lon="3.02676">
        <ele>172.12841796875</ele>
        <time>2016-04-06T13:27:26.000Z</time>
      </trkpt>
      <trkpt lat="47.1601" lon="3.0267">
        <ele>172.14399719238</ele>
        <time>2016-04-06T13:27:29.000Z</time>
      </trkpt>
      <trkpt lat="47.16009" lon="3.02664">
        <ele>172.1217956543</ele>
        <time>2016-04-06T13:27:32.000Z</time>
      </trkpt>
      <trkpt lat="47.16007" lon="3.02658">
        <ele>172.0299987793</ele>
        <time>2016-04-06T13:27:34.000Z</time>
      </trkpt>
      <trkpt lat="47.16005" lon="3.02653">
        <ele>171.91647338867</ele>
        <time>2016-04-06T13:27:37.000Z</time>
      </trkpt>
      <trkpt lat="47.16002" lon="3.02647">
        <ele>171.77210998535</ele>
        <time>2016-04-06T13:27:40.000Z</time>
      </trkpt>
      <trkpt lat="47.16001" lon="3.02641">
        <ele>171.63584899902</ele>
        <time>2016-04-06T13:27:43.000Z</time>
      </trkpt>
      <trkpt lat="47.16" lon="3.02636">
        <ele>171.52156066895</ele>
        <time>2016-04-06T13:27:46.000Z</time>
      </trkpt>
      <trkpt lat="47.15998" lon="3.02632">
        <ele>171.41682434082</ele>
        <time>2016-04-06T13:27:49.000Z</time>
      </trkpt>
      <trkpt lat="47.15997" lon="3.02628">
        <ele>171.33229064941</ele>
        <time>2016-04-06T13:27:52.000Z</time>
      </trkpt>
      <trkpt lat="47.15996" lon="3.02624">
        <ele>171.26718139648</ele>
        <time>2016-04-06T13:27:54.000Z</time>
      </trkpt>
      <trkpt lat="47.15994" lon="3.02619">
        <ele>171.20129394531</ele>
        <time>2016-04-06T13:27:57.000Z</time>
      </trkpt>
      <trkpt lat="47.15993" lon="3.02615">
        <ele>171.12133789062</ele>
        <time>2016-04-06T13:27:59.000Z</time>
      </trkpt>
      <trkpt lat="47.15992" lon="3.02611">
        <ele>171.03251647949</ele>
        <time>2016-04-06T13:28:02.000Z</time>
      </trkpt>
      <trkpt lat="47.1599" lon="3.02607">
        <ele>170.92277526855</ele>
        <time>2016-04-06T13:28:05.000Z</time>
      </trkpt>
      <trkpt lat="47.15987" lon="3.02602">
        <ele>170.77917480469</ele>
        <time>2016-04-06T13:28:08.000Z</time>
      </trkpt>
      <trkpt lat="47.15985" lon="3.02599">
        <ele>170.6184387207</ele>
        <time>2016-04-06T13:28:11.000Z</time>
      </trkpt>
      <trkpt lat="47.15982" lon="3.02596">
        <ele>170.41963195801</ele>
        <time>2016-04-06T13:28:14.000Z</time>
      </trkpt>
      <trkpt lat="47.1598" lon="3.02595">
        <ele>170.21138000488</ele>
        <time>2016-04-06T13:28:16.000Z</time>
      </trkpt>
      <trkpt lat="47.15978" lon="3.02593">
        <ele>169.99667358398</ele>
        <time>2016-04-06T13:28:18.000Z</time>
      </trkpt>
      <trkpt lat="47.15977" lon="3.02591">
        <ele>169.80783081055</ele>
        <time>2016-04-06T13:28:20.000Z</time>
      </trkpt>
      <trkpt lat="47.15975" lon="3.02588">
        <ele>169.62442016602</ele>
        <time>2016-04-06T13:28:23.000Z</time>
      </trkpt>
      <trkpt lat="47.15975" lon="3.02586">
        <ele>169.48957824707</ele>
        <time>2016-04-06T13:28:25.000Z</time>
      </trkpt>
      <trkpt lat="47.15976" lon="3.02583">
        <ele>169.40762329102</ele>
        <time>2016-04-06T13:28:28.000Z</time>
      </trkpt>
      <trkpt lat="47.15978" lon="3.02583">
        <ele>169.42500305176</ele>
        <time>2016-04-06T13:28:31.000Z</time>
      </trkpt>
      <trkpt lat="47.15981" lon="3.02584">
        <ele>169.52043151855</ele>
        <time>2016-04-06T13:28:34.000Z</time>
      </trkpt>
      <trkpt lat="47.15982" lon="3.02585">
        <ele>169.67135620117</ele>
        <time>2016-04-06T13:28:38.000Z</time>
      </trkpt>
      <trkpt lat="47.15984" lon="3.02587">
        <ele>169.86128234863</ele>
        <time>2016-04-06T13:28:40.000Z</time>
      </trkpt>
      <trkpt lat="47.15986" lon="3.02589">
        <ele>170.0725402832</ele>
        <time>2016-04-06T13:28:45.000Z</time>
      </trkpt>
      <trkpt lat="47.15987" lon="3.0259">
        <ele>170.25688171387</ele>
        <time>2016-04-06T13:28:45.000Z</time>
      </trkpt>
      <trkpt lat="47.1599" lon="3.02593">
        <ele>170.44120788574</ele>
        <time>2016-04-06T13:28:48.000Z</time>
      </trkpt>
      <trkpt lat="47.15992" lon="3.02595">
        <ele>170.64013671875</ele>
        <time>2016-04-06T13:28:52.000Z</time>
      </trkpt>
      <trkpt lat="47.15994" lon="3.02597">
        <ele>170.84686279297</ele>
        <time>2016-04-06T13:28:53.000Z</time>
      </trkpt>
      <trkpt lat="47.15997" lon="3.026">
        <ele>171.06359863281</ele>
        <time>2016-04-06T13:28:57.000Z</time>
      </trkpt>
      <trkpt lat="47.15999" lon="3.02602">
        <ele>171.27688598633</ele>
        <time>2016-04-06T13:28:57.000Z</time>
      </trkpt>
      <trkpt lat="47.16001" lon="3.02604">
        <ele>171.47470092773</ele>
        <time>2016-04-06T13:28:59.000Z</time>
      </trkpt>
      <trkpt lat="47.16003" lon="3.02606">
        <ele>171.67503356934</ele>
        <time>2016-04-06T13:29:01.000Z</time>
      </trkpt>
      <trkpt lat="47.16005" lon="3.02608">
        <ele>171.8683013916</ele>
        <time>2016-04-06T13:29:03.000Z</time>
      </trkpt>
      <trkpt lat="47.16007" lon="3.02611">
        <ele>172.05694580078</ele>
        <time>2016-04-06T13:29:06.000Z</time>
      </trkpt>
      <trkpt lat="47.1601" lon="3.02613">
        <ele>172.27359008789</ele>
        <time>2016-04-06T13:29:08.000Z</time>
      </trkpt>
      <trkpt lat="47.16012" lon="3.02615">
        <ele>172.49945068359</ele>
        <time>2016-04-06T13:29:11.000Z</time>
      </trkpt>
      <trkpt lat="47.16014" lon="3.02617">
        <ele>172.70603942871</ele>
        <time>2016-04-06T13:29:13.000Z</time>
      </trkpt>
      <trkpt lat="47.16016" lon="3.02619">
        <ele>172.91897583008</ele>
        <time>2016-04-06T13:29:15.000Z</time>
      </trkpt>
      <trkpt lat="47.16018" lon="3.02621">
        <ele>173.1229095459</ele>
        <time>2016-04-06T13:29:18.000Z</time>
      </trkpt>
      <trkpt lat="47.1602" lon="3.02622">
        <ele>173.31913757324</ele>
        <time>2016-04-06T13:29:20.000Z</time>
      </trkpt>
      <trkpt lat="47.16023" lon="3.02623">
        <ele>173.53234863281</ele>
        <time>2016-04-06T13:29:23.000Z</time>
      </trkpt>
      <trkpt lat="47.16026" lon="3.02625">
        <ele>173.75985717773</ele>
        <time>2016-04-06T13:29:26.000Z</time>
      </trkpt>
      <trkpt lat="47.16029" lon="3.02625">
        <ele>174.03642272949</ele>
        <time>2016-04-06T13:29:29.000Z</time>
      </trkpt>
      <trkpt lat="47.16031" lon="3.02627">
        <ele>174.30392456055</ele>
        <time>2016-04-06T13:29:31.000Z</time>
      </trkpt>
      <trkpt lat="47.16034" lon="3.0263">
        <ele>174.57754516602</ele>
        <time>2016-04-06T13:29:34.000Z</time>
      </trkpt>
      <trkpt lat="47.16037" lon="3.02632">
        <ele>174.82955932617</ele>
        <time>2016-04-06T13:29:37.000Z</time>
      </trkpt>
      <trkpt lat="47.16039" lon="3.02633">
        <ele>175.07621765137</ele>
        <time>2016-04-06T13:29:40.000Z</time>
      </trkpt>
      <trkpt lat="47.16041" lon="3.02636">
        <ele>175.2816619873</ele>
        <time>2016-04-06T13:29:43.000Z</time>
      </trkpt>
      <trkpt lat="47.16044" lon="3.02635">
        <ele>175.51071166992</ele>
        <time>2016-04-06T13:29:45.000Z</time>
      </trkpt>
      <trkpt lat="47.16047" lon="3.02637">
        <ele>175.74423217773</ele>
        <time>2016-04-06T13:29:49.000Z</time>
      </trkpt>
      <trkpt lat="47.1605" lon="3.02638">
        <ele>175.97872924805</ele>
        <time>2016-04-06T13:29:51.000Z</time>
      </trkpt>
      <trkpt lat="47.16053" lon="3.0264">
        <ele>176.25141906738</ele>
        <time>2016-04-06T13:29:53.000Z</time>
      </trkpt>
      <trkpt lat="47.16055" lon="3.0264">
        <ele>176.50735473633</ele>
        <time>2016-04-06T13:29:56.000Z</time>
      </trkpt>
      <trkpt lat="47.16058" lon="3.02642">
        <ele>176.75857543945</ele>
        <time>2016-04-06T13:29:59.000Z</time>
      </trkpt>
      <trkpt lat="47.1606" lon="3.02643">
        <ele>177.00341796875</ele>
        <time>2016-04-06T13:30:02.000Z</time>
      </trkpt>
      <trkpt lat="47.16062" lon="3.02644">
        <ele>177.22166442871</ele>
        <time>2016-04-06T13:30:04.000Z</time>
      </trkpt>
      <trkpt lat="47.16064" lon="3.02646">
        <ele>177.40368652344</ele>
        <time>2016-04-06T13:30:07.000Z</time>
      </trkpt>
      <trkpt lat="47.16065" lon="3.02646">
        <ele>177.57720947266</ele>
        <time>2016-04-06T13:30:09.000Z</time>
      </trkpt>
      <trkpt lat="47.16068" lon="3.02646">
        <ele>177.77368164062</ele>
        <time>2016-04-06T13:30:12.000Z</time>
      </trkpt>
      <trkpt lat="47.16071" lon="3.02645">
        <ele>177.9771270752</ele>
        <time>2016-04-06T13:30:14.000Z</time>
      </trkpt>
      <trkpt lat="47.16074" lon="3.02646">
        <ele>178.21675109863</ele>
        <time>2016-04-06T13:30:17.000Z</time>
      </trkpt>
      <trkpt lat="47.16078" lon="3.02648">
        <ele>178.48915100098</ele>
        <time>2016-04-06T13:30:20.000Z</time>
      </trkpt>
      <trkpt lat="47.1608" lon="3.0265">
        <ele>178.77842712402</ele>
        <time>2016-04-06T13:30:22.000Z</time>
      </trkpt>
      <trkpt lat="47.16083" lon="3.02652">
        <ele>179.03837585449</ele>
        <time>2016-04-06T13:30:25.000Z</time>
      </trkpt>
      <trkpt lat="47.16085" lon="3.02654">
        <ele>179.23489379883</ele>
        <time>2016-04-06T13:30:28.000Z</time>
      </trkpt>
      <trkpt lat="47.16086" lon="3.02657">
        <ele>179.35647583008</ele>
        <time>2016-04-06T13:30:31.000Z</time>
      </trkpt>
      <trkpt lat="47.16087" lon="3.0266">
        <ele>179.3902130127</ele>
        <time>2016-04-06T13:30:34.000Z</time>
      </trkpt>
      <trkpt lat="47.16088" lon="3.02667">
        <ele>179.33081054688</ele>
        <time>2016-04-06T13:30:37.000Z</time>
      </trkpt>
      <trkpt lat="47.16087" lon="3.02675">
        <ele>179.09713745117</ele>
        <time>2016-04-06T13:30:40.000Z</time>
      </trkpt>
      <trkpt lat="47.16086" lon="3.02681">
        <ele>178.76916503906</ele>
        <time>2016-04-06T13:30:42.000Z</time>
      </trkpt>
      <trkpt lat="47.1609" lon="3.02681">
        <ele>178.46598815918</ele>
        <time>2016-04-06T13:30:44.000Z</time>
      </trkpt>
      <trkpt lat="47.16092" lon="3.02683">
        <ele>178.14155578613</ele>
        <time>2016-04-06T13:30:47.000Z</time>
      </trkpt>
      <trkpt lat="47.16096" lon="3.02684">
        <ele>177.86669921875</ele>
        <time>2016-04-06T13:30:49.000Z</time>
      </trkpt>
      <trkpt lat="47.161" lon="3.02687">
        <ele>177.67471313477</ele>
        <time>2016-04-06T13:30:52.000Z</time>
      </trkpt>
      <trkpt lat="47.16103" lon="3.02691">
        <ele>177.52261352539</ele>
        <time>2016-04-06T13:30:55.000Z</time>
      </trkpt>
      <trkpt lat="47.16108" lon="3.02691">
        <ele>177.35720825195</ele>
        <time>2016-04-06T13:30:58.000Z</time>
      </trkpt>
      <trkpt lat="47.16109" lon="3.0269">
        <ele>177.26400756836</ele>
        <time>2016-04-06T13:31:01.000Z</time>
      </trkpt>
      <trkpt lat="47.16111" lon="3.02689">
        <ele>177.20231628418</ele>
        <time>2016-04-06T13:31:03.000Z</time>
      </trkpt>
      <trkpt lat="47.16113" lon="3.02687">
        <ele>177.2265625</ele>
        <time>2016-04-06T13:31:05.000Z</time>
      </trkpt>
      <trkpt lat="47.16116" lon="3.02683">
        <ele>177.3908996582</ele>
        <time>2016-04-06T13:31:08.000Z</time>
      </trkpt>
      <trkpt lat="47.16117" lon="3.02681">
        <ele>177.58840942383</ele>
        <time>2016-04-06T13:31:11.000Z</time>
      </trkpt>
      <trkpt lat="47.1612" lon="3.02681">
        <ele>177.76306152344</ele>
        <time>2016-04-06T13:31:14.000Z</time>
      </trkpt>
      <trkpt lat="47.16122" lon="3.0268">
        <ele>177.94309997559</ele>
        <time>2016-04-06T13:31:17.000Z</time>
      </trkpt>
      <trkpt lat="47.16124" lon="3.02679">
        <ele>178.1100769043</ele>
        <time>2016-04-06T13:31:19.000Z</time>
      </trkpt>
      <trkpt lat="47.16125" lon="3.02677">
        <ele>178.22706604004</ele>
        <time>2016-04-06T13:31:21.000Z</time>
      </trkpt>
      <trkpt lat="47.16128" lon="3.02675">
        <ele>178.36022949219</ele>
        <time>2016-04-06T13:31:24.000Z</time>
      </trkpt>
      <trkpt lat="47.1613" lon="3.02674">
        <ele>178.52049255371</ele>
        <time>2016-04-06T13:31:26.000Z</time>
      </trkpt>
      <trkpt lat="47.16131" lon="3.02673">
        <ele>178.66702270508</ele>
        <time>2016-04-06T13:31:28.000Z</time>
      </trkpt>
      <trkpt lat="47.16134" lon="3.02673">
        <ele>178.79019165039</ele>
        <time>2016-04-06T13:31:31.000Z</time>
      </trkpt>
      <trkpt lat="47.16137" lon="3.02673">
        <ele>178.88842773438</ele>
        <time>2016-04-06T13:31:33.000Z</time>
      </trkpt>
      <trkpt lat="47.16138" lon="3.02672">
        <ele>178.97171020508</ele>
        <time>2016-04-06T13:31:35.000Z</time>
      </trkpt>
      <trkpt lat="47.16142" lon="3.0267">
        <ele>179.07754516602</ele>
        <time>2016-04-06T13:31:38.000Z</time>
      </trkpt>
      <trkpt lat="47.16145" lon="3.02667">
        <ele>179.21806335449</ele>
        <time>2016-04-06T13:31:41.000Z</time>
      </trkpt>
      <trkpt lat="47.16147" lon="3.02666">
        <ele>179.38481140137</ele>
        <time>2016-04-06T13:31:43.000Z</time>
      </trkpt>
      <trkpt lat="47.1615" lon="3.02664">
        <ele>179.5789642334</ele>
        <time>2016-04-06T13:31:46.000Z</time>
      </trkpt>
      <trkpt lat="47.16153" lon="3.02663">
        <ele>179.77627563477</ele>
        <time>2016-04-06T13:31:49.000Z</time>
      </trkpt>
      <trkpt lat="47.16157" lon="3.02662">
        <ele>179.93998718262</ele>
        <time>2016-04-06T13:31:52.000Z</time>
      </trkpt>
      <trkpt lat="47.16159" lon="3.0266">
        <ele>180.08853149414</ele>
        <time>2016-04-06T13:31:55.000Z</time>
      </trkpt>
      <trkpt lat="47.16162" lon="3.02659">
        <ele>180.23098754883</ele>
        <time>2016-04-06T13:31:57.000Z</time>
      </trkpt>
      <trkpt lat="47.16166" lon="3.02656">
        <ele>180.3840637207</ele>
        <time>2016-04-06T13:32:00.000Z</time>
      </trkpt>
      <trkpt lat="47.16167" lon="3.02654">
        <ele>180.55209350586</ele>
        <time>2016-04-06T13:32:02.000Z</time>
      </trkpt>
      <trkpt lat="47.16169" lon="3.02652">
        <ele>180.71852111816</ele>
        <time>2016-04-06T13:32:04.000Z</time>
      </trkpt>
      <trkpt lat="47.16171" lon="3.0265">
        <ele>180.87796020508</ele>
        <time>2016-04-06T13:32:07.000Z</time>
      </trkpt>
      <trkpt lat="47.16171" lon="3.02648">
        <ele>181.03787231445</ele>
        <time>2016-04-06T13:32:09.000Z</time>
      </trkpt>
      <trkpt lat="47.16174" lon="3.02645">
        <ele>181.19706726074</ele>
        <time>2016-04-06T13:32:12.000Z</time>
      </trkpt>
      <trkpt lat="47.16177" lon="3.0264">
        <ele>181.37979125977</ele>
        <time>2016-04-06T13:32:15.000Z</time>
      </trkpt>
      <trkpt lat="47.16178" lon="3.02637">
        <ele>181.59757995605</ele>
        <time>2016-04-06T13:32:18.000Z</time>
      </trkpt>
      <trkpt lat="47.16179" lon="3.02635">
        <ele>181.80966186523</ele>
        <time>2016-04-06T13:32:20.000Z</time>
      </trkpt>
      <trkpt lat="47.16183" lon="3.02631">
        <ele>182.05844116211</ele>
        <time>2016-04-06T13:32:23.000Z</time>
      </trkpt>
      <trkpt lat="47.16185" lon="3.02629">
        <ele>182.28555297852</ele>
        <time>2016-04-06T13:32:25.000Z</time>
      </trkpt>
      <trkpt lat="47.16187" lon="3.02628">
        <ele>182.47183227539</ele>
        <time>2016-04-06T13:32:27.000Z</time>
      </trkpt>
      <trkpt lat="47.16188" lon="3.02625">
        <ele>182.6416015625</ele>
        <time>2016-04-06T13:32:30.000Z</time>
      </trkpt>
      <trkpt lat="47.1619" lon="3.02623">
        <ele>182.82127380371</ele>
        <time>2016-04-06T13:32:33.000Z</time>
      </trkpt>
      <trkpt lat="47.16192" lon="3.0262">
        <ele>182.98892211914</ele>
        <time>2016-04-06T13:32:36.000Z</time>
      </trkpt>
      <trkpt lat="47.16193" lon="3.02618">
        <ele>183.16670227051</ele>
        <time>2016-04-06T13:32:38.000Z</time>
      </trkpt>
      <trkpt lat="47.16195" lon="3.02615">
        <ele>183.36581420898</ele>
        <time>2016-04-06T13:32:41.000Z</time>
      </trkpt>
      <trkpt lat="47.16197" lon="3.02613">
        <ele>183.56134033203</ele>
        <time>2016-04-06T13:32:43.000Z</time>
      </trkpt>
      <trkpt lat="47.16199" lon="3.02611">
        <ele>183.75971984863</ele>
        <time>2016-04-06T13:32:46.000Z</time>
      </trkpt>
      <trkpt lat="47.16203" lon="3.02609">
        <ele>183.94163513184</ele>
        <time>2016-04-06T13:32:49.000Z</time>
      </trkpt>
      <trkpt lat="47.16206" lon="3.02609">
        <ele>184.10722351074</ele>
        <time>2016-04-06T13:32:52.000Z</time>
      </trkpt>
      <trkpt lat="47.16209" lon="3.02607">
        <ele>184.24618530273</ele>
        <time>2016-04-06T13:32:55.000Z</time>
      </trkpt>
      <trkpt lat="47.16211" lon="3.02606">
        <ele>184.38005065918</ele>
        <time>2016-04-06T13:32:57.000Z</time>
      </trkpt>
      <trkpt lat="47.16213" lon="3.02603">
        <ele>184.51895141602</ele>
        <time>2016-04-06T13:33:00.000Z</time>
      </trkpt>
      <trkpt lat="47.16217" lon="3.026">
        <ele>184.68786621094</ele>
        <time>2016-04-06T13:33:03.000Z</time>
      </trkpt>
      <trkpt lat="47.16219" lon="3.02598">
        <ele>184.88600158691</ele>
        <time>2016-04-06T13:33:06.000Z</time>
      </trkpt>
      <trkpt lat="47.16222" lon="3.02596">
        <ele>185.10929870605</ele>
        <time>2016-04-06T13:33:09.000Z</time>
      </trkpt>
      <trkpt lat="47.16226" lon="3.02593">
        <ele>185.35340881348</ele>
        <time>2016-04-06T13:33:12.000Z</time>
      </trkpt>
      <trkpt lat="47.16228" lon="3.02591">
        <ele>185.60177612305</ele>
        <time>2016-04-06T13:33:14.000Z</time>
      </trkpt>
      <trkpt lat="47.16232" lon="3.02588">
        <ele>185.85234069824</ele>
        <time>2016-04-06T13:33:17.000Z</time>
      </trkpt>
      <trkpt lat="47.16235" lon="3.02585">
        <ele>186.12167358398</ele>
        <time>2016-04-06T13:33:20.000Z</time>
      </trkpt>
      <trkpt lat="47.16236" lon="3.02583">
        <ele>186.37026977539</ele>
        <time>2016-04-06T13:33:22.000Z</time>
      </trkpt>
      <trkpt lat="47.16239" lon="3.02581">
        <ele>186.59170532227</ele>
        <time>2016-04-06T13:33:25.000Z</time>
      </trkpt>
      <trkpt lat="47.16241" lon="3.02579">
        <ele>186.7816619873</ele>
        <time>2016-04-06T13:33:27.000Z</time>
      </trkpt>
      <trkpt lat="47.16244" lon="3.02578">
        <ele>186.93139648438</ele>
        <time>2016-04-06T13:33:30.000Z</time>
      </trkpt>
      <trkpt lat="47.16247" lon="3.02577">
        <ele>187.02871704102</ele>
        <time>2016-04-06T13:33:32.000Z</time>
      </trkpt>
      <trkpt lat="47.16251" lon="3.02576">
        <ele>187.12167358398</ele>
        <time>2016-04-06T13:33:35.000Z</time>
      </trkpt>
      <trkpt lat="47.16254" lon="3.02574">
        <ele>187.21803283691</ele>
        <time>2016-04-06T13:33:38.000Z</time>
      </trkpt>
      <trkpt lat="47.16257" lon="3.02572">
        <ele>187.31913757324</ele>
        <time>2016-04-06T13:33:41.000Z</time>
      </trkpt>
      <trkpt lat="47.16258" lon="3.02571">
        <ele>187.41287231445</ele>
        <time>2016-04-06T13:33:43.000Z</time>
      </trkpt>
      <trkpt lat="47.1626" lon="3.02571">
        <ele>187.50592041016</ele>
        <time>2016-04-06T13:33:45.000Z</time>
      </trkpt>
      <trkpt lat="47.16263" lon="3.02569">
        <ele>187.59870910645</ele>
        <time>2016-04-06T13:33:48.000Z</time>
      </trkpt>
      <trkpt lat="47.16266" lon="3.02568">
        <ele>187.68217468262</ele>
        <time>2016-04-06T13:33:50.000Z</time>
      </trkpt>
      <trkpt lat="47.16268" lon="3.02568">
        <ele>187.75891113281</ele>
        <time>2016-04-06T13:33:52.000Z</time>
      </trkpt>
      <trkpt lat="47.1627" lon="3.02568">
        <ele>187.8288269043</ele>
        <time>2016-04-06T13:33:54.000Z</time>
      </trkpt>
      <trkpt lat="47.16273" lon="3.02567">
        <ele>187.90390014648</ele>
        <time>2016-04-06T13:33:57.000Z</time>
      </trkpt>
      <trkpt lat="47.16276" lon="3.02567">
        <ele>187.9697265625</ele>
        <time>2016-04-06T13:34:00.000Z</time>
      </trkpt>
      <trkpt lat="47.16277" lon="3.02567">
        <ele>188.02188110352</ele>
        <time>2016-04-06T13:34:02.000Z</time>
      </trkpt>
      <trkpt lat="47.16279" lon="3.02568">
        <ele>188.0648651123</ele>
        <time>2016-04-06T13:34:06.000Z</time>
      </trkpt>
      <trkpt lat="47.16282" lon="3.02568">
        <ele>188.10549926758</ele>
        <time>2016-04-06T13:34:07.000Z</time>
      </trkpt>
      <trkpt lat="47.16284" lon="3.02569">
        <ele>188.13870239258</ele>
        <time>2016-04-06T13:34:10.000Z</time>
      </trkpt>
      <trkpt lat="47.16286" lon="3.02568">
        <ele>188.17260742188</ele>
        <time>2016-04-06T13:34:12.000Z</time>
      </trkpt>
      <trkpt lat="47.1629" lon="3.02568">
        <ele>188.21369934082</ele>
        <time>2016-04-06T13:34:15.000Z</time>
      </trkpt>
      <trkpt lat="47.16292" lon="3.02567">
        <ele>188.26675415039</ele>
        <time>2016-04-06T13:34:18.000Z</time>
      </trkpt>
      <trkpt lat="47.16296" lon="3.02567">
        <ele>188.33129882812</ele>
        <time>2016-04-06T13:34:21.000Z</time>
      </trkpt>
      <trkpt lat="47.16298" lon="3.02566">
        <ele>188.39686584473</ele>
        <time>2016-04-06T13:34:23.000Z</time>
      </trkpt>
      <trkpt lat="47.16301" lon="3.02566">
        <ele>188.46429443359</ele>
        <time>2016-04-06T13:34:26.000Z</time>
      </trkpt>
      <trkpt lat="47.16304" lon="3.02565">
        <ele>188.53335571289</ele>
        <time>2016-04-06T13:34:29.000Z</time>
      </trkpt>
      <trkpt lat="47.16306" lon="3.02565">
        <ele>188.59736633301</ele>
        <time>2016-04-06T13:34:31.000Z</time>
      </trkpt>
      <trkpt lat="47.16311" lon="3.02564">
        <ele>188.66683959961</ele>
        <time>2016-04-06T13:34:34.000Z</time>
      </trkpt>
      <trkpt lat="47.16315" lon="3.02563">
        <ele>188.74114990234</ele>
        <time>2016-04-06T13:34:37.000Z</time>
      </trkpt>
      <trkpt lat="47.16319" lon="3.02563">
        <ele>188.81671142578</ele>
        <time>2016-04-06T13:34:40.000Z</time>
      </trkpt>
      <trkpt lat="47.16322" lon="3.02562">
        <ele>188.89321899414</ele>
        <time>2016-04-06T13:34:42.000Z</time>
      </trkpt>
      <trkpt lat="47.16324" lon="3.02562">
        <ele>188.96835327148</ele>
        <time>2016-04-06T13:34:46.000Z</time>
      </trkpt>
      <trkpt lat="47.16329" lon="3.02563">
        <ele>189.03773498535</ele>
        <time>2016-04-06T13:34:47.000Z</time>
      </trkpt>
      <trkpt lat="47.16332" lon="3.02563">
        <ele>189.10269165039</ele>
        <time>2016-04-06T13:34:50.000Z</time>
      </trkpt>
      <trkpt lat="47.16336" lon="3.02562">
        <ele>189.17224121094</ele>
        <time>2016-04-06T13:34:53.000Z</time>
      </trkpt>
      <trkpt lat="47.16339" lon="3.02562">
        <ele>189.24397277832</ele>
        <time>2016-04-06T13:34:56.000Z</time>
      </trkpt>
      <trkpt lat="47.16343" lon="3.02561">
        <ele>189.32080078125</ele>
        <time>2016-04-06T13:34:58.000Z</time>
      </trkpt>
      <trkpt lat="47.16346" lon="3.02559">
        <ele>189.40588378906</ele>
        <time>2016-04-06T13:35:01.000Z</time>
      </trkpt>
      <trkpt lat="47.16349" lon="3.02558">
        <ele>189.49645996094</ele>
        <time>2016-04-06T13:35:03.000Z</time>
      </trkpt>
      <trkpt lat="47.16352" lon="3.02557">
        <ele>189.58782958984</ele>
        <time>2016-04-06T13:35:06.000Z</time>
      </trkpt>
      <trkpt lat="47.16357" lon="3.02555">
        <ele>189.69158935547</ele>
        <time>2016-04-06T13:35:09.000Z</time>
      </trkpt>
      <trkpt lat="47.1636" lon="3.02554">
        <ele>189.79498291016</ele>
        <time>2016-04-06T13:35:11.000Z</time>
      </trkpt>
      <trkpt lat="47.16361" lon="3.02554">
        <ele>189.87927246094</ele>
        <time>2016-04-06T13:35:13.000Z</time>
      </trkpt>
      <trkpt lat="47.16367" lon="3.02555">
        <ele>189.97088623047</ele>
        <time>2016-04-06T13:35:16.000Z</time>
      </trkpt>
      <trkpt lat="47.16369" lon="3.02554">
        <ele>190.05609130859</ele>
        <time>2016-04-06T13:35:19.000Z</time>
      </trkpt>
      <trkpt lat="47.16371" lon="3.02554">
        <ele>190.12115478516</ele>
        <time>2016-04-06T13:35:21.000Z</time>
      </trkpt>
      <trkpt lat="47.16373" lon="3.02553">
        <ele>190.18572998047</ele>
        <time>2016-04-06T13:35:24.000Z</time>
      </trkpt>
      <trkpt lat="47.16375" lon="3.02554">
        <ele>190.25518798828</ele>
        <time>2016-04-06T13:35:26.000Z</time>
      </trkpt>
      <trkpt lat="47.16378" lon="3.02554">
        <ele>190.31457519531</ele>
        <time>2016-04-06T13:35:28.000Z</time>
      </trkpt>
      <trkpt lat="47.16381" lon="3.02552">
        <ele>190.37652587891</ele>
        <time>2016-04-06T13:35:31.000Z</time>
      </trkpt>
      <trkpt lat="47.16383" lon="3.02551">
        <ele>190.44476318359</ele>
        <time>2016-04-06T13:35:33.000Z</time>
      </trkpt>
      <trkpt lat="47.16387" lon="3.02549">
        <ele>190.52233886719</ele>
        <time>2016-04-06T13:35:36.000Z</time>
      </trkpt>
      <trkpt lat="47.16389" lon="3.02548">
        <ele>190.60229492188</ele>
        <time>2016-04-06T13:35:38.000Z</time>
      </trkpt>
      <trkpt lat="47.16392" lon="3.02547">
        <ele>190.68414306641</ele>
        <time>2016-04-06T13:35:41.000Z</time>
      </trkpt>
      <trkpt lat="47.16395" lon="3.02546">
        <ele>190.76708984375</ele>
        <time>2016-04-06T13:35:43.000Z</time>
      </trkpt>
      <trkpt lat="47.16399" lon="3.02545">
        <ele>190.85699462891</ele>
        <time>2016-04-06T13:35:46.000Z</time>
      </trkpt>
      <trkpt lat="47.16402" lon="3.02543">
        <ele>190.9453125</ele>
        <time>2016-04-06T13:35:49.000Z</time>
      </trkpt>
      <trkpt lat="47.16406" lon="3.02542">
        <ele>191.04241943359</ele>
        <time>2016-04-06T13:35:52.000Z</time>
      </trkpt>
      <trkpt lat="47.16409" lon="3.02541">
        <ele>191.1396484375</ele>
        <time>2016-04-06T13:35:54.000Z</time>
      </trkpt>
      <trkpt lat="47.16412" lon="3.02541">
        <ele>191.23052978516</ele>
        <time>2016-04-06T13:35:56.000Z</time>
      </trkpt>
      <trkpt lat="47.16415" lon="3.02541">
        <ele>191.31573486328</ele>
        <time>2016-04-06T13:35:59.000Z</time>
      </trkpt>
      <trkpt lat="47.16417" lon="3.0254">
        <ele>191.38977050781</ele>
        <time>2016-04-06T13:36:01.000Z</time>
      </trkpt>
      <trkpt lat="47.16422" lon="3.02539">
        <ele>191.46369934082</ele>
        <time>2016-04-06T13:36:04.000Z</time>
      </trkpt>
      <trkpt lat="47.16426" lon="3.02537">
        <ele>191.54614257812</ele>
        <time>2016-04-06T13:36:07.000Z</time>
      </trkpt>
      <trkpt lat="47.1643" lon="3.02536">
        <ele>191.62930297852</ele>
        <time>2016-04-06T13:36:10.000Z</time>
      </trkpt>
      <trkpt lat="47.16432" lon="3.02536">
        <ele>191.70797729492</ele>
        <time>2016-04-06T13:36:16.000Z</time>
      </trkpt>
      <trkpt lat="47.16437" lon="3.02534">
        <ele>191.80088806152</ele>
        <time>2016-04-06T13:36:17.000Z</time>
      </trkpt>
      <trkpt lat="47.16441" lon="3.02533">
        <ele>191.88940429688</ele>
        <time>2016-04-06T13:36:18.000Z</time>
      </trkpt>
      <trkpt lat="47.16443" lon="3.02532">
        <ele>191.9674987793</ele>
        <time>2016-04-06T13:36:21.000Z</time>
      </trkpt>
      <trkpt lat="47.16446" lon="3.02532">
        <ele>192.0457611084</ele>
        <time>2016-04-06T13:36:24.000Z</time>
      </trkpt>
      <trkpt lat="47.16447" lon="3.02531">
        <ele>192.11962890625</ele>
        <time>2016-04-06T13:36:26.000Z</time>
      </trkpt>
      <trkpt lat="47.16451" lon="3.0253">
        <ele>192.1880645752</ele>
        <time>2016-04-06T13:36:28.000Z</time>
      </trkpt>
      <trkpt lat="47.16455" lon="3.02527">
        <ele>192.26838684082</ele>
        <time>2016-04-06T13:36:32.000Z</time>
      </trkpt>
      <trkpt lat="47.16458" lon="3.02525">
        <ele>192.35061645508</ele>
        <time>2016-04-06T13:36:33.000Z</time>
      </trkpt>
      <trkpt lat="47.1646" lon="3.02524">
        <ele>192.43086242676</ele>
        <time>2016-04-06T13:36:35.000Z</time>
      </trkpt>
      <trkpt lat="47.16465" lon="3.02524">
        <ele>192.52243041992</ele>
        <time>2016-04-06T13:36:39.000Z</time>
      </trkpt>
      <trkpt lat="47.16467" lon="3.02524">
        <ele>192.60871887207</ele>
        <time>2016-04-06T13:36:40.000Z</time>
      </trkpt>
      <trkpt lat="47.1647" lon="3.02523">
        <ele>192.68270874023</ele>
        <time>2016-04-06T13:36:44.000Z</time>
      </trkpt>
      <trkpt lat="47.16473" lon="3.02522">
        <ele>192.75602722168</ele>
        <time>2016-04-06T13:36:45.000Z</time>
      </trkpt>
      <trkpt lat="47.16478" lon="3.02522">
        <ele>192.83670043945</ele>
        <time>2016-04-06T13:36:48.000Z</time>
      </trkpt>
      <trkpt lat="47.16479" lon="3.02522">
        <ele>192.90805053711</ele>
        <time>2016-04-06T13:36:51.000Z</time>
      </trkpt>
      <trkpt lat="47.16484" lon="3.02521">
        <ele>192.98980712891</ele>
        <time>2016-04-06T13:36:54.000Z</time>
      </trkpt>
      <trkpt lat="47.16488" lon="3.0252">
        <ele>193.07427978516</ele>
        <time>2016-04-06T13:36:57.000Z</time>
      </trkpt>
      <trkpt lat="47.1649" lon="3.02519">
        <ele>193.15824890137</ele>
        <time>2016-04-06T13:36:59.000Z</time>
      </trkpt>
      <trkpt lat="47.16493" lon="3.02518">
        <ele>193.24523925781</ele>
        <time>2016-04-06T13:37:02.000Z</time>
      </trkpt>
      <trkpt lat="47.16496" lon="3.02518">
        <ele>193.3307800293</ele>
        <time>2016-04-06T13:37:05.000Z</time>
      </trkpt>
      <trkpt lat="47.16499" lon="3.02518">
        <ele>193.40725708008</ele>
        <time>2016-04-06T13:37:08.000Z</time>
      </trkpt>
      <trkpt lat="47.165" lon="3.02518">
        <ele>193.47535705566</ele>
        <time>2016-04-06T13:37:10.000Z</time>
      </trkpt>
      <trkpt lat="47.16502" lon="3.02519">
        <ele>193.53817749023</ele>
        <time>2016-04-06T13:37:13.000Z</time>
      </trkpt>
      <trkpt lat="47.16505" lon="3.02518">
        <ele>193.61749267578</ele>
        <time>2016-04-06T13:37:16.000Z</time>
      </trkpt>
      <trkpt lat="47.16508" lon="3.02517">
        <ele>193.71954345703</ele>
        <time>2016-04-06T13:37:18.000Z</time>
      </trkpt>
      <trkpt lat="47.16514" lon="3.02514">
        <ele>193.87158203125</ele>
        <time>2016-04-06T13:37:21.000Z</time>
      </trkpt>
      <trkpt lat="47.16518" lon="3.02513">
        <ele>194.06652832031</ele>
        <time>2016-04-06T13:37:24.000Z</time>
      </trkpt>
      <trkpt lat="47.16521" lon="3.02512">
        <ele>194.28137207031</ele>
        <time>2016-04-06T13:37:26.000Z</time>
      </trkpt>
      <trkpt lat="47.16524" lon="3.02511">
        <ele>194.49035644531</ele>
        <time>2016-04-06T13:37:29.000Z</time>
      </trkpt>
      <trkpt lat="47.16529" lon="3.02511">
        <ele>194.71643066406</ele>
        <time>2016-04-06T13:37:31.000Z</time>
      </trkpt>
      <trkpt lat="47.16533" lon="3.02512">
        <ele>194.90991210938</ele>
        <time>2016-04-06T13:37:35.000Z</time>
      </trkpt>
      <trkpt lat="47.16535" lon="3.02511">
        <ele>195.07507324219</ele>
        <time>2016-04-06T13:37:37.000Z</time>
      </trkpt>
      <trkpt lat="47.16537" lon="3.0251">
        <ele>195.2373046875</ele>
        <time>2016-04-06T13:37:38.000Z</time>
      </trkpt>
      <trkpt lat="47.16539" lon="3.02509">
        <ele>195.39758300781</ele>
        <time>2016-04-06T13:37:41.000Z</time>
      </trkpt>
      <trkpt lat="47.16542" lon="3.02508">
        <ele>195.53674316406</ele>
        <time>2016-04-06T13:37:44.000Z</time>
      </trkpt>
      <trkpt lat="47.16543" lon="3.02508">
        <ele>195.65563964844</ele>
        <time>2016-04-06T13:37:46.000Z</time>
      </trkpt>
      <trkpt lat="47.16547" lon="3.02508">
        <ele>195.78491210938</ele>
        <time>2016-04-06T13:37:49.000Z</time>
      </trkpt>
      <trkpt lat="47.16548" lon="3.02508">
        <ele>195.90649414062</ele>
        <time>2016-04-06T13:37:51.000Z</time>
      </trkpt>
      <trkpt lat="47.16552" lon="3.02507">
        <ele>196.03063964844</ele>
        <time>2016-04-06T13:37:54.000Z</time>
      </trkpt>
      <trkpt lat="47.16555" lon="3.02507">
        <ele>196.16577148438</ele>
        <time>2016-04-06T13:37:57.000Z</time>
      </trkpt>
      <trkpt lat="47.1656" lon="3.02506">
        <ele>196.34460449219</ele>
        <time>2016-04-06T13:38:00.000Z</time>
      </trkpt>
      <trkpt lat="47.16563" lon="3.02505">
        <ele>196.51818847656</ele>
        <time>2016-04-06T13:38:02.000Z</time>
      </trkpt>
      <trkpt lat="47.16566" lon="3.02503">
        <ele>196.7080078125</ele>
        <time>2016-04-06T13:38:04.000Z</time>
      </trkpt>
      <trkpt lat="47.1657" lon="3.02502">
        <ele>196.91162109375</ele>
        <time>2016-04-06T13:38:07.000Z</time>
      </trkpt>
      <trkpt lat="47.16572" lon="3.02501">
        <ele>197.09875488281</ele>
        <time>2016-04-06T13:38:09.000Z</time>
      </trkpt>
      <trkpt lat="47.16576" lon="3.025">
        <ele>197.27008056641</ele>
        <time>2016-04-06T13:38:12.000Z</time>
      </trkpt>
      <trkpt lat="47.16579" lon="3.02498">
        <ele>197.44049072266</ele>
        <time>2016-04-06T13:38:14.000Z</time>
      </trkpt>
      <trkpt lat="47.16582" lon="3.02497">
        <ele>197.6044921875</ele>
        <time>2016-04-06T13:38:17.000Z</time>
      </trkpt>
      <trkpt lat="47.16585" lon="3.02496">
        <ele>197.74240112305</ele>
        <time>2016-04-06T13:38:20.000Z</time>
      </trkpt>
      <trkpt lat="47.16589" lon="3.02496">
        <ele>197.87413024902</ele>
        <time>2016-04-06T13:38:23.000Z</time>
      </trkpt>
      <trkpt lat="47.16591" lon="3.02496">
        <ele>197.97834777832</ele>
        <time>2016-04-06T13:38:25.000Z</time>
      </trkpt>
      <trkpt lat="47.16594" lon="3.02496">
        <ele>198.06832885742</ele>
        <time>2016-04-06T13:38:28.000Z</time>
      </trkpt>
      <trkpt lat="47.16596" lon="3.02496">
        <ele>198.13690185547</ele>
        <time>2016-04-06T13:38:30.000Z</time>
      </trkpt>
      <trkpt lat="47.16599" lon="3.02495">
        <ele>198.19799804688</ele>
        <time>2016-04-06T13:38:32.000Z</time>
      </trkpt>
      <trkpt lat="47.16603" lon="3.02495">
        <ele>198.26715087891</ele>
        <time>2016-04-06T13:38:35.000Z</time>
      </trkpt>
      <trkpt lat="47.16606" lon="3.02495">
        <ele>198.33319091797</ele>
        <time>2016-04-06T13:38:37.000Z</time>
      </trkpt>
      <trkpt lat="47.16611" lon="3.02495">
        <ele>198.40869140625</ele>
        <time>2016-04-06T13:38:40.000Z</time>
      </trkpt>
      <trkpt lat="47.16614" lon="3.02495">
        <ele>198.49340820312</ele>
        <time>2016-04-06T13:38:42.000Z</time>
      </trkpt>
      <trkpt lat="47.16617" lon="3.02495">
        <ele>198.58117675781</ele>
        <time>2016-04-06T13:38:45.000Z</time>
      </trkpt>
      <trkpt lat="47.16619" lon="3.02495">
        <ele>198.65344238281</ele>
        <time>2016-04-06T13:38:47.000Z</time>
      </trkpt>
      <trkpt lat="47.16621" lon="3.02493">
        <ele>198.72576904297</ele>
        <time>2016-04-06T13:38:50.000Z</time>
      </trkpt>
      <trkpt lat="47.16625" lon="3.02493">
        <ele>198.79187011719</ele>
        <time>2016-04-06T13:38:53.000Z</time>
      </trkpt>
      <trkpt lat="47.16628" lon="3.02493">
        <ele>198.85589599609</ele>
        <time>2016-04-06T13:38:56.000Z</time>
      </trkpt>
      <trkpt lat="47.16631" lon="3.02492">
        <ele>198.91485595703</ele>
        <time>2016-04-06T13:38:59.000Z</time>
      </trkpt>
      <trkpt lat="47.16633" lon="3.02491">
        <ele>198.97729492188</ele>
        <time>2016-04-06T13:39:01.000Z</time>
      </trkpt>
      <trkpt lat="47.16636" lon="3.0249">
        <ele>199.03802490234</ele>
        <time>2016-04-06T13:39:03.000Z</time>
      </trkpt>
      <trkpt lat="47.16638" lon="3.02489">
        <ele>199.08819580078</ele>
        <time>2016-04-06T13:39:05.000Z</time>
      </trkpt>
      <trkpt lat="47.16641" lon="3.02488">
        <ele>199.14123535156</ele>
        <time>2016-04-06T13:39:08.000Z</time>
      </trkpt>
      <trkpt lat="47.16644" lon="3.02488">
        <ele>199.1953125</ele>
        <time>2016-04-06T13:39:11.000Z</time>
      </trkpt>
      <trkpt lat="47.16648" lon="3.02486">
        <ele>199.25036621094</ele>
        <time>2016-04-06T13:39:14.000Z</time>
      </trkpt>
      <trkpt lat="47.1665" lon="3.02485">
        <ele>199.30871582031</ele>
        <time>2016-04-06T13:39:16.000Z</time>
      </trkpt>
      <trkpt lat="47.16655" lon="3.02484">
        <ele>199.38201904297</ele>
        <time>2016-04-06T13:39:19.000Z</time>
      </trkpt>
      <trkpt lat="47.16657" lon="3.02484">
        <ele>199.44635009766</ele>
        <time>2016-04-06T13:39:21.000Z</time>
      </trkpt>
      <trkpt lat="47.16659" lon="3.02484">
        <ele>199.50885009766</ele>
        <time>2016-04-06T13:39:23.000Z</time>
      </trkpt>
      <trkpt lat="47.16663" lon="3.02484">
        <ele>199.57977294922</ele>
        <time>2016-04-06T13:39:26.000Z</time>
      </trkpt>
      <trkpt lat="47.16666" lon="3.02484">
        <ele>199.65252685547</ele>
        <time>2016-04-06T13:39:29.000Z</time>
      </trkpt>
      <trkpt lat="47.16671" lon="3.02483">
        <ele>199.71116638184</ele>
        <time>2016-04-06T13:39:32.000Z</time>
      </trkpt>
      <trkpt lat="47.16674" lon="3.02482">
        <ele>199.76667785645</ele>
        <time>2016-04-06T13:39:35.000Z</time>
      </trkpt>
      <trkpt lat="47.16676" lon="3.02482">
        <ele>199.81709289551</ele>
        <time>2016-04-06T13:39:37.000Z</time>
      </trkpt>
      <trkpt lat="47.16679" lon="3.02482">
        <ele>199.85131835938</ele>
        <time>2016-04-06T13:39:39.000Z</time>
      </trkpt>
      <trkpt lat="47.16682" lon="3.02481">
        <ele>199.87564086914</ele>
        <time>2016-04-06T13:39:42.000Z</time>
      </trkpt>
      <trkpt lat="47.16685" lon="3.0248">
        <ele>199.89276123047</ele>
        <time>2016-04-06T13:39:45.000Z</time>
      </trkpt>
      <trkpt lat="47.16687" lon="3.02479">
        <ele>199.90824890137</ele>
        <time>2016-04-06T13:39:48.000Z</time>
      </trkpt>
      <trkpt lat="47.16691" lon="3.02479">
        <ele>199.92626953125</ele>
        <time>2016-04-06T13:39:51.000Z</time>
      </trkpt>
      <trkpt lat="47.16694" lon="3.02479">
        <ele>199.94686889648</ele>
        <time>2016-04-06T13:39:54.000Z</time>
      </trkpt>
      <trkpt lat="47.16697" lon="3.02479">
        <ele>199.96780395508</ele>
        <time>2016-04-06T13:39:56.000Z</time>
      </trkpt>
      <trkpt lat="47.16701" lon="3.02477">
        <ele>199.9899597168</ele>
        <time>2016-04-06T13:39:59.000Z</time>
      </trkpt>
      <trkpt lat="47.16703" lon="3.02477">
        <ele>200.0113067627</ele>
        <time>2016-04-06T13:40:01.000Z</time>
      </trkpt>
      <trkpt lat="47.16708" lon="3.02475">
        <ele>200.02626037598</ele>
        <time>2016-04-06T13:40:04.000Z</time>
      </trkpt>
      <trkpt lat="47.1671" lon="3.02474">
        <ele>200.03291320801</ele>
        <time>2016-04-06T13:40:06.000Z</time>
      </trkpt>
      <trkpt lat="47.16713" lon="3.02473">
        <ele>200.03860473633</ele>
        <time>2016-04-06T13:40:09.000Z</time>
      </trkpt>
      <trkpt lat="47.16716" lon="3.02472">
        <ele>200.04475402832</ele>
        <time>2016-04-06T13:40:11.000Z</time>
      </trkpt>
      <trkpt lat="47.16718" lon="3.02471">
        <ele>200.04898071289</ele>
        <time>2016-04-06T13:40:13.000Z</time>
      </trkpt>
      <trkpt lat="47.16722" lon="3.0247">
        <ele>200.05366516113</ele>
        <time>2016-04-06T13:40:16.000Z</time>
      </trkpt>
      <trkpt lat="47.16725" lon="3.02469">
        <ele>200.05996704102</ele>
        <time>2016-04-06T13:40:18.000Z</time>
      </trkpt>
      <trkpt lat="47.16729" lon="3.02467">
        <ele>200.06219482422</ele>
        <time>2016-04-06T13:40:21.000Z</time>
      </trkpt>
      <trkpt lat="47.1673" lon="3.02466">
        <ele>200.06037902832</ele>
        <time>2016-04-06T13:40:23.000Z</time>
      </trkpt>
      <trkpt lat="47.16732" lon="3.02465">
        <ele>200.05728149414</ele>
        <time>2016-04-06T13:40:26.000Z</time>
      </trkpt>
      <trkpt lat="47.16736" lon="3.02464">
        <ele>200.05274963379</ele>
        <time>2016-04-06T13:40:29.000Z</time>
      </trkpt>
      <trkpt lat="47.16738" lon="3.02463">
        <ele>200.04756164551</ele>
        <time>2016-04-06T13:40:31.000Z</time>
      </trkpt>
      <trkpt lat="47.16741" lon="3.02461">
        <ele>200.03649902344</ele>
        <time>2016-04-06T13:40:34.000Z</time>
      </trkpt>
      <trkpt lat="47.16744" lon="3.02459">
        <ele>200.02421569824</ele>
        <time>2016-04-06T13:40:36.000Z</time>
      </trkpt>
      <trkpt lat="47.16747" lon="3.02457">
        <ele>200.00570678711</ele>
        <time>2016-04-06T13:40:39.000Z</time>
      </trkpt>
      <trkpt lat="47.16751" lon="3.02455">
        <ele>199.9831237793</ele>
        <time>2016-04-06T13:40:42.000Z</time>
      </trkpt>
      <trkpt lat="47.16754" lon="3.02454">
        <ele>199.95526123047</ele>
        <time>2016-04-06T13:40:45.000Z</time>
      </trkpt>
      <trkpt lat="47.16755" lon="3.02454">
        <ele>199.93139648438</ele>
        <time>2016-04-06T13:40:47.000Z</time>
      </trkpt>
      <trkpt lat="47.16759" lon="3.02453">
        <ele>199.90646362305</ele>
        <time>2016-04-06T13:40:50.000Z</time>
      </trkpt>
      <trkpt lat="47.16762" lon="3.02452">
        <ele>199.88439941406</ele>
        <time>2016-04-06T13:40:54.000Z</time>
      </trkpt>
      <trkpt lat="47.16765" lon="3.02451">
        <ele>199.86096191406</ele>
        <time>2016-04-06T13:40:56.000Z</time>
      </trkpt>
      <trkpt lat="47.16769" lon="3.0245">
        <ele>199.84143066406</ele>
        <time>2016-04-06T13:40:59.000Z</time>
      </trkpt>
      <trkpt lat="47.16773" lon="3.02449">
        <ele>199.81872558594</ele>
        <time>2016-04-06T13:41:02.000Z</time>
      </trkpt>
      <trkpt lat="47.16777" lon="3.02448">
        <ele>199.796875</ele>
        <time>2016-04-06T13:41:05.000Z</time>
      </trkpt>
      <trkpt lat="47.16779" lon="3.02447">
        <ele>199.77465820312</ele>
        <time>2016-04-06T13:41:07.000Z</time>
      </trkpt>
      <trkpt lat="47.16782" lon="3.02446">
        <ele>199.75085449219</ele>
        <time>2016-04-06T13:41:09.000Z</time>
      </trkpt>
      <trkpt lat="47.16785" lon="3.02444">
        <ele>199.71960449219</ele>
        <time>2016-04-06T13:41:12.000Z</time>
      </trkpt>
      <trkpt lat="47.1679" lon="3.02442">
        <ele>199.68835449219</ele>
        <time>2016-04-06T13:41:15.000Z</time>
      </trkpt>
      <trkpt lat="47.16792" lon="3.02442">
        <ele>199.65942382812</ele>
        <time>2016-04-06T13:41:17.000Z</time>
      </trkpt>
      <trkpt lat="47.16795" lon="3.02441">
        <ele>199.62915039062</ele>
        <time>2016-04-06T13:41:20.000Z</time>
      </trkpt>
      <trkpt lat="47.16797" lon="3.02441">
        <ele>199.60571289062</ele>
        <time>2016-04-06T13:41:23.000Z</time>
      </trkpt>
      <trkpt lat="47.16799" lon="3.0244">
        <ele>199.58728027344</ele>
        <time>2016-04-06T13:41:25.000Z</time>
      </trkpt>
      <trkpt lat="47.16803" lon="3.02438">
        <ele>199.56652832031</ele>
        <time>2016-04-06T13:41:28.000Z</time>
      </trkpt>
      <trkpt lat="47.16805" lon="3.02437">
        <ele>199.5400390625</ele>
        <time>2016-04-06T13:41:30.000Z</time>
      </trkpt>
      <trkpt lat="47.16807" lon="3.02437">
        <ele>199.52111816406</ele>
        <time>2016-04-06T13:41:33.000Z</time>
      </trkpt>
      <trkpt lat="47.16809" lon="3.02437">
        <ele>199.50109863281</ele>
        <time>2016-04-06T13:41:35.000Z</time>
      </trkpt>
      <trkpt lat="47.16811" lon="3.02436">
        <ele>199.48486328125</ele>
        <time>2016-04-06T13:41:38.000Z</time>
      </trkpt>
      <trkpt lat="47.16812" lon="3.02436">
        <ele>199.4755859375</ele>
        <time>2016-04-06T13:41:40.000Z</time>
      </trkpt>
      <trkpt lat="47.16813" lon="3.02435">
        <ele>199.47045898438</ele>
        <time>2016-04-06T13:41:43.000Z</time>
      </trkpt>
      <trkpt lat="47.16814" lon="3.02435">
        <ele>199.46313476562</ele>
        <time>2016-04-06T13:41:48.000Z</time>
      </trkpt>
      <trkpt lat="47.16816" lon="3.02435">
        <ele>199.45422363281</ele>
        <time>2016-04-06T13:41:51.000Z</time>
      </trkpt>
      <trkpt lat="47.16816" lon="3.02434">
        <ele>199.44213867188</ele>
        <time>2016-04-06T13:41:53.000Z</time>
      </trkpt>
      <trkpt lat="47.16817" lon="3.02432">
        <ele>199.42468261719</ele>
        <time>2016-04-06T13:41:56.000Z</time>
      </trkpt>
      <trkpt lat="47.16819" lon="3.02432">
        <ele>199.408203125</ele>
        <time>2016-04-06T13:41:59.000Z</time>
      </trkpt>
      <trkpt lat="47.16819" lon="3.02431">
        <ele>199.38696289062</ele>
        <time>2016-04-06T13:42:08.000Z</time>
      </trkpt>
      <trkpt lat="47.1682" lon="3.02429">
        <ele>199.361328125</ele>
        <time>2016-04-06T13:42:14.000Z</time>
      </trkpt>
      <trkpt lat="47.16821" lon="3.02427">
        <ele>199.32836914062</ele>
        <time>2016-04-06T13:42:16.000Z</time>
      </trkpt>
      <trkpt lat="47.16821" lon="3.02427">
        <ele>199.32836914062</ele>
        <time>2016-04-06T13:42:36.000Z</time>
      </trkpt>
      <trkpt lat="47.16822" lon="3.02429">
        <ele>199.3115234375</ele>
        <time>2016-04-06T13:43:16.000Z</time>
      </trkpt>
      <trkpt lat="47.16823" lon="3.02429">
        <ele>199.29809570312</ele>
        <time>2016-04-06T13:43:21.000Z</time>
      </trkpt>
      <trkpt lat="47.16823" lon="3.02429">
        <ele>199.29809570312</ele>
        <time>2016-04-06T13:43:41.000Z</time>
      </trkpt>
      <trkpt lat="47.16824" lon="3.02428">
        <ele>199.28442382812</ele>
        <time>2016-04-06T13:44:34.000Z</time>
      </trkpt>
      <trkpt lat="47.16827" lon="3.02425">
        <ele>199.26342773438</ele>
        <time>2016-04-06T13:44:35.000Z</time>
      </trkpt>
      <trkpt lat="47.16829" lon="3.02424">
        <ele>199.24682617188</ele>
        <time>2016-04-06T13:44:37.000Z</time>
      </trkpt>
      <trkpt lat="47.1683" lon="3.02422">
        <ele>199.21447753906</ele>
        <time>2016-04-06T13:44:46.000Z</time>
      </trkpt>
      <trkpt lat="47.16832" lon="3.02422">
        <ele>199.17810058594</ele>
        <time>2016-04-06T13:44:52.000Z</time>
      </trkpt>
      <trkpt lat="47.16833" lon="3.02421">
        <ele>199.1424407959</ele>
        <time>2016-04-06T13:44:55.000Z</time>
      </trkpt>
      <trkpt lat="47.16835" lon="3.0242">
        <ele>199.09802246094</ele>
        <time>2016-04-06T13:44:56.000Z</time>
      </trkpt>
      <trkpt lat="47.16839" lon="3.02417">
        <ele>199.0153503418</ele>
        <time>2016-04-06T13:44:58.000Z</time>
      </trkpt>
      <trkpt lat="47.16842" lon="3.02415">
        <ele>198.88772583008</ele>
        <time>2016-04-06T13:45:02.000Z</time>
      </trkpt>
      <trkpt lat="47.16845" lon="3.02414">
        <ele>198.72972106934</ele>
        <time>2016-04-06T13:45:03.000Z</time>
      </trkpt>
      <trkpt lat="47.16846" lon="3.02413">
        <ele>198.54652404785</ele>
        <time>2016-04-06T13:45:03.000Z</time>
      </trkpt>
      <trkpt lat="47.16849" lon="3.02412">
        <ele>198.34768676758</ele>
        <time>2016-04-06T13:45:06.000Z</time>
      </trkpt>
      <trkpt lat="47.16851" lon="3.02411">
        <ele>198.16375732422</ele>
        <time>2016-04-06T13:45:07.000Z</time>
      </trkpt>
      <trkpt lat="47.16856" lon="3.0241">
        <ele>197.97225952148</ele>
        <time>2016-04-06T13:45:08.000Z</time>
      </trkpt>
      <trkpt lat="47.16858" lon="3.02409">
        <ele>197.77033996582</ele>
        <time>2016-04-06T13:45:11.000Z</time>
      </trkpt>
      <trkpt lat="47.1686" lon="3.02408">
        <ele>197.56723022461</ele>
        <time>2016-04-06T13:45:13.000Z</time>
      </trkpt>
      <trkpt lat="47.16863" lon="3.02407">
        <ele>197.37054443359</ele>
        <time>2016-04-06T13:45:19.000Z</time>
      </trkpt>
      <trkpt lat="47.16866" lon="3.02406">
        <ele>197.15942382812</ele>
        <time>2016-04-06T13:45:20.000Z</time>
      </trkpt>
      <trkpt lat="47.16869" lon="3.02406">
        <ele>196.97546386719</ele>
        <time>2016-04-06T13:45:22.000Z</time>
      </trkpt>
      <trkpt lat="47.16872" lon="3.02404">
        <ele>196.77828979492</ele>
        <time>2016-04-06T13:45:26.000Z</time>
      </trkpt>
      <trkpt lat="47.16873" lon="3.02402">
        <ele>196.56971740723</ele>
        <time>2016-04-06T13:45:27.000Z</time>
      </trkpt>
      <trkpt lat="47.16875" lon="3.02399">
        <ele>196.34483337402</ele>
        <time>2016-04-06T13:45:35.000Z</time>
      </trkpt>
      <trkpt lat="47.16876" lon="3.02397">
        <ele>196.11253356934</ele>
        <time>2016-04-06T13:45:35.000Z</time>
      </trkpt>
      <trkpt lat="47.16879" lon="3.02392">
        <ele>195.8151550293</ele>
        <time>2016-04-06T13:45:35.000Z</time>
      </trkpt>
      <trkpt lat="47.16882" lon="3.0239">
        <ele>195.51327514648</ele>
        <time>2016-04-06T13:45:36.000Z</time>
      </trkpt>
      <trkpt lat="47.16884" lon="3.02387">
        <ele>195.1780090332</ele>
        <time>2016-04-06T13:45:39.000Z</time>
      </trkpt>
      <trkpt lat="47.16887" lon="3.02384">
        <ele>194.82588195801</ele>
        <time>2016-04-06T13:45:42.000Z</time>
      </trkpt>
      <trkpt lat="47.16889" lon="3.02381">
        <ele>194.46267700195</ele>
        <time>2016-04-06T13:45:44.000Z</time>
      </trkpt>
      <trkpt lat="47.1689" lon="3.02379">
        <ele>194.1519317627</ele>
        <time>2016-04-06T13:45:46.000Z</time>
      </trkpt>
      <trkpt lat="47.16892" lon="3.02378">
        <ele>193.85803222656</ele>
        <time>2016-04-06T13:45:48.000Z</time>
      </trkpt>
      <trkpt lat="47.16896" lon="3.02376">
        <ele>193.56311035156</ele>
        <time>2016-04-06T13:45:51.000Z</time>
      </trkpt>
      <trkpt lat="47.16898" lon="3.02374">
        <ele>193.27432250977</ele>
        <time>2016-04-06T13:45:53.000Z</time>
      </trkpt>
      <trkpt lat="47.16902" lon="3.02371">
        <ele>192.94509887695</ele>
        <time>2016-04-06T13:45:56.000Z</time>
      </trkpt>
      <trkpt lat="47.16905" lon="3.02368">
        <ele>192.57043457031</ele>
        <time>2016-04-06T13:45:59.000Z</time>
      </trkpt>
      <trkpt lat="47.16906" lon="3.02366">
        <ele>192.18814086914</ele>
        <time>2016-04-06T13:46:01.000Z</time>
      </trkpt>
      <trkpt lat="47.16909" lon="3.02364">
        <ele>191.82209777832</ele>
        <time>2016-04-06T13:46:04.000Z</time>
      </trkpt>
      <trkpt lat="47.1691" lon="3.02363">
        <ele>191.47796630859</ele>
        <time>2016-04-06T13:46:06.000Z</time>
      </trkpt>
      <trkpt lat="47.16912" lon="3.02361">
        <ele>191.17900085449</ele>
        <time>2016-04-06T13:46:08.000Z</time>
      </trkpt>
      <trkpt lat="47.16915" lon="3.02361">
        <ele>190.92263793945</ele>
        <time>2016-04-06T13:46:10.000Z</time>
      </trkpt>
      <trkpt lat="47.16917" lon="3.0236">
        <ele>190.67939758301</ele>
        <time>2016-04-06T13:46:12.000Z</time>
      </trkpt>
      <trkpt lat="47.16919" lon="3.02359">
        <ele>190.466796875</ele>
        <time>2016-04-06T13:46:14.000Z</time>
      </trkpt>
      <trkpt lat="47.16922" lon="3.02357">
        <ele>190.22909545898</ele>
        <time>2016-04-06T13:46:17.000Z</time>
      </trkpt>
      <trkpt lat="47.16924" lon="3.02355">
        <ele>190.00634765625</ele>
        <time>2016-04-06T13:46:19.000Z</time>
      </trkpt>
      <trkpt lat="47.16926" lon="3.02353">
        <ele>189.76745605469</ele>
        <time>2016-04-06T13:46:22.000Z</time>
      </trkpt>
      <trkpt lat="47.16929" lon="3.02352">
        <ele>189.53570556641</ele>
        <time>2016-04-06T13:46:24.000Z</time>
      </trkpt>
      <trkpt lat="47.16932" lon="3.02351">
        <ele>189.28314208984</ele>
        <time>2016-04-06T13:46:27.000Z</time>
      </trkpt>
      <trkpt lat="47.16935" lon="3.02351">
        <ele>189.06704711914</ele>
        <time>2016-04-06T13:46:29.000Z</time>
      </trkpt>
      <trkpt lat="47.16938" lon="3.02348">
        <ele>188.82266235352</ele>
        <time>2016-04-06T13:46:32.000Z</time>
      </trkpt>
      <trkpt lat="47.16939" lon="3.02345">
        <ele>188.57734680176</ele>
        <time>2016-04-06T13:46:34.000Z</time>
      </trkpt>
      <trkpt lat="47.16941" lon="3.02344">
        <ele>188.32028198242</ele>
        <time>2016-04-06T13:46:37.000Z</time>
      </trkpt>
      <trkpt lat="47.16944" lon="3.02343">
        <ele>188.06802368164</ele>
        <time>2016-04-06T13:46:39.000Z</time>
      </trkpt>
      <trkpt lat="47.16946" lon="3.02343">
        <ele>187.8263092041</ele>
        <time>2016-04-06T13:46:41.000Z</time>
      </trkpt>
      <trkpt lat="47.16949" lon="3.02343">
        <ele>187.62467956543</ele>
        <time>2016-04-06T13:46:44.000Z</time>
      </trkpt>
      <trkpt lat="47.16953" lon="3.02342">
        <ele>187.45065307617</ele>
        <time>2016-04-06T13:46:46.000Z</time>
      </trkpt>
      <trkpt lat="47.16956" lon="3.02342">
        <ele>187.28051757812</ele>
        <time>2016-04-06T13:46:48.000Z</time>
      </trkpt>
      <trkpt lat="47.16959" lon="3.0234">
        <ele>187.08988952637</ele>
        <time>2016-04-06T13:46:51.000Z</time>
      </trkpt>
      <trkpt lat="47.16962" lon="3.0234">
        <ele>186.87683105469</ele>
        <time>2016-04-06T13:46:54.000Z</time>
      </trkpt>
      <trkpt lat="47.16963" lon="3.02339">
        <ele>186.68171691895</ele>
        <time>2016-04-06T13:46:56.000Z</time>
      </trkpt>
      <trkpt lat="47.16967" lon="3.02338">
        <ele>186.46267700195</ele>
        <time>2016-04-06T13:46:59.000Z</time>
      </trkpt>
      <trkpt lat="47.1697" lon="3.02338">
        <ele>186.24822998047</ele>
        <time>2016-04-06T13:47:02.000Z</time>
      </trkpt>
      <trkpt lat="47.16974" lon="3.02337">
        <ele>186.04373168945</ele>
        <time>2016-04-06T13:47:05.000Z</time>
      </trkpt>
      <trkpt lat="47.16978" lon="3.02336">
        <ele>185.82870483398</ele>
        <time>2016-04-06T13:47:08.000Z</time>
      </trkpt>
      <trkpt lat="47.16982" lon="3.02335">
        <ele>185.5771484375</ele>
        <time>2016-04-06T13:47:11.000Z</time>
      </trkpt>
      <trkpt lat="47.16985" lon="3.02335">
        <ele>185.34278869629</ele>
        <time>2016-04-06T13:47:14.000Z</time>
      </trkpt>
      <trkpt lat="47.16987" lon="3.02334">
        <ele>185.1145324707</ele>
        <time>2016-04-06T13:47:17.000Z</time>
      </trkpt>
      <trkpt lat="47.1699" lon="3.02334">
        <ele>184.90757751465</ele>
        <time>2016-04-06T13:47:19.000Z</time>
      </trkpt>
      <trkpt lat="47.16991" lon="3.02334">
        <ele>184.73008728027</ele>
        <time>2016-04-06T13:47:21.000Z</time>
      </trkpt>
      <trkpt lat="47.16995" lon="3.02333">
        <ele>184.55824279785</ele>
        <time>2016-04-06T13:47:24.000Z</time>
      </trkpt>
      <trkpt lat="47.16998" lon="3.02332">
        <ele>184.40547180176</ele>
        <time>2016-04-06T13:47:27.000Z</time>
      </trkpt>
      <trkpt lat="47.17" lon="3.0233">
        <ele>184.26931762695</ele>
        <time>2016-04-06T13:47:29.000Z</time>
      </trkpt>
      <trkpt lat="47.17002" lon="3.02327">
        <ele>184.19161987305</ele>
        <time>2016-04-06T13:47:32.000Z</time>
      </trkpt>
      <trkpt lat="47.17002" lon="3.02323">
        <ele>184.14622497559</ele>
        <time>2016-04-06T13:47:35.000Z</time>
      </trkpt>
      <trkpt lat="47.17004" lon="3.02319">
        <ele>184.17097473145</ele>
        <time>2016-04-06T13:47:38.000Z</time>
      </trkpt>
      <trkpt lat="47.17004" lon="3.02316">
        <ele>184.2244720459</ele>
        <time>2016-04-06T13:47:41.000Z</time>
      </trkpt>
      <trkpt lat="47.17002" lon="3.02314">
        <ele>184.2845916748</ele>
        <time>2016-04-06T13:47:44.000Z</time>
      </trkpt>
      <trkpt lat="47.17002" lon="3.02313">
        <ele>184.31736755371</ele>
        <time>2016-04-06T13:47:47.000Z</time>
      </trkpt>
      <trkpt lat="47.17" lon="3.02312">
        <ele>184.32595825195</ele>
        <time>2016-04-06T13:47:50.000Z</time>
      </trkpt>
      <trkpt lat="47.16999" lon="3.0231">
        <ele>184.32107543945</ele>
        <time>2016-04-06T13:47:53.000Z</time>
      </trkpt>
      <trkpt lat="47.16997" lon="3.0231">
        <ele>184.32455444336</ele>
        <time>2016-04-06T13:47:56.000Z</time>
      </trkpt>
      <trkpt lat="47.16998" lon="3.02304">
        <ele>184.34262084961</ele>
        <time>2016-04-06T13:48:05.000Z</time>
      </trkpt>
      <trkpt lat="47.16998" lon="3.02304">
        <ele>184.34262084961</ele>
        <time>2016-04-06T13:48:25.000Z</time>
      </trkpt>
      <trkpt lat="47.16998" lon="3.02303">
        <ele>184.36145019531</ele>
        <time>2016-04-06T13:49:44.000Z</time>
      </trkpt>
      <trkpt lat="47.17001" lon="3.02298">
        <ele>184.40608215332</ele>
        <time>2016-04-06T13:49:47.000Z</time>
      </trkpt>
      <trkpt lat="47.17003" lon="3.02295">
        <ele>184.4660949707</ele>
        <time>2016-04-06T13:49:49.000Z</time>
      </trkpt>
      <trkpt lat="47.17002" lon="3.02294">
        <ele>184.51156616211</ele>
        <time>2016-04-06T13:49:53.000Z</time>
      </trkpt>
      <trkpt lat="47.16999" lon="3.02293">
        <ele>184.52914428711</ele>
        <time>2016-04-06T13:49:55.000Z</time>
      </trkpt>
      <trkpt lat="47.16996" lon="3.02291">
        <ele>184.56703186035</ele>
        <time>2016-04-06T13:49:58.000Z</time>
      </trkpt>
      <trkpt lat="47.16993" lon="3.0229">
        <ele>184.60699462891</ele>
        <time>2016-04-06T13:50:01.000Z</time>
      </trkpt>
      <trkpt lat="47.16991" lon="3.02288">
        <ele>184.63064575195</ele>
        <time>2016-04-06T13:50:03.000Z</time>
      </trkpt>
      <trkpt lat="47.16988" lon="3.02288">
        <ele>184.6708984375</ele>
        <time>2016-04-06T13:50:06.000Z</time>
      </trkpt>
      <trkpt lat="47.16985" lon="3.02288">
        <ele>184.74234008789</ele>
        <time>2016-04-06T13:50:08.000Z</time>
      </trkpt>
      <trkpt lat="47.1698" lon="3.02287">
        <ele>184.8168182373</ele>
        <time>2016-04-06T13:50:11.000Z</time>
      </trkpt>
      <trkpt lat="47.16977" lon="3.02284">
        <ele>184.8879699707</ele>
        <time>2016-04-06T13:50:14.000Z</time>
      </trkpt>
      <trkpt lat="47.16976" lon="3.02282">
        <ele>184.95072937012</ele>
        <time>2016-04-06T13:50:16.000Z</time>
      </trkpt>
      <trkpt lat="47.16974" lon="3.02279">
        <ele>185.00576782227</ele>
        <time>2016-04-06T13:50:19.000Z</time>
      </trkpt>
      <trkpt lat="47.16971" lon="3.02277">
        <ele>185.05627441406</ele>
        <time>2016-04-06T13:50:21.000Z</time>
      </trkpt>
      <trkpt lat="47.16968" lon="3.02275">
        <ele>185.09309387207</ele>
        <time>2016-04-06T13:50:24.000Z</time>
      </trkpt>
      <trkpt lat="47.16965" lon="3.02273">
        <ele>185.12255859375</ele>
        <time>2016-04-06T13:50:27.000Z</time>
      </trkpt>
      <trkpt lat="47.16963" lon="3.02271">
        <ele>185.15168762207</ele>
        <time>2016-04-06T13:50:30.000Z</time>
      </trkpt>
      <trkpt lat="47.16959" lon="3.02269">
        <ele>185.17794799805</ele>
        <time>2016-04-06T13:50:33.000Z</time>
      </trkpt>
      <trkpt lat="47.16956" lon="3.02267">
        <ele>185.19900512695</ele>
        <time>2016-04-06T13:50:36.000Z</time>
      </trkpt>
      <trkpt lat="47.16954" lon="3.02266">
        <ele>185.21257019043</ele>
        <time>2016-04-06T13:50:38.000Z</time>
      </trkpt>
      <trkpt lat="47.16951" lon="3.02264">
        <ele>185.22087097168</ele>
        <time>2016-04-06T13:50:41.000Z</time>
      </trkpt>
      <trkpt lat="47.16949" lon="3.02263">
        <ele>185.22547912598</ele>
        <time>2016-04-06T13:50:44.000Z</time>
      </trkpt>
      <trkpt lat="47.16946" lon="3.02261">
        <ele>185.2223815918</ele>
        <time>2016-04-06T13:50:47.000Z</time>
      </trkpt>
      <trkpt lat="47.16945" lon="3.02259">
        <ele>185.21322631836</ele>
        <time>2016-04-06T13:50:49.000Z</time>
      </trkpt>
      <trkpt lat="47.16942" lon="3.02258">
        <ele>185.20327758789</ele>
        <time>2016-04-06T13:50:52.000Z</time>
      </trkpt>
      <trkpt lat="47.1694" lon="3.02257">
        <ele>185.18939208984</ele>
        <time>2016-04-06T13:50:54.000Z</time>
      </trkpt>
      <trkpt lat="47.16936" lon="3.02254">
        <ele>185.1654510498</ele>
        <time>2016-04-06T13:50:57.000Z</time>
      </trkpt>
      <trkpt lat="47.16933" lon="3.02253">
        <ele>185.1428527832</ele>
        <time>2016-04-06T13:51:00.000Z</time>
      </trkpt>
      <trkpt lat="47.16929" lon="3.02254">
        <ele>185.13137817383</ele>
        <time>2016-04-06T13:51:03.000Z</time>
      </trkpt>
      <trkpt lat="47.16927" lon="3.02254">
        <ele>185.12184143066</ele>
        <time>2016-04-06T13:51:05.000Z</time>
      </trkpt>
      <trkpt lat="47.16924" lon="3.02254">
        <ele>185.11750793457</ele>
        <time>2016-04-06T13:51:08.000Z</time>
      </trkpt>
      <trkpt lat="47.16919" lon="3.02254">
        <ele>185.1237487793</ele>
        <time>2016-04-06T13:51:11.000Z</time>
      </trkpt>
      <trkpt lat="47.16918" lon="3.02253">
        <ele>185.12893676758</ele>
        <time>2016-04-06T13:51:13.000Z</time>
      </trkpt>
      <trkpt lat="47.1691" lon="3.02251">
        <ele>185.20370483398</ele>
        <time>2016-04-06T13:51:16.000Z</time>
      </trkpt>
      <trkpt lat="47.16907" lon="3.0225">
        <ele>185.32218933105</ele>
        <time>2016-04-06T13:51:19.000Z</time>
      </trkpt>
      <trkpt lat="47.16904" lon="3.02249">
        <ele>185.48428344727</ele>
        <time>2016-04-06T13:51:22.000Z</time>
      </trkpt>
      <trkpt lat="47.16903" lon="3.02249">
        <ele>185.65306091309</ele>
        <time>2016-04-06T13:51:24.000Z</time>
      </trkpt>
      <trkpt lat="47.169" lon="3.02249">
        <ele>185.86541748047</ele>
        <time>2016-04-06T13:51:27.000Z</time>
      </trkpt>
      <trkpt lat="47.16897" lon="3.02249">
        <ele>186.04682922363</ele>
        <time>2016-04-06T13:51:29.000Z</time>
      </trkpt>
      <trkpt lat="47.16894" lon="3.02249">
        <ele>186.23086547852</ele>
        <time>2016-04-06T13:51:33.000Z</time>
      </trkpt>
      <trkpt lat="47.16893" lon="3.02249">
        <ele>186.38732910156</ele>
        <time>2016-04-06T13:51:34.000Z</time>
      </trkpt>
      <trkpt lat="47.16889" lon="3.02249">
        <ele>186.58474731445</ele>
        <time>2016-04-06T13:51:37.000Z</time>
      </trkpt>
      <trkpt lat="47.16885" lon="3.02248">
        <ele>186.80041503906</ele>
        <time>2016-04-06T13:51:41.000Z</time>
      </trkpt>
      <trkpt lat="47.16881" lon="3.02248">
        <ele>187.02114868164</ele>
        <time>2016-04-06T13:51:44.000Z</time>
      </trkpt>
      <trkpt lat="47.16875" lon="3.02249">
        <ele>187.27824401855</ele>
        <time>2016-04-06T13:51:48.000Z</time>
      </trkpt>
      <trkpt lat="47.16874" lon="3.02249">
        <ele>187.54347229004</ele>
        <time>2016-04-06T13:51:50.000Z</time>
      </trkpt>
      <trkpt lat="47.16871" lon="3.0225">
        <ele>187.80046081543</ele>
        <time>2016-04-06T13:51:52.000Z</time>
      </trkpt>
      <trkpt lat="47.16869" lon="3.0225">
        <ele>188.04626464844</ele>
        <time>2016-04-06T13:51:54.000Z</time>
      </trkpt>
      <trkpt lat="47.16866" lon="3.0225">
        <ele>188.28092956543</ele>
        <time>2016-04-06T13:51:57.000Z</time>
      </trkpt>
      <trkpt lat="47.16863" lon="3.0225">
        <ele>188.46830749512</ele>
        <time>2016-04-06T13:52:00.000Z</time>
      </trkpt>
      <trkpt lat="47.16861" lon="3.02252">
        <ele>188.6706237793</ele>
        <time>2016-04-06T13:52:03.000Z</time>
      </trkpt>
      <trkpt lat="47.16858" lon="3.02253">
        <ele>188.8840637207</ele>
        <time>2016-04-06T13:52:06.000Z</time>
      </trkpt>
      <trkpt lat="47.16853" lon="3.02252">
        <ele>189.12976074219</ele>
        <time>2016-04-06T13:52:09.000Z</time>
      </trkpt>
      <trkpt lat="47.1685" lon="3.02247">
        <ele>189.31704711914</ele>
        <time>2016-04-06T13:52:12.000Z</time>
      </trkpt>
      <trkpt lat="47.16849" lon="3.02244">
        <ele>189.44711303711</ele>
        <time>2016-04-06T13:52:15.000Z</time>
      </trkpt>
      <trkpt lat="47.16849" lon="3.02236">
        <ele>189.45068359375</ele>
        <time>2016-04-06T13:52:22.000Z</time>
      </trkpt>
      <trkpt lat="47.16849" lon="3.02229">
        <ele>189.32948303223</ele>
        <time>2016-04-06T13:52:24.000Z</time>
      </trkpt>
      <trkpt lat="47.16849" lon="3.02222">
        <ele>189.04763793945</ele>
        <time>2016-04-06T13:52:27.000Z</time>
      </trkpt>
      <trkpt lat="47.16847" lon="3.02217">
        <ele>188.74067687988</ele>
        <time>2016-04-06T13:52:30.000Z</time>
      </trkpt>
      <trkpt lat="47.16846" lon="3.02214">
        <ele>188.43057250977</ele>
        <time>2016-04-06T13:52:35.000Z</time>
      </trkpt>
      <trkpt lat="47.16845" lon="3.02205">
        <ele>188.10009765625</ele>
        <time>2016-04-06T13:52:38.000Z</time>
      </trkpt>
      <trkpt lat="47.16844" lon="3.02199">
        <ele>187.78207397461</ele>
        <time>2016-04-06T13:52:41.000Z</time>
      </trkpt>
      <trkpt lat="47.16842" lon="3.02193">
        <ele>187.4698638916</ele>
        <time>2016-04-06T13:52:44.000Z</time>
      </trkpt>
      <trkpt lat="47.16839" lon="3.02183">
        <ele>187.07794189453</ele>
        <time>2016-04-06T13:52:47.000Z</time>
      </trkpt>
      <trkpt lat="47.16837" lon="3.02177">
        <ele>186.63827514648</ele>
        <time>2016-04-06T13:52:50.000Z</time>
      </trkpt>
      <trkpt lat="47.16835" lon="3.02172">
        <ele>186.23377990723</ele>
        <time>2016-04-06T13:52:53.000Z</time>
      </trkpt>
      <trkpt lat="47.16833" lon="3.02169">
        <ele>185.83955383301</ele>
        <time>2016-04-06T13:52:56.000Z</time>
      </trkpt>
      <trkpt lat="47.16831" lon="3.02164">
        <ele>185.44764709473</ele>
        <time>2016-04-06T13:52:59.000Z</time>
      </trkpt>
      <trkpt lat="47.16829" lon="3.02161">
        <ele>185.11349487305</ele>
        <time>2016-04-06T13:53:02.000Z</time>
      </trkpt>
      <trkpt lat="47.16828" lon="3.02159">
        <ele>184.79443359375</ele>
        <time>2016-04-06T13:53:04.000Z</time>
      </trkpt>
      <trkpt lat="47.16826" lon="3.02153">
        <ele>184.3920135498</ele>
        <time>2016-04-06T13:53:07.000Z</time>
      </trkpt>
      <trkpt lat="47.16825" lon="3.02149">
        <ele>183.96716308594</ele>
        <time>2016-04-06T13:53:09.000Z</time>
      </trkpt>
      <trkpt lat="47.16824" lon="3.02144">
        <ele>183.48661804199</ele>
        <time>2016-04-06T13:53:12.000Z</time>
      </trkpt>
      <trkpt lat="47.16823" lon="3.0214">
        <ele>182.97305297852</ele>
        <time>2016-04-06T13:53:15.000Z</time>
      </trkpt>
      <trkpt lat="47.16823" lon="3.02136">
        <ele>182.39279174805</ele>
        <time>2016-04-06T13:53:18.000Z</time>
      </trkpt>
      <trkpt lat="47.16822" lon="3.0213">
        <ele>181.82363891602</ele>
        <time>2016-04-06T13:53:21.000Z</time>
      </trkpt>
      <trkpt lat="47.16822" lon="3.02125">
        <ele>181.20336914062</ele>
        <time>2016-04-06T13:53:23.000Z</time>
      </trkpt>
      <trkpt lat="47.16821" lon="3.02122">
        <ele>180.64683532715</ele>
        <time>2016-04-06T13:53:26.000Z</time>
      </trkpt>
      <trkpt lat="47.16821" lon="3.02117">
        <ele>180.03457641602</ele>
        <time>2016-04-06T13:53:29.000Z</time>
      </trkpt>
      <trkpt lat="47.16821" lon="3.02111">
        <ele>179.39506530762</ele>
        <time>2016-04-06T13:53:32.000Z</time>
      </trkpt>
      <trkpt lat="47.16822" lon="3.02107">
        <ele>178.78219604492</ele>
        <time>2016-04-06T13:53:34.000Z</time>
      </trkpt>
      <trkpt lat="47.16822" lon="3.02104">
        <ele>178.20500183105</ele>
        <time>2016-04-06T13:53:36.000Z</time>
      </trkpt>
      <trkpt lat="47.16822" lon="3.02102">
        <ele>177.61990356445</ele>
        <time>2016-04-06T13:53:38.000Z</time>
      </trkpt>
      <trkpt lat="47.16824" lon="3.02097">
        <ele>177.04039001465</ele>
        <time>2016-04-06T13:53:41.000Z</time>
      </trkpt>
      <trkpt lat="47.16825" lon="3.02094">
        <ele>176.50299072266</ele>
        <time>2016-04-06T13:53:43.000Z</time>
      </trkpt>
      <trkpt lat="47.16826" lon="3.02091">
        <ele>175.97323608398</ele>
        <time>2016-04-06T13:53:45.000Z</time>
      </trkpt>
      <trkpt lat="47.16827" lon="3.02088">
        <ele>175.43978881836</ele>
        <time>2016-04-06T13:53:47.000Z</time>
      </trkpt>
      <trkpt lat="47.16829" lon="3.02085">
        <ele>174.83905029297</ele>
        <time>2016-04-06T13:53:50.000Z</time>
      </trkpt>
      <trkpt lat="47.16831" lon="3.02083">
        <ele>174.30113220215</ele>
        <time>2016-04-06T13:53:52.000Z</time>
      </trkpt>
      <trkpt lat="47.16832" lon="3.02078">
        <ele>173.77067565918</ele>
        <time>2016-04-06T13:53:55.000Z</time>
      </trkpt>
      <trkpt lat="47.16834" lon="3.02075">
        <ele>173.2926940918</ele>
        <time>2016-04-06T13:53:57.000Z</time>
      </trkpt>
      <trkpt lat="47.16836" lon="3.02071">
        <ele>172.87075805664</ele>
        <time>2016-04-06T13:54:00.000Z</time>
      </trkpt>
      <trkpt lat="47.16839" lon="3.02069">
        <ele>172.56945800781</ele>
        <time>2016-04-06T13:54:03.000Z</time>
      </trkpt>
      <trkpt lat="47.16842" lon="3.02065">
        <ele>172.32743835449</ele>
        <time>2016-04-06T13:54:06.000Z</time>
      </trkpt>
      <trkpt lat="47.16845" lon="3.02062">
        <ele>172.16567993164</ele>
        <time>2016-04-06T13:54:09.000Z</time>
      </trkpt>
      <trkpt lat="47.16847" lon="3.02059">
        <ele>172.03475952148</ele>
        <time>2016-04-06T13:54:12.000Z</time>
      </trkpt>
      <trkpt lat="47.16849" lon="3.02057">
        <ele>171.92839050293</ele>
        <time>2016-04-06T13:54:15.000Z</time>
      </trkpt>
      <trkpt lat="47.16851" lon="3.02056">
        <ele>171.8420715332</ele>
        <time>2016-04-06T13:54:17.000Z</time>
      </trkpt>
      <trkpt lat="47.16853" lon="3.02055">
        <ele>171.77914428711</ele>
        <time>2016-04-06T13:54:20.000Z</time>
      </trkpt>
      <trkpt lat="47.16854" lon="3.02055">
        <ele>171.76002502441</ele>
        <time>2016-04-06T13:54:25.000Z</time>
      </trkpt>
      <trkpt lat="47.16857" lon="3.02054">
        <ele>171.76745605469</ele>
        <time>2016-04-06T13:54:28.000Z</time>
      </trkpt>
      <trkpt lat="47.16859" lon="3.0205">
        <ele>171.75149536133</ele>
        <time>2016-04-06T13:54:31.000Z</time>
      </trkpt>
      <trkpt lat="47.16862" lon="3.02045">
        <ele>171.69290161133</ele>
        <time>2016-04-06T13:54:34.000Z</time>
      </trkpt>
      <trkpt lat="47.16864" lon="3.02041">
        <ele>171.60166931152</ele>
        <time>2016-04-06T13:54:36.000Z</time>
      </trkpt>
      <trkpt lat="47.16867" lon="3.02035">
        <ele>171.43194580078</ele>
        <time>2016-04-06T13:54:39.000Z</time>
      </trkpt>
      <trkpt lat="47.16868" lon="3.02032">
        <ele>171.22549438477</ele>
        <time>2016-04-06T13:54:41.000Z</time>
      </trkpt>
      <trkpt lat="47.16869" lon="3.0203">
        <ele>171.03408813477</ele>
        <time>2016-04-06T13:54:43.000Z</time>
      </trkpt>
      <trkpt lat="47.1687" lon="3.02027">
        <ele>170.85974121094</ele>
        <time>2016-04-06T13:54:45.000Z</time>
      </trkpt>
      <trkpt lat="47.16871" lon="3.02023">
        <ele>170.67135620117</ele>
        <time>2016-04-06T13:54:47.000Z</time>
      </trkpt>
      <trkpt lat="47.16872" lon="3.02018">
        <ele>170.48876953125</ele>
        <time>2016-04-06T13:54:50.000Z</time>
      </trkpt>
      <trkpt lat="47.16873" lon="3.02014">
        <ele>170.29495239258</ele>
        <time>2016-04-06T13:54:53.000Z</time>
      </trkpt>
      <trkpt lat="47.16874" lon="3.02011">
        <ele>170.08657836914</ele>
        <time>2016-04-06T13:54:55.000Z</time>
      </trkpt>
      <trkpt lat="47.16875" lon="3.02006">
        <ele>169.85437011719</ele>
        <time>2016-04-06T13:54:58.000Z</time>
      </trkpt>
      <trkpt lat="47.16875" lon="3.02002">
        <ele>169.61787414551</ele>
        <time>2016-04-06T13:55:01.000Z</time>
      </trkpt>
      <trkpt lat="47.16876" lon="3.01999">
        <ele>169.40521240234</ele>
        <time>2016-04-06T13:55:04.000Z</time>
      </trkpt>
      <trkpt lat="47.16877" lon="3.01998">
        <ele>169.24772644043</ele>
        <time>2016-04-06T13:55:16.000Z</time>
      </trkpt>
      <trkpt lat="47.16877" lon="3.01997">
        <ele>169.11312866211</ele>
        <time>2016-04-06T13:55:23.000Z</time>
      </trkpt>
      <trkpt lat="47.16878" lon="3.01994">
        <ele>169.00163269043</ele>
        <time>2016-04-06T13:55:26.000Z</time>
      </trkpt>
      <trkpt lat="47.16878" lon="3.01991">
        <ele>168.91723632812</ele>
        <time>2016-04-06T13:55:28.000Z</time>
      </trkpt>
      <trkpt lat="47.16879" lon="3.01987">
        <ele>168.83325195312</ele>
        <time>2016-04-06T13:55:31.000Z</time>
      </trkpt>
      <trkpt lat="47.1688" lon="3.01985">
        <ele>168.72973632812</ele>
        <time>2016-04-06T13:55:33.000Z</time>
      </trkpt>
      <trkpt lat="47.16881" lon="3.01984">
        <ele>168.6396484375</ele>
        <time>2016-04-06T13:55:36.000Z</time>
      </trkpt>
      <trkpt lat="47.16882" lon="3.01984">
        <ele>168.57592773438</ele>
        <time>2016-04-06T13:55:38.000Z</time>
      </trkpt>
      <trkpt lat="47.16883" lon="3.01984">
        <ele>168.5517578125</ele>
        <time>2016-04-06T13:55:45.000Z</time>
      </trkpt>
      <trkpt lat="47.16883" lon="3.01983">
        <ele>168.54711914062</ele>
        <time>2016-04-06T13:55:50.000Z</time>
      </trkpt>
      <trkpt lat="47.16883" lon="3.01983">
        <ele>168.54711914062</ele>
        <time>2016-04-06T13:56:10.000Z</time>
      </trkpt>
      <trkpt lat="47.16882" lon="3.01981">
        <ele>168.53051757812</ele>
        <time>2016-04-06T13:56:11.000Z</time>
      </trkpt>
      <trkpt lat="47.16882" lon="3.01981">
        <ele>168.5068359375</ele>
        <time>2016-04-06T13:56:20.000Z</time>
      </trkpt>
      <trkpt lat="47.16882" lon="3.01977">
        <ele>168.451171875</ele>
        <time>2016-04-06T13:56:23.000Z</time>
      </trkpt>
      <trkpt lat="47.16883" lon="3.01974">
        <ele>168.35913085938</ele>
        <time>2016-04-06T13:56:25.000Z</time>
      </trkpt>
      <trkpt lat="47.16883" lon="3.01969">
        <ele>168.23022460938</ele>
        <time>2016-04-06T13:56:28.000Z</time>
      </trkpt>
      <trkpt lat="47.16884" lon="3.01966">
        <ele>168.10400390625</ele>
        <time>2016-04-06T13:56:30.000Z</time>
      </trkpt>
      <trkpt lat="47.16885" lon="3.01962">
        <ele>167.96044921875</ele>
        <time>2016-04-06T13:56:32.000Z</time>
      </trkpt>
      <trkpt lat="47.16888" lon="3.01956">
        <ele>167.80932617188</ele>
        <time>2016-04-06T13:56:35.000Z</time>
      </trkpt>
      <trkpt lat="47.16888" lon="3.01949">
        <ele>167.62231445312</ele>
        <time>2016-04-06T13:56:38.000Z</time>
      </trkpt>
      <trkpt lat="47.16888" lon="3.01945">
        <ele>167.44482421875</ele>
        <time>2016-04-06T13:56:40.000Z</time>
      </trkpt>
      <trkpt lat="47.16888" lon="3.01941">
        <ele>167.23974609375</ele>
        <time>2016-04-06T13:56:43.000Z</time>
      </trkpt>
      <trkpt lat="47.16888" lon="3.01935">
        <ele>166.99853515625</ele>
        <time>2016-04-06T13:56:46.000Z</time>
      </trkpt>
      <trkpt lat="47.16887" lon="3.01931">
        <ele>166.75708007812</ele>
        <time>2016-04-06T13:56:48.000Z</time>
      </trkpt>
      <trkpt lat="47.16885" lon="3.01925">
        <ele>166.50244140625</ele>
        <time>2016-04-06T13:56:51.000Z</time>
      </trkpt>
      <trkpt lat="47.16883" lon="3.01922">
        <ele>166.23168945312</ele>
        <time>2016-04-06T13:56:53.000Z</time>
      </trkpt>
      <trkpt lat="47.16881" lon="3.01918">
        <ele>165.94116210938</ele>
        <time>2016-04-06T13:56:56.000Z</time>
      </trkpt>
      <trkpt lat="47.1688" lon="3.01915">
        <ele>165.6794128418</ele>
        <time>2016-04-06T13:56:58.000Z</time>
      </trkpt>
      <trkpt lat="47.16878" lon="3.01911">
        <ele>165.42845153809</ele>
        <time>2016-04-06T13:57:00.000Z</time>
      </trkpt>
      <trkpt lat="47.16875" lon="3.01906">
        <ele>165.20930480957</ele>
        <time>2016-04-06T13:57:03.000Z</time>
      </trkpt>
      <trkpt lat="47.16874" lon="3.01904">
        <ele>165.01773071289</ele>
        <time>2016-04-06T13:57:05.000Z</time>
      </trkpt>
      <trkpt lat="47.16872" lon="3.01899">
        <ele>164.85972595215</ele>
        <time>2016-04-06T13:57:08.000Z</time>
      </trkpt>
      <trkpt lat="47.1687" lon="3.01896">
        <ele>164.712890625</ele>
        <time>2016-04-06T13:57:10.000Z</time>
      </trkpt>
      <trkpt lat="47.16868" lon="3.01891">
        <ele>164.56077575684</ele>
        <time>2016-04-06T13:57:13.000Z</time>
      </trkpt>
      <trkpt lat="47.16867" lon="3.0189">
        <ele>164.43795776367</ele>
        <time>2016-04-06T13:57:15.000Z</time>
      </trkpt>
      <trkpt lat="47.16864" lon="3.01885">
        <ele>164.30932617188</ele>
        <time>2016-04-06T13:57:18.000Z</time>
      </trkpt>
      <trkpt lat="47.16861" lon="3.01879">
        <ele>164.17781066895</ele>
        <time>2016-04-06T13:57:21.000Z</time>
      </trkpt>
      <trkpt lat="47.16859" lon="3.01874">
        <ele>164.04219055176</ele>
        <time>2016-04-06T13:57:24.000Z</time>
      </trkpt>
      <trkpt lat="47.16859" lon="3.01872">
        <ele>163.93608093262</ele>
        <time>2016-04-06T13:57:26.000Z</time>
      </trkpt>
      <trkpt lat="47.16859" lon="3.0187">
        <ele>163.83520507812</ele>
        <time>2016-04-06T13:57:29.000Z</time>
      </trkpt>
      <trkpt lat="47.16858" lon="3.01867">
        <ele>163.75109863281</ele>
        <time>2016-04-06T13:57:31.000Z</time>
      </trkpt>
      <trkpt lat="47.16858" lon="3.01862">
        <ele>163.69123840332</ele>
        <time>2016-04-06T13:57:34.000Z</time>
      </trkpt>
      <trkpt lat="47.16859" lon="3.01856">
        <ele>163.6487121582</ele>
        <time>2016-04-06T13:57:37.000Z</time>
      </trkpt>
      <trkpt lat="47.1686" lon="3.01854">
        <ele>163.61221313477</ele>
        <time>2016-04-06T13:57:40.000Z</time>
      </trkpt>
      <trkpt lat="47.16864" lon="3.01848">
        <ele>163.58451843262</ele>
        <time>2016-04-06T13:57:43.000Z</time>
      </trkpt>
      <trkpt lat="47.16868" lon="3.01846">
        <ele>163.57368469238</ele>
        <time>2016-04-06T13:57:45.000Z</time>
      </trkpt>
      <trkpt lat="47.1687" lon="3.01845">
        <ele>163.5813293457</ele>
        <time>2016-04-06T13:57:48.000Z</time>
      </trkpt>
      <trkpt lat="47.16871" lon="3.01845">
        <ele>163.60043334961</ele>
        <time>2016-04-06T13:57:51.000Z</time>
      </trkpt>
      <trkpt lat="47.16872" lon="3.01847">
        <ele>163.62634277344</ele>
        <time>2016-04-06T13:57:54.000Z</time>
      </trkpt>
      <trkpt lat="47.1687" lon="3.0184">
        <ele>163.62124633789</ele>
        <time>2016-04-06T13:57:57.000Z</time>
      </trkpt>
      <trkpt lat="47.1687" lon="3.01835">
        <ele>163.59451293945</ele>
        <time>2016-04-06T13:57:59.000Z</time>
      </trkpt>
      <trkpt lat="47.16872" lon="3.01827">
        <ele>163.53532409668</ele>
        <time>2016-04-06T13:58:02.000Z</time>
      </trkpt>
      <trkpt lat="47.16876" lon="3.01822">
        <ele>163.45237731934</ele>
        <time>2016-04-06T13:58:05.000Z</time>
      </trkpt>
      <trkpt lat="47.16879" lon="3.01818">
        <ele>163.34915161133</ele>
        <time>2016-04-06T13:58:07.000Z</time>
      </trkpt>
      <trkpt lat="47.1688" lon="3.01816">
        <ele>163.26725769043</ele>
        <time>2016-04-06T13:58:10.000Z</time>
      </trkpt>
      <trkpt lat="47.1688" lon="3.01816">
        <ele>163.26725769043</ele>
        <time>2016-04-06T13:58:30.000Z</time>
      </trkpt>
      <trkpt lat="47.16883" lon="3.01814">
        <ele>163.19885253906</ele>
        <time>2016-04-06T13:58:42.000Z</time>
      </trkpt>
      <trkpt lat="47.16885" lon="3.01815">
        <ele>163.16882324219</ele>
        <time>2016-04-06T13:58:44.000Z</time>
      </trkpt>
      <trkpt lat="47.16888" lon="3.01816">
        <ele>163.17175292969</ele>
        <time>2016-04-06T13:58:46.000Z</time>
      </trkpt>
      <trkpt lat="47.16893" lon="3.01815">
        <ele>163.19262695312</ele>
        <time>2016-04-06T13:58:49.000Z</time>
      </trkpt>
      <trkpt lat="47.16895" lon="3.01815">
        <ele>163.22399902344</ele>
        <time>2016-04-06T13:58:52.000Z</time>
      </trkpt>
      <trkpt lat="47.16901" lon="3.01814">
        <ele>163.27087402344</ele>
        <time>2016-04-06T13:58:55.000Z</time>
      </trkpt>
      <trkpt lat="47.16905" lon="3.01815">
        <ele>163.31750488281</ele>
        <time>2016-04-06T13:58:58.000Z</time>
      </trkpt>
      <trkpt lat="47.16908" lon="3.01816">
        <ele>163.36389160156</ele>
        <time>2016-04-06T13:59:01.000Z</time>
      </trkpt>
      <trkpt lat="47.1691" lon="3.01817">
        <ele>163.41625976562</ele>
        <time>2016-04-06T13:59:03.000Z</time>
      </trkpt>
      <trkpt lat="47.16913" lon="3.01819">
        <ele>163.47888183594</ele>
        <time>2016-04-06T13:59:05.000Z</time>
      </trkpt>
      <trkpt lat="47.16914" lon="3.01819">
        <ele>163.53430175781</ele>
        <time>2016-04-06T13:59:07.000Z</time>
      </trkpt>
      <trkpt lat="47.16916" lon="3.0182">
        <ele>163.58386230469</ele>
        <time>2016-04-06T13:59:10.000Z</time>
      </trkpt>
      <trkpt lat="47.16919" lon="3.01822">
        <ele>163.65090942383</ele>
        <time>2016-04-06T13:59:12.000Z</time>
      </trkpt>
      <trkpt lat="47.16924" lon="3.01824">
        <ele>163.7495880127</ele>
        <time>2016-04-06T13:59:14.000Z</time>
      </trkpt>
      <trkpt lat="47.16928" lon="3.01825">
        <ele>163.87037658691</ele>
        <time>2016-04-06T13:59:17.000Z</time>
      </trkpt>
      <trkpt lat="47.16932" lon="3.01825">
        <ele>164.01545715332</ele>
        <time>2016-04-06T13:59:19.000Z</time>
      </trkpt>
      <trkpt lat="47.16939" lon="3.01825">
        <ele>164.19888305664</ele>
        <time>2016-04-06T13:59:22.000Z</time>
      </trkpt>
      <trkpt lat="47.1694" lon="3.01824">
        <ele>164.35513305664</ele>
        <time>2016-04-06T13:59:24.000Z</time>
      </trkpt>
      <trkpt lat="47.16947" lon="3.0182">
        <ele>164.4923248291</ele>
        <time>2016-04-06T13:59:27.000Z</time>
      </trkpt>
      <trkpt lat="47.16952" lon="3.0182">
        <ele>164.62409973145</ele>
        <time>2016-04-06T13:59:30.000Z</time>
      </trkpt>
      <trkpt lat="47.16953" lon="3.01823">
        <ele>164.75068664551</ele>
        <time>2016-04-06T13:59:40.000Z</time>
      </trkpt>
      <trkpt lat="47.16954" lon="3.01823">
        <ele>164.83822631836</ele>
        <time>2016-04-06T13:59:42.000Z</time>
      </trkpt>
      <trkpt lat="47.16956" lon="3.01823">
        <ele>164.93957519531</ele>
        <time>2016-04-06T13:59:45.000Z</time>
      </trkpt>
      <trkpt lat="47.16959" lon="3.01821">
        <ele>165.02694702148</ele>
        <time>2016-04-06T13:59:47.000Z</time>
      </trkpt>
      <trkpt lat="47.16964" lon="3.01819">
        <ele>165.10563659668</ele>
        <time>2016-04-06T13:59:50.000Z</time>
      </trkpt>
      <trkpt lat="47.16968" lon="3.01819">
        <ele>165.18672180176</ele>
        <time>2016-04-06T13:59:52.000Z</time>
      </trkpt>
      <trkpt lat="47.16973" lon="3.01817">
        <ele>165.2825012207</ele>
        <time>2016-04-06T13:59:55.000Z</time>
      </trkpt>
      <trkpt lat="47.16978" lon="3.01816">
        <ele>165.38954162598</ele>
        <time>2016-04-06T13:59:58.000Z</time>
      </trkpt>
      <trkpt lat="47.16982" lon="3.01815">
        <ele>165.50483703613</ele>
        <time>2016-04-06T14:00:01.000Z</time>
      </trkpt>
      <trkpt lat="47.16985" lon="3.01812">
        <ele>165.59411621094</ele>
        <time>2016-04-06T14:00:04.000Z</time>
      </trkpt>
      <trkpt lat="47.16987" lon="3.01809">
        <ele>165.66018676758</ele>
        <time>2016-04-06T14:00:07.000Z</time>
      </trkpt>
      <trkpt lat="47.1699" lon="3.01807">
        <ele>165.70707702637</ele>
        <time>2016-04-06T14:00:10.000Z</time>
      </trkpt>
      <trkpt lat="47.16993" lon="3.01806">
        <ele>165.73687744141</ele>
        <time>2016-04-06T14:00:12.000Z</time>
      </trkpt>
      <trkpt lat="47.16996" lon="3.01806">
        <ele>165.76290893555</ele>
        <time>2016-04-06T14:00:15.000Z</time>
      </trkpt>
      <trkpt lat="47.16998" lon="3.01806">
        <ele>165.80966186523</ele>
        <time>2016-04-06T14:00:17.000Z</time>
      </trkpt>
      <trkpt lat="47.17002" lon="3.01806">
        <ele>165.87683105469</ele>
        <time>2016-04-06T14:00:20.000Z</time>
      </trkpt>
      <trkpt lat="47.17006" lon="3.01804">
        <ele>165.95541381836</ele>
        <time>2016-04-06T14:00:22.000Z</time>
      </trkpt>
      <trkpt lat="47.17009" lon="3.01802">
        <ele>166.02682495117</ele>
        <time>2016-04-06T14:00:25.000Z</time>
      </trkpt>
      <trkpt lat="47.17012" lon="3.01801">
        <ele>166.09091186523</ele>
        <time>2016-04-06T14:00:27.000Z</time>
      </trkpt>
      <trkpt lat="47.17014" lon="3.01801">
        <ele>166.15209960938</ele>
        <time>2016-04-06T14:00:30.000Z</time>
      </trkpt>
      <trkpt lat="47.17016" lon="3.01802">
        <ele>166.20970153809</ele>
        <time>2016-04-06T14:00:32.000Z</time>
      </trkpt>
      <trkpt lat="47.17019" lon="3.01803">
        <ele>166.28091430664</ele>
        <time>2016-04-06T14:00:35.000Z</time>
      </trkpt>
      <trkpt lat="47.17023" lon="3.01802">
        <ele>166.37026977539</ele>
        <time>2016-04-06T14:00:38.000Z</time>
      </trkpt>
      <trkpt lat="47.17026" lon="3.01803">
        <ele>166.46688842773</ele>
        <time>2016-04-06T14:00:41.000Z</time>
      </trkpt>
      <trkpt lat="47.17028" lon="3.01802">
        <ele>166.56355285645</ele>
        <time>2016-04-06T14:00:43.000Z</time>
      </trkpt>
      <trkpt lat="47.17031" lon="3.01802">
        <ele>166.64985656738</ele>
        <time>2016-04-06T14:00:45.000Z</time>
      </trkpt>
      <trkpt lat="47.17036" lon="3.018">
        <ele>166.71495056152</ele>
        <time>2016-04-06T14:00:48.000Z</time>
      </trkpt>
      <trkpt lat="47.17038" lon="3.01799">
        <ele>166.75801086426</ele>
        <time>2016-04-06T14:00:50.000Z</time>
      </trkpt>
      <trkpt lat="47.17041" lon="3.01797">
        <ele>166.78007507324</ele>
        <time>2016-04-06T14:00:53.000Z</time>
      </trkpt>
      <trkpt lat="47.17044" lon="3.01795">
        <ele>166.7879486084</ele>
        <time>2016-04-06T14:00:55.000Z</time>
      </trkpt>
      <trkpt lat="47.17047" lon="3.01794">
        <ele>166.78918457031</ele>
        <time>2016-04-06T14:00:57.000Z</time>
      </trkpt>
      <trkpt lat="47.1705" lon="3.01794">
        <ele>166.80194091797</ele>
        <time>2016-04-06T14:00:59.000Z</time>
      </trkpt>
      <trkpt lat="47.17052" lon="3.01794">
        <ele>166.82934570312</ele>
        <time>2016-04-06T14:01:01.000Z</time>
      </trkpt>
      <trkpt lat="47.17057" lon="3.01794">
        <ele>166.88093566895</ele>
        <time>2016-04-06T14:01:04.000Z</time>
      </trkpt>
      <trkpt lat="47.17059" lon="3.01794">
        <ele>166.9400177002</ele>
        <time>2016-04-06T14:01:06.000Z</time>
      </trkpt>
      <trkpt lat="47.1706" lon="3.01794">
        <ele>166.99935913086</ele>
        <time>2016-04-06T14:01:08.000Z</time>
      </trkpt>
      <trkpt lat="47.17067" lon="3.01793">
        <ele>167.06396484375</ele>
        <time>2016-04-06T14:01:11.000Z</time>
      </trkpt>
      <trkpt lat="47.17072" lon="3.01792">
        <ele>167.11827087402</ele>
        <time>2016-04-06T14:01:14.000Z</time>
      </trkpt>
      <trkpt lat="47.17075" lon="3.01791">
        <ele>167.16664123535</ele>
        <time>2016-04-06T14:01:17.000Z</time>
      </trkpt>
      <trkpt lat="47.17078" lon="3.01791">
        <ele>167.22396850586</ele>
        <time>2016-04-06T14:01:20.000Z</time>
      </trkpt>
      <trkpt lat="47.17081" lon="3.01789">
        <ele>167.25057983398</ele>
        <time>2016-04-06T14:01:23.000Z</time>
      </trkpt>
      <trkpt lat="47.17084" lon="3.01787">
        <ele>167.22914123535</ele>
        <time>2016-04-06T14:01:26.000Z</time>
      </trkpt>
      <trkpt lat="47.17085" lon="3.01785">
        <ele>167.16645812988</ele>
        <time>2016-04-06T14:01:29.000Z</time>
      </trkpt>
      <trkpt lat="47.17088" lon="3.01784">
        <ele>167.06021118164</ele>
        <time>2016-04-06T14:01:32.000Z</time>
      </trkpt>
      <trkpt lat="47.17096" lon="3.01787">
        <ele>166.9419708252</ele>
        <time>2016-04-06T14:01:35.000Z</time>
      </trkpt>
      <trkpt lat="47.17099" lon="3.01788">
        <ele>166.84541320801</ele>
        <time>2016-04-06T14:01:37.000Z</time>
      </trkpt>
      <trkpt lat="47.17101" lon="3.01789">
        <ele>166.77909851074</ele>
        <time>2016-04-06T14:01:39.000Z</time>
      </trkpt>
      <trkpt lat="47.17105" lon="3.0179">
        <ele>166.75102233887</ele>
        <time>2016-04-06T14:01:43.000Z</time>
      </trkpt>
      <trkpt lat="47.17109" lon="3.01788">
        <ele>166.7029876709</ele>
        <time>2016-04-06T14:01:45.000Z</time>
      </trkpt>
      <trkpt lat="47.17112" lon="3.01786">
        <ele>166.60733032227</ele>
        <time>2016-04-06T14:01:47.000Z</time>
      </trkpt>
      <trkpt lat="47.17115" lon="3.01783">
        <ele>166.46614074707</ele>
        <time>2016-04-06T14:01:50.000Z</time>
      </trkpt>
      <trkpt lat="47.17117" lon="3.01781">
        <ele>166.29267883301</ele>
        <time>2016-04-06T14:01:52.000Z</time>
      </trkpt>
      <trkpt lat="47.17121" lon="3.01782">
        <ele>166.10298156738</ele>
        <time>2016-04-06T14:02:03.000Z</time>
      </trkpt>
      <trkpt lat="47.17126" lon="3.01785">
        <ele>165.97138977051</ele>
        <time>2016-04-06T14:02:07.000Z</time>
      </trkpt>
      <trkpt lat="47.1713" lon="3.01785">
        <ele>165.87223815918</ele>
        <time>2016-04-06T14:02:08.000Z</time>
      </trkpt>
      <trkpt lat="47.17134" lon="3.01786">
        <ele>165.80500793457</ele>
        <time>2016-04-06T14:02:11.000Z</time>
      </trkpt>
      <trkpt lat="47.17138" lon="3.01786">
        <ele>165.75411987305</ele>
        <time>2016-04-06T14:02:13.000Z</time>
      </trkpt>
      <trkpt lat="47.17142" lon="3.01785">
        <ele>165.6858215332</ele>
        <time>2016-04-06T14:02:16.000Z</time>
      </trkpt>
      <trkpt lat="47.17148" lon="3.01784">
        <ele>165.57250976562</ele>
        <time>2016-04-06T14:02:19.000Z</time>
      </trkpt>
      <trkpt lat="47.17149" lon="3.01784">
        <ele>165.45944213867</ele>
        <time>2016-04-06T14:02:22.000Z</time>
      </trkpt>
      <trkpt lat="47.17154" lon="3.01781">
        <ele>165.3278503418</ele>
        <time>2016-04-06T14:02:25.000Z</time>
      </trkpt>
      <trkpt lat="47.17157" lon="3.01781">
        <ele>165.19357299805</ele>
        <time>2016-04-06T14:02:27.000Z</time>
      </trkpt>
      <trkpt lat="47.17161" lon="3.01782">
        <ele>165.07960510254</ele>
        <time>2016-04-06T14:02:30.000Z</time>
      </trkpt>
      <trkpt lat="47.17164" lon="3.01781">
        <ele>164.98483276367</ele>
        <time>2016-04-06T14:02:33.000Z</time>
      </trkpt>
      <trkpt lat="47.17166" lon="3.01781">
        <ele>164.88900756836</ele>
        <time>2016-04-06T14:02:40.000Z</time>
      </trkpt>
      <trkpt lat="47.1717" lon="3.01779">
        <ele>164.8132019043</ele>
        <time>2016-04-06T14:02:42.000Z</time>
      </trkpt>
      <trkpt lat="47.17176" lon="3.01772">
        <ele>164.7033996582</ele>
        <time>2016-04-06T14:02:45.000Z</time>
      </trkpt>
      <trkpt lat="47.1718" lon="3.01761">
        <ele>164.54606628418</ele>
        <time>2016-04-06T14:02:48.000Z</time>
      </trkpt>
      <trkpt lat="47.17183" lon="3.01758">
        <ele>164.38310241699</ele>
        <time>2016-04-06T14:02:50.000Z</time>
      </trkpt>
      <trkpt lat="47.17185" lon="3.01754">
        <ele>164.21044921875</ele>
        <time>2016-04-06T14:02:53.000Z</time>
      </trkpt>
      <trkpt lat="47.17186" lon="3.01752">
        <ele>164.04467773438</ele>
        <time>2016-04-06T14:02:56.000Z</time>
      </trkpt>
      <trkpt lat="47.17188" lon="3.01752">
        <ele>163.92126464844</ele>
        <time>2016-04-06T14:03:00.000Z</time>
      </trkpt>
      <trkpt lat="47.17193" lon="3.01752">
        <ele>163.84436035156</ele>
        <time>2016-04-06T14:03:07.000Z</time>
      </trkpt>
      <trkpt lat="47.17194" lon="3.01751">
        <ele>163.78747558594</ele>
        <time>2016-04-06T14:03:10.000Z</time>
      </trkpt>
      <trkpt lat="47.17197" lon="3.01751">
        <ele>163.74328613281</ele>
        <time>2016-04-06T14:03:12.000Z</time>
      </trkpt>
      <trkpt lat="47.17203" lon="3.0175">
        <ele>163.69140625</ele>
        <time>2016-04-06T14:03:15.000Z</time>
      </trkpt>
      <trkpt lat="47.17205" lon="3.01749">
        <ele>163.63716125488</ele>
        <time>2016-04-06T14:03:17.000Z</time>
      </trkpt>
      <trkpt lat="47.1721" lon="3.01743">
        <ele>163.53720092773</ele>
        <time>2016-04-06T14:03:20.000Z</time>
      </trkpt>
      <trkpt lat="47.17214" lon="3.0174">
        <ele>163.40896606445</ele>
        <time>2016-04-06T14:03:23.000Z</time>
      </trkpt>
      <trkpt lat="47.17218" lon="3.01737">
        <ele>163.25877380371</ele>
        <time>2016-04-06T14:03:26.000Z</time>
      </trkpt>
      <trkpt lat="47.1722" lon="3.01735">
        <ele>163.10552978516</ele>
        <time>2016-04-06T14:03:28.000Z</time>
      </trkpt>
      <trkpt lat="47.17223" lon="3.01731">
        <ele>162.93408203125</ele>
        <time>2016-04-06T14:03:31.000Z</time>
      </trkpt>
      <trkpt lat="47.17225" lon="3.0173">
        <ele>162.80596923828</ele>
        <time>2016-04-06T14:03:33.000Z</time>
      </trkpt>
      <trkpt lat="47.17228" lon="3.01728">
        <ele>162.68914794922</ele>
        <time>2016-04-06T14:03:36.000Z</time>
      </trkpt>
      <trkpt lat="47.17231" lon="3.01727">
        <ele>162.58441162109</ele>
        <time>2016-04-06T14:03:39.000Z</time>
      </trkpt>
      <trkpt lat="47.17234" lon="3.01726">
        <ele>162.494140625</ele>
        <time>2016-04-06T14:03:41.000Z</time>
      </trkpt>
      <trkpt lat="47.17242" lon="3.01725">
        <ele>162.40356445312</ele>
        <time>2016-04-06T14:03:44.000Z</time>
      </trkpt>
      <trkpt lat="47.17245" lon="3.01726">
        <ele>162.32189941406</ele>
        <time>2016-04-06T14:03:46.000Z</time>
      </trkpt>
      <trkpt lat="47.17248" lon="3.01725">
        <ele>162.24798583984</ele>
        <time>2016-04-06T14:03:51.000Z</time>
      </trkpt>
      <trkpt lat="47.17253" lon="3.01722">
        <ele>162.19546508789</ele>
        <time>2016-04-06T14:03:53.000Z</time>
      </trkpt>
      <trkpt lat="47.17256" lon="3.01721">
        <ele>162.15919494629</ele>
        <time>2016-04-06T14:03:55.000Z</time>
      </trkpt>
      <trkpt lat="47.17258" lon="3.01719">
        <ele>162.15397644043</ele>
        <time>2016-04-06T14:04:01.000Z</time>
      </trkpt>
      <trkpt lat="47.17259" lon="3.01718">
        <ele>162.15390014648</ele>
        <time>2016-04-06T14:04:03.000Z</time>
      </trkpt>
      <trkpt lat="47.17264" lon="3.01714">
        <ele>162.17529296875</ele>
        <time>2016-04-06T14:04:06.000Z</time>
      </trkpt>
      <trkpt lat="47.17266" lon="3.01714">
        <ele>162.20953369141</ele>
        <time>2016-04-06T14:04:09.000Z</time>
      </trkpt>
      <trkpt lat="47.17272" lon="3.01712">
        <ele>162.25915527344</ele>
        <time>2016-04-06T14:04:12.000Z</time>
      </trkpt>
      <trkpt lat="47.17277" lon="3.0171">
        <ele>162.32635498047</ele>
        <time>2016-04-06T14:04:15.000Z</time>
      </trkpt>
      <trkpt lat="47.17281" lon="3.01707">
        <ele>162.40179443359</ele>
        <time>2016-04-06T14:04:17.000Z</time>
      </trkpt>
      <trkpt lat="47.17285" lon="3.01704">
        <ele>162.47979736328</ele>
        <time>2016-04-06T14:04:20.000Z</time>
      </trkpt>
      <trkpt lat="47.17286" lon="3.01704">
        <ele>162.54699707031</ele>
        <time>2016-04-06T14:04:23.000Z</time>
      </trkpt>
      <trkpt lat="47.1729" lon="3.01703">
        <ele>162.61785888672</ele>
        <time>2016-04-06T14:04:25.000Z</time>
      </trkpt>
      <trkpt lat="47.17294" lon="3.01703">
        <ele>162.68817138672</ele>
        <time>2016-04-06T14:04:28.000Z</time>
      </trkpt>
      <trkpt lat="47.17297" lon="3.01704">
        <ele>162.78576660156</ele>
        <time>2016-04-06T14:04:30.000Z</time>
      </trkpt>
      <trkpt lat="47.17298" lon="3.01705">
        <ele>162.88061523438</ele>
        <time>2016-04-06T14:04:33.000Z</time>
      </trkpt>
      <trkpt lat="47.17301" lon="3.01707">
        <ele>163.00933837891</ele>
        <time>2016-04-06T14:04:36.000Z</time>
      </trkpt>
      <trkpt lat="47.17305" lon="3.01707">
        <ele>163.14392089844</ele>
        <time>2016-04-06T14:04:39.000Z</time>
      </trkpt>
      <trkpt lat="47.17308" lon="3.01705">
        <ele>163.26385498047</ele>
        <time>2016-04-06T14:04:42.000Z</time>
      </trkpt>
      <trkpt lat="47.17311" lon="3.01704">
        <ele>163.36328125</ele>
        <time>2016-04-06T14:04:44.000Z</time>
      </trkpt>
      <trkpt lat="47.17316" lon="3.01698">
        <ele>163.44567871094</ele>
        <time>2016-04-06T14:04:47.000Z</time>
      </trkpt>
      <trkpt lat="47.1732" lon="3.01693">
        <ele>163.48614501953</ele>
        <time>2016-04-06T14:04:50.000Z</time>
      </trkpt>
      <trkpt lat="47.17327" lon="3.01689">
        <ele>163.51342773438</ele>
        <time>2016-04-06T14:04:55.000Z</time>
      </trkpt>
      <trkpt lat="47.17332" lon="3.01686">
        <ele>163.54656982422</ele>
        <time>2016-04-06T14:04:58.000Z</time>
      </trkpt>
      <trkpt lat="47.17334" lon="3.01684">
        <ele>163.56832885742</ele>
        <time>2016-04-06T14:05:00.000Z</time>
      </trkpt>
      <trkpt lat="47.17341" lon="3.01681">
        <ele>163.5934753418</ele>
        <time>2016-04-06T14:05:03.000Z</time>
      </trkpt>
      <trkpt lat="47.17344" lon="3.0168">
        <ele>163.61845397949</ele>
        <time>2016-04-06T14:05:06.000Z</time>
      </trkpt>
      <trkpt lat="47.17348" lon="3.01678">
        <ele>163.62178039551</ele>
        <time>2016-04-06T14:05:09.000Z</time>
      </trkpt>
      <trkpt lat="47.17352" lon="3.01677">
        <ele>163.60580444336</ele>
        <time>2016-04-06T14:05:12.000Z</time>
      </trkpt>
      <trkpt lat="47.17354" lon="3.01676">
        <ele>163.58085632324</ele>
        <time>2016-04-06T14:05:14.000Z</time>
      </trkpt>
      <trkpt lat="47.17356" lon="3.01674">
        <ele>163.54742431641</ele>
        <time>2016-04-06T14:05:16.000Z</time>
      </trkpt>
      <trkpt lat="47.17357" lon="3.0167">
        <ele>163.47213745117</ele>
        <time>2016-04-06T14:05:19.000Z</time>
      </trkpt>
      <trkpt lat="47.17359" lon="3.01668">
        <ele>163.36672973633</ele>
        <time>2016-04-06T14:05:22.000Z</time>
      </trkpt>
      <trkpt lat="47.1736" lon="3.01662">
        <ele>163.20205688477</ele>
        <time>2016-04-06T14:05:24.000Z</time>
      </trkpt>
      <trkpt lat="47.17363" lon="3.01658">
        <ele>162.98905944824</ele>
        <time>2016-04-06T14:05:27.000Z</time>
      </trkpt>
      <trkpt lat="47.17367" lon="3.01655">
        <ele>162.7565612793</ele>
        <time>2016-04-06T14:05:31.000Z</time>
      </trkpt>
      <trkpt lat="47.1737" lon="3.01652">
        <ele>162.5337677002</ele>
        <time>2016-04-06T14:05:33.000Z</time>
      </trkpt>
      <trkpt lat="47.17372" lon="3.01651">
        <ele>162.32952880859</ele>
        <time>2016-04-06T14:05:35.000Z</time>
      </trkpt>
      <trkpt lat="47.17375" lon="3.01651">
        <ele>162.19586181641</ele>
        <time>2016-04-06T14:05:46.000Z</time>
      </trkpt>
      <trkpt lat="47.17377" lon="3.01653">
        <ele>162.13970947266</ele>
        <time>2016-04-06T14:05:49.000Z</time>
      </trkpt>
      <trkpt lat="47.17378" lon="3.01655">
        <ele>162.13787841797</ele>
        <time>2016-04-06T14:05:52.000Z</time>
      </trkpt>
      <trkpt lat="47.1738" lon="3.0166">
        <ele>162.23797607422</ele>
        <time>2016-04-06T14:05:55.000Z</time>
      </trkpt>
      <trkpt lat="47.17381" lon="3.01662">
        <ele>162.37744140625</ele>
        <time>2016-04-06T14:05:58.000Z</time>
      </trkpt>
      <trkpt lat="47.17382" lon="3.01664">
        <ele>162.53765869141</ele>
        <time>2016-04-06T14:06:00.000Z</time>
      </trkpt>
      <trkpt lat="47.17385" lon="3.01667">
        <ele>162.70455932617</ele>
        <time>2016-04-06T14:06:03.000Z</time>
      </trkpt>
      <trkpt lat="47.17388" lon="3.01666">
        <ele>162.83639526367</ele>
        <time>2016-04-06T14:06:05.000Z</time>
      </trkpt>
      <trkpt lat="47.17391" lon="3.01664">
        <ele>162.88125610352</ele>
        <time>2016-04-06T14:06:07.000Z</time>
      </trkpt>
      <trkpt lat="47.17396" lon="3.0166">
        <ele>162.85775756836</ele>
        <time>2016-04-06T14:06:10.000Z</time>
      </trkpt>
      <trkpt lat="47.174" lon="3.01659">
        <ele>162.78695678711</ele>
        <time>2016-04-06T14:06:13.000Z</time>
      </trkpt>
      <trkpt lat="47.17404" lon="3.01657">
        <ele>162.6630859375</ele>
        <time>2016-04-06T14:06:15.000Z</time>
      </trkpt>
      <trkpt lat="47.1741" lon="3.01654">
        <ele>162.52545166016</ele>
        <time>2016-04-06T14:06:18.000Z</time>
      </trkpt>
      <trkpt lat="47.17414" lon="3.01652">
        <ele>162.38232421875</ele>
        <time>2016-04-06T14:06:21.000Z</time>
      </trkpt>
      <trkpt lat="47.1742" lon="3.01649">
        <ele>162.2398223877</ele>
        <time>2016-04-06T14:06:24.000Z</time>
      </trkpt>
      <trkpt lat="47.17425" lon="3.01649">
        <ele>162.10195922852</ele>
        <time>2016-04-06T14:06:27.000Z</time>
      </trkpt>
      <trkpt lat="47.17427" lon="3.01648">
        <ele>161.97132873535</ele>
        <time>2016-04-06T14:06:29.000Z</time>
      </trkpt>
      <trkpt lat="47.1743" lon="3.01646">
        <ele>161.83248901367</ele>
        <time>2016-04-06T14:06:32.000Z</time>
      </trkpt>
      <trkpt lat="47.17431" lon="3.01644">
        <ele>161.69345092773</ele>
        <time>2016-04-06T14:06:34.000Z</time>
      </trkpt>
      <trkpt lat="47.17433" lon="3.01643">
        <ele>161.58117675781</ele>
        <time>2016-04-06T14:06:36.000Z</time>
      </trkpt>
      <trkpt lat="47.17435" lon="3.01642">
        <ele>161.46908569336</ele>
        <time>2016-04-06T14:06:39.000Z</time>
      </trkpt>
      <trkpt lat="47.17438" lon="3.01641">
        <ele>161.34548950195</ele>
        <time>2016-04-06T14:06:42.000Z</time>
      </trkpt>
      <trkpt lat="47.17442" lon="3.01639">
        <ele>161.22505187988</ele>
        <time>2016-04-06T14:06:45.000Z</time>
      </trkpt>
      <trkpt lat="47.17445" lon="3.01638">
        <ele>161.11018371582</ele>
        <time>2016-04-06T14:06:47.000Z</time>
      </trkpt>
      <trkpt lat="47.17447" lon="3.01637">
        <ele>160.98785400391</ele>
        <time>2016-04-06T14:06:49.000Z</time>
      </trkpt>
      <trkpt lat="47.1745" lon="3.01635">
        <ele>160.8479309082</ele>
        <time>2016-04-06T14:06:52.000Z</time>
      </trkpt>
      <trkpt lat="47.17453" lon="3.01634">
        <ele>160.70544433594</ele>
        <time>2016-04-06T14:06:55.000Z</time>
      </trkpt>
      <trkpt lat="47.17454" lon="3.01633">
        <ele>160.58737182617</ele>
        <time>2016-04-06T14:06:57.000Z</time>
      </trkpt>
      <trkpt lat="47.17456" lon="3.01633">
        <ele>160.4779510498</ele>
        <time>2016-04-06T14:07:07.000Z</time>
      </trkpt>
      <trkpt lat="47.1746" lon="3.01631">
        <ele>160.34773254395</ele>
        <time>2016-04-06T14:07:09.000Z</time>
      </trkpt>
      <trkpt lat="47.17469" lon="3.0163">
        <ele>160.21311950684</ele>
        <time>2016-04-06T14:07:12.000Z</time>
      </trkpt>
      <trkpt lat="47.17473" lon="3.01629">
        <ele>160.08050537109</ele>
        <time>2016-04-06T14:07:15.000Z</time>
      </trkpt>
      <trkpt lat="47.17475" lon="3.01628">
        <ele>159.93350219727</ele>
        <time>2016-04-06T14:07:18.000Z</time>
      </trkpt>
      <trkpt lat="47.17479" lon="3.01627">
        <ele>159.77163696289</ele>
        <time>2016-04-06T14:07:21.000Z</time>
      </trkpt>
      <trkpt lat="47.17482" lon="3.01625">
        <ele>159.61555480957</ele>
        <time>2016-04-06T14:07:24.000Z</time>
      </trkpt>
      <trkpt lat="47.17487" lon="3.01623">
        <ele>159.45167541504</ele>
        <time>2016-04-06T14:07:27.000Z</time>
      </trkpt>
      <trkpt lat="47.17489" lon="3.01622">
        <ele>159.294921875</ele>
        <time>2016-04-06T14:07:29.000Z</time>
      </trkpt>
      <trkpt lat="47.17491" lon="3.01621">
        <ele>159.14666748047</ele>
        <time>2016-04-06T14:07:32.000Z</time>
      </trkpt>
      <trkpt lat="47.17493" lon="3.01621">
        <ele>159.01132202148</ele>
        <time>2016-04-06T14:07:34.000Z</time>
      </trkpt>
      <trkpt lat="47.17495" lon="3.01619">
        <ele>158.8793182373</ele>
        <time>2016-04-06T14:07:37.000Z</time>
      </trkpt>
      <trkpt lat="47.17498" lon="3.01617">
        <ele>158.75752258301</ele>
        <time>2016-04-06T14:07:40.000Z</time>
      </trkpt>
      <trkpt lat="47.17501" lon="3.01616">
        <ele>158.6563873291</ele>
        <time>2016-04-06T14:07:43.000Z</time>
      </trkpt>
      <trkpt lat="47.17503" lon="3.01617">
        <ele>158.58915710449</ele>
        <time>2016-04-06T14:07:45.000Z</time>
      </trkpt>
      <trkpt lat="47.17507" lon="3.01616">
        <ele>158.55978393555</ele>
        <time>2016-04-06T14:07:48.000Z</time>
      </trkpt>
      <trkpt lat="47.1751" lon="3.01613">
        <ele>158.5517578125</ele>
        <time>2016-04-06T14:07:51.000Z</time>
      </trkpt>
      <trkpt lat="47.17513" lon="3.01611">
        <ele>158.58801269531</ele>
        <time>2016-04-06T14:07:54.000Z</time>
      </trkpt>
      <trkpt lat="47.17516" lon="3.01608">
        <ele>158.60681152344</ele>
        <time>2016-04-06T14:07:57.000Z</time>
      </trkpt>
      <trkpt lat="47.17518" lon="3.01606">
        <ele>158.60375976562</ele>
        <time>2016-04-06T14:08:00.000Z</time>
      </trkpt>
      <trkpt lat="47.1752" lon="3.01605">
        <ele>158.57824707031</ele>
        <time>2016-04-06T14:08:02.000Z</time>
      </trkpt>
      <trkpt lat="47.17522" lon="3.01604">
        <ele>158.56079101562</ele>
        <time>2016-04-06T14:08:05.000Z</time>
      </trkpt>
      <trkpt lat="47.17524" lon="3.01601">
        <ele>158.52270507812</ele>
        <time>2016-04-06T14:08:08.000Z</time>
      </trkpt>
      <trkpt lat="47.17532" lon="3.01599">
        <ele>158.54467773438</ele>
        <time>2016-04-06T14:08:20.000Z</time>
      </trkpt>
      <trkpt lat="47.17535" lon="3.01598">
        <ele>158.58630371094</ele>
        <time>2016-04-06T14:08:23.000Z</time>
      </trkpt>
      <trkpt lat="47.17532" lon="3.01599">
        <ele>158.6025390625</ele>
        <time>2016-04-06T14:08:30.000Z</time>
      </trkpt>
      <trkpt lat="47.17532" lon="3.01597">
        <ele>158.61181640625</ele>
        <time>2016-04-06T14:08:33.000Z</time>
      </trkpt>
      <trkpt lat="47.17536" lon="3.01595">
        <ele>158.63110351562</ele>
        <time>2016-04-06T14:08:36.000Z</time>
      </trkpt>
      <trkpt lat="47.1754" lon="3.01592">
        <ele>158.60314941406</ele>
        <time>2016-04-06T14:08:39.000Z</time>
      </trkpt>
      <trkpt lat="47.17542" lon="3.01591">
        <ele>158.564453125</ele>
        <time>2016-04-06T14:08:41.000Z</time>
      </trkpt>
      <trkpt lat="47.17546" lon="3.01589">
        <ele>158.55810546875</ele>
        <time>2016-04-06T14:08:44.000Z</time>
      </trkpt>
      <trkpt lat="47.17549" lon="3.01588">
        <ele>158.57373046875</ele>
        <time>2016-04-06T14:08:46.000Z</time>
      </trkpt>
      <trkpt lat="47.17552" lon="3.01587">
        <ele>158.61218261719</ele>
        <time>2016-04-06T14:08:48.000Z</time>
      </trkpt>
      <trkpt lat="47.17555" lon="3.01585">
        <ele>158.66162109375</ele>
        <time>2016-04-06T14:08:51.000Z</time>
      </trkpt>
      <trkpt lat="47.17557" lon="3.01584">
        <ele>158.70678710938</ele>
        <time>2016-04-06T14:08:53.000Z</time>
      </trkpt>
      <trkpt lat="47.1756" lon="3.01582">
        <ele>158.75253295898</ele>
        <time>2016-04-06T14:08:55.000Z</time>
      </trkpt>
      <trkpt lat="47.17563" lon="3.01582">
        <ele>158.81539916992</ele>
        <time>2016-04-06T14:08:58.000Z</time>
      </trkpt>
      <trkpt lat="47.17567" lon="3.01581">
        <ele>158.88862609863</ele>
        <time>2016-04-06T14:09:01.000Z</time>
      </trkpt>
      <trkpt lat="47.1757" lon="3.01578">
        <ele>158.95808410645</ele>
        <time>2016-04-06T14:09:04.000Z</time>
      </trkpt>
      <trkpt lat="47.17573" lon="3.01577">
        <ele>159.03436279297</ele>
        <time>2016-04-06T14:09:07.000Z</time>
      </trkpt>
      <trkpt lat="47.17577" lon="3.01575">
        <ele>159.11596679688</ele>
        <time>2016-04-06T14:09:10.000Z</time>
      </trkpt>
      <trkpt lat="47.17579" lon="3.01574">
        <ele>159.17111206055</ele>
        <time>2016-04-06T14:09:12.000Z</time>
      </trkpt>
      <trkpt lat="47.17582" lon="3.01572">
        <ele>159.1996307373</ele>
        <time>2016-04-06T14:09:15.000Z</time>
      </trkpt>
      <trkpt lat="47.17585" lon="3.0157">
        <ele>159.22341918945</ele>
        <time>2016-04-06T14:09:18.000Z</time>
      </trkpt>
      <trkpt lat="47.17588" lon="3.01569">
        <ele>159.2366027832</ele>
        <time>2016-04-06T14:09:20.000Z</time>
      </trkpt>
      <trkpt lat="47.17592" lon="3.01567">
        <ele>159.2409362793</ele>
        <time>2016-04-06T14:09:24.000Z</time>
      </trkpt>
      <trkpt lat="47.17594" lon="3.01566">
        <ele>159.23759460449</ele>
        <time>2016-04-06T14:09:25.000Z</time>
      </trkpt>
      <trkpt lat="47.17596" lon="3.01565">
        <ele>159.23364257812</ele>
        <time>2016-04-06T14:09:27.000Z</time>
      </trkpt>
      <trkpt lat="47.176" lon="3.01564">
        <ele>159.22723388672</ele>
        <time>2016-04-06T14:09:30.000Z</time>
      </trkpt>
      <trkpt lat="47.17602" lon="3.01563">
        <ele>159.22375488281</ele>
        <time>2016-04-06T14:09:32.000Z</time>
      </trkpt>
      <trkpt lat="47.17603" lon="3.01563">
        <ele>159.22613525391</ele>
        <time>2016-04-06T14:09:34.000Z</time>
      </trkpt>
      <trkpt lat="47.17604" lon="3.01563">
        <ele>159.23693847656</ele>
        <time>2016-04-06T14:09:50.000Z</time>
      </trkpt>
      <trkpt lat="47.17606" lon="3.01562">
        <ele>159.24432373047</ele>
        <time>2016-04-06T14:09:58.000Z</time>
      </trkpt>
      <trkpt lat="47.17608" lon="3.01562">
        <ele>159.26171875</ele>
        <time>2016-04-06T14:10:00.000Z</time>
      </trkpt>
      <trkpt lat="47.17611" lon="3.01561">
        <ele>159.28161621094</ele>
        <time>2016-04-06T14:10:02.000Z</time>
      </trkpt>
      <trkpt lat="47.17615" lon="3.01559">
        <ele>159.283203125</ele>
        <time>2016-04-06T14:10:05.000Z</time>
      </trkpt>
      <trkpt lat="47.17617" lon="3.01557">
        <ele>159.27587890625</ele>
        <time>2016-04-06T14:10:07.000Z</time>
      </trkpt>
      <trkpt lat="47.17619" lon="3.01556">
        <ele>159.2607421875</ele>
        <time>2016-04-06T14:10:10.000Z</time>
      </trkpt>
      <trkpt lat="47.1762" lon="3.01555">
        <ele>159.23614501953</ele>
        <time>2016-04-06T14:10:12.000Z</time>
      </trkpt>
      <trkpt lat="47.17625" lon="3.01552">
        <ele>159.19226074219</ele>
        <time>2016-04-06T14:10:15.000Z</time>
      </trkpt>
      <trkpt lat="47.17628" lon="3.0155">
        <ele>159.15570068359</ele>
        <time>2016-04-06T14:10:17.000Z</time>
      </trkpt>
      <trkpt lat="47.17632" lon="3.01549">
        <ele>159.12890625</ele>
        <time>2016-04-06T14:10:20.000Z</time>
      </trkpt>
      <trkpt lat="47.17635" lon="3.01548">
        <ele>159.11517333984</ele>
        <time>2016-04-06T14:10:22.000Z</time>
      </trkpt>
      <trkpt lat="47.17638" lon="3.01546">
        <ele>159.09692382812</ele>
        <time>2016-04-06T14:10:25.000Z</time>
      </trkpt>
      <trkpt lat="47.17641" lon="3.01546">
        <ele>159.10241699219</ele>
        <time>2016-04-06T14:10:27.000Z</time>
      </trkpt>
      <trkpt lat="47.17645" lon="3.01545">
        <ele>159.11492919922</ele>
        <time>2016-04-06T14:10:30.000Z</time>
      </trkpt>
      <trkpt lat="47.17648" lon="3.01544">
        <ele>159.13616943359</ele>
        <time>2016-04-06T14:10:32.000Z</time>
      </trkpt>
      <trkpt lat="47.17652" lon="3.01543">
        <ele>159.16400146484</ele>
        <time>2016-04-06T14:10:34.000Z</time>
      </trkpt>
      <trkpt lat="47.17654" lon="3.01543">
        <ele>159.20440673828</ele>
        <time>2016-04-06T14:10:38.000Z</time>
      </trkpt>
      <trkpt lat="47.17658" lon="3.01541">
        <ele>159.23681640625</ele>
        <time>2016-04-06T14:10:39.000Z</time>
      </trkpt>
      <trkpt lat="47.17661" lon="3.01539">
        <ele>159.24822998047</ele>
        <time>2016-04-06T14:10:42.000Z</time>
      </trkpt>
      <trkpt lat="47.17663" lon="3.01538">
        <ele>159.23950195312</ele>
        <time>2016-04-06T14:10:44.000Z</time>
      </trkpt>
      <trkpt lat="47.17664" lon="3.01537">
        <ele>159.22381591797</ele>
        <time>2016-04-06T14:10:47.000Z</time>
      </trkpt>
      <trkpt lat="47.1767" lon="3.01534">
        <ele>159.2106628418</ele>
        <time>2016-04-06T14:10:52.000Z</time>
      </trkpt>
      <trkpt lat="47.17675" lon="3.01531">
        <ele>159.21253967285</ele>
        <time>2016-04-06T14:10:55.000Z</time>
      </trkpt>
      <trkpt lat="47.17678" lon="3.0153">
        <ele>159.24649047852</ele>
        <time>2016-04-06T14:10:58.000Z</time>
      </trkpt>
      <trkpt lat="47.1768" lon="3.01529">
        <ele>159.29922485352</ele>
        <time>2016-04-06T14:11:07.000Z</time>
      </trkpt>
      <trkpt lat="47.17679" lon="3.01531">
        <ele>159.3618927002</ele>
        <time>2016-04-06T14:11:10.000Z</time>
      </trkpt>
      <trkpt lat="47.17682" lon="3.01531">
        <ele>159.45077514648</ele>
        <time>2016-04-06T14:11:13.000Z</time>
      </trkpt>
      <trkpt lat="47.17686" lon="3.0153">
        <ele>159.5562286377</ele>
        <time>2016-04-06T14:11:16.000Z</time>
      </trkpt>
      <trkpt lat="47.17691" lon="3.0153">
        <ele>159.68696594238</ele>
        <time>2016-04-06T14:11:19.000Z</time>
      </trkpt>
      <trkpt lat="47.17692" lon="3.01528">
        <ele>159.80157470703</ele>
        <time>2016-04-06T14:11:21.000Z</time>
      </trkpt>
      <trkpt lat="47.17695" lon="3.01526">
        <ele>159.91226196289</ele>
        <time>2016-04-06T14:11:24.000Z</time>
      </trkpt>
      <trkpt lat="47.17698" lon="3.01525">
        <ele>159.99339294434</ele>
        <time>2016-04-06T14:11:26.000Z</time>
      </trkpt>
      <trkpt lat="47.177" lon="3.01522">
        <ele>160.03762817383</ele>
        <time>2016-04-06T14:11:29.000Z</time>
      </trkpt>
      <trkpt lat="47.17702" lon="3.01522">
        <ele>160.05862426758</ele>
        <time>2016-04-06T14:11:31.000Z</time>
      </trkpt>
      <trkpt lat="47.17704" lon="3.01521">
        <ele>160.08853149414</ele>
        <time>2016-04-06T14:11:33.000Z</time>
      </trkpt>
      <trkpt lat="47.17708" lon="3.01519">
        <ele>160.12153625488</ele>
        <time>2016-04-06T14:11:36.000Z</time>
      </trkpt>
      <trkpt lat="47.1771" lon="3.01517">
        <ele>160.15731811523</ele>
        <time>2016-04-06T14:11:39.000Z</time>
      </trkpt>
      <trkpt lat="47.17712" lon="3.01516">
        <ele>160.2018737793</ele>
        <time>2016-04-06T14:11:41.000Z</time>
      </trkpt>
      <trkpt lat="47.17714" lon="3.01515">
        <ele>160.22811889648</ele>
        <time>2016-04-06T14:11:43.000Z</time>
      </trkpt>
      <trkpt lat="47.17715" lon="3.01515">
        <ele>160.25765991211</ele>
        <time>2016-04-06T14:11:45.000Z</time>
      </trkpt>
      <trkpt lat="47.17717" lon="3.01516">
        <ele>160.3176574707</ele>
        <time>2016-04-06T14:11:48.000Z</time>
      </trkpt>
      <trkpt lat="47.17719" lon="3.01518">
        <ele>160.41389465332</ele>
        <time>2016-04-06T14:11:52.000Z</time>
      </trkpt>
      <trkpt lat="47.17719" lon="3.01519">
        <ele>160.5237121582</ele>
        <time>2016-04-06T14:11:55.000Z</time>
      </trkpt>
      <trkpt lat="47.17722" lon="3.01518">
        <ele>160.64065551758</ele>
        <time>2016-04-06T14:12:01.000Z</time>
      </trkpt>
      <trkpt lat="47.17725" lon="3.0152">
        <ele>160.80947875977</ele>
        <time>2016-04-06T14:12:04.000Z</time>
      </trkpt>
      <trkpt lat="47.17725" lon="3.01518">
        <ele>160.91262817383</ele>
        <time>2016-04-06T14:12:07.000Z</time>
      </trkpt>
      <trkpt lat="47.17728" lon="3.01514">
        <ele>160.95056152344</ele>
        <time>2016-04-06T14:12:10.000Z</time>
      </trkpt>
      <trkpt lat="47.17731" lon="3.01511">
        <ele>160.95979309082</ele>
        <time>2016-04-06T14:12:13.000Z</time>
      </trkpt>
      <trkpt lat="47.17733" lon="3.01509">
        <ele>160.94711303711</ele>
        <time>2016-04-06T14:12:16.000Z</time>
      </trkpt>
      <trkpt lat="47.17733" lon="3.01509">
        <ele>160.94711303711</ele>
        <time>2016-04-06T14:12:36.000Z</time>
      </trkpt>
      <trkpt lat="47.17731" lon="3.01508">
        <ele>160.84892272949</ele>
        <time>2016-04-06T14:12:57.000Z</time>
      </trkpt>
      <trkpt lat="47.17731" lon="3.01508">
        <ele>160.84892272949</ele>
        <time>2016-04-06T14:13:17.000Z</time>
      </trkpt>
      <trkpt lat="47.17733" lon="3.01507">
        <ele>160.7844543457</ele>
        <time>2016-04-06T14:13:29.000Z</time>
      </trkpt>
      <trkpt lat="47.17736" lon="3.01505">
        <ele>160.74792480469</ele>
        <time>2016-04-06T14:13:31.000Z</time>
      </trkpt>
      <trkpt lat="47.17742" lon="3.01503">
        <ele>160.74786376953</ele>
        <time>2016-04-06T14:13:34.000Z</time>
      </trkpt>
      <trkpt lat="47.17747" lon="3.01501">
        <ele>160.77284240723</ele>
        <time>2016-04-06T14:13:36.000Z</time>
      </trkpt>
      <trkpt lat="47.17752" lon="3.015">
        <ele>160.8415222168</ele>
        <time>2016-04-06T14:13:39.000Z</time>
      </trkpt>
      <trkpt lat="47.17756" lon="3.01499">
        <ele>160.87561035156</ele>
        <time>2016-04-06T14:13:42.000Z</time>
      </trkpt>
      <trkpt lat="47.17756" lon="3.01497">
        <ele>160.88331604004</ele>
        <time>2016-04-06T14:13:48.000Z</time>
      </trkpt>
      <trkpt lat="47.1776" lon="3.01496">
        <ele>160.84982299805</ele>
        <time>2016-04-06T14:13:51.000Z</time>
      </trkpt>
      <trkpt lat="47.17764" lon="3.01495">
        <ele>160.7880859375</ele>
        <time>2016-04-06T14:13:53.000Z</time>
      </trkpt>
      <trkpt lat="47.17768" lon="3.01496">
        <ele>160.71331787109</ele>
        <time>2016-04-06T14:13:56.000Z</time>
      </trkpt>
      <trkpt lat="47.17771" lon="3.01495">
        <ele>160.64624023438</ele>
        <time>2016-04-06T14:13:58.000Z</time>
      </trkpt>
      <trkpt lat="47.17774" lon="3.01495">
        <ele>160.60522460938</ele>
        <time>2016-04-06T14:14:00.000Z</time>
      </trkpt>
      <trkpt lat="47.17777" lon="3.01494">
        <ele>160.56036376953</ele>
        <time>2016-04-06T14:14:03.000Z</time>
      </trkpt>
      <trkpt lat="47.1778" lon="3.01493">
        <ele>160.52233886719</ele>
        <time>2016-04-06T14:14:06.000Z</time>
      </trkpt>
      <trkpt lat="47.1778" lon="3.01496">
        <ele>160.53259277344</ele>
        <time>2016-04-06T14:14:09.000Z</time>
      </trkpt>
      <trkpt lat="47.17781" lon="3.015">
        <ele>160.62619018555</ele>
        <time>2016-04-06T14:14:12.000Z</time>
      </trkpt>
      <trkpt lat="47.17782" lon="3.01503">
        <ele>160.76097106934</ele>
        <time>2016-04-06T14:14:14.000Z</time>
      </trkpt>
      <trkpt lat="47.17783" lon="3.01511">
        <ele>161.02095031738</ele>
        <time>2016-04-06T14:14:22.000Z</time>
      </trkpt>
      <trkpt lat="47.17785" lon="3.01512">
        <ele>161.30752563477</ele>
        <time>2016-04-06T14:14:24.000Z</time>
      </trkpt>
      <trkpt lat="47.17788" lon="3.01512">
        <ele>161.5419921875</ele>
        <time>2016-04-06T14:14:27.000Z</time>
      </trkpt>
      <trkpt lat="47.17791" lon="3.0151">
        <ele>161.68408203125</ele>
        <time>2016-04-06T14:14:30.000Z</time>
      </trkpt>
      <trkpt lat="47.17793" lon="3.01508">
        <ele>161.75439453125</ele>
        <time>2016-04-06T14:14:33.000Z</time>
      </trkpt>
      <trkpt lat="47.17796" lon="3.01507">
        <ele>161.70568847656</ele>
        <time>2016-04-06T14:14:37.000Z</time>
      </trkpt>
      <trkpt lat="47.17801" lon="3.01505">
        <ele>161.61267089844</ele>
        <time>2016-04-06T14:14:39.000Z</time>
      </trkpt>
      <trkpt lat="47.17805" lon="3.01502">
        <ele>161.47241210938</ele>
        <time>2016-04-06T14:14:41.000Z</time>
      </trkpt>
      <trkpt lat="47.17809" lon="3.01503">
        <ele>161.36401367188</ele>
        <time>2016-04-06T14:14:44.000Z</time>
      </trkpt>
      <trkpt lat="47.1781" lon="3.01501">
        <ele>161.26330566406</ele>
        <time>2016-04-06T14:14:47.000Z</time>
      </trkpt>
      <trkpt lat="47.17811" lon="3.01499">
        <ele>161.1481628418</ele>
        <time>2016-04-06T14:14:50.000Z</time>
      </trkpt>
      <trkpt lat="47.17815" lon="3.01502">
        <ele>161.0954284668</ele>
        <time>2016-04-06T14:14:56.000Z</time>
      </trkpt>
      <trkpt lat="47.17817" lon="3.015">
        <ele>161.0719909668</ele>
        <time>2016-04-06T14:14:58.000Z</time>
      </trkpt>
      <trkpt lat="47.17822" lon="3.01499">
        <ele>161.02375793457</ele>
        <time>2016-04-06T14:15:00.000Z</time>
      </trkpt>
      <trkpt lat="47.17826" lon="3.01498">
        <ele>160.98045349121</ele>
        <time>2016-04-06T14:15:02.000Z</time>
      </trkpt>
      <trkpt lat="47.17827" lon="3.01498">
        <ele>160.95097351074</ele>
        <time>2016-04-06T14:15:04.000Z</time>
      </trkpt>
      <trkpt lat="47.17829" lon="3.01499">
        <ele>160.90243530273</ele>
        <time>2016-04-06T14:15:17.000Z</time>
      </trkpt>
      <trkpt lat="47.17832" lon="3.01497">
        <ele>160.84234619141</ele>
        <time>2016-04-06T14:15:17.000Z</time>
      </trkpt>
      <trkpt lat="47.17838" lon="3.01493">
        <ele>160.82028198242</ele>
        <time>2016-04-06T14:15:19.000Z</time>
      </trkpt>
      <trkpt lat="47.1784" lon="3.01491">
        <ele>160.81051635742</ele>
        <time>2016-04-06T14:15:20.000Z</time>
      </trkpt>
      <trkpt lat="47.17842" lon="3.01485">
        <ele>160.75459289551</ele>
        <time>2016-04-06T14:15:20.000Z</time>
      </trkpt>
      <trkpt lat="47.17843" lon="3.01479">
        <ele>160.58488464355</ele>
        <time>2016-04-06T14:15:21.000Z</time>
      </trkpt>
      <trkpt lat="47.17843" lon="3.01477">
        <ele>160.42771911621</ele>
        <time>2016-04-06T14:15:23.000Z</time>
      </trkpt>
      <trkpt lat="47.17846" lon="3.01476">
        <ele>160.25881958008</ele>
        <time>2016-04-06T14:15:31.000Z</time>
      </trkpt>
      <trkpt lat="47.17847" lon="3.01479">
        <ele>160.16845703125</ele>
        <time>2016-04-06T14:15:33.000Z</time>
      </trkpt>
      <trkpt lat="47.17848" lon="3.01483">
        <ele>160.24342346191</ele>
        <time>2016-04-06T14:15:38.000Z</time>
      </trkpt>
      <trkpt lat="47.17848" lon="3.01485">
        <ele>160.45217895508</ele>
        <time>2016-04-06T14:15:39.000Z</time>
      </trkpt>
      <trkpt lat="47.1785" lon="3.01488">
        <ele>160.76254272461</ele>
        <time>2016-04-06T14:15:44.000Z</time>
      </trkpt>
      <trkpt lat="47.17853" lon="3.0149">
        <ele>161.14324951172</ele>
        <time>2016-04-06T14:15:44.000Z</time>
      </trkpt>
      <trkpt lat="47.17854" lon="3.01496">
        <ele>161.59439086914</ele>
        <time>2016-04-06T14:15:47.000Z</time>
      </trkpt>
      <trkpt lat="47.17856" lon="3.01498">
        <ele>162.00790405273</ele>
        <time>2016-04-06T14:15:49.000Z</time>
      </trkpt>
      <trkpt lat="47.1786" lon="3.01499">
        <ele>162.48831176758</ele>
        <time>2016-04-06T14:15:52.000Z</time>
      </trkpt>
      <trkpt lat="47.17861" lon="3.01499">
        <ele>162.90490722656</ele>
        <time>2016-04-06T14:15:55.000Z</time>
      </trkpt>
      <trkpt lat="47.17858" lon="3.01502">
        <ele>163.24105834961</ele>
        <time>2016-04-06T14:15:58.000Z</time>
      </trkpt>
      <trkpt lat="47.1786" lon="3.01501">
        <ele>163.44834899902</ele>
        <time>2016-04-06T14:16:02.000Z</time>
      </trkpt>
      <trkpt lat="47.17863" lon="3.015">
        <ele>163.61370849609</ele>
        <time>2016-04-06T14:16:05.000Z</time>
      </trkpt>
      <trkpt lat="47.17866" lon="3.01498">
        <ele>163.70320129395</ele>
        <time>2016-04-06T14:16:08.000Z</time>
      </trkpt>
      <trkpt lat="47.17868" lon="3.01498">
        <ele>163.81729125977</ele>
        <time>2016-04-06T14:16:10.000Z</time>
      </trkpt>
      <trkpt lat="47.17872" lon="3.01498">
        <ele>164.00682067871</ele>
        <time>2016-04-06T14:16:13.000Z</time>
      </trkpt>
      <trkpt lat="47.17878" lon="3.01498">
        <ele>164.27883911133</ele>
        <time>2016-04-06T14:16:16.000Z</time>
      </trkpt>
      <trkpt lat="47.1788" lon="3.01498">
        <ele>164.56755065918</ele>
        <time>2016-04-06T14:16:18.000Z</time>
      </trkpt>
      <trkpt lat="47.17884" lon="3.01495">
        <ele>164.84442138672</ele>
        <time>2016-04-06T14:16:21.000Z</time>
      </trkpt>
      <trkpt lat="47.17886" lon="3.01494">
        <ele>165.09216308594</ele>
        <time>2016-04-06T14:16:23.000Z</time>
      </trkpt>
      <trkpt lat="47.1789" lon="3.01494">
        <ele>165.32484436035</ele>
        <time>2016-04-06T14:16:25.000Z</time>
      </trkpt>
      <trkpt lat="47.17893" lon="3.01494">
        <ele>165.50630187988</ele>
        <time>2016-04-06T14:16:28.000Z</time>
      </trkpt>
      <trkpt lat="47.17895" lon="3.01489">
        <ele>165.59307861328</ele>
        <time>2016-04-06T14:16:31.000Z</time>
      </trkpt>
      <trkpt lat="47.17898" lon="3.01488">
        <ele>165.69165039062</ele>
        <time>2016-04-06T14:16:34.000Z</time>
      </trkpt>
      <trkpt lat="47.17902" lon="3.01488">
        <ele>165.82740783691</ele>
        <time>2016-04-06T14:16:38.000Z</time>
      </trkpt>
      <trkpt lat="47.17904" lon="3.01488">
        <ele>165.94735717773</ele>
        <time>2016-04-06T14:16:39.000Z</time>
      </trkpt>
      <trkpt lat="47.17905" lon="3.01488">
        <ele>166.03567504883</ele>
        <time>2016-04-06T14:16:41.000Z</time>
      </trkpt>
      <trkpt lat="47.17906" lon="3.01488">
        <ele>166.19158935547</ele>
        <time>2016-04-06T14:16:44.000Z</time>
      </trkpt>
      <trkpt lat="47.17907" lon="3.01488">
        <ele>166.35557556152</ele>
        <time>2016-04-06T14:16:47.000Z</time>
      </trkpt>
      <trkpt lat="47.17909" lon="3.0149">
        <ele>166.52949523926</ele>
        <time>2016-04-06T14:16:50.000Z</time>
      </trkpt>
      <trkpt lat="47.17908" lon="3.01492">
        <ele>166.71890258789</ele>
        <time>2016-04-06T14:16:53.000Z</time>
      </trkpt>
      <trkpt lat="47.17908" lon="3.01494">
        <ele>166.91653442383</ele>
        <time>2016-04-06T14:16:55.000Z</time>
      </trkpt>
      <trkpt lat="47.17908" lon="3.01495">
        <ele>167.13388061523</ele>
        <time>2016-04-06T14:16:57.000Z</time>
      </trkpt>
      <trkpt lat="47.17907" lon="3.01497">
        <ele>167.33108520508</ele>
        <time>2016-04-06T14:17:00.000Z</time>
      </trkpt>
      <trkpt lat="47.17905" lon="3.01499">
        <ele>167.48959350586</ele>
        <time>2016-04-06T14:17:03.000Z</time>
      </trkpt>
      <trkpt lat="47.17904" lon="3.01502">
        <ele>167.64868164062</ele>
        <time>2016-04-06T14:17:06.000Z</time>
      </trkpt>
      <trkpt lat="47.17902" lon="3.01504">
        <ele>167.79788208008</ele>
        <time>2016-04-06T14:17:08.000Z</time>
      </trkpt>
      <trkpt lat="47.179" lon="3.01506">
        <ele>167.92263793945</ele>
        <time>2016-04-06T14:17:10.000Z</time>
      </trkpt>
      <trkpt lat="47.17896" lon="3.01508">
        <ele>168.0216217041</ele>
        <time>2016-04-06T14:17:13.000Z</time>
      </trkpt>
      <trkpt lat="47.17894" lon="3.01511">
        <ele>168.10806274414</ele>
        <time>2016-04-06T14:17:16.000Z</time>
      </trkpt>
      <trkpt lat="47.17894" lon="3.01512">
        <ele>168.16323852539</ele>
        <time>2016-04-06T14:17:18.000Z</time>
      </trkpt>
      <trkpt lat="47.17894" lon="3.01515">
        <ele>168.2689666748</ele>
        <time>2016-04-06T14:17:22.000Z</time>
      </trkpt>
      <trkpt lat="47.17895" lon="3.01516">
        <ele>168.40467834473</ele>
        <time>2016-04-06T14:17:25.000Z</time>
      </trkpt>
      <trkpt lat="47.17895" lon="3.01517">
        <ele>168.58854675293</ele>
        <time>2016-04-06T14:17:27.000Z</time>
      </trkpt>
      <trkpt lat="47.17896" lon="3.01518">
        <ele>168.82841491699</ele>
        <time>2016-04-06T14:17:29.000Z</time>
      </trkpt>
      <trkpt lat="47.17895" lon="3.01524">
        <ele>169.14248657227</ele>
        <time>2016-04-06T14:17:32.000Z</time>
      </trkpt>
      <trkpt lat="47.17893" lon="3.01529">
        <ele>169.46452331543</ele>
        <time>2016-04-06T14:17:35.000Z</time>
      </trkpt>
      <trkpt lat="47.17892" lon="3.01531">
        <ele>169.7712097168</ele>
        <time>2016-04-06T14:17:38.000Z</time>
      </trkpt>
      <trkpt lat="47.17889" lon="3.01532">
        <ele>170.0085144043</ele>
        <time>2016-04-06T14:17:40.000Z</time>
      </trkpt>
      <trkpt lat="47.17888" lon="3.01532">
        <ele>170.16235351562</ele>
        <time>2016-04-06T14:17:42.000Z</time>
      </trkpt>
      <trkpt lat="47.17887" lon="3.01533">
        <ele>170.1904296875</ele>
        <time>2016-04-06T14:17:45.000Z</time>
      </trkpt>
      <trkpt lat="47.17886" lon="3.01534">
        <ele>170.13777160645</ele>
        <time>2016-04-06T14:17:54.000Z</time>
      </trkpt>
      <trkpt lat="47.17884" lon="3.01534">
        <ele>170.03764343262</ele>
        <time>2016-04-06T14:17:57.000Z</time>
      </trkpt>
      <trkpt lat="47.17881" lon="3.01531">
        <ele>169.82374572754</ele>
        <time>2016-04-06T14:18:04.000Z</time>
      </trkpt>
      <trkpt lat="47.17883" lon="3.01532">
        <ele>169.67901611328</ele>
        <time>2016-04-06T14:18:07.000Z</time>
      </trkpt>
      <trkpt lat="47.17885" lon="3.01535">
        <ele>169.67997741699</ele>
        <time>2016-04-06T14:18:10.000Z</time>
      </trkpt>
      <trkpt lat="47.17887" lon="3.01536">
        <ele>169.75505065918</ele>
        <time>2016-04-06T14:18:12.000Z</time>
      </trkpt>
      <trkpt lat="47.17888" lon="3.01537">
        <ele>169.93008422852</ele>
        <time>2016-04-06T14:18:14.000Z</time>
      </trkpt>
      <trkpt lat="47.1789" lon="3.01539">
        <ele>170.33369445801</ele>
        <time>2016-04-06T14:18:17.000Z</time>
      </trkpt>
      <trkpt lat="47.17891" lon="3.0154">
        <ele>170.7442779541</ele>
        <time>2016-04-06T14:18:21.000Z</time>
      </trkpt>
      <trkpt lat="47.17894" lon="3.01546">
        <ele>171.26434326172</ele>
        <time>2016-04-06T14:18:28.000Z</time>
      </trkpt>
      <trkpt lat="47.17896" lon="3.01553">
        <ele>171.94519042969</ele>
        <time>2016-04-06T14:18:33.000Z</time>
      </trkpt>
      <trkpt lat="47.17896" lon="3.01558">
        <ele>172.66564941406</ele>
        <time>2016-04-06T14:18:38.000Z</time>
      </trkpt>
      <trkpt lat="47.17894" lon="3.01561">
        <ele>173.31951904297</ele>
        <time>2016-04-06T14:18:42.000Z</time>
      </trkpt>
      <trkpt lat="47.17893" lon="3.01561">
        <ele>173.86991882324</ele>
        <time>2016-04-06T14:18:54.000Z</time>
      </trkpt>
      <trkpt lat="47.17894" lon="3.01555">
        <ele>174.06216430664</ele>
        <time>2016-04-06T14:18:57.000Z</time>
      </trkpt>
      <trkpt lat="47.17893" lon="3.01552">
        <ele>173.92127990723</ele>
        <time>2016-04-06T14:18:59.000Z</time>
      </trkpt>
      <trkpt lat="47.17892" lon="3.0155">
        <ele>173.61599731445</ele>
        <time>2016-04-06T14:19:01.000Z</time>
      </trkpt>
      <trkpt lat="47.17893" lon="3.01547">
        <ele>173.23104858398</ele>
        <time>2016-04-06T14:19:04.000Z</time>
      </trkpt>
      <trkpt lat="47.17894" lon="3.01547">
        <ele>172.91708374023</ele>
        <time>2016-04-06T14:19:06.000Z</time>
      </trkpt>
      <trkpt lat="47.17895" lon="3.01547">
        <ele>172.76736450195</ele>
        <time>2016-04-06T14:19:10.000Z</time>
      </trkpt>
      <trkpt lat="47.17896" lon="3.01549">
        <ele>172.79702758789</ele>
        <time>2016-04-06T14:19:11.000Z</time>
      </trkpt>
      <trkpt lat="47.17897" lon="3.01552">
        <ele>173.00338745117</ele>
        <time>2016-04-06T14:19:13.000Z</time>
      </trkpt>
      <trkpt lat="47.17899" lon="3.01556">
        <ele>173.40493774414</ele>
        <time>2016-04-06T14:19:16.000Z</time>
      </trkpt>
      <trkpt lat="47.179" lon="3.01561">
        <ele>173.9239654541</ele>
        <time>2016-04-06T14:19:19.000Z</time>
      </trkpt>
      <trkpt lat="47.179" lon="3.01564">
        <ele>174.4768371582</ele>
        <time>2016-04-06T14:19:21.000Z</time>
      </trkpt>
      <trkpt lat="47.179" lon="3.01567">
        <ele>175.04064941406</ele>
        <time>2016-04-06T14:19:24.000Z</time>
      </trkpt>
      <trkpt lat="47.17898" lon="3.01569">
        <ele>175.48936462402</ele>
        <time>2016-04-06T14:19:27.000Z</time>
      </trkpt>
      <trkpt lat="47.17897" lon="3.01571">
        <ele>175.81910705566</ele>
        <time>2016-04-06T14:19:29.000Z</time>
      </trkpt>
      <trkpt lat="47.17896" lon="3.01572">
        <ele>175.99946594238</ele>
        <time>2016-04-06T14:19:32.000Z</time>
      </trkpt>
      <trkpt lat="47.17895" lon="3.01573">
        <ele>176.1078338623</ele>
        <time>2016-04-06T14:19:37.000Z</time>
      </trkpt>
      <trkpt lat="47.17896" lon="3.01573">
        <ele>176.15939331055</ele>
        <time>2016-04-06T14:19:46.000Z</time>
      </trkpt>
      <trkpt lat="47.17898" lon="3.01571">
        <ele>176.20915222168</ele>
        <time>2016-04-06T14:19:48.000Z</time>
      </trkpt>
      <trkpt lat="47.179" lon="3.01571">
        <ele>176.28744506836</ele>
        <time>2016-04-06T14:19:50.000Z</time>
      </trkpt>
      <trkpt lat="47.17902" lon="3.0157">
        <ele>176.43827819824</ele>
        <time>2016-04-06T14:19:53.000Z</time>
      </trkpt>
      <trkpt lat="47.17905" lon="3.0157">
        <ele>176.63896179199</ele>
        <time>2016-04-06T14:19:55.000Z</time>
      </trkpt>
      <trkpt lat="47.17907" lon="3.01568">
        <ele>176.85372924805</ele>
        <time>2016-04-06T14:19:58.000Z</time>
      </trkpt>
      <trkpt lat="47.17909" lon="3.01568">
        <ele>177.10467529297</ele>
        <time>2016-04-06T14:20:00.000Z</time>
      </trkpt>
      <trkpt lat="47.1791" lon="3.01568">
        <ele>177.35543823242</ele>
        <time>2016-04-06T14:20:03.000Z</time>
      </trkpt>
      <trkpt lat="47.17912" lon="3.01568">
        <ele>177.57202148438</ele>
        <time>2016-04-06T14:20:05.000Z</time>
      </trkpt>
      <trkpt lat="47.17912" lon="3.01568">
        <ele>177.57202148438</ele>
        <time>2016-04-06T14:20:41.000Z</time>
      </trkpt>
      <trkpt lat="47.17914" lon="3.01568">
        <ele>177.8317565918</ele>
        <time>2016-04-06T14:20:46.000Z</time>
      </trkpt>
      <trkpt lat="47.17916" lon="3.01567">
        <ele>178.0620880127</ele>
        <time>2016-04-06T14:20:47.000Z</time>
      </trkpt>
      <trkpt lat="47.17918" lon="3.01565">
        <ele>178.21536254883</ele>
        <time>2016-04-06T14:20:48.000Z</time>
      </trkpt>
      <trkpt lat="47.17919" lon="3.01562">
        <ele>178.25955200195</ele>
        <time>2016-04-06T14:20:48.000Z</time>
      </trkpt>
      <trkpt lat="47.17921" lon="3.01559">
        <ele>178.18760681152</ele>
        <time>2016-04-06T14:20:50.000Z</time>
      </trkpt>
      <trkpt lat="47.17921" lon="3.01557">
        <ele>177.98065185547</ele>
        <time>2016-04-06T14:20:51.000Z</time>
      </trkpt>
      <trkpt lat="47.1792" lon="3.01553">
        <ele>177.64192199707</ele>
        <time>2016-04-06T14:20:51.000Z</time>
      </trkpt>
      <trkpt lat="47.1792" lon="3.01552">
        <ele>177.28593444824</ele>
        <time>2016-04-06T14:20:51.000Z</time>
      </trkpt>
      <trkpt lat="47.17921" lon="3.0155">
        <ele>176.96310424805</ele>
        <time>2016-04-06T14:20:51.000Z</time>
      </trkpt>
      <trkpt lat="47.17921" lon="3.01549">
        <ele>176.70352172852</ele>
        <time>2016-04-06T14:20:51.000Z</time>
      </trkpt>
      <trkpt lat="47.17923" lon="3.0155">
        <ele>176.51077270508</ele>
        <time>2016-04-06T14:21:00.000Z</time>
      </trkpt>
      <trkpt lat="47.17923" lon="3.01551">
        <ele>176.48428344727</ele>
        <time>2016-04-06T14:21:10.000Z</time>
      </trkpt>
      <trkpt lat="47.17923" lon="3.01553">
        <ele>176.55395507812</ele>
        <time>2016-04-06T14:21:30.000Z</time>
      </trkpt>
      <trkpt lat="47.17922" lon="3.01555">
        <ele>176.7135925293</ele>
        <time>2016-04-06T14:21:33.000Z</time>
      </trkpt>
      <trkpt lat="47.17921" lon="3.01555">
        <ele>176.86010742188</ele>
        <time>2016-04-06T14:21:36.000Z</time>
      </trkpt>
      <trkpt lat="47.1792" lon="3.01558">
        <ele>177.06828308105</ele>
        <time>2016-04-06T14:21:40.000Z</time>
      </trkpt>
      <trkpt lat="47.17923" lon="3.01561">
        <ele>177.33749389648</ele>
        <time>2016-04-06T14:21:42.000Z</time>
      </trkpt>
      <trkpt lat="47.17924" lon="3.01562">
        <ele>177.60290527344</ele>
        <time>2016-04-06T14:21:45.000Z</time>
      </trkpt>
      <trkpt lat="47.17923" lon="3.01562">
        <ele>177.78477478027</ele>
        <time>2016-04-06T14:21:50.000Z</time>
      </trkpt>
      <trkpt lat="47.17919" lon="3.01563">
        <ele>177.99459838867</ele>
        <time>2016-04-06T14:21:52.000Z</time>
      </trkpt>
      <trkpt lat="47.17917" lon="3.01564">
        <ele>178.15211486816</ele>
        <time>2016-04-06T14:21:55.000Z</time>
      </trkpt>
      <trkpt lat="47.17915" lon="3.01566">
        <ele>178.18609619141</ele>
        <time>2016-04-06T14:21:58.000Z</time>
      </trkpt>
      <trkpt lat="47.17913" lon="3.01566">
        <ele>178.13981628418</ele>
        <time>2016-04-06T14:22:01.000Z</time>
      </trkpt>
      <trkpt lat="47.17912" lon="3.01566">
        <ele>178.05586242676</ele>
        <time>2016-04-06T14:22:04.000Z</time>
      </trkpt>
      <trkpt lat="47.17909" lon="3.01567">
        <ele>177.9340057373</ele>
        <time>2016-04-06T14:22:08.000Z</time>
      </trkpt>
      <trkpt lat="47.17908" lon="3.01568">
        <ele>177.75942993164</ele>
        <time>2016-04-06T14:22:09.000Z</time>
      </trkpt>
      <trkpt lat="47.17905" lon="3.0157">
        <ele>177.55249023438</ele>
        <time>2016-04-06T14:22:12.000Z</time>
      </trkpt>
      <trkpt lat="47.17902" lon="3.01565">
        <ele>177.15776062012</ele>
        <time>2016-04-06T14:22:15.000Z</time>
      </trkpt>
      <trkpt lat="47.179" lon="3.01559">
        <ele>176.6376953125</ele>
        <time>2016-04-06T14:22:18.000Z</time>
      </trkpt>
      <trkpt lat="47.17899" lon="3.01555">
        <ele>176.01821899414</ele>
        <time>2016-04-06T14:22:21.000Z</time>
      </trkpt>
      <trkpt lat="47.17898" lon="3.01549">
        <ele>175.23178100586</ele>
        <time>2016-04-06T14:22:24.000Z</time>
      </trkpt>
      <trkpt lat="47.17897" lon="3.01544">
        <ele>174.32705688477</ele>
        <time>2016-04-06T14:22:27.000Z</time>
      </trkpt>
      <trkpt lat="47.17896" lon="3.01543">
        <ele>173.607421875</ele>
        <time>2016-04-06T14:22:29.000Z</time>
      </trkpt>
      <trkpt lat="47.17895" lon="3.01545">
        <ele>173.08151245117</ele>
        <time>2016-04-06T14:22:32.000Z</time>
      </trkpt>
      <trkpt lat="47.17895" lon="3.0155">
        <ele>172.82913208008</ele>
        <time>2016-04-06T14:22:35.000Z</time>
      </trkpt>
      <trkpt lat="47.17897" lon="3.01554">
        <ele>172.95013427734</ele>
        <time>2016-04-06T14:22:40.000Z</time>
      </trkpt>
      <trkpt lat="47.17898" lon="3.01556">
        <ele>173.296875</ele>
        <time>2016-04-06T14:22:47.000Z</time>
      </trkpt>
      <trkpt lat="47.17892" lon="3.0156">
        <ele>173.6118927002</ele>
        <time>2016-04-06T14:22:52.000Z</time>
      </trkpt>
      <trkpt lat="47.17885" lon="3.0156">
        <ele>173.71321105957</ele>
        <time>2016-04-06T14:22:56.000Z</time>
      </trkpt>
      <trkpt lat="47.17881" lon="3.01559">
        <ele>173.51472473145</ele>
        <time>2016-04-06T14:22:58.000Z</time>
      </trkpt>
      <trkpt lat="47.17877" lon="3.01561">
        <ele>173.07632446289</ele>
        <time>2016-04-06T14:23:00.000Z</time>
      </trkpt>
      <trkpt lat="47.17874" lon="3.01568">
        <ele>172.65628051758</ele>
        <time>2016-04-06T14:23:03.000Z</time>
      </trkpt>
      <trkpt lat="47.17874" lon="3.01574">
        <ele>172.41342163086</ele>
        <time>2016-04-06T14:23:05.000Z</time>
      </trkpt>
      <trkpt lat="47.17875" lon="3.01578">
        <ele>172.50987243652</ele>
        <time>2016-04-06T14:23:07.000Z</time>
      </trkpt>
      <trkpt lat="47.17876" lon="3.01586">
        <ele>172.9379119873</ele>
        <time>2016-04-06T14:23:10.000Z</time>
      </trkpt>
      <trkpt lat="47.17877" lon="3.01588">
        <ele>173.44132995605</ele>
        <time>2016-04-06T14:23:12.000Z</time>
      </trkpt>
      <trkpt lat="47.17876" lon="3.01598">
        <ele>173.88650512695</ele>
        <time>2016-04-06T14:23:15.000Z</time>
      </trkpt>
      <trkpt lat="47.17876" lon="3.01603">
        <ele>174.21481323242</ele>
        <time>2016-04-06T14:23:17.000Z</time>
      </trkpt>
      <trkpt lat="47.17875" lon="3.01609">
        <ele>174.39231872559</ele>
        <time>2016-04-06T14:23:20.000Z</time>
      </trkpt>
      <trkpt lat="47.17872" lon="3.0161">
        <ele>174.34042358398</ele>
        <time>2016-04-06T14:23:22.000Z</time>
      </trkpt>
      <trkpt lat="47.1787" lon="3.01611">
        <ele>174.171875</ele>
        <time>2016-04-06T14:23:26.000Z</time>
      </trkpt>
      <trkpt lat="47.17865" lon="3.01613">
        <ele>173.83483886719</ele>
        <time>2016-04-06T14:23:28.000Z</time>
      </trkpt>
      <trkpt lat="47.17859" lon="3.01614">
        <ele>173.31216430664</ele>
        <time>2016-04-06T14:23:31.000Z</time>
      </trkpt>
      <trkpt lat="47.17857" lon="3.01615">
        <ele>172.71591186523</ele>
        <time>2016-04-06T14:23:33.000Z</time>
      </trkpt>
      <trkpt lat="47.17854" lon="3.01616">
        <ele>172.08963012695</ele>
        <time>2016-04-06T14:23:37.000Z</time>
      </trkpt>
      <trkpt lat="47.17851" lon="3.01618">
        <ele>171.46499633789</ele>
        <time>2016-04-06T14:23:38.000Z</time>
      </trkpt>
      <trkpt lat="47.17847" lon="3.01619">
        <ele>170.85185241699</ele>
        <time>2016-04-06T14:23:41.000Z</time>
      </trkpt>
      <trkpt lat="47.17843" lon="3.0162">
        <ele>170.3215637207</ele>
        <time>2016-04-06T14:23:44.000Z</time>
      </trkpt>
      <trkpt lat="47.17841" lon="3.01622">
        <ele>169.79275512695</ele>
        <time>2016-04-06T14:23:46.000Z</time>
      </trkpt>
      <trkpt lat="47.1784" lon="3.01625">
        <ele>169.35409545898</ele>
        <time>2016-04-06T14:23:49.000Z</time>
      </trkpt>
      <trkpt lat="47.1784" lon="3.01627">
        <ele>169.01333618164</ele>
        <time>2016-04-06T14:23:51.000Z</time>
      </trkpt>
      <trkpt lat="47.17841" lon="3.01631">
        <ele>168.84625244141</ele>
        <time>2016-04-06T14:23:53.000Z</time>
      </trkpt>
      <trkpt lat="47.17842" lon="3.01636">
        <ele>168.85900878906</ele>
        <time>2016-04-06T14:23:55.000Z</time>
      </trkpt>
      <trkpt lat="47.17844" lon="3.01643">
        <ele>169.0145111084</ele>
        <time>2016-04-06T14:23:58.000Z</time>
      </trkpt>
      <trkpt lat="47.17844" lon="3.01647">
        <ele>169.18524169922</ele>
        <time>2016-04-06T14:24:00.000Z</time>
      </trkpt>
      <trkpt lat="47.17845" lon="3.01653">
        <ele>169.42477416992</ele>
        <time>2016-04-06T14:24:03.000Z</time>
      </trkpt>
      <trkpt lat="47.17845" lon="3.01655">
        <ele>169.63293457031</ele>
        <time>2016-04-06T14:24:05.000Z</time>
      </trkpt>
      <trkpt lat="47.17846" lon="3.01659">
        <ele>169.81311035156</ele>
        <time>2016-04-06T14:24:07.000Z</time>
      </trkpt>
      <trkpt lat="47.17847" lon="3.01662">
        <ele>170.01171875</ele>
        <time>2016-04-06T14:24:11.000Z</time>
      </trkpt>
      <trkpt lat="47.17846" lon="3.01672">
        <ele>170.21047973633</ele>
        <time>2016-04-06T14:24:13.000Z</time>
      </trkpt>
      <trkpt lat="47.17845" lon="3.01677">
        <ele>170.35105895996</ele>
        <time>2016-04-06T14:24:16.000Z</time>
      </trkpt>
      <trkpt lat="47.17844" lon="3.01681">
        <ele>170.50093078613</ele>
        <time>2016-04-06T14:24:23.000Z</time>
      </trkpt>
      <trkpt lat="47.17844" lon="3.01682">
        <ele>170.64137268066</ele>
        <time>2016-04-06T14:24:27.000Z</time>
      </trkpt>
      <trkpt lat="47.17847" lon="3.01689">
        <ele>170.89883422852</ele>
        <time>2016-04-06T14:24:35.000Z</time>
      </trkpt>
      <trkpt lat="47.17852" lon="3.01691">
        <ele>171.31611633301</ele>
        <time>2016-04-06T14:24:36.000Z</time>
      </trkpt>
      <trkpt lat="47.17853" lon="3.01694">
        <ele>171.80308532715</ele>
        <time>2016-04-06T14:24:36.000Z</time>
      </trkpt>
      <trkpt lat="47.17855" lon="3.01697">
        <ele>172.35873413086</ele>
        <time>2016-04-06T14:24:36.000Z</time>
      </trkpt>
      <trkpt lat="47.17855" lon="3.01697">
        <ele>172.35873413086</ele>
        <time>2016-04-06T14:24:46.000Z</time>
      </trkpt>
    </trkseg>
  </trk>
</gpx>